<?xml version="1.0" encoding="UTF-8" standalone="no" ?>
<gpx xmlns="http://www.topografix.com/GPX/1/1" xmlns:xsi="http://www.w3.org/2001/XMLSchema-instance" xsi:schemaLocation="http://www.topografix.com/GPX/1/1 http://www.topografix.com/GPX/1/1/gpx.xsd" version="1.1" creator="VisuGPX - https://www.visugpx.com">
  <metadata>
    <name>orléans / meung</name>
    <desc><![CDATA[parcours Orléans / Meung sur Loire puis retour]]></desc>
  </metadata>
  <trk>
    <name><![CDATA[orléans / meung_1]]></name>
    <trkseg>
      <trkpt lat="47.89703" lon="1.8763">
        <ele>100.89</ele>
        <time>2016-02-28T08:13:16.000Z</time>
      </trkpt>
      <trkpt lat="47.89703" lon="1.8763">
        <ele>100.89</ele>
        <time>2016-02-28T08:13:18.000Z</time>
      </trkpt>
      <trkpt lat="47.89697" lon="1.8763">
        <ele>100.89</ele>
        <time>2016-02-28T08:13:20.000Z</time>
      </trkpt>
      <trkpt lat="47.89692" lon="1.87629">
        <ele>100.89</ele>
        <time>2016-02-28T08:13:22.000Z</time>
      </trkpt>
      <trkpt lat="47.89686" lon="1.87628">
        <ele>100.89</ele>
        <time>2016-02-28T08:13:24.000Z</time>
      </trkpt>
      <trkpt lat="47.8968" lon="1.87628">
        <ele>100.89</ele>
        <time>2016-02-28T08:13:26.000Z</time>
      </trkpt>
      <trkpt lat="47.89674" lon="1.87627">
        <ele>100.89</ele>
        <time>2016-02-28T08:13:28.000Z</time>
      </trkpt>
      <trkpt lat="47.89667" lon="1.87627">
        <ele>100.89</ele>
        <time>2016-02-28T08:13:30.000Z</time>
      </trkpt>
      <trkpt lat="47.89661" lon="1.87626">
        <ele>100.89</ele>
        <time>2016-02-28T08:13:32.000Z</time>
      </trkpt>
      <trkpt lat="47.89654" lon="1.87626">
        <ele>100.89</ele>
        <time>2016-02-28T08:13:34.000Z</time>
      </trkpt>
      <trkpt lat="47.89647" lon="1.87625">
        <ele>99.97</ele>
        <time>2016-02-28T08:13:36.000Z</time>
      </trkpt>
      <trkpt lat="47.8964" lon="1.87625">
        <ele>99.97</ele>
        <time>2016-02-28T08:13:38.000Z</time>
      </trkpt>
      <trkpt lat="47.89634" lon="1.87624">
        <ele>99.97</ele>
        <time>2016-02-28T08:13:40.000Z</time>
      </trkpt>
      <trkpt lat="47.89626" lon="1.87624">
        <ele>99.97</ele>
        <time>2016-02-28T08:13:42.000Z</time>
      </trkpt>
      <trkpt lat="47.89618" lon="1.87624">
        <ele>99.97</ele>
        <time>2016-02-28T08:13:44.000Z</time>
      </trkpt>
      <trkpt lat="47.8961" lon="1.87623">
        <ele>99.97</ele>
        <time>2016-02-28T08:13:46.000Z</time>
      </trkpt>
      <trkpt lat="47.89602" lon="1.87622">
        <ele>99.97</ele>
        <time>2016-02-28T08:13:48.000Z</time>
      </trkpt>
      <trkpt lat="47.89594" lon="1.87621">
        <ele>99.97</ele>
        <time>2016-02-28T08:13:50.000Z</time>
      </trkpt>
      <trkpt lat="47.89586" lon="1.87621">
        <ele>99.97</ele>
        <time>2016-02-28T08:13:52.000Z</time>
      </trkpt>
      <trkpt lat="47.89577" lon="1.8762">
        <ele>99.97</ele>
        <time>2016-02-28T08:13:54.000Z</time>
      </trkpt>
      <trkpt lat="47.89568" lon="1.87619">
        <ele>99.97</ele>
        <time>2016-02-28T08:13:56.000Z</time>
      </trkpt>
      <trkpt lat="47.89559" lon="1.87619">
        <ele>99.97</ele>
        <time>2016-02-28T08:13:58.000Z</time>
      </trkpt>
      <trkpt lat="47.8955" lon="1.87618">
        <ele>99.06</ele>
        <time>2016-02-28T08:14:00.000Z</time>
      </trkpt>
      <trkpt lat="47.89541" lon="1.87618">
        <ele>99.06</ele>
        <time>2016-02-28T08:14:02.000Z</time>
      </trkpt>
      <trkpt lat="47.89531" lon="1.87617">
        <ele>99.06</ele>
        <time>2016-02-28T08:14:04.000Z</time>
      </trkpt>
      <trkpt lat="47.89521" lon="1.87617">
        <ele>99.06</ele>
        <time>2016-02-28T08:14:06.000Z</time>
      </trkpt>
      <trkpt lat="47.89511" lon="1.87616">
        <ele>99.06</ele>
        <time>2016-02-28T08:14:08.000Z</time>
      </trkpt>
      <trkpt lat="47.89501" lon="1.87615">
        <ele>99.06</ele>
        <time>2016-02-28T08:14:10.000Z</time>
      </trkpt>
      <trkpt lat="47.89491" lon="1.87614">
        <ele>99.06</ele>
        <time>2016-02-28T08:14:12.000Z</time>
      </trkpt>
      <trkpt lat="47.8948" lon="1.87614">
        <ele>99.06</ele>
        <time>2016-02-28T08:14:14.000Z</time>
      </trkpt>
      <trkpt lat="47.89469" lon="1.87613">
        <ele>98.15</ele>
        <time>2016-02-28T08:14:16.000Z</time>
      </trkpt>
      <trkpt lat="47.89458" lon="1.87613">
        <ele>98.15</ele>
        <time>2016-02-28T08:14:18.000Z</time>
      </trkpt>
      <trkpt lat="47.89445" lon="1.87613">
        <ele>98.15</ele>
        <time>2016-02-28T08:14:20.000Z</time>
      </trkpt>
      <trkpt lat="47.89433" lon="1.87612">
        <ele>98.15</ele>
        <time>2016-02-28T08:14:22.000Z</time>
      </trkpt>
      <trkpt lat="47.89419" lon="1.87613">
        <ele>98.15</ele>
        <time>2016-02-28T08:14:24.000Z</time>
      </trkpt>
      <trkpt lat="47.89405" lon="1.87613">
        <ele>96.01</ele>
        <time>2016-02-28T08:14:26.000Z</time>
      </trkpt>
      <trkpt lat="47.8939" lon="1.87611">
        <ele>96.01</ele>
        <time>2016-02-28T08:14:28.000Z</time>
      </trkpt>
      <trkpt lat="47.89375" lon="1.87609">
        <ele>96.01</ele>
        <time>2016-02-28T08:14:30.000Z</time>
      </trkpt>
      <trkpt lat="47.8936" lon="1.87609">
        <ele>96.01</ele>
        <time>2016-02-28T08:14:32.000Z</time>
      </trkpt>
      <trkpt lat="47.89345" lon="1.87607">
        <ele>96.01</ele>
        <time>2016-02-28T08:14:34.000Z</time>
      </trkpt>
      <trkpt lat="47.89335" lon="1.87606">
        <ele>95.1</ele>
        <time>2016-02-28T08:14:36.000Z</time>
      </trkpt>
      <trkpt lat="47.89329" lon="1.87602">
        <ele>95.1</ele>
        <time>2016-02-28T08:14:38.000Z</time>
      </trkpt>
      <trkpt lat="47.89323" lon="1.87597">
        <ele>95.1</ele>
        <time>2016-02-28T08:14:40.000Z</time>
      </trkpt>
      <trkpt lat="47.89318" lon="1.87591">
        <ele>93.88</ele>
        <time>2016-02-28T08:14:42.000Z</time>
      </trkpt>
      <trkpt lat="47.89312" lon="1.87586">
        <ele>93.88</ele>
        <time>2016-02-28T08:14:44.000Z</time>
      </trkpt>
      <trkpt lat="47.89306" lon="1.8758">
        <ele>93.88</ele>
        <time>2016-02-28T08:14:46.000Z</time>
      </trkpt>
      <trkpt lat="47.89299" lon="1.87573">
        <ele>93.88</ele>
        <time>2016-02-28T08:14:48.000Z</time>
      </trkpt>
      <trkpt lat="47.89292" lon="1.87567">
        <ele>92.05</ele>
        <time>2016-02-28T08:14:50.000Z</time>
      </trkpt>
      <trkpt lat="47.89286" lon="1.87561">
        <ele>92.05</ele>
        <time>2016-02-28T08:14:52.000Z</time>
      </trkpt>
      <trkpt lat="47.89279" lon="1.87553">
        <ele>92.05</ele>
        <time>2016-02-28T08:14:54.000Z</time>
      </trkpt>
      <trkpt lat="47.89273" lon="1.87554">
        <ele>92.05</ele>
        <time>2016-02-28T08:14:56.000Z</time>
      </trkpt>
      <trkpt lat="47.89272" lon="1.87564">
        <ele>92.05</ele>
        <time>2016-02-28T08:14:58.000Z</time>
      </trkpt>
      <trkpt lat="47.89273" lon="1.87574">
        <ele>92.05</ele>
        <time>2016-02-28T08:15:00.000Z</time>
      </trkpt>
      <trkpt lat="47.89273" lon="1.87584">
        <ele>92.05</ele>
        <time>2016-02-28T08:15:02.000Z</time>
      </trkpt>
      <trkpt lat="47.89273" lon="1.87593">
        <ele>92.05</ele>
        <time>2016-02-28T08:15:04.000Z</time>
      </trkpt>
      <trkpt lat="47.89273" lon="1.87603">
        <ele>91.14</ele>
        <time>2016-02-28T08:15:06.000Z</time>
      </trkpt>
      <trkpt lat="47.89273" lon="1.87612">
        <ele>91.14</ele>
        <time>2016-02-28T08:15:08.000Z</time>
      </trkpt>
      <trkpt lat="47.89273" lon="1.87622">
        <ele>91.14</ele>
        <time>2016-02-28T08:15:10.000Z</time>
      </trkpt>
      <trkpt lat="47.89273" lon="1.87632">
        <ele>91.14</ele>
        <time>2016-02-28T08:15:12.000Z</time>
      </trkpt>
      <trkpt lat="47.89273" lon="1.87642">
        <ele>91.14</ele>
        <time>2016-02-28T08:15:14.000Z</time>
      </trkpt>
      <trkpt lat="47.89273" lon="1.87652">
        <ele>91.14</ele>
        <time>2016-02-28T08:15:16.000Z</time>
      </trkpt>
      <trkpt lat="47.89273" lon="1.87662">
        <ele>91.14</ele>
        <time>2016-02-28T08:15:18.000Z</time>
      </trkpt>
      <trkpt lat="47.89272" lon="1.87671">
        <ele>91.14</ele>
        <time>2016-02-28T08:15:20.000Z</time>
      </trkpt>
      <trkpt lat="47.89274" lon="1.8768">
        <ele>91.14</ele>
        <time>2016-02-28T08:15:22.000Z</time>
      </trkpt>
      <trkpt lat="47.89275" lon="1.87684">
        <ele>91.14</ele>
        <time>2016-02-28T08:15:24.000Z</time>
      </trkpt>
      <trkpt lat="47.89276" lon="1.87684">
        <ele>91.14</ele>
        <time>2016-02-28T08:15:26.000Z</time>
      </trkpt>
      <trkpt lat="47.89276" lon="1.87684">
        <ele>91.14</ele>
        <time>2016-02-28T08:15:28.000Z</time>
      </trkpt>
      <trkpt lat="47.89277" lon="1.87684">
        <ele>91.14</ele>
        <time>2016-02-28T08:15:30.000Z</time>
      </trkpt>
      <trkpt lat="47.89277" lon="1.87684">
        <ele>91.14</ele>
        <time>2016-02-28T08:15:32.000Z</time>
      </trkpt>
      <trkpt lat="47.89279" lon="1.87684">
        <ele>91.14</ele>
        <time>2016-02-28T08:15:34.000Z</time>
      </trkpt>
      <trkpt lat="47.89282" lon="1.87681">
        <ele>91.14</ele>
        <time>2016-02-28T08:15:36.000Z</time>
      </trkpt>
      <trkpt lat="47.89286" lon="1.87677">
        <ele>91.14</ele>
        <time>2016-02-28T08:15:38.000Z</time>
      </trkpt>
      <trkpt lat="47.89291" lon="1.87672">
        <ele>91.14</ele>
        <time>2016-02-28T08:15:40.000Z</time>
      </trkpt>
      <trkpt lat="47.89295" lon="1.87669">
        <ele>91.14</ele>
        <time>2016-02-28T08:15:42.000Z</time>
      </trkpt>
      <trkpt lat="47.89299" lon="1.87666">
        <ele>91.14</ele>
        <time>2016-02-28T08:15:44.000Z</time>
      </trkpt>
      <trkpt lat="47.89303" lon="1.87662">
        <ele>92.05</ele>
        <time>2016-02-28T08:15:46.000Z</time>
      </trkpt>
      <trkpt lat="47.89307" lon="1.87659">
        <ele>92.05</ele>
        <time>2016-02-28T08:15:48.000Z</time>
      </trkpt>
      <trkpt lat="47.89309" lon="1.87657">
        <ele>92.05</ele>
        <time>2016-02-28T08:15:50.000Z</time>
      </trkpt>
      <trkpt lat="47.89315" lon="1.87652">
        <ele>92.05</ele>
        <time>2016-02-28T08:15:52.000Z</time>
      </trkpt>
      <trkpt lat="47.89319" lon="1.8765">
        <ele>92.05</ele>
        <time>2016-02-28T08:15:54.000Z</time>
      </trkpt>
      <trkpt lat="47.89323" lon="1.87647">
        <ele>92.96</ele>
        <time>2016-02-28T08:15:56.000Z</time>
      </trkpt>
      <trkpt lat="47.89326" lon="1.87645">
        <ele>92.96</ele>
        <time>2016-02-28T08:15:58.000Z</time>
      </trkpt>
      <trkpt lat="47.89329" lon="1.87643">
        <ele>92.96</ele>
        <time>2016-02-28T08:16:00.000Z</time>
      </trkpt>
      <trkpt lat="47.89331" lon="1.87642">
        <ele>92.96</ele>
        <time>2016-02-28T08:16:02.000Z</time>
      </trkpt>
      <trkpt lat="47.89333" lon="1.87641">
        <ele>92.96</ele>
        <time>2016-02-28T08:16:04.000Z</time>
      </trkpt>
      <trkpt lat="47.89334" lon="1.8764">
        <ele>92.96</ele>
        <time>2016-02-28T08:16:06.000Z</time>
      </trkpt>
      <trkpt lat="47.89335" lon="1.8764">
        <ele>92.96</ele>
        <time>2016-02-28T08:16:08.000Z</time>
      </trkpt>
      <trkpt lat="47.89335" lon="1.8764">
        <ele>92.96</ele>
        <time>2016-02-28T08:16:10.000Z</time>
      </trkpt>
      <trkpt lat="47.89335" lon="1.8764">
        <ele>92.96</ele>
        <time>2016-02-28T08:16:12.000Z</time>
      </trkpt>
      <trkpt lat="47.89335" lon="1.87641">
        <ele>92.96</ele>
        <time>2016-02-28T08:16:14.000Z</time>
      </trkpt>
      <trkpt lat="47.89335" lon="1.8764">
        <ele>92.96</ele>
        <time>2016-02-28T08:16:16.000Z</time>
      </trkpt>
      <trkpt lat="47.89336" lon="1.87639">
        <ele>92.96</ele>
        <time>2016-02-28T08:16:18.000Z</time>
      </trkpt>
      <trkpt lat="47.89336" lon="1.87638">
        <ele>92.96</ele>
        <time>2016-02-28T08:16:20.000Z</time>
      </trkpt>
      <trkpt lat="47.89338" lon="1.87638">
        <ele>92.96</ele>
        <time>2016-02-28T08:16:22.000Z</time>
      </trkpt>
      <trkpt lat="47.89341" lon="1.87639">
        <ele>92.96</ele>
        <time>2016-02-28T08:16:24.000Z</time>
      </trkpt>
      <trkpt lat="47.89343" lon="1.87639">
        <ele>92.96</ele>
        <time>2016-02-28T08:16:26.000Z</time>
      </trkpt>
      <trkpt lat="47.89345" lon="1.87639">
        <ele>92.96</ele>
        <time>2016-02-28T08:16:28.000Z</time>
      </trkpt>
      <trkpt lat="47.89347" lon="1.8764">
        <ele>92.96</ele>
        <time>2016-02-28T08:16:30.000Z</time>
      </trkpt>
      <trkpt lat="47.89349" lon="1.87639">
        <ele>92.96</ele>
        <time>2016-02-28T08:16:32.000Z</time>
      </trkpt>
      <trkpt lat="47.89352" lon="1.87639">
        <ele>92.96</ele>
        <time>2016-02-28T08:16:34.000Z</time>
      </trkpt>
      <trkpt lat="47.89354" lon="1.87639">
        <ele>92.96</ele>
        <time>2016-02-28T08:16:36.000Z</time>
      </trkpt>
      <trkpt lat="47.89357" lon="1.87639">
        <ele>92.96</ele>
        <time>2016-02-28T08:16:38.000Z</time>
      </trkpt>
      <trkpt lat="47.8936" lon="1.8764">
        <ele>92.96</ele>
        <time>2016-02-28T08:16:40.000Z</time>
      </trkpt>
      <trkpt lat="47.89363" lon="1.8764">
        <ele>92.96</ele>
        <time>2016-02-28T08:16:42.000Z</time>
      </trkpt>
      <trkpt lat="47.89365" lon="1.8764">
        <ele>92.96</ele>
        <time>2016-02-28T08:16:44.000Z</time>
      </trkpt>
      <trkpt lat="47.89369" lon="1.8764">
        <ele>93.88</ele>
        <time>2016-02-28T08:16:46.000Z</time>
      </trkpt>
      <trkpt lat="47.8937" lon="1.87641">
        <ele>93.88</ele>
        <time>2016-02-28T08:16:48.000Z</time>
      </trkpt>
      <trkpt lat="47.89373" lon="1.87641">
        <ele>93.88</ele>
        <time>2016-02-28T08:16:50.000Z</time>
      </trkpt>
      <trkpt lat="47.89376" lon="1.87641">
        <ele>93.88</ele>
        <time>2016-02-28T08:16:52.000Z</time>
      </trkpt>
      <trkpt lat="47.89378" lon="1.87641">
        <ele>93.88</ele>
        <time>2016-02-28T08:16:54.000Z</time>
      </trkpt>
      <trkpt lat="47.89381" lon="1.87641">
        <ele>93.88</ele>
        <time>2016-02-28T08:16:56.000Z</time>
      </trkpt>
      <trkpt lat="47.89384" lon="1.87641">
        <ele>93.88</ele>
        <time>2016-02-28T08:16:58.000Z</time>
      </trkpt>
      <trkpt lat="47.89386" lon="1.87641">
        <ele>93.88</ele>
        <time>2016-02-28T08:17:00.000Z</time>
      </trkpt>
      <trkpt lat="47.89389" lon="1.87642">
        <ele>93.88</ele>
        <time>2016-02-28T08:17:02.000Z</time>
      </trkpt>
      <trkpt lat="47.89392" lon="1.87642">
        <ele>93.88</ele>
        <time>2016-02-28T08:17:04.000Z</time>
      </trkpt>
      <trkpt lat="47.89394" lon="1.87642">
        <ele>93.88</ele>
        <time>2016-02-28T08:17:06.000Z</time>
      </trkpt>
      <trkpt lat="47.89396" lon="1.87642">
        <ele>93.88</ele>
        <time>2016-02-28T08:17:08.000Z</time>
      </trkpt>
      <trkpt lat="47.89397" lon="1.87642">
        <ele>93.88</ele>
        <time>2016-02-28T08:17:10.000Z</time>
      </trkpt>
      <trkpt lat="47.89399" lon="1.87643">
        <ele>93.88</ele>
        <time>2016-02-28T08:17:12.000Z</time>
      </trkpt>
      <trkpt lat="47.89401" lon="1.87643">
        <ele>93.88</ele>
        <time>2016-02-28T08:17:14.000Z</time>
      </trkpt>
      <trkpt lat="47.89403" lon="1.87643">
        <ele>95.1</ele>
        <time>2016-02-28T08:17:16.000Z</time>
      </trkpt>
      <trkpt lat="47.89405" lon="1.87643">
        <ele>95.1</ele>
        <time>2016-02-28T08:17:18.000Z</time>
      </trkpt>
      <trkpt lat="47.89407" lon="1.87644">
        <ele>95.1</ele>
        <time>2016-02-28T08:17:20.000Z</time>
      </trkpt>
      <trkpt lat="47.89408" lon="1.87645">
        <ele>95.1</ele>
        <time>2016-02-28T08:17:22.000Z</time>
      </trkpt>
      <trkpt lat="47.89409" lon="1.87644">
        <ele>95.1</ele>
        <time>2016-02-28T08:17:24.000Z</time>
      </trkpt>
      <trkpt lat="47.8941" lon="1.87643">
        <ele>95.1</ele>
        <time>2016-02-28T08:17:26.000Z</time>
      </trkpt>
      <trkpt lat="47.8941" lon="1.87642">
        <ele>95.1</ele>
        <time>2016-02-28T08:17:28.000Z</time>
      </trkpt>
      <trkpt lat="47.8941" lon="1.87642">
        <ele>95.1</ele>
        <time>2016-02-28T08:17:30.000Z</time>
      </trkpt>
      <trkpt lat="47.8941" lon="1.87642">
        <ele>95.1</ele>
        <time>2016-02-28T08:17:32.000Z</time>
      </trkpt>
      <trkpt lat="47.8941" lon="1.87642">
        <ele>95.1</ele>
        <time>2016-02-28T08:17:34.000Z</time>
      </trkpt>
      <trkpt lat="47.8941" lon="1.87642">
        <ele>95.1</ele>
        <time>2016-02-28T08:17:36.000Z</time>
      </trkpt>
      <trkpt lat="47.8941" lon="1.87642">
        <ele>95.1</ele>
        <time>2016-02-28T08:17:38.000Z</time>
      </trkpt>
      <trkpt lat="47.8941" lon="1.87642">
        <ele>95.1</ele>
        <time>2016-02-28T08:17:40.000Z</time>
      </trkpt>
      <trkpt lat="47.8941" lon="1.87642">
        <ele>95.1</ele>
        <time>2016-02-28T08:17:42.000Z</time>
      </trkpt>
      <trkpt lat="47.8941" lon="1.87642">
        <ele>95.1</ele>
        <time>2016-02-28T08:17:44.000Z</time>
      </trkpt>
      <trkpt lat="47.8941" lon="1.87642">
        <ele>95.1</ele>
        <time>2016-02-28T08:17:46.000Z</time>
      </trkpt>
      <trkpt lat="47.8941" lon="1.87642">
        <ele>95.1</ele>
        <time>2016-02-28T08:17:48.000Z</time>
      </trkpt>
      <trkpt lat="47.89409" lon="1.87642">
        <ele>95.1</ele>
        <time>2016-02-28T08:17:50.000Z</time>
      </trkpt>
      <trkpt lat="47.89409" lon="1.87642">
        <ele>95.1</ele>
        <time>2016-02-28T08:17:52.000Z</time>
      </trkpt>
      <trkpt lat="47.89409" lon="1.87641">
        <ele>95.1</ele>
        <time>2016-02-28T08:17:54.000Z</time>
      </trkpt>
      <trkpt lat="47.89409" lon="1.87641">
        <ele>95.1</ele>
        <time>2016-02-28T08:17:56.000Z</time>
      </trkpt>
      <trkpt lat="47.89409" lon="1.87641">
        <ele>95.1</ele>
        <time>2016-02-28T08:17:58.000Z</time>
      </trkpt>
      <trkpt lat="47.89409" lon="1.87641">
        <ele>95.1</ele>
        <time>2016-02-28T08:18:00.000Z</time>
      </trkpt>
      <trkpt lat="47.89409" lon="1.8764">
        <ele>95.1</ele>
        <time>2016-02-28T08:18:02.000Z</time>
      </trkpt>
      <trkpt lat="47.89409" lon="1.8764">
        <ele>95.1</ele>
        <time>2016-02-28T08:18:04.000Z</time>
      </trkpt>
      <trkpt lat="47.89409" lon="1.8764">
        <ele>95.1</ele>
        <time>2016-02-28T08:18:06.000Z</time>
      </trkpt>
      <trkpt lat="47.89409" lon="1.87639">
        <ele>95.1</ele>
        <time>2016-02-28T08:18:08.000Z</time>
      </trkpt>
      <trkpt lat="47.89409" lon="1.87639">
        <ele>95.1</ele>
        <time>2016-02-28T08:18:10.000Z</time>
      </trkpt>
      <trkpt lat="47.89409" lon="1.87639">
        <ele>95.1</ele>
        <time>2016-02-28T08:18:12.000Z</time>
      </trkpt>
      <trkpt lat="47.89409" lon="1.87638">
        <ele>95.1</ele>
        <time>2016-02-28T08:18:14.000Z</time>
      </trkpt>
      <trkpt lat="47.89409" lon="1.87638">
        <ele>95.1</ele>
        <time>2016-02-28T08:18:16.000Z</time>
      </trkpt>
      <trkpt lat="47.89409" lon="1.87637">
        <ele>95.1</ele>
        <time>2016-02-28T08:18:18.000Z</time>
      </trkpt>
      <trkpt lat="47.89409" lon="1.87637">
        <ele>95.1</ele>
        <time>2016-02-28T08:18:20.000Z</time>
      </trkpt>
      <trkpt lat="47.89409" lon="1.87637">
        <ele>95.1</ele>
        <time>2016-02-28T08:18:22.000Z</time>
      </trkpt>
      <trkpt lat="47.89409" lon="1.87637">
        <ele>95.1</ele>
        <time>2016-02-28T08:18:24.000Z</time>
      </trkpt>
      <trkpt lat="47.89409" lon="1.87637">
        <ele>95.1</ele>
        <time>2016-02-28T08:18:26.000Z</time>
      </trkpt>
      <trkpt lat="47.89408" lon="1.87637">
        <ele>95.1</ele>
        <time>2016-02-28T08:18:28.000Z</time>
      </trkpt>
      <trkpt lat="47.89408" lon="1.87637">
        <ele>95.1</ele>
        <time>2016-02-28T08:18:30.000Z</time>
      </trkpt>
      <trkpt lat="47.89408" lon="1.87637">
        <ele>95.1</ele>
        <time>2016-02-28T08:18:32.000Z</time>
      </trkpt>
      <trkpt lat="47.89408" lon="1.87637">
        <ele>95.1</ele>
        <time>2016-02-28T08:18:34.000Z</time>
      </trkpt>
      <trkpt lat="47.89408" lon="1.87637">
        <ele>95.1</ele>
        <time>2016-02-28T08:18:36.000Z</time>
      </trkpt>
      <trkpt lat="47.89408" lon="1.87637">
        <ele>95.1</ele>
        <time>2016-02-28T08:18:38.000Z</time>
      </trkpt>
      <trkpt lat="47.89408" lon="1.87637">
        <ele>95.1</ele>
        <time>2016-02-28T08:18:40.000Z</time>
      </trkpt>
      <trkpt lat="47.89408" lon="1.87637">
        <ele>95.1</ele>
        <time>2016-02-28T08:18:42.000Z</time>
      </trkpt>
      <trkpt lat="47.89408" lon="1.87637">
        <ele>95.1</ele>
        <time>2016-02-28T08:18:44.000Z</time>
      </trkpt>
      <trkpt lat="47.89408" lon="1.87637">
        <ele>95.1</ele>
        <time>2016-02-28T08:18:46.000Z</time>
      </trkpt>
      <trkpt lat="47.89408" lon="1.87637">
        <ele>95.1</ele>
        <time>2016-02-28T08:18:48.000Z</time>
      </trkpt>
      <trkpt lat="47.89408" lon="1.87637">
        <ele>95.1</ele>
        <time>2016-02-28T08:18:50.000Z</time>
      </trkpt>
      <trkpt lat="47.89408" lon="1.87637">
        <ele>95.1</ele>
        <time>2016-02-28T08:18:52.000Z</time>
      </trkpt>
      <trkpt lat="47.89408" lon="1.87637">
        <ele>95.1</ele>
        <time>2016-02-28T08:18:54.000Z</time>
      </trkpt>
      <trkpt lat="47.89408" lon="1.87637">
        <ele>95.1</ele>
        <time>2016-02-28T08:18:56.000Z</time>
      </trkpt>
      <trkpt lat="47.89408" lon="1.87637">
        <ele>95.1</ele>
        <time>2016-02-28T08:18:58.000Z</time>
      </trkpt>
      <trkpt lat="47.89408" lon="1.87637">
        <ele>95.1</ele>
        <time>2016-02-28T08:19:00.000Z</time>
      </trkpt>
      <trkpt lat="47.89408" lon="1.87637">
        <ele>95.1</ele>
        <time>2016-02-28T08:19:02.000Z</time>
      </trkpt>
      <trkpt lat="47.89408" lon="1.87637">
        <ele>95.1</ele>
        <time>2016-02-28T08:19:04.000Z</time>
      </trkpt>
      <trkpt lat="47.89408" lon="1.87637">
        <ele>93.88</ele>
        <time>2016-02-28T08:19:06.000Z</time>
      </trkpt>
      <trkpt lat="47.89408" lon="1.87637">
        <ele>93.88</ele>
        <time>2016-02-28T08:19:08.000Z</time>
      </trkpt>
      <trkpt lat="47.89408" lon="1.87637">
        <ele>93.88</ele>
        <time>2016-02-28T08:19:10.000Z</time>
      </trkpt>
      <trkpt lat="47.89407" lon="1.87637">
        <ele>93.88</ele>
        <time>2016-02-28T08:19:12.000Z</time>
      </trkpt>
      <trkpt lat="47.89407" lon="1.87637">
        <ele>93.88</ele>
        <time>2016-02-28T08:19:14.000Z</time>
      </trkpt>
      <trkpt lat="47.89408" lon="1.87638">
        <ele>93.88</ele>
        <time>2016-02-28T08:19:16.000Z</time>
      </trkpt>
      <trkpt lat="47.89408" lon="1.87637">
        <ele>93.88</ele>
        <time>2016-02-28T08:19:18.000Z</time>
      </trkpt>
      <trkpt lat="47.8941" lon="1.87637">
        <ele>93.88</ele>
        <time>2016-02-28T08:19:20.000Z</time>
      </trkpt>
      <trkpt lat="47.89413" lon="1.87637">
        <ele>93.88</ele>
        <time>2016-02-28T08:19:22.000Z</time>
      </trkpt>
      <trkpt lat="47.89419" lon="1.87637">
        <ele>93.88</ele>
        <time>2016-02-28T08:19:24.000Z</time>
      </trkpt>
      <trkpt lat="47.89427" lon="1.87639">
        <ele>93.88</ele>
        <time>2016-02-28T08:19:26.000Z</time>
      </trkpt>
      <trkpt lat="47.89437" lon="1.8764">
        <ele>93.88</ele>
        <time>2016-02-28T08:19:28.000Z</time>
      </trkpt>
      <trkpt lat="47.89446" lon="1.87641">
        <ele>93.88</ele>
        <time>2016-02-28T08:19:30.000Z</time>
      </trkpt>
      <trkpt lat="47.89454" lon="1.87642">
        <ele>93.88</ele>
        <time>2016-02-28T08:19:32.000Z</time>
      </trkpt>
      <trkpt lat="47.89463" lon="1.87643">
        <ele>93.88</ele>
        <time>2016-02-28T08:19:34.000Z</time>
      </trkpt>
      <trkpt lat="47.89471" lon="1.87643">
        <ele>95.1</ele>
        <time>2016-02-28T08:19:36.000Z</time>
      </trkpt>
      <trkpt lat="47.89479" lon="1.87644">
        <ele>95.1</ele>
        <time>2016-02-28T08:19:38.000Z</time>
      </trkpt>
      <trkpt lat="47.89488" lon="1.87645">
        <ele>95.1</ele>
        <time>2016-02-28T08:19:40.000Z</time>
      </trkpt>
      <trkpt lat="47.89496" lon="1.87645">
        <ele>96.01</ele>
        <time>2016-02-28T08:19:42.000Z</time>
      </trkpt>
      <trkpt lat="47.89504" lon="1.87646">
        <ele>96.01</ele>
        <time>2016-02-28T08:19:44.000Z</time>
      </trkpt>
      <trkpt lat="47.89512" lon="1.87647">
        <ele>96.01</ele>
        <time>2016-02-28T08:19:46.000Z</time>
      </trkpt>
      <trkpt lat="47.89521" lon="1.87648">
        <ele>96.01</ele>
        <time>2016-02-28T08:19:48.000Z</time>
      </trkpt>
      <trkpt lat="47.89529" lon="1.87648">
        <ele>96.01</ele>
        <time>2016-02-28T08:19:50.000Z</time>
      </trkpt>
      <trkpt lat="47.89538" lon="1.87649">
        <ele>96.01</ele>
        <time>2016-02-28T08:19:52.000Z</time>
      </trkpt>
      <trkpt lat="47.89547" lon="1.8765">
        <ele>96.01</ele>
        <time>2016-02-28T08:19:54.000Z</time>
      </trkpt>
      <trkpt lat="47.89556" lon="1.8765">
        <ele>96.93</ele>
        <time>2016-02-28T08:19:56.000Z</time>
      </trkpt>
      <trkpt lat="47.89565" lon="1.8765">
        <ele>96.93</ele>
        <time>2016-02-28T08:19:58.000Z</time>
      </trkpt>
      <trkpt lat="47.89574" lon="1.8765">
        <ele>96.93</ele>
        <time>2016-02-28T08:20:00.000Z</time>
      </trkpt>
      <trkpt lat="47.89582" lon="1.87651">
        <ele>96.93</ele>
        <time>2016-02-28T08:20:02.000Z</time>
      </trkpt>
      <trkpt lat="47.89591" lon="1.87652">
        <ele>96.93</ele>
        <time>2016-02-28T08:20:04.000Z</time>
      </trkpt>
      <trkpt lat="47.89599" lon="1.87653">
        <ele>96.93</ele>
        <time>2016-02-28T08:20:06.000Z</time>
      </trkpt>
      <trkpt lat="47.89608" lon="1.87654">
        <ele>96.93</ele>
        <time>2016-02-28T08:20:08.000Z</time>
      </trkpt>
      <trkpt lat="47.89617" lon="1.87654">
        <ele>96.93</ele>
        <time>2016-02-28T08:20:10.000Z</time>
      </trkpt>
      <trkpt lat="47.89625" lon="1.87655">
        <ele>99.06</ele>
        <time>2016-02-28T08:20:12.000Z</time>
      </trkpt>
      <trkpt lat="47.89633" lon="1.87655">
        <ele>99.06</ele>
        <time>2016-02-28T08:20:14.000Z</time>
      </trkpt>
      <trkpt lat="47.89642" lon="1.87656">
        <ele>99.06</ele>
        <time>2016-02-28T08:20:16.000Z</time>
      </trkpt>
      <trkpt lat="47.89651" lon="1.87657">
        <ele>99.06</ele>
        <time>2016-02-28T08:20:18.000Z</time>
      </trkpt>
      <trkpt lat="47.89659" lon="1.87657">
        <ele>99.06</ele>
        <time>2016-02-28T08:20:20.000Z</time>
      </trkpt>
      <trkpt lat="47.89668" lon="1.87658">
        <ele>99.06</ele>
        <time>2016-02-28T08:20:22.000Z</time>
      </trkpt>
      <trkpt lat="47.89677" lon="1.87659">
        <ele>99.06</ele>
        <time>2016-02-28T08:20:24.000Z</time>
      </trkpt>
      <trkpt lat="47.89686" lon="1.87659">
        <ele>99.06</ele>
        <time>2016-02-28T08:20:26.000Z</time>
      </trkpt>
      <trkpt lat="47.89695" lon="1.8766">
        <ele>99.06</ele>
        <time>2016-02-28T08:20:28.000Z</time>
      </trkpt>
      <trkpt lat="47.89704" lon="1.8766">
        <ele>99.06</ele>
        <time>2016-02-28T08:20:30.000Z</time>
      </trkpt>
      <trkpt lat="47.89713" lon="1.87661">
        <ele>99.06</ele>
        <time>2016-02-28T08:20:32.000Z</time>
      </trkpt>
      <trkpt lat="47.89721" lon="1.87662">
        <ele>99.06</ele>
        <time>2016-02-28T08:20:34.000Z</time>
      </trkpt>
      <trkpt lat="47.8973" lon="1.87662">
        <ele>99.06</ele>
        <time>2016-02-28T08:20:36.000Z</time>
      </trkpt>
      <trkpt lat="47.89739" lon="1.87662">
        <ele>99.06</ele>
        <time>2016-02-28T08:20:38.000Z</time>
      </trkpt>
      <trkpt lat="47.89747" lon="1.87664">
        <ele>99.06</ele>
        <time>2016-02-28T08:20:40.000Z</time>
      </trkpt>
      <trkpt lat="47.89754" lon="1.87665">
        <ele>99.06</ele>
        <time>2016-02-28T08:20:42.000Z</time>
      </trkpt>
      <trkpt lat="47.8976" lon="1.87665">
        <ele>99.06</ele>
        <time>2016-02-28T08:20:44.000Z</time>
      </trkpt>
      <trkpt lat="47.89766" lon="1.87665">
        <ele>99.06</ele>
        <time>2016-02-28T08:20:46.000Z</time>
      </trkpt>
      <trkpt lat="47.89772" lon="1.87666">
        <ele>99.06</ele>
        <time>2016-02-28T08:20:48.000Z</time>
      </trkpt>
      <trkpt lat="47.89776" lon="1.87666">
        <ele>99.06</ele>
        <time>2016-02-28T08:20:50.000Z</time>
      </trkpt>
      <trkpt lat="47.89777" lon="1.87668">
        <ele>99.06</ele>
        <time>2016-02-28T08:20:52.000Z</time>
      </trkpt>
      <trkpt lat="47.89777" lon="1.87668">
        <ele>99.06</ele>
        <time>2016-02-28T08:20:54.000Z</time>
      </trkpt>
      <trkpt lat="47.89777" lon="1.87668">
        <ele>99.06</ele>
        <time>2016-02-28T08:20:56.000Z</time>
      </trkpt>
      <trkpt lat="47.89777" lon="1.87668">
        <ele>99.06</ele>
        <time>2016-02-28T08:20:58.000Z</time>
      </trkpt>
      <trkpt lat="47.89777" lon="1.87668">
        <ele>99.06</ele>
        <time>2016-02-28T08:21:00.000Z</time>
      </trkpt>
      <trkpt lat="47.89777" lon="1.87668">
        <ele>99.06</ele>
        <time>2016-02-28T08:21:02.000Z</time>
      </trkpt>
      <trkpt lat="47.89777" lon="1.87669">
        <ele>99.06</ele>
        <time>2016-02-28T08:21:04.000Z</time>
      </trkpt>
      <trkpt lat="47.89777" lon="1.87669">
        <ele>99.06</ele>
        <time>2016-02-28T08:21:06.000Z</time>
      </trkpt>
      <trkpt lat="47.89778" lon="1.87669">
        <ele>99.06</ele>
        <time>2016-02-28T08:21:08.000Z</time>
      </trkpt>
      <trkpt lat="47.89778" lon="1.87669">
        <ele>99.06</ele>
        <time>2016-02-28T08:21:10.000Z</time>
      </trkpt>
      <trkpt lat="47.89778" lon="1.87669">
        <ele>99.06</ele>
        <time>2016-02-28T08:21:12.000Z</time>
      </trkpt>
      <trkpt lat="47.89778" lon="1.87669">
        <ele>99.06</ele>
        <time>2016-02-28T08:21:14.000Z</time>
      </trkpt>
      <trkpt lat="47.89778" lon="1.8767">
        <ele>99.06</ele>
        <time>2016-02-28T08:21:16.000Z</time>
      </trkpt>
      <trkpt lat="47.89778" lon="1.8767">
        <ele>99.06</ele>
        <time>2016-02-28T08:21:18.000Z</time>
      </trkpt>
      <trkpt lat="47.89778" lon="1.8767">
        <ele>99.06</ele>
        <time>2016-02-28T08:21:20.000Z</time>
      </trkpt>
      <trkpt lat="47.89779" lon="1.8767">
        <ele>98.15</ele>
        <time>2016-02-28T08:21:22.000Z</time>
      </trkpt>
      <trkpt lat="47.8978" lon="1.8767">
        <ele>98.15</ele>
        <time>2016-02-28T08:21:24.000Z</time>
      </trkpt>
      <trkpt lat="47.8978" lon="1.8767">
        <ele>98.15</ele>
        <time>2016-02-28T08:21:26.000Z</time>
      </trkpt>
      <trkpt lat="47.8978" lon="1.8767">
        <ele>98.15</ele>
        <time>2016-02-28T08:21:28.000Z</time>
      </trkpt>
      <trkpt lat="47.89781" lon="1.8767">
        <ele>98.15</ele>
        <time>2016-02-28T08:21:30.000Z</time>
      </trkpt>
      <trkpt lat="47.89779" lon="1.87669">
        <ele>98.15</ele>
        <time>2016-02-28T08:21:32.000Z</time>
      </trkpt>
      <trkpt lat="47.89779" lon="1.87669">
        <ele>98.15</ele>
        <time>2016-02-28T08:21:34.000Z</time>
      </trkpt>
      <trkpt lat="47.89779" lon="1.87669">
        <ele>98.15</ele>
        <time>2016-02-28T08:21:36.000Z</time>
      </trkpt>
      <trkpt lat="47.89779" lon="1.87669">
        <ele>98.15</ele>
        <time>2016-02-28T08:21:38.000Z</time>
      </trkpt>
      <trkpt lat="47.89779" lon="1.87669">
        <ele>98.15</ele>
        <time>2016-02-28T08:21:40.000Z</time>
      </trkpt>
      <trkpt lat="47.89779" lon="1.87669">
        <ele>98.15</ele>
        <time>2016-02-28T08:21:42.000Z</time>
      </trkpt>
      <trkpt lat="47.89779" lon="1.87669">
        <ele>98.15</ele>
        <time>2016-02-28T08:21:44.000Z</time>
      </trkpt>
      <trkpt lat="47.89779" lon="1.87669">
        <ele>98.15</ele>
        <time>2016-02-28T08:21:46.000Z</time>
      </trkpt>
      <trkpt lat="47.89779" lon="1.87669">
        <ele>98.15</ele>
        <time>2016-02-28T08:21:48.000Z</time>
      </trkpt>
      <trkpt lat="47.89779" lon="1.87668">
        <ele>98.15</ele>
        <time>2016-02-28T08:21:50.000Z</time>
      </trkpt>
      <trkpt lat="47.89778" lon="1.87668">
        <ele>98.15</ele>
        <time>2016-02-28T08:21:52.000Z</time>
      </trkpt>
      <trkpt lat="47.89778" lon="1.87668">
        <ele>98.15</ele>
        <time>2016-02-28T08:21:54.000Z</time>
      </trkpt>
      <trkpt lat="47.89778" lon="1.87668">
        <ele>98.15</ele>
        <time>2016-02-28T08:21:56.000Z</time>
      </trkpt>
      <trkpt lat="47.89778" lon="1.87668">
        <ele>98.15</ele>
        <time>2016-02-28T08:21:58.000Z</time>
      </trkpt>
      <trkpt lat="47.89777" lon="1.87668">
        <ele>98.15</ele>
        <time>2016-02-28T08:22:00.000Z</time>
      </trkpt>
      <trkpt lat="47.89777" lon="1.87668">
        <ele>98.15</ele>
        <time>2016-02-28T08:22:02.000Z</time>
      </trkpt>
      <trkpt lat="47.89777" lon="1.87668">
        <ele>98.15</ele>
        <time>2016-02-28T08:22:04.000Z</time>
      </trkpt>
      <trkpt lat="47.89777" lon="1.87668">
        <ele>98.15</ele>
        <time>2016-02-28T08:22:06.000Z</time>
      </trkpt>
      <trkpt lat="47.89777" lon="1.87668">
        <ele>98.15</ele>
        <time>2016-02-28T08:22:08.000Z</time>
      </trkpt>
      <trkpt lat="47.89777" lon="1.87667">
        <ele>98.15</ele>
        <time>2016-02-28T08:22:10.000Z</time>
      </trkpt>
      <trkpt lat="47.89777" lon="1.87667">
        <ele>98.15</ele>
        <time>2016-02-28T08:22:12.000Z</time>
      </trkpt>
      <trkpt lat="47.89777" lon="1.87667">
        <ele>98.15</ele>
        <time>2016-02-28T08:22:14.000Z</time>
      </trkpt>
      <trkpt lat="47.89777" lon="1.87667">
        <ele>98.15</ele>
        <time>2016-02-28T08:22:16.000Z</time>
      </trkpt>
      <trkpt lat="47.89777" lon="1.87667">
        <ele>98.15</ele>
        <time>2016-02-28T08:22:18.000Z</time>
      </trkpt>
      <trkpt lat="47.89777" lon="1.87667">
        <ele>98.15</ele>
        <time>2016-02-28T08:22:20.000Z</time>
      </trkpt>
      <trkpt lat="47.89777" lon="1.87667">
        <ele>98.15</ele>
        <time>2016-02-28T08:22:22.000Z</time>
      </trkpt>
      <trkpt lat="47.89777" lon="1.87667">
        <ele>98.15</ele>
        <time>2016-02-28T08:22:24.000Z</time>
      </trkpt>
      <trkpt lat="47.89777" lon="1.87667">
        <ele>98.15</ele>
        <time>2016-02-28T08:22:26.000Z</time>
      </trkpt>
      <trkpt lat="47.89777" lon="1.87667">
        <ele>98.15</ele>
        <time>2016-02-28T08:22:28.000Z</time>
      </trkpt>
      <trkpt lat="47.89777" lon="1.87667">
        <ele>98.15</ele>
        <time>2016-02-28T08:22:30.000Z</time>
      </trkpt>
      <trkpt lat="47.89777" lon="1.87667">
        <ele>98.15</ele>
        <time>2016-02-28T08:22:32.000Z</time>
      </trkpt>
      <trkpt lat="47.89777" lon="1.87667">
        <ele>98.15</ele>
        <time>2016-02-28T08:22:34.000Z</time>
      </trkpt>
      <trkpt lat="47.89777" lon="1.87667">
        <ele>98.15</ele>
        <time>2016-02-28T08:22:36.000Z</time>
      </trkpt>
      <trkpt lat="47.89777" lon="1.87667">
        <ele>98.15</ele>
        <time>2016-02-28T08:22:38.000Z</time>
      </trkpt>
      <trkpt lat="47.89777" lon="1.87667">
        <ele>98.15</ele>
        <time>2016-02-28T08:22:40.000Z</time>
      </trkpt>
      <trkpt lat="47.89777" lon="1.87667">
        <ele>98.15</ele>
        <time>2016-02-28T08:22:42.000Z</time>
      </trkpt>
      <trkpt lat="47.89777" lon="1.87667">
        <ele>98.15</ele>
        <time>2016-02-28T08:22:44.000Z</time>
      </trkpt>
      <trkpt lat="47.89777" lon="1.87667">
        <ele>98.15</ele>
        <time>2016-02-28T08:22:46.000Z</time>
      </trkpt>
      <trkpt lat="47.89777" lon="1.87666">
        <ele>98.15</ele>
        <time>2016-02-28T08:22:48.000Z</time>
      </trkpt>
      <trkpt lat="47.89777" lon="1.87666">
        <ele>98.15</ele>
        <time>2016-02-28T08:22:50.000Z</time>
      </trkpt>
      <trkpt lat="47.89777" lon="1.87667">
        <ele>98.15</ele>
        <time>2016-02-28T08:22:52.000Z</time>
      </trkpt>
      <trkpt lat="47.89777" lon="1.87667">
        <ele>98.15</ele>
        <time>2016-02-28T08:22:54.000Z</time>
      </trkpt>
      <trkpt lat="47.89777" lon="1.87667">
        <ele>98.15</ele>
        <time>2016-02-28T08:22:56.000Z</time>
      </trkpt>
      <trkpt lat="47.89777" lon="1.87667">
        <ele>98.15</ele>
        <time>2016-02-28T08:22:58.000Z</time>
      </trkpt>
      <trkpt lat="47.89777" lon="1.87667">
        <ele>98.15</ele>
        <time>2016-02-28T08:23:00.000Z</time>
      </trkpt>
      <trkpt lat="47.89777" lon="1.87667">
        <ele>98.15</ele>
        <time>2016-02-28T08:23:02.000Z</time>
      </trkpt>
      <trkpt lat="47.89777" lon="1.87668">
        <ele>98.15</ele>
        <time>2016-02-28T08:23:04.000Z</time>
      </trkpt>
      <trkpt lat="47.89777" lon="1.87668">
        <ele>98.15</ele>
        <time>2016-02-28T08:23:06.000Z</time>
      </trkpt>
      <trkpt lat="47.89777" lon="1.87668">
        <ele>98.15</ele>
        <time>2016-02-28T08:23:08.000Z</time>
      </trkpt>
      <trkpt lat="47.89777" lon="1.87668">
        <ele>98.15</ele>
        <time>2016-02-28T08:23:10.000Z</time>
      </trkpt>
      <trkpt lat="47.89777" lon="1.87668">
        <ele>99.06</ele>
        <time>2016-02-28T08:23:12.000Z</time>
      </trkpt>
      <trkpt lat="47.89777" lon="1.87668">
        <ele>99.06</ele>
        <time>2016-02-28T08:23:14.000Z</time>
      </trkpt>
      <trkpt lat="47.89777" lon="1.87668">
        <ele>99.06</ele>
        <time>2016-02-28T08:23:16.000Z</time>
      </trkpt>
      <trkpt lat="47.89777" lon="1.87668">
        <ele>99.06</ele>
        <time>2016-02-28T08:23:18.000Z</time>
      </trkpt>
      <trkpt lat="47.89777" lon="1.87668">
        <ele>99.06</ele>
        <time>2016-02-28T08:23:20.000Z</time>
      </trkpt>
      <trkpt lat="47.89778" lon="1.87668">
        <ele>99.06</ele>
        <time>2016-02-28T08:23:22.000Z</time>
      </trkpt>
      <trkpt lat="47.89778" lon="1.87668">
        <ele>99.06</ele>
        <time>2016-02-28T08:23:24.000Z</time>
      </trkpt>
      <trkpt lat="47.89778" lon="1.87668">
        <ele>99.06</ele>
        <time>2016-02-28T08:23:26.000Z</time>
      </trkpt>
      <trkpt lat="47.89778" lon="1.87668">
        <ele>99.06</ele>
        <time>2016-02-28T08:23:28.000Z</time>
      </trkpt>
      <trkpt lat="47.89778" lon="1.87668">
        <ele>99.06</ele>
        <time>2016-02-28T08:23:30.000Z</time>
      </trkpt>
      <trkpt lat="47.89778" lon="1.87667">
        <ele>99.06</ele>
        <time>2016-02-28T08:23:32.000Z</time>
      </trkpt>
      <trkpt lat="47.89778" lon="1.87667">
        <ele>99.06</ele>
        <time>2016-02-28T08:23:34.000Z</time>
      </trkpt>
      <trkpt lat="47.89778" lon="1.87667">
        <ele>99.06</ele>
        <time>2016-02-28T08:23:36.000Z</time>
      </trkpt>
      <trkpt lat="47.89778" lon="1.87667">
        <ele>99.06</ele>
        <time>2016-02-28T08:23:38.000Z</time>
      </trkpt>
      <trkpt lat="47.89778" lon="1.87667">
        <ele>99.06</ele>
        <time>2016-02-28T08:23:40.000Z</time>
      </trkpt>
      <trkpt lat="47.89778" lon="1.87667">
        <ele>99.06</ele>
        <time>2016-02-28T08:23:42.000Z</time>
      </trkpt>
      <trkpt lat="47.89778" lon="1.87667">
        <ele>99.06</ele>
        <time>2016-02-28T08:23:44.000Z</time>
      </trkpt>
      <trkpt lat="47.89779" lon="1.87667">
        <ele>99.06</ele>
        <time>2016-02-28T08:23:46.000Z</time>
      </trkpt>
      <trkpt lat="47.89779" lon="1.87667">
        <ele>99.06</ele>
        <time>2016-02-28T08:23:48.000Z</time>
      </trkpt>
      <trkpt lat="47.89779" lon="1.87667">
        <ele>99.06</ele>
        <time>2016-02-28T08:23:50.000Z</time>
      </trkpt>
      <trkpt lat="47.89779" lon="1.87666">
        <ele>99.06</ele>
        <time>2016-02-28T08:23:52.000Z</time>
      </trkpt>
      <trkpt lat="47.89779" lon="1.87666">
        <ele>99.06</ele>
        <time>2016-02-28T08:23:54.000Z</time>
      </trkpt>
      <trkpt lat="47.89779" lon="1.87666">
        <ele>99.06</ele>
        <time>2016-02-28T08:23:56.000Z</time>
      </trkpt>
      <trkpt lat="47.89779" lon="1.87666">
        <ele>99.06</ele>
        <time>2016-02-28T08:23:58.000Z</time>
      </trkpt>
      <trkpt lat="47.89779" lon="1.87666">
        <ele>99.06</ele>
        <time>2016-02-28T08:24:00.000Z</time>
      </trkpt>
      <trkpt lat="47.89778" lon="1.87667">
        <ele>99.06</ele>
        <time>2016-02-28T08:24:02.000Z</time>
      </trkpt>
      <trkpt lat="47.89778" lon="1.87667">
        <ele>99.06</ele>
        <time>2016-02-28T08:24:04.000Z</time>
      </trkpt>
      <trkpt lat="47.89778" lon="1.87667">
        <ele>99.06</ele>
        <time>2016-02-28T08:24:06.000Z</time>
      </trkpt>
      <trkpt lat="47.89778" lon="1.87668">
        <ele>99.06</ele>
        <time>2016-02-28T08:24:08.000Z</time>
      </trkpt>
      <trkpt lat="47.89777" lon="1.87668">
        <ele>99.06</ele>
        <time>2016-02-28T08:24:10.000Z</time>
      </trkpt>
      <trkpt lat="47.89778" lon="1.87668">
        <ele>99.06</ele>
        <time>2016-02-28T08:24:12.000Z</time>
      </trkpt>
      <trkpt lat="47.89778" lon="1.87668">
        <ele>99.06</ele>
        <time>2016-02-28T08:24:14.000Z</time>
      </trkpt>
      <trkpt lat="47.89779" lon="1.87668">
        <ele>99.06</ele>
        <time>2016-02-28T08:24:16.000Z</time>
      </trkpt>
      <trkpt lat="47.89779" lon="1.87668">
        <ele>99.06</ele>
        <time>2016-02-28T08:24:18.000Z</time>
      </trkpt>
      <trkpt lat="47.8978" lon="1.87668">
        <ele>99.06</ele>
        <time>2016-02-28T08:24:20.000Z</time>
      </trkpt>
      <trkpt lat="47.8978" lon="1.87668">
        <ele>99.06</ele>
        <time>2016-02-28T08:24:22.000Z</time>
      </trkpt>
      <trkpt lat="47.8978" lon="1.87668">
        <ele>99.06</ele>
        <time>2016-02-28T08:24:24.000Z</time>
      </trkpt>
      <trkpt lat="47.8978" lon="1.87668">
        <ele>99.06</ele>
        <time>2016-02-28T08:24:26.000Z</time>
      </trkpt>
      <trkpt lat="47.8978" lon="1.87667">
        <ele>99.06</ele>
        <time>2016-02-28T08:24:28.000Z</time>
      </trkpt>
      <trkpt lat="47.8978" lon="1.87667">
        <ele>99.06</ele>
        <time>2016-02-28T08:24:30.000Z</time>
      </trkpt>
      <trkpt lat="47.8978" lon="1.87667">
        <ele>99.06</ele>
        <time>2016-02-28T08:24:32.000Z</time>
      </trkpt>
      <trkpt lat="47.8978" lon="1.87667">
        <ele>99.06</ele>
        <time>2016-02-28T08:24:34.000Z</time>
      </trkpt>
      <trkpt lat="47.89779" lon="1.87667">
        <ele>99.06</ele>
        <time>2016-02-28T08:24:36.000Z</time>
      </trkpt>
      <trkpt lat="47.89779" lon="1.87666">
        <ele>99.06</ele>
        <time>2016-02-28T08:24:38.000Z</time>
      </trkpt>
      <trkpt lat="47.89779" lon="1.87666">
        <ele>99.06</ele>
        <time>2016-02-28T08:24:40.000Z</time>
      </trkpt>
      <trkpt lat="47.89779" lon="1.87666">
        <ele>99.06</ele>
        <time>2016-02-28T08:24:42.000Z</time>
      </trkpt>
      <trkpt lat="47.89779" lon="1.87666">
        <ele>99.06</ele>
        <time>2016-02-28T08:24:44.000Z</time>
      </trkpt>
      <trkpt lat="47.89779" lon="1.87666">
        <ele>99.06</ele>
        <time>2016-02-28T08:24:46.000Z</time>
      </trkpt>
      <trkpt lat="47.89779" lon="1.87666">
        <ele>99.06</ele>
        <time>2016-02-28T08:24:48.000Z</time>
      </trkpt>
      <trkpt lat="47.89779" lon="1.87666">
        <ele>99.06</ele>
        <time>2016-02-28T08:24:50.000Z</time>
      </trkpt>
      <trkpt lat="47.89779" lon="1.87666">
        <ele>98.15</ele>
        <time>2016-02-28T08:24:52.000Z</time>
      </trkpt>
      <trkpt lat="47.8978" lon="1.87666">
        <ele>98.15</ele>
        <time>2016-02-28T08:24:54.000Z</time>
      </trkpt>
      <trkpt lat="47.8978" lon="1.87666">
        <ele>98.15</ele>
        <time>2016-02-28T08:24:56.000Z</time>
      </trkpt>
      <trkpt lat="47.8978" lon="1.87666">
        <ele>98.15</ele>
        <time>2016-02-28T08:24:58.000Z</time>
      </trkpt>
      <trkpt lat="47.8978" lon="1.87667">
        <ele>98.15</ele>
        <time>2016-02-28T08:25:00.000Z</time>
      </trkpt>
      <trkpt lat="47.8978" lon="1.87667">
        <ele>98.15</ele>
        <time>2016-02-28T08:25:02.000Z</time>
      </trkpt>
      <trkpt lat="47.8978" lon="1.87667">
        <ele>98.15</ele>
        <time>2016-02-28T08:25:04.000Z</time>
      </trkpt>
      <trkpt lat="47.8978" lon="1.87667">
        <ele>98.15</ele>
        <time>2016-02-28T08:25:06.000Z</time>
      </trkpt>
      <trkpt lat="47.8978" lon="1.87667">
        <ele>98.15</ele>
        <time>2016-02-28T08:25:08.000Z</time>
      </trkpt>
      <trkpt lat="47.8978" lon="1.87667">
        <ele>98.15</ele>
        <time>2016-02-28T08:25:10.000Z</time>
      </trkpt>
      <trkpt lat="47.8978" lon="1.87667">
        <ele>98.15</ele>
        <time>2016-02-28T08:25:12.000Z</time>
      </trkpt>
      <trkpt lat="47.8978" lon="1.87667">
        <ele>98.15</ele>
        <time>2016-02-28T08:25:14.000Z</time>
      </trkpt>
      <trkpt lat="47.8978" lon="1.87667">
        <ele>98.15</ele>
        <time>2016-02-28T08:25:16.000Z</time>
      </trkpt>
      <trkpt lat="47.8978" lon="1.87667">
        <ele>98.15</ele>
        <time>2016-02-28T08:25:18.000Z</time>
      </trkpt>
      <trkpt lat="47.89779" lon="1.87667">
        <ele>98.15</ele>
        <time>2016-02-28T08:25:20.000Z</time>
      </trkpt>
      <trkpt lat="47.89779" lon="1.87667">
        <ele>98.15</ele>
        <time>2016-02-28T08:25:22.000Z</time>
      </trkpt>
      <trkpt lat="47.89779" lon="1.87667">
        <ele>98.15</ele>
        <time>2016-02-28T08:25:24.000Z</time>
      </trkpt>
      <trkpt lat="47.89779" lon="1.87667">
        <ele>98.15</ele>
        <time>2016-02-28T08:25:26.000Z</time>
      </trkpt>
      <trkpt lat="47.89779" lon="1.87667">
        <ele>98.15</ele>
        <time>2016-02-28T08:25:28.000Z</time>
      </trkpt>
      <trkpt lat="47.89779" lon="1.87667">
        <ele>98.15</ele>
        <time>2016-02-28T08:25:30.000Z</time>
      </trkpt>
      <trkpt lat="47.89779" lon="1.87667">
        <ele>98.15</ele>
        <time>2016-02-28T08:25:32.000Z</time>
      </trkpt>
      <trkpt lat="47.89779" lon="1.87667">
        <ele>98.15</ele>
        <time>2016-02-28T08:25:34.000Z</time>
      </trkpt>
      <trkpt lat="47.89779" lon="1.87668">
        <ele>98.15</ele>
        <time>2016-02-28T08:25:36.000Z</time>
      </trkpt>
      <trkpt lat="47.89778" lon="1.87668">
        <ele>98.15</ele>
        <time>2016-02-28T08:25:38.000Z</time>
      </trkpt>
      <trkpt lat="47.89779" lon="1.87668">
        <ele>98.15</ele>
        <time>2016-02-28T08:25:40.000Z</time>
      </trkpt>
      <trkpt lat="47.89779" lon="1.87669">
        <ele>98.15</ele>
        <time>2016-02-28T08:25:42.000Z</time>
      </trkpt>
      <trkpt lat="47.89778" lon="1.87669">
        <ele>98.15</ele>
        <time>2016-02-28T08:25:44.000Z</time>
      </trkpt>
      <trkpt lat="47.89778" lon="1.87669">
        <ele>98.15</ele>
        <time>2016-02-28T08:25:46.000Z</time>
      </trkpt>
      <trkpt lat="47.89779" lon="1.87669">
        <ele>98.15</ele>
        <time>2016-02-28T08:25:48.000Z</time>
      </trkpt>
      <trkpt lat="47.89779" lon="1.87669">
        <ele>98.15</ele>
        <time>2016-02-28T08:25:50.000Z</time>
      </trkpt>
      <trkpt lat="47.89779" lon="1.87669">
        <ele>99.06</ele>
        <time>2016-02-28T08:25:52.000Z</time>
      </trkpt>
      <trkpt lat="47.8978" lon="1.8767">
        <ele>99.06</ele>
        <time>2016-02-28T08:25:54.000Z</time>
      </trkpt>
      <trkpt lat="47.8978" lon="1.87669">
        <ele>99.06</ele>
        <time>2016-02-28T08:25:56.000Z</time>
      </trkpt>
      <trkpt lat="47.8978" lon="1.87669">
        <ele>99.06</ele>
        <time>2016-02-28T08:25:58.000Z</time>
      </trkpt>
      <trkpt lat="47.89779" lon="1.87669">
        <ele>99.06</ele>
        <time>2016-02-28T08:26:00.000Z</time>
      </trkpt>
      <trkpt lat="47.8978" lon="1.87669">
        <ele>99.06</ele>
        <time>2016-02-28T08:26:02.000Z</time>
      </trkpt>
      <trkpt lat="47.89781" lon="1.87669">
        <ele>99.06</ele>
        <time>2016-02-28T08:26:04.000Z</time>
      </trkpt>
      <trkpt lat="47.89781" lon="1.87669">
        <ele>99.06</ele>
        <time>2016-02-28T08:26:06.000Z</time>
      </trkpt>
      <trkpt lat="47.89782" lon="1.87669">
        <ele>99.06</ele>
        <time>2016-02-28T08:26:08.000Z</time>
      </trkpt>
      <trkpt lat="47.89782" lon="1.87669">
        <ele>99.06</ele>
        <time>2016-02-28T08:26:10.000Z</time>
      </trkpt>
      <trkpt lat="47.89783" lon="1.87669">
        <ele>99.06</ele>
        <time>2016-02-28T08:26:12.000Z</time>
      </trkpt>
      <trkpt lat="47.89783" lon="1.87668">
        <ele>99.06</ele>
        <time>2016-02-28T08:26:14.000Z</time>
      </trkpt>
      <trkpt lat="47.89784" lon="1.87668">
        <ele>99.06</ele>
        <time>2016-02-28T08:26:16.000Z</time>
      </trkpt>
      <trkpt lat="47.89784" lon="1.87667">
        <ele>99.06</ele>
        <time>2016-02-28T08:26:18.000Z</time>
      </trkpt>
      <trkpt lat="47.89784" lon="1.87667">
        <ele>99.06</ele>
        <time>2016-02-28T08:26:20.000Z</time>
      </trkpt>
      <trkpt lat="47.89784" lon="1.87666">
        <ele>99.06</ele>
        <time>2016-02-28T08:26:22.000Z</time>
      </trkpt>
      <trkpt lat="47.89784" lon="1.87666">
        <ele>99.06</ele>
        <time>2016-02-28T08:26:24.000Z</time>
      </trkpt>
      <trkpt lat="47.89783" lon="1.87666">
        <ele>99.06</ele>
        <time>2016-02-28T08:26:26.000Z</time>
      </trkpt>
      <trkpt lat="47.89783" lon="1.87666">
        <ele>99.06</ele>
        <time>2016-02-28T08:26:28.000Z</time>
      </trkpt>
      <trkpt lat="47.89782" lon="1.87665">
        <ele>99.06</ele>
        <time>2016-02-28T08:26:30.000Z</time>
      </trkpt>
      <trkpt lat="47.89782" lon="1.87666">
        <ele>98.15</ele>
        <time>2016-02-28T08:26:32.000Z</time>
      </trkpt>
      <trkpt lat="47.89782" lon="1.87666">
        <ele>98.15</ele>
        <time>2016-02-28T08:26:34.000Z</time>
      </trkpt>
      <trkpt lat="47.89782" lon="1.87666">
        <ele>98.15</ele>
        <time>2016-02-28T08:26:36.000Z</time>
      </trkpt>
      <trkpt lat="47.89781" lon="1.87666">
        <ele>98.15</ele>
        <time>2016-02-28T08:26:38.000Z</time>
      </trkpt>
      <trkpt lat="47.89781" lon="1.87666">
        <ele>98.15</ele>
        <time>2016-02-28T08:26:40.000Z</time>
      </trkpt>
      <trkpt lat="47.8978" lon="1.87667">
        <ele>98.15</ele>
        <time>2016-02-28T08:26:42.000Z</time>
      </trkpt>
      <trkpt lat="47.8978" lon="1.87667">
        <ele>98.15</ele>
        <time>2016-02-28T08:26:44.000Z</time>
      </trkpt>
      <trkpt lat="47.8978" lon="1.87667">
        <ele>98.15</ele>
        <time>2016-02-28T08:26:46.000Z</time>
      </trkpt>
      <trkpt lat="47.8978" lon="1.87667">
        <ele>98.15</ele>
        <time>2016-02-28T08:26:48.000Z</time>
      </trkpt>
      <trkpt lat="47.8978" lon="1.87668">
        <ele>98.15</ele>
        <time>2016-02-28T08:26:50.000Z</time>
      </trkpt>
      <trkpt lat="47.8978" lon="1.87668">
        <ele>98.15</ele>
        <time>2016-02-28T08:26:52.000Z</time>
      </trkpt>
      <trkpt lat="47.8978" lon="1.87668">
        <ele>98.15</ele>
        <time>2016-02-28T08:26:54.000Z</time>
      </trkpt>
      <trkpt lat="47.8978" lon="1.87668">
        <ele>98.15</ele>
        <time>2016-02-28T08:26:56.000Z</time>
      </trkpt>
      <trkpt lat="47.8978" lon="1.87668">
        <ele>98.15</ele>
        <time>2016-02-28T08:26:58.000Z</time>
      </trkpt>
      <trkpt lat="47.8978" lon="1.87668">
        <ele>98.15</ele>
        <time>2016-02-28T08:27:00.000Z</time>
      </trkpt>
      <trkpt lat="47.89779" lon="1.87668">
        <ele>98.15</ele>
        <time>2016-02-28T08:27:02.000Z</time>
      </trkpt>
      <trkpt lat="47.89778" lon="1.87668">
        <ele>98.15</ele>
        <time>2016-02-28T08:27:04.000Z</time>
      </trkpt>
      <trkpt lat="47.89779" lon="1.87668">
        <ele>98.15</ele>
        <time>2016-02-28T08:27:06.000Z</time>
      </trkpt>
      <trkpt lat="47.89779" lon="1.87668">
        <ele>98.15</ele>
        <time>2016-02-28T08:27:08.000Z</time>
      </trkpt>
      <trkpt lat="47.89778" lon="1.87668">
        <ele>98.15</ele>
        <time>2016-02-28T08:27:10.000Z</time>
      </trkpt>
      <trkpt lat="47.89778" lon="1.87669">
        <ele>98.15</ele>
        <time>2016-02-28T08:27:12.000Z</time>
      </trkpt>
      <trkpt lat="47.89779" lon="1.87669">
        <ele>98.15</ele>
        <time>2016-02-28T08:27:14.000Z</time>
      </trkpt>
      <trkpt lat="47.89779" lon="1.87669">
        <ele>98.15</ele>
        <time>2016-02-28T08:27:16.000Z</time>
      </trkpt>
      <trkpt lat="47.8978" lon="1.87669">
        <ele>98.15</ele>
        <time>2016-02-28T08:27:18.000Z</time>
      </trkpt>
      <trkpt lat="47.8978" lon="1.87668">
        <ele>98.15</ele>
        <time>2016-02-28T08:27:20.000Z</time>
      </trkpt>
      <trkpt lat="47.89779" lon="1.87668">
        <ele>98.15</ele>
        <time>2016-02-28T08:27:22.000Z</time>
      </trkpt>
      <trkpt lat="47.89779" lon="1.87669">
        <ele>98.15</ele>
        <time>2016-02-28T08:27:24.000Z</time>
      </trkpt>
      <trkpt lat="47.89779" lon="1.87669">
        <ele>98.15</ele>
        <time>2016-02-28T08:27:26.000Z</time>
      </trkpt>
      <trkpt lat="47.89779" lon="1.87669">
        <ele>98.15</ele>
        <time>2016-02-28T08:27:28.000Z</time>
      </trkpt>
      <trkpt lat="47.89779" lon="1.87669">
        <ele>98.15</ele>
        <time>2016-02-28T08:27:30.000Z</time>
      </trkpt>
      <trkpt lat="47.89779" lon="1.87669">
        <ele>98.15</ele>
        <time>2016-02-28T08:27:32.000Z</time>
      </trkpt>
      <trkpt lat="47.89778" lon="1.87669">
        <ele>98.15</ele>
        <time>2016-02-28T08:27:34.000Z</time>
      </trkpt>
      <trkpt lat="47.89779" lon="1.87669">
        <ele>98.15</ele>
        <time>2016-02-28T08:27:36.000Z</time>
      </trkpt>
      <trkpt lat="47.89779" lon="1.87669">
        <ele>98.15</ele>
        <time>2016-02-28T08:27:38.000Z</time>
      </trkpt>
      <trkpt lat="47.89779" lon="1.87669">
        <ele>98.15</ele>
        <time>2016-02-28T08:27:40.000Z</time>
      </trkpt>
      <trkpt lat="47.89778" lon="1.87669">
        <ele>98.15</ele>
        <time>2016-02-28T08:27:42.000Z</time>
      </trkpt>
      <trkpt lat="47.89778" lon="1.87669">
        <ele>98.15</ele>
        <time>2016-02-28T08:27:44.000Z</time>
      </trkpt>
      <trkpt lat="47.89778" lon="1.87669">
        <ele>98.15</ele>
        <time>2016-02-28T08:27:46.000Z</time>
      </trkpt>
      <trkpt lat="47.89778" lon="1.8767">
        <ele>98.15</ele>
        <time>2016-02-28T08:27:48.000Z</time>
      </trkpt>
      <trkpt lat="47.89777" lon="1.8767">
        <ele>98.15</ele>
        <time>2016-02-28T08:27:50.000Z</time>
      </trkpt>
      <trkpt lat="47.89777" lon="1.8767">
        <ele>98.15</ele>
        <time>2016-02-28T08:27:52.000Z</time>
      </trkpt>
      <trkpt lat="47.89777" lon="1.87671">
        <ele>98.15</ele>
        <time>2016-02-28T08:27:54.000Z</time>
      </trkpt>
      <trkpt lat="47.89778" lon="1.87671">
        <ele>98.15</ele>
        <time>2016-02-28T08:27:56.000Z</time>
      </trkpt>
      <trkpt lat="47.89778" lon="1.87671">
        <ele>98.15</ele>
        <time>2016-02-28T08:27:58.000Z</time>
      </trkpt>
      <trkpt lat="47.89778" lon="1.87671">
        <ele>98.15</ele>
        <time>2016-02-28T08:28:00.000Z</time>
      </trkpt>
      <trkpt lat="47.89779" lon="1.87672">
        <ele>98.15</ele>
        <time>2016-02-28T08:28:02.000Z</time>
      </trkpt>
      <trkpt lat="47.89779" lon="1.87672">
        <ele>98.15</ele>
        <time>2016-02-28T08:28:04.000Z</time>
      </trkpt>
      <trkpt lat="47.89779" lon="1.87672">
        <ele>98.15</ele>
        <time>2016-02-28T08:28:06.000Z</time>
      </trkpt>
      <trkpt lat="47.8978" lon="1.87672">
        <ele>98.15</ele>
        <time>2016-02-28T08:28:08.000Z</time>
      </trkpt>
      <trkpt lat="47.8978" lon="1.87672">
        <ele>98.15</ele>
        <time>2016-02-28T08:28:10.000Z</time>
      </trkpt>
      <trkpt lat="47.8978" lon="1.87672">
        <ele>98.15</ele>
        <time>2016-02-28T08:28:12.000Z</time>
      </trkpt>
      <trkpt lat="47.8978" lon="1.87673">
        <ele>98.15</ele>
        <time>2016-02-28T08:28:14.000Z</time>
      </trkpt>
      <trkpt lat="47.89781" lon="1.87673">
        <ele>98.15</ele>
        <time>2016-02-28T08:28:16.000Z</time>
      </trkpt>
      <trkpt lat="47.89781" lon="1.87672">
        <ele>98.15</ele>
        <time>2016-02-28T08:28:18.000Z</time>
      </trkpt>
      <trkpt lat="47.89781" lon="1.87672">
        <ele>98.15</ele>
        <time>2016-02-28T08:28:20.000Z</time>
      </trkpt>
      <trkpt lat="47.89782" lon="1.87671">
        <ele>98.15</ele>
        <time>2016-02-28T08:28:22.000Z</time>
      </trkpt>
      <trkpt lat="47.89782" lon="1.87671">
        <ele>98.15</ele>
        <time>2016-02-28T08:28:24.000Z</time>
      </trkpt>
      <trkpt lat="47.89783" lon="1.87671">
        <ele>98.15</ele>
        <time>2016-02-28T08:28:26.000Z</time>
      </trkpt>
      <trkpt lat="47.89783" lon="1.8767">
        <ele>98.15</ele>
        <time>2016-02-28T08:28:28.000Z</time>
      </trkpt>
      <trkpt lat="47.89783" lon="1.8767">
        <ele>98.15</ele>
        <time>2016-02-28T08:28:30.000Z</time>
      </trkpt>
      <trkpt lat="47.89783" lon="1.8767">
        <ele>98.15</ele>
        <time>2016-02-28T08:28:32.000Z</time>
      </trkpt>
      <trkpt lat="47.89783" lon="1.87669">
        <ele>98.15</ele>
        <time>2016-02-28T08:28:34.000Z</time>
      </trkpt>
      <trkpt lat="47.89783" lon="1.87669">
        <ele>98.15</ele>
        <time>2016-02-28T08:28:36.000Z</time>
      </trkpt>
      <trkpt lat="47.89783" lon="1.87669">
        <ele>98.15</ele>
        <time>2016-02-28T08:28:38.000Z</time>
      </trkpt>
      <trkpt lat="47.89783" lon="1.87669">
        <ele>98.15</ele>
        <time>2016-02-28T08:28:40.000Z</time>
      </trkpt>
      <trkpt lat="47.89783" lon="1.87669">
        <ele>98.15</ele>
        <time>2016-02-28T08:28:42.000Z</time>
      </trkpt>
      <trkpt lat="47.89783" lon="1.87669">
        <ele>98.15</ele>
        <time>2016-02-28T08:28:44.000Z</time>
      </trkpt>
      <trkpt lat="47.89782" lon="1.87669">
        <ele>98.15</ele>
        <time>2016-02-28T08:28:46.000Z</time>
      </trkpt>
      <trkpt lat="47.89782" lon="1.87668">
        <ele>98.15</ele>
        <time>2016-02-28T08:28:48.000Z</time>
      </trkpt>
      <trkpt lat="47.89782" lon="1.87668">
        <ele>98.15</ele>
        <time>2016-02-28T08:28:50.000Z</time>
      </trkpt>
      <trkpt lat="47.89782" lon="1.87668">
        <ele>98.15</ele>
        <time>2016-02-28T08:28:52.000Z</time>
      </trkpt>
      <trkpt lat="47.89781" lon="1.87668">
        <ele>98.15</ele>
        <time>2016-02-28T08:28:54.000Z</time>
      </trkpt>
      <trkpt lat="47.89781" lon="1.87668">
        <ele>98.15</ele>
        <time>2016-02-28T08:28:56.000Z</time>
      </trkpt>
      <trkpt lat="47.89781" lon="1.87668">
        <ele>98.15</ele>
        <time>2016-02-28T08:28:58.000Z</time>
      </trkpt>
      <trkpt lat="47.89781" lon="1.87668">
        <ele>98.15</ele>
        <time>2016-02-28T08:29:00.000Z</time>
      </trkpt>
      <trkpt lat="47.8978" lon="1.87668">
        <ele>98.15</ele>
        <time>2016-02-28T08:29:02.000Z</time>
      </trkpt>
      <trkpt lat="47.8978" lon="1.87668">
        <ele>98.15</ele>
        <time>2016-02-28T08:29:04.000Z</time>
      </trkpt>
      <trkpt lat="47.8978" lon="1.87668">
        <ele>98.15</ele>
        <time>2016-02-28T08:29:06.000Z</time>
      </trkpt>
      <trkpt lat="47.8978" lon="1.87667">
        <ele>98.15</ele>
        <time>2016-02-28T08:29:08.000Z</time>
      </trkpt>
      <trkpt lat="47.8978" lon="1.87667">
        <ele>98.15</ele>
        <time>2016-02-28T08:29:10.000Z</time>
      </trkpt>
      <trkpt lat="47.89779" lon="1.87667">
        <ele>98.15</ele>
        <time>2016-02-28T08:29:12.000Z</time>
      </trkpt>
      <trkpt lat="47.89779" lon="1.87667">
        <ele>98.15</ele>
        <time>2016-02-28T08:29:14.000Z</time>
      </trkpt>
      <trkpt lat="47.89779" lon="1.87667">
        <ele>98.15</ele>
        <time>2016-02-28T08:29:16.000Z</time>
      </trkpt>
      <trkpt lat="47.89779" lon="1.87667">
        <ele>98.15</ele>
        <time>2016-02-28T08:29:18.000Z</time>
      </trkpt>
      <trkpt lat="47.89778" lon="1.87667">
        <ele>98.15</ele>
        <time>2016-02-28T08:29:20.000Z</time>
      </trkpt>
      <trkpt lat="47.89778" lon="1.87667">
        <ele>98.15</ele>
        <time>2016-02-28T08:29:22.000Z</time>
      </trkpt>
      <trkpt lat="47.89778" lon="1.87667">
        <ele>98.15</ele>
        <time>2016-02-28T08:29:24.000Z</time>
      </trkpt>
      <trkpt lat="47.89778" lon="1.87666">
        <ele>98.15</ele>
        <time>2016-02-28T08:29:26.000Z</time>
      </trkpt>
      <trkpt lat="47.89778" lon="1.87666">
        <ele>98.15</ele>
        <time>2016-02-28T08:29:28.000Z</time>
      </trkpt>
      <trkpt lat="47.89778" lon="1.87666">
        <ele>98.15</ele>
        <time>2016-02-28T08:29:30.000Z</time>
      </trkpt>
      <trkpt lat="47.89778" lon="1.87665">
        <ele>98.15</ele>
        <time>2016-02-28T08:29:32.000Z</time>
      </trkpt>
      <trkpt lat="47.89777" lon="1.87665">
        <ele>98.15</ele>
        <time>2016-02-28T08:29:34.000Z</time>
      </trkpt>
      <trkpt lat="47.89777" lon="1.87664">
        <ele>98.15</ele>
        <time>2016-02-28T08:29:36.000Z</time>
      </trkpt>
      <trkpt lat="47.89777" lon="1.87664">
        <ele>98.15</ele>
        <time>2016-02-28T08:29:38.000Z</time>
      </trkpt>
      <trkpt lat="47.89777" lon="1.87664">
        <ele>98.15</ele>
        <time>2016-02-28T08:29:40.000Z</time>
      </trkpt>
      <trkpt lat="47.89777" lon="1.87663">
        <ele>98.15</ele>
        <time>2016-02-28T08:29:42.000Z</time>
      </trkpt>
      <trkpt lat="47.89777" lon="1.87663">
        <ele>98.15</ele>
        <time>2016-02-28T08:29:44.000Z</time>
      </trkpt>
      <trkpt lat="47.89777" lon="1.87663">
        <ele>98.15</ele>
        <time>2016-02-28T08:29:46.000Z</time>
      </trkpt>
      <trkpt lat="47.89777" lon="1.87663">
        <ele>98.15</ele>
        <time>2016-02-28T08:29:48.000Z</time>
      </trkpt>
      <trkpt lat="47.89776" lon="1.87664">
        <ele>98.15</ele>
        <time>2016-02-28T08:29:50.000Z</time>
      </trkpt>
      <trkpt lat="47.89776" lon="1.87664">
        <ele>96.93</ele>
        <time>2016-02-28T08:29:52.000Z</time>
      </trkpt>
      <trkpt lat="47.89776" lon="1.87665">
        <ele>96.93</ele>
        <time>2016-02-28T08:29:54.000Z</time>
      </trkpt>
      <trkpt lat="47.89776" lon="1.87665">
        <ele>96.93</ele>
        <time>2016-02-28T08:29:56.000Z</time>
      </trkpt>
      <trkpt lat="47.89776" lon="1.87665">
        <ele>96.93</ele>
        <time>2016-02-28T08:29:58.000Z</time>
      </trkpt>
      <trkpt lat="47.89776" lon="1.87665">
        <ele>96.93</ele>
        <time>2016-02-28T08:30:00.000Z</time>
      </trkpt>
      <trkpt lat="47.89776" lon="1.87665">
        <ele>96.93</ele>
        <time>2016-02-28T08:30:02.000Z</time>
      </trkpt>
      <trkpt lat="47.89776" lon="1.87665">
        <ele>96.93</ele>
        <time>2016-02-28T08:30:04.000Z</time>
      </trkpt>
      <trkpt lat="47.89776" lon="1.87665">
        <ele>96.93</ele>
        <time>2016-02-28T08:30:06.000Z</time>
      </trkpt>
      <trkpt lat="47.89776" lon="1.87665">
        <ele>96.93</ele>
        <time>2016-02-28T08:30:08.000Z</time>
      </trkpt>
      <trkpt lat="47.89776" lon="1.87666">
        <ele>96.93</ele>
        <time>2016-02-28T08:30:10.000Z</time>
      </trkpt>
      <trkpt lat="47.89776" lon="1.87666">
        <ele>96.93</ele>
        <time>2016-02-28T08:30:12.000Z</time>
      </trkpt>
      <trkpt lat="47.89777" lon="1.87666">
        <ele>96.93</ele>
        <time>2016-02-28T08:30:14.000Z</time>
      </trkpt>
      <trkpt lat="47.89777" lon="1.87666">
        <ele>96.93</ele>
        <time>2016-02-28T08:30:16.000Z</time>
      </trkpt>
      <trkpt lat="47.89777" lon="1.87666">
        <ele>96.93</ele>
        <time>2016-02-28T08:30:18.000Z</time>
      </trkpt>
      <trkpt lat="47.89777" lon="1.87667">
        <ele>96.93</ele>
        <time>2016-02-28T08:30:20.000Z</time>
      </trkpt>
      <trkpt lat="47.89777" lon="1.87667">
        <ele>96.93</ele>
        <time>2016-02-28T08:30:22.000Z</time>
      </trkpt>
      <trkpt lat="47.89777" lon="1.87667">
        <ele>96.93</ele>
        <time>2016-02-28T08:30:24.000Z</time>
      </trkpt>
      <trkpt lat="47.89777" lon="1.87667">
        <ele>96.93</ele>
        <time>2016-02-28T08:30:26.000Z</time>
      </trkpt>
      <trkpt lat="47.89777" lon="1.87667">
        <ele>96.93</ele>
        <time>2016-02-28T08:30:28.000Z</time>
      </trkpt>
      <trkpt lat="47.89776" lon="1.87668">
        <ele>96.93</ele>
        <time>2016-02-28T08:30:30.000Z</time>
      </trkpt>
      <trkpt lat="47.89776" lon="1.87668">
        <ele>96.93</ele>
        <time>2016-02-28T08:30:32.000Z</time>
      </trkpt>
      <trkpt lat="47.89776" lon="1.87668">
        <ele>96.93</ele>
        <time>2016-02-28T08:30:34.000Z</time>
      </trkpt>
      <trkpt lat="47.89776" lon="1.87668">
        <ele>96.93</ele>
        <time>2016-02-28T08:30:36.000Z</time>
      </trkpt>
      <trkpt lat="47.89776" lon="1.87668">
        <ele>96.93</ele>
        <time>2016-02-28T08:30:38.000Z</time>
      </trkpt>
      <trkpt lat="47.89776" lon="1.87668">
        <ele>96.93</ele>
        <time>2016-02-28T08:30:40.000Z</time>
      </trkpt>
      <trkpt lat="47.89776" lon="1.87668">
        <ele>96.93</ele>
        <time>2016-02-28T08:30:42.000Z</time>
      </trkpt>
      <trkpt lat="47.89776" lon="1.87668">
        <ele>96.93</ele>
        <time>2016-02-28T08:30:44.000Z</time>
      </trkpt>
      <trkpt lat="47.89776" lon="1.87668">
        <ele>96.93</ele>
        <time>2016-02-28T08:30:46.000Z</time>
      </trkpt>
      <trkpt lat="47.89776" lon="1.87668">
        <ele>96.93</ele>
        <time>2016-02-28T08:30:48.000Z</time>
      </trkpt>
      <trkpt lat="47.89776" lon="1.87668">
        <ele>96.93</ele>
        <time>2016-02-28T08:30:50.000Z</time>
      </trkpt>
      <trkpt lat="47.89776" lon="1.87668">
        <ele>96.93</ele>
        <time>2016-02-28T08:30:52.000Z</time>
      </trkpt>
      <trkpt lat="47.89776" lon="1.87668">
        <ele>96.93</ele>
        <time>2016-02-28T08:30:54.000Z</time>
      </trkpt>
      <trkpt lat="47.89776" lon="1.87667">
        <ele>96.93</ele>
        <time>2016-02-28T08:30:56.000Z</time>
      </trkpt>
      <trkpt lat="47.89775" lon="1.87666">
        <ele>96.93</ele>
        <time>2016-02-28T08:30:58.000Z</time>
      </trkpt>
      <trkpt lat="47.89774" lon="1.87665">
        <ele>96.93</ele>
        <time>2016-02-28T08:31:00.000Z</time>
      </trkpt>
      <trkpt lat="47.89771" lon="1.87663">
        <ele>96.93</ele>
        <time>2016-02-28T08:31:02.000Z</time>
      </trkpt>
      <trkpt lat="47.89766" lon="1.87663">
        <ele>96.93</ele>
        <time>2016-02-28T08:31:04.000Z</time>
      </trkpt>
      <trkpt lat="47.8976" lon="1.87663">
        <ele>96.93</ele>
        <time>2016-02-28T08:31:06.000Z</time>
      </trkpt>
      <trkpt lat="47.89754" lon="1.87662">
        <ele>96.93</ele>
        <time>2016-02-28T08:31:08.000Z</time>
      </trkpt>
      <trkpt lat="47.89746" lon="1.87662">
        <ele>96.93</ele>
        <time>2016-02-28T08:31:10.000Z</time>
      </trkpt>
      <trkpt lat="47.89737" lon="1.87662">
        <ele>96.93</ele>
        <time>2016-02-28T08:31:12.000Z</time>
      </trkpt>
      <trkpt lat="47.89728" lon="1.87661">
        <ele>96.93</ele>
        <time>2016-02-28T08:31:14.000Z</time>
      </trkpt>
      <trkpt lat="47.89716" lon="1.8766">
        <ele>96.93</ele>
        <time>2016-02-28T08:31:16.000Z</time>
      </trkpt>
      <trkpt lat="47.89712" lon="1.8766">
        <ele>96.93</ele>
        <time>2016-02-28T08:31:18.000Z</time>
      </trkpt>
      <trkpt lat="47.89703" lon="1.87659">
        <ele>96.93</ele>
        <time>2016-02-28T08:31:20.000Z</time>
      </trkpt>
      <trkpt lat="47.89695" lon="1.87658">
        <ele>96.01</ele>
        <time>2016-02-28T08:31:22.000Z</time>
      </trkpt>
      <trkpt lat="47.89687" lon="1.87657">
        <ele>96.01</ele>
        <time>2016-02-28T08:31:24.000Z</time>
      </trkpt>
      <trkpt lat="47.89679" lon="1.87657">
        <ele>96.01</ele>
        <time>2016-02-28T08:31:26.000Z</time>
      </trkpt>
      <trkpt lat="47.89671" lon="1.87656">
        <ele>96.01</ele>
        <time>2016-02-28T08:31:28.000Z</time>
      </trkpt>
      <trkpt lat="47.89663" lon="1.87656">
        <ele>96.01</ele>
        <time>2016-02-28T08:31:30.000Z</time>
      </trkpt>
      <trkpt lat="47.8965" lon="1.87655">
        <ele>96.01</ele>
        <time>2016-02-28T08:31:32.000Z</time>
      </trkpt>
      <trkpt lat="47.89645" lon="1.87655">
        <ele>96.01</ele>
        <time>2016-02-28T08:31:34.000Z</time>
      </trkpt>
      <trkpt lat="47.89637" lon="1.87654">
        <ele>96.01</ele>
        <time>2016-02-28T08:31:36.000Z</time>
      </trkpt>
      <trkpt lat="47.89628" lon="1.87653">
        <ele>96.01</ele>
        <time>2016-02-28T08:31:38.000Z</time>
      </trkpt>
      <trkpt lat="47.89619" lon="1.87653">
        <ele>96.01</ele>
        <time>2016-02-28T08:31:40.000Z</time>
      </trkpt>
      <trkpt lat="47.8961" lon="1.87652">
        <ele>96.01</ele>
        <time>2016-02-28T08:31:42.000Z</time>
      </trkpt>
      <trkpt lat="47.89601" lon="1.87652">
        <ele>96.01</ele>
        <time>2016-02-28T08:31:44.000Z</time>
      </trkpt>
      <trkpt lat="47.89587" lon="1.87651">
        <ele>96.01</ele>
        <time>2016-02-28T08:31:46.000Z</time>
      </trkpt>
      <trkpt lat="47.89583" lon="1.8765">
        <ele>96.01</ele>
        <time>2016-02-28T08:31:48.000Z</time>
      </trkpt>
      <trkpt lat="47.89574" lon="1.8765">
        <ele>96.01</ele>
        <time>2016-02-28T08:31:50.000Z</time>
      </trkpt>
      <trkpt lat="47.89564" lon="1.87649">
        <ele>96.01</ele>
        <time>2016-02-28T08:31:52.000Z</time>
      </trkpt>
      <trkpt lat="47.89555" lon="1.87649">
        <ele>96.01</ele>
        <time>2016-02-28T08:31:54.000Z</time>
      </trkpt>
      <trkpt lat="47.89545" lon="1.87648">
        <ele>96.01</ele>
        <time>2016-02-28T08:31:56.000Z</time>
      </trkpt>
      <trkpt lat="47.89536" lon="1.87647">
        <ele>96.01</ele>
        <time>2016-02-28T08:31:58.000Z</time>
      </trkpt>
      <trkpt lat="47.89526" lon="1.87647">
        <ele>96.01</ele>
        <time>2016-02-28T08:32:00.000Z</time>
      </trkpt>
      <trkpt lat="47.89516" lon="1.87646">
        <ele>95.1</ele>
        <time>2016-02-28T08:32:02.000Z</time>
      </trkpt>
      <trkpt lat="47.89505" lon="1.87646">
        <ele>95.1</ele>
        <time>2016-02-28T08:32:04.000Z</time>
      </trkpt>
      <trkpt lat="47.89494" lon="1.87645">
        <ele>95.1</ele>
        <time>2016-02-28T08:32:06.000Z</time>
      </trkpt>
      <trkpt lat="47.89483" lon="1.87644">
        <ele>95.1</ele>
        <time>2016-02-28T08:32:08.000Z</time>
      </trkpt>
      <trkpt lat="47.89471" lon="1.87643">
        <ele>95.1</ele>
        <time>2016-02-28T08:32:10.000Z</time>
      </trkpt>
      <trkpt lat="47.89459" lon="1.87642">
        <ele>92.96</ele>
        <time>2016-02-28T08:32:12.000Z</time>
      </trkpt>
      <trkpt lat="47.89447" lon="1.87642">
        <ele>92.96</ele>
        <time>2016-02-28T08:32:14.000Z</time>
      </trkpt>
      <trkpt lat="47.89435" lon="1.87641">
        <ele>92.96</ele>
        <time>2016-02-28T08:32:16.000Z</time>
      </trkpt>
      <trkpt lat="47.89422" lon="1.8764">
        <ele>92.05</ele>
        <time>2016-02-28T08:32:18.000Z</time>
      </trkpt>
      <trkpt lat="47.8941" lon="1.8764">
        <ele>92.05</ele>
        <time>2016-02-28T08:32:20.000Z</time>
      </trkpt>
      <trkpt lat="47.89397" lon="1.8764">
        <ele>92.05</ele>
        <time>2016-02-28T08:32:22.000Z</time>
      </trkpt>
      <trkpt lat="47.89384" lon="1.87639">
        <ele>92.05</ele>
        <time>2016-02-28T08:32:24.000Z</time>
      </trkpt>
      <trkpt lat="47.89371" lon="1.87638">
        <ele>92.05</ele>
        <time>2016-02-28T08:32:26.000Z</time>
      </trkpt>
      <trkpt lat="47.89358" lon="1.87637">
        <ele>92.05</ele>
        <time>2016-02-28T08:32:28.000Z</time>
      </trkpt>
      <trkpt lat="47.89348" lon="1.87637">
        <ele>92.05</ele>
        <time>2016-02-28T08:32:30.000Z</time>
      </trkpt>
      <trkpt lat="47.89344" lon="1.87642">
        <ele>91.14</ele>
        <time>2016-02-28T08:32:32.000Z</time>
      </trkpt>
      <trkpt lat="47.89344" lon="1.87648">
        <ele>91.14</ele>
        <time>2016-02-28T08:32:34.000Z</time>
      </trkpt>
      <trkpt lat="47.89346" lon="1.8765">
        <ele>91.14</ele>
        <time>2016-02-28T08:32:36.000Z</time>
      </trkpt>
      <trkpt lat="47.8935" lon="1.87648">
        <ele>89.92</ele>
        <time>2016-02-28T08:32:38.000Z</time>
      </trkpt>
      <trkpt lat="47.89358" lon="1.87648">
        <ele>89.92</ele>
        <time>2016-02-28T08:32:40.000Z</time>
      </trkpt>
      <trkpt lat="47.8937" lon="1.87648">
        <ele>88.09</ele>
        <time>2016-02-28T08:32:42.000Z</time>
      </trkpt>
      <trkpt lat="47.89381" lon="1.87647">
        <ele>88.09</ele>
        <time>2016-02-28T08:32:44.000Z</time>
      </trkpt>
      <trkpt lat="47.89388" lon="1.87642">
        <ele>88.09</ele>
        <time>2016-02-28T08:32:46.000Z</time>
      </trkpt>
      <trkpt lat="47.89391" lon="1.87636">
        <ele>88.09</ele>
        <time>2016-02-28T08:32:48.000Z</time>
      </trkpt>
      <trkpt lat="47.89393" lon="1.87631">
        <ele>88.09</ele>
        <time>2016-02-28T08:32:50.000Z</time>
      </trkpt>
      <trkpt lat="47.89396" lon="1.87622">
        <ele>85.95</ele>
        <time>2016-02-28T08:32:52.000Z</time>
      </trkpt>
      <trkpt lat="47.89401" lon="1.8761">
        <ele>85.95</ele>
        <time>2016-02-28T08:32:54.000Z</time>
      </trkpt>
      <trkpt lat="47.89402" lon="1.87593">
        <ele>85.95</ele>
        <time>2016-02-28T08:32:56.000Z</time>
      </trkpt>
      <trkpt lat="47.89401" lon="1.87586">
        <ele>85.95</ele>
        <time>2016-02-28T08:32:58.000Z</time>
      </trkpt>
      <trkpt lat="47.894" lon="1.87576">
        <ele>85.95</ele>
        <time>2016-02-28T08:33:00.000Z</time>
      </trkpt>
      <trkpt lat="47.894" lon="1.87565">
        <ele>85.95</ele>
        <time>2016-02-28T08:33:02.000Z</time>
      </trkpt>
      <trkpt lat="47.89401" lon="1.87556">
        <ele>85.95</ele>
        <time>2016-02-28T08:33:04.000Z</time>
      </trkpt>
      <trkpt lat="47.89401" lon="1.87545">
        <ele>85.95</ele>
        <time>2016-02-28T08:33:06.000Z</time>
      </trkpt>
      <trkpt lat="47.894" lon="1.87533">
        <ele>85.95</ele>
        <time>2016-02-28T08:33:08.000Z</time>
      </trkpt>
      <trkpt lat="47.89398" lon="1.87519">
        <ele>85.95</ele>
        <time>2016-02-28T08:33:10.000Z</time>
      </trkpt>
      <trkpt lat="47.89397" lon="1.87507">
        <ele>85.95</ele>
        <time>2016-02-28T08:33:12.000Z</time>
      </trkpt>
      <trkpt lat="47.89395" lon="1.87495">
        <ele>85.95</ele>
        <time>2016-02-28T08:33:14.000Z</time>
      </trkpt>
      <trkpt lat="47.89392" lon="1.87482">
        <ele>85.95</ele>
        <time>2016-02-28T08:33:16.000Z</time>
      </trkpt>
      <trkpt lat="47.8939" lon="1.87469">
        <ele>85.95</ele>
        <time>2016-02-28T08:33:18.000Z</time>
      </trkpt>
      <trkpt lat="47.89389" lon="1.87456">
        <ele>85.95</ele>
        <time>2016-02-28T08:33:20.000Z</time>
      </trkpt>
      <trkpt lat="47.8939" lon="1.87443">
        <ele>85.95</ele>
        <time>2016-02-28T08:33:22.000Z</time>
      </trkpt>
      <trkpt lat="47.8939" lon="1.8743">
        <ele>85.95</ele>
        <time>2016-02-28T08:33:24.000Z</time>
      </trkpt>
      <trkpt lat="47.89392" lon="1.87416">
        <ele>85.95</ele>
        <time>2016-02-28T08:33:26.000Z</time>
      </trkpt>
      <trkpt lat="47.89392" lon="1.87402">
        <ele>85.95</ele>
        <time>2016-02-28T08:33:28.000Z</time>
      </trkpt>
      <trkpt lat="47.89392" lon="1.87388">
        <ele>85.95</ele>
        <time>2016-02-28T08:33:30.000Z</time>
      </trkpt>
      <trkpt lat="47.89392" lon="1.87382">
        <ele>85.95</ele>
        <time>2016-02-28T08:33:32.000Z</time>
      </trkpt>
      <trkpt lat="47.89393" lon="1.87361">
        <ele>85.95</ele>
        <time>2016-02-28T08:33:34.000Z</time>
      </trkpt>
      <trkpt lat="47.89392" lon="1.87348">
        <ele>85.95</ele>
        <time>2016-02-28T08:33:36.000Z</time>
      </trkpt>
      <trkpt lat="47.89391" lon="1.87337">
        <ele>85.04</ele>
        <time>2016-02-28T08:33:38.000Z</time>
      </trkpt>
      <trkpt lat="47.89388" lon="1.87318">
        <ele>85.04</ele>
        <time>2016-02-28T08:33:40.000Z</time>
      </trkpt>
      <trkpt lat="47.89388" lon="1.87311">
        <ele>85.04</ele>
        <time>2016-02-28T08:33:42.000Z</time>
      </trkpt>
      <trkpt lat="47.89388" lon="1.87298">
        <ele>85.04</ele>
        <time>2016-02-28T08:33:44.000Z</time>
      </trkpt>
      <trkpt lat="47.89388" lon="1.87283">
        <ele>85.04</ele>
        <time>2016-02-28T08:33:46.000Z</time>
      </trkpt>
      <trkpt lat="47.89387" lon="1.8727">
        <ele>85.04</ele>
        <time>2016-02-28T08:33:48.000Z</time>
      </trkpt>
      <trkpt lat="47.89386" lon="1.87257">
        <ele>85.04</ele>
        <time>2016-02-28T08:33:50.000Z</time>
      </trkpt>
      <trkpt lat="47.89385" lon="1.87244">
        <ele>85.04</ele>
        <time>2016-02-28T08:33:52.000Z</time>
      </trkpt>
      <trkpt lat="47.89385" lon="1.87225">
        <ele>85.04</ele>
        <time>2016-02-28T08:33:54.000Z</time>
      </trkpt>
      <trkpt lat="47.89385" lon="1.87219">
        <ele>85.04</ele>
        <time>2016-02-28T08:33:56.000Z</time>
      </trkpt>
      <trkpt lat="47.89384" lon="1.87208">
        <ele>85.04</ele>
        <time>2016-02-28T08:33:58.000Z</time>
      </trkpt>
      <trkpt lat="47.89382" lon="1.87197">
        <ele>85.04</ele>
        <time>2016-02-28T08:34:00.000Z</time>
      </trkpt>
      <trkpt lat="47.8938" lon="1.87184">
        <ele>85.04</ele>
        <time>2016-02-28T08:34:02.000Z</time>
      </trkpt>
      <trkpt lat="47.89379" lon="1.87173">
        <ele>85.04</ele>
        <time>2016-02-28T08:34:04.000Z</time>
      </trkpt>
      <trkpt lat="47.89378" lon="1.87161">
        <ele>85.04</ele>
        <time>2016-02-28T08:34:06.000Z</time>
      </trkpt>
      <trkpt lat="47.89377" lon="1.87143">
        <ele>85.04</ele>
        <time>2016-02-28T08:34:08.000Z</time>
      </trkpt>
      <trkpt lat="47.89377" lon="1.87136">
        <ele>85.04</ele>
        <time>2016-02-28T08:34:10.000Z</time>
      </trkpt>
      <trkpt lat="47.89377" lon="1.87121">
        <ele>82.91</ele>
        <time>2016-02-28T08:34:12.000Z</time>
      </trkpt>
      <trkpt lat="47.89378" lon="1.87106">
        <ele>82.91</ele>
        <time>2016-02-28T08:34:14.000Z</time>
      </trkpt>
      <trkpt lat="47.89377" lon="1.87092">
        <ele>82.91</ele>
        <time>2016-02-28T08:34:16.000Z</time>
      </trkpt>
      <trkpt lat="47.8938" lon="1.87077">
        <ele>82.91</ele>
        <time>2016-02-28T08:34:18.000Z</time>
      </trkpt>
      <trkpt lat="47.8938" lon="1.87059">
        <ele>82.91</ele>
        <time>2016-02-28T08:34:20.000Z</time>
      </trkpt>
      <trkpt lat="47.89379" lon="1.87044">
        <ele>81.08</ele>
        <time>2016-02-28T08:34:22.000Z</time>
      </trkpt>
      <trkpt lat="47.89376" lon="1.8703">
        <ele>81.08</ele>
        <time>2016-02-28T08:34:24.000Z</time>
      </trkpt>
      <trkpt lat="47.89372" lon="1.87015">
        <ele>81.08</ele>
        <time>2016-02-28T08:34:26.000Z</time>
      </trkpt>
      <trkpt lat="47.89367" lon="1.87003">
        <ele>81.08</ele>
        <time>2016-02-28T08:34:28.000Z</time>
      </trkpt>
      <trkpt lat="47.89364" lon="1.8699">
        <ele>81.08</ele>
        <time>2016-02-28T08:34:30.000Z</time>
      </trkpt>
      <trkpt lat="47.89362" lon="1.86976">
        <ele>81.08</ele>
        <time>2016-02-28T08:34:32.000Z</time>
      </trkpt>
      <trkpt lat="47.8936" lon="1.86962">
        <ele>81.08</ele>
        <time>2016-02-28T08:34:34.000Z</time>
      </trkpt>
      <trkpt lat="47.89357" lon="1.8695">
        <ele>81.08</ele>
        <time>2016-02-28T08:34:36.000Z</time>
      </trkpt>
      <trkpt lat="47.89354" lon="1.86937">
        <ele>81.08</ele>
        <time>2016-02-28T08:34:38.000Z</time>
      </trkpt>
      <trkpt lat="47.89351" lon="1.86925">
        <ele>81.08</ele>
        <time>2016-02-28T08:34:40.000Z</time>
      </trkpt>
      <trkpt lat="47.89348" lon="1.86914">
        <ele>82.91</ele>
        <time>2016-02-28T08:34:42.000Z</time>
      </trkpt>
      <trkpt lat="47.89345" lon="1.86901">
        <ele>82.91</ele>
        <time>2016-02-28T08:34:44.000Z</time>
      </trkpt>
      <trkpt lat="47.8934" lon="1.8689">
        <ele>82.91</ele>
        <time>2016-02-28T08:34:46.000Z</time>
      </trkpt>
      <trkpt lat="47.89336" lon="1.86881">
        <ele>82.91</ele>
        <time>2016-02-28T08:34:48.000Z</time>
      </trkpt>
      <trkpt lat="47.89335" lon="1.8687">
        <ele>82.91</ele>
        <time>2016-02-28T08:34:50.000Z</time>
      </trkpt>
      <trkpt lat="47.89336" lon="1.86859">
        <ele>84.12</ele>
        <time>2016-02-28T08:34:52.000Z</time>
      </trkpt>
      <trkpt lat="47.89335" lon="1.86848">
        <ele>84.12</ele>
        <time>2016-02-28T08:34:54.000Z</time>
      </trkpt>
      <trkpt lat="47.89333" lon="1.86836">
        <ele>84.12</ele>
        <time>2016-02-28T08:34:56.000Z</time>
      </trkpt>
      <trkpt lat="47.89331" lon="1.86822">
        <ele>84.12</ele>
        <time>2016-02-28T08:34:58.000Z</time>
      </trkpt>
      <trkpt lat="47.89329" lon="1.86809">
        <ele>84.12</ele>
        <time>2016-02-28T08:35:00.000Z</time>
      </trkpt>
      <trkpt lat="47.89328" lon="1.86796">
        <ele>84.12</ele>
        <time>2016-02-28T08:35:02.000Z</time>
      </trkpt>
      <trkpt lat="47.89323" lon="1.86785">
        <ele>84.12</ele>
        <time>2016-02-28T08:35:04.000Z</time>
      </trkpt>
      <trkpt lat="47.8932" lon="1.86773">
        <ele>84.12</ele>
        <time>2016-02-28T08:35:06.000Z</time>
      </trkpt>
      <trkpt lat="47.89318" lon="1.86762">
        <ele>84.12</ele>
        <time>2016-02-28T08:35:08.000Z</time>
      </trkpt>
      <trkpt lat="47.89315" lon="1.86751">
        <ele>84.12</ele>
        <time>2016-02-28T08:35:10.000Z</time>
      </trkpt>
      <trkpt lat="47.89313" lon="1.86738">
        <ele>84.12</ele>
        <time>2016-02-28T08:35:12.000Z</time>
      </trkpt>
      <trkpt lat="47.8931" lon="1.86725">
        <ele>84.12</ele>
        <time>2016-02-28T08:35:14.000Z</time>
      </trkpt>
      <trkpt lat="47.89308" lon="1.86713">
        <ele>84.12</ele>
        <time>2016-02-28T08:35:16.000Z</time>
      </trkpt>
      <trkpt lat="47.89305" lon="1.86701">
        <ele>84.12</ele>
        <time>2016-02-28T08:35:18.000Z</time>
      </trkpt>
      <trkpt lat="47.89301" lon="1.86689">
        <ele>84.12</ele>
        <time>2016-02-28T08:35:20.000Z</time>
      </trkpt>
      <trkpt lat="47.89298" lon="1.86677">
        <ele>84.12</ele>
        <time>2016-02-28T08:35:22.000Z</time>
      </trkpt>
      <trkpt lat="47.89296" lon="1.86664">
        <ele>84.12</ele>
        <time>2016-02-28T08:35:24.000Z</time>
      </trkpt>
      <trkpt lat="47.89293" lon="1.86651">
        <ele>84.12</ele>
        <time>2016-02-28T08:35:26.000Z</time>
      </trkpt>
      <trkpt lat="47.8929" lon="1.86639">
        <ele>84.12</ele>
        <time>2016-02-28T08:35:28.000Z</time>
      </trkpt>
      <trkpt lat="47.89287" lon="1.86626">
        <ele>84.12</ele>
        <time>2016-02-28T08:35:30.000Z</time>
      </trkpt>
      <trkpt lat="47.89285" lon="1.86613">
        <ele>84.12</ele>
        <time>2016-02-28T08:35:32.000Z</time>
      </trkpt>
      <trkpt lat="47.89283" lon="1.86601">
        <ele>84.12</ele>
        <time>2016-02-28T08:35:34.000Z</time>
      </trkpt>
      <trkpt lat="47.8928" lon="1.86588">
        <ele>84.12</ele>
        <time>2016-02-28T08:35:36.000Z</time>
      </trkpt>
      <trkpt lat="47.89278" lon="1.86574">
        <ele>84.12</ele>
        <time>2016-02-28T08:35:38.000Z</time>
      </trkpt>
      <trkpt lat="47.89276" lon="1.8656">
        <ele>84.12</ele>
        <time>2016-02-28T08:35:40.000Z</time>
      </trkpt>
      <trkpt lat="47.89273" lon="1.86547">
        <ele>84.12</ele>
        <time>2016-02-28T08:35:42.000Z</time>
      </trkpt>
      <trkpt lat="47.8927" lon="1.86533">
        <ele>84.12</ele>
        <time>2016-02-28T08:35:44.000Z</time>
      </trkpt>
      <trkpt lat="47.89267" lon="1.8652">
        <ele>84.12</ele>
        <time>2016-02-28T08:35:46.000Z</time>
      </trkpt>
      <trkpt lat="47.89264" lon="1.86507">
        <ele>84.12</ele>
        <time>2016-02-28T08:35:48.000Z</time>
      </trkpt>
      <trkpt lat="47.89262" lon="1.86494">
        <ele>84.12</ele>
        <time>2016-02-28T08:35:50.000Z</time>
      </trkpt>
      <trkpt lat="47.89259" lon="1.86481">
        <ele>84.12</ele>
        <time>2016-02-28T08:35:52.000Z</time>
      </trkpt>
      <trkpt lat="47.89256" lon="1.86467">
        <ele>84.12</ele>
        <time>2016-02-28T08:35:54.000Z</time>
      </trkpt>
      <trkpt lat="47.89253" lon="1.86454">
        <ele>84.12</ele>
        <time>2016-02-28T08:35:56.000Z</time>
      </trkpt>
      <trkpt lat="47.8925" lon="1.86442">
        <ele>84.12</ele>
        <time>2016-02-28T08:35:58.000Z</time>
      </trkpt>
      <trkpt lat="47.89247" lon="1.8643">
        <ele>84.12</ele>
        <time>2016-02-28T08:36:00.000Z</time>
      </trkpt>
      <trkpt lat="47.89243" lon="1.86418">
        <ele>84.12</ele>
        <time>2016-02-28T08:36:02.000Z</time>
      </trkpt>
      <trkpt lat="47.8924" lon="1.86406">
        <ele>84.12</ele>
        <time>2016-02-28T08:36:04.000Z</time>
      </trkpt>
      <trkpt lat="47.89236" lon="1.86393">
        <ele>84.12</ele>
        <time>2016-02-28T08:36:06.000Z</time>
      </trkpt>
      <trkpt lat="47.89233" lon="1.8638">
        <ele>82.91</ele>
        <time>2016-02-28T08:36:08.000Z</time>
      </trkpt>
      <trkpt lat="47.8923" lon="1.86367">
        <ele>82.91</ele>
        <time>2016-02-28T08:36:10.000Z</time>
      </trkpt>
      <trkpt lat="47.89226" lon="1.86354">
        <ele>82.91</ele>
        <time>2016-02-28T08:36:12.000Z</time>
      </trkpt>
      <trkpt lat="47.89223" lon="1.86341">
        <ele>82.91</ele>
        <time>2016-02-28T08:36:14.000Z</time>
      </trkpt>
      <trkpt lat="47.89218" lon="1.86322">
        <ele>82.91</ele>
        <time>2016-02-28T08:36:16.000Z</time>
      </trkpt>
      <trkpt lat="47.89217" lon="1.86315">
        <ele>82.91</ele>
        <time>2016-02-28T08:36:18.000Z</time>
      </trkpt>
      <trkpt lat="47.89213" lon="1.86303">
        <ele>82.91</ele>
        <time>2016-02-28T08:36:20.000Z</time>
      </trkpt>
      <trkpt lat="47.89211" lon="1.86291">
        <ele>82.91</ele>
        <time>2016-02-28T08:36:22.000Z</time>
      </trkpt>
      <trkpt lat="47.89208" lon="1.8628">
        <ele>82.91</ele>
        <time>2016-02-28T08:36:24.000Z</time>
      </trkpt>
      <trkpt lat="47.89204" lon="1.86269">
        <ele>82.91</ele>
        <time>2016-02-28T08:36:26.000Z</time>
      </trkpt>
      <trkpt lat="47.89201" lon="1.86256">
        <ele>82.91</ele>
        <time>2016-02-28T08:36:28.000Z</time>
      </trkpt>
      <trkpt lat="47.89198" lon="1.86243">
        <ele>82.91</ele>
        <time>2016-02-28T08:36:30.000Z</time>
      </trkpt>
      <trkpt lat="47.89195" lon="1.86229">
        <ele>82.91</ele>
        <time>2016-02-28T08:36:32.000Z</time>
      </trkpt>
      <trkpt lat="47.89191" lon="1.86216">
        <ele>82.91</ele>
        <time>2016-02-28T08:36:34.000Z</time>
      </trkpt>
      <trkpt lat="47.89188" lon="1.86203">
        <ele>82.91</ele>
        <time>2016-02-28T08:36:36.000Z</time>
      </trkpt>
      <trkpt lat="47.89184" lon="1.8619">
        <ele>82.91</ele>
        <time>2016-02-28T08:36:38.000Z</time>
      </trkpt>
      <trkpt lat="47.8918" lon="1.86178">
        <ele>82.91</ele>
        <time>2016-02-28T08:36:40.000Z</time>
      </trkpt>
      <trkpt lat="47.89176" lon="1.86165">
        <ele>82.91</ele>
        <time>2016-02-28T08:36:42.000Z</time>
      </trkpt>
      <trkpt lat="47.89172" lon="1.86152">
        <ele>82.91</ele>
        <time>2016-02-28T08:36:44.000Z</time>
      </trkpt>
      <trkpt lat="47.89166" lon="1.86134">
        <ele>82.91</ele>
        <time>2016-02-28T08:36:46.000Z</time>
      </trkpt>
      <trkpt lat="47.89164" lon="1.86128">
        <ele>82.91</ele>
        <time>2016-02-28T08:36:48.000Z</time>
      </trkpt>
      <trkpt lat="47.8916" lon="1.86115">
        <ele>82.91</ele>
        <time>2016-02-28T08:36:50.000Z</time>
      </trkpt>
      <trkpt lat="47.89156" lon="1.86102">
        <ele>82.91</ele>
        <time>2016-02-28T08:36:52.000Z</time>
      </trkpt>
      <trkpt lat="47.89152" lon="1.8609">
        <ele>82.91</ele>
        <time>2016-02-28T08:36:54.000Z</time>
      </trkpt>
      <trkpt lat="47.89148" lon="1.86078">
        <ele>82.91</ele>
        <time>2016-02-28T08:36:56.000Z</time>
      </trkpt>
      <trkpt lat="47.89146" lon="1.86067">
        <ele>82.91</ele>
        <time>2016-02-28T08:36:58.000Z</time>
      </trkpt>
      <trkpt lat="47.89142" lon="1.86055">
        <ele>82.91</ele>
        <time>2016-02-28T08:37:00.000Z</time>
      </trkpt>
      <trkpt lat="47.89138" lon="1.86043">
        <ele>82.91</ele>
        <time>2016-02-28T08:37:02.000Z</time>
      </trkpt>
      <trkpt lat="47.89133" lon="1.86033">
        <ele>82.91</ele>
        <time>2016-02-28T08:37:04.000Z</time>
      </trkpt>
      <trkpt lat="47.89129" lon="1.86021">
        <ele>82.91</ele>
        <time>2016-02-28T08:37:06.000Z</time>
      </trkpt>
      <trkpt lat="47.89126" lon="1.86009">
        <ele>82.91</ele>
        <time>2016-02-28T08:37:08.000Z</time>
      </trkpt>
      <trkpt lat="47.89124" lon="1.85998">
        <ele>82.91</ele>
        <time>2016-02-28T08:37:10.000Z</time>
      </trkpt>
      <trkpt lat="47.89121" lon="1.85985">
        <ele>82.91</ele>
        <time>2016-02-28T08:37:12.000Z</time>
      </trkpt>
      <trkpt lat="47.89117" lon="1.85973">
        <ele>82.91</ele>
        <time>2016-02-28T08:37:14.000Z</time>
      </trkpt>
      <trkpt lat="47.89115" lon="1.85962">
        <ele>82.91</ele>
        <time>2016-02-28T08:37:16.000Z</time>
      </trkpt>
      <trkpt lat="47.89111" lon="1.85948">
        <ele>82.91</ele>
        <time>2016-02-28T08:37:18.000Z</time>
      </trkpt>
      <trkpt lat="47.89107" lon="1.85936">
        <ele>82.91</ele>
        <time>2016-02-28T08:37:20.000Z</time>
      </trkpt>
      <trkpt lat="47.89104" lon="1.85927">
        <ele>82.91</ele>
        <time>2016-02-28T08:37:22.000Z</time>
      </trkpt>
      <trkpt lat="47.89101" lon="1.85917">
        <ele>82.91</ele>
        <time>2016-02-28T08:37:24.000Z</time>
      </trkpt>
      <trkpt lat="47.89098" lon="1.85908">
        <ele>82.91</ele>
        <time>2016-02-28T08:37:26.000Z</time>
      </trkpt>
      <trkpt lat="47.89095" lon="1.85901">
        <ele>82.91</ele>
        <time>2016-02-28T08:37:28.000Z</time>
      </trkpt>
      <trkpt lat="47.89094" lon="1.85895">
        <ele>82.91</ele>
        <time>2016-02-28T08:37:30.000Z</time>
      </trkpt>
      <trkpt lat="47.89093" lon="1.85892">
        <ele>82.91</ele>
        <time>2016-02-28T08:37:32.000Z</time>
      </trkpt>
      <trkpt lat="47.89091" lon="1.85886">
        <ele>82.91</ele>
        <time>2016-02-28T08:37:34.000Z</time>
      </trkpt>
      <trkpt lat="47.89088" lon="1.85879">
        <ele>82.91</ele>
        <time>2016-02-28T08:37:36.000Z</time>
      </trkpt>
      <trkpt lat="47.89084" lon="1.8587">
        <ele>82.91</ele>
        <time>2016-02-28T08:37:38.000Z</time>
      </trkpt>
      <trkpt lat="47.89081" lon="1.85858">
        <ele>82.91</ele>
        <time>2016-02-28T08:37:40.000Z</time>
      </trkpt>
      <trkpt lat="47.89078" lon="1.85847">
        <ele>82.91</ele>
        <time>2016-02-28T08:37:42.000Z</time>
      </trkpt>
      <trkpt lat="47.89074" lon="1.85835">
        <ele>82.91</ele>
        <time>2016-02-28T08:37:44.000Z</time>
      </trkpt>
      <trkpt lat="47.89071" lon="1.85825">
        <ele>82.91</ele>
        <time>2016-02-28T08:37:46.000Z</time>
      </trkpt>
      <trkpt lat="47.89069" lon="1.85813">
        <ele>82.91</ele>
        <time>2016-02-28T08:37:48.000Z</time>
      </trkpt>
      <trkpt lat="47.89068" lon="1.85801">
        <ele>82.91</ele>
        <time>2016-02-28T08:37:50.000Z</time>
      </trkpt>
      <trkpt lat="47.89068" lon="1.85791">
        <ele>81.08</ele>
        <time>2016-02-28T08:37:52.000Z</time>
      </trkpt>
      <trkpt lat="47.89065" lon="1.85782">
        <ele>81.08</ele>
        <time>2016-02-28T08:37:54.000Z</time>
      </trkpt>
      <trkpt lat="47.89063" lon="1.85773">
        <ele>81.08</ele>
        <time>2016-02-28T08:37:56.000Z</time>
      </trkpt>
      <trkpt lat="47.89058" lon="1.85765">
        <ele>81.08</ele>
        <time>2016-02-28T08:37:58.000Z</time>
      </trkpt>
      <trkpt lat="47.89054" lon="1.85757">
        <ele>81.08</ele>
        <time>2016-02-28T08:38:00.000Z</time>
      </trkpt>
      <trkpt lat="47.89051" lon="1.85749">
        <ele>81.08</ele>
        <time>2016-02-28T08:38:02.000Z</time>
      </trkpt>
      <trkpt lat="47.89046" lon="1.85743">
        <ele>81.08</ele>
        <time>2016-02-28T08:38:04.000Z</time>
      </trkpt>
      <trkpt lat="47.89041" lon="1.85735">
        <ele>81.08</ele>
        <time>2016-02-28T08:38:06.000Z</time>
      </trkpt>
      <trkpt lat="47.89037" lon="1.85724">
        <ele>81.08</ele>
        <time>2016-02-28T08:38:08.000Z</time>
      </trkpt>
      <trkpt lat="47.89032" lon="1.85714">
        <ele>81.08</ele>
        <time>2016-02-28T08:38:10.000Z</time>
      </trkpt>
      <trkpt lat="47.89026" lon="1.85706">
        <ele>81.08</ele>
        <time>2016-02-28T08:38:12.000Z</time>
      </trkpt>
      <trkpt lat="47.89022" lon="1.85696">
        <ele>81.08</ele>
        <time>2016-02-28T08:38:14.000Z</time>
      </trkpt>
      <trkpt lat="47.89019" lon="1.85685">
        <ele>81.08</ele>
        <time>2016-02-28T08:38:16.000Z</time>
      </trkpt>
      <trkpt lat="47.89015" lon="1.85675">
        <ele>81.99</ele>
        <time>2016-02-28T08:38:18.000Z</time>
      </trkpt>
      <trkpt lat="47.89011" lon="1.85662">
        <ele>81.99</ele>
        <time>2016-02-28T08:38:20.000Z</time>
      </trkpt>
      <trkpt lat="47.89006" lon="1.85652">
        <ele>81.99</ele>
        <time>2016-02-28T08:38:22.000Z</time>
      </trkpt>
      <trkpt lat="47.89001" lon="1.85641">
        <ele>81.99</ele>
        <time>2016-02-28T08:38:24.000Z</time>
      </trkpt>
      <trkpt lat="47.88996" lon="1.85629">
        <ele>81.99</ele>
        <time>2016-02-28T08:38:26.000Z</time>
      </trkpt>
      <trkpt lat="47.88992" lon="1.85617">
        <ele>82.91</ele>
        <time>2016-02-28T08:38:28.000Z</time>
      </trkpt>
      <trkpt lat="47.88987" lon="1.85605">
        <ele>82.91</ele>
        <time>2016-02-28T08:38:30.000Z</time>
      </trkpt>
      <trkpt lat="47.88982" lon="1.85594">
        <ele>82.91</ele>
        <time>2016-02-28T08:38:32.000Z</time>
      </trkpt>
      <trkpt lat="47.88978" lon="1.85582">
        <ele>82.91</ele>
        <time>2016-02-28T08:38:34.000Z</time>
      </trkpt>
      <trkpt lat="47.88973" lon="1.85571">
        <ele>82.91</ele>
        <time>2016-02-28T08:38:36.000Z</time>
      </trkpt>
      <trkpt lat="47.88968" lon="1.85558">
        <ele>82.91</ele>
        <time>2016-02-28T08:38:38.000Z</time>
      </trkpt>
      <trkpt lat="47.88964" lon="1.85547">
        <ele>82.91</ele>
        <time>2016-02-28T08:38:40.000Z</time>
      </trkpt>
      <trkpt lat="47.8896" lon="1.85537">
        <ele>82.91</ele>
        <time>2016-02-28T08:38:42.000Z</time>
      </trkpt>
      <trkpt lat="47.88957" lon="1.85526">
        <ele>82.91</ele>
        <time>2016-02-28T08:38:44.000Z</time>
      </trkpt>
      <trkpt lat="47.88954" lon="1.85515">
        <ele>82.91</ele>
        <time>2016-02-28T08:38:46.000Z</time>
      </trkpt>
      <trkpt lat="47.88951" lon="1.85504">
        <ele>81.99</ele>
        <time>2016-02-28T08:38:48.000Z</time>
      </trkpt>
      <trkpt lat="47.88947" lon="1.85494">
        <ele>81.99</ele>
        <time>2016-02-28T08:38:50.000Z</time>
      </trkpt>
      <trkpt lat="47.88944" lon="1.85487">
        <ele>81.99</ele>
        <time>2016-02-28T08:38:52.000Z</time>
      </trkpt>
      <trkpt lat="47.88939" lon="1.85477">
        <ele>81.99</ele>
        <time>2016-02-28T08:38:54.000Z</time>
      </trkpt>
      <trkpt lat="47.88936" lon="1.85476">
        <ele>81.99</ele>
        <time>2016-02-28T08:38:56.000Z</time>
      </trkpt>
      <trkpt lat="47.88934" lon="1.85476">
        <ele>81.99</ele>
        <time>2016-02-28T08:38:58.000Z</time>
      </trkpt>
      <trkpt lat="47.88929" lon="1.8547">
        <ele>81.99</ele>
        <time>2016-02-28T08:39:00.000Z</time>
      </trkpt>
      <trkpt lat="47.88924" lon="1.85465">
        <ele>82.91</ele>
        <time>2016-02-28T08:39:02.000Z</time>
      </trkpt>
      <trkpt lat="47.8892" lon="1.85458">
        <ele>82.91</ele>
        <time>2016-02-28T08:39:04.000Z</time>
      </trkpt>
      <trkpt lat="47.88918" lon="1.8545">
        <ele>82.91</ele>
        <time>2016-02-28T08:39:06.000Z</time>
      </trkpt>
      <trkpt lat="47.88915" lon="1.85443">
        <ele>82.91</ele>
        <time>2016-02-28T08:39:08.000Z</time>
      </trkpt>
      <trkpt lat="47.88912" lon="1.85438">
        <ele>82.91</ele>
        <time>2016-02-28T08:39:10.000Z</time>
      </trkpt>
      <trkpt lat="47.88909" lon="1.85433">
        <ele>82.91</ele>
        <time>2016-02-28T08:39:12.000Z</time>
      </trkpt>
      <trkpt lat="47.88907" lon="1.85426">
        <ele>82.91</ele>
        <time>2016-02-28T08:39:14.000Z</time>
      </trkpt>
      <trkpt lat="47.88904" lon="1.85419">
        <ele>82.91</ele>
        <time>2016-02-28T08:39:16.000Z</time>
      </trkpt>
      <trkpt lat="47.88898" lon="1.85411">
        <ele>82.91</ele>
        <time>2016-02-28T08:39:18.000Z</time>
      </trkpt>
      <trkpt lat="47.88892" lon="1.85402">
        <ele>82.91</ele>
        <time>2016-02-28T08:39:20.000Z</time>
      </trkpt>
      <trkpt lat="47.88887" lon="1.85393">
        <ele>82.91</ele>
        <time>2016-02-28T08:39:22.000Z</time>
      </trkpt>
      <trkpt lat="47.88882" lon="1.85383">
        <ele>82.91</ele>
        <time>2016-02-28T08:39:24.000Z</time>
      </trkpt>
      <trkpt lat="47.88876" lon="1.85374">
        <ele>82.91</ele>
        <time>2016-02-28T08:39:26.000Z</time>
      </trkpt>
      <trkpt lat="47.88872" lon="1.85365">
        <ele>82.91</ele>
        <time>2016-02-28T08:39:28.000Z</time>
      </trkpt>
      <trkpt lat="47.88869" lon="1.85355">
        <ele>82.91</ele>
        <time>2016-02-28T08:39:30.000Z</time>
      </trkpt>
      <trkpt lat="47.88867" lon="1.85347">
        <ele>82.91</ele>
        <time>2016-02-28T08:39:32.000Z</time>
      </trkpt>
      <trkpt lat="47.88866" lon="1.85343">
        <ele>82.91</ele>
        <time>2016-02-28T08:39:34.000Z</time>
      </trkpt>
      <trkpt lat="47.88866" lon="1.85343">
        <ele>82.91</ele>
        <time>2016-02-28T08:39:36.000Z</time>
      </trkpt>
      <trkpt lat="47.88866" lon="1.85343">
        <ele>82.91</ele>
        <time>2016-02-28T08:39:38.000Z</time>
      </trkpt>
      <trkpt lat="47.88866" lon="1.85342">
        <ele>82.91</ele>
        <time>2016-02-28T08:39:40.000Z</time>
      </trkpt>
      <trkpt lat="47.88863" lon="1.85337">
        <ele>82.91</ele>
        <time>2016-02-28T08:39:42.000Z</time>
      </trkpt>
      <trkpt lat="47.8886" lon="1.85328">
        <ele>82.91</ele>
        <time>2016-02-28T08:39:44.000Z</time>
      </trkpt>
      <trkpt lat="47.88857" lon="1.85318">
        <ele>82.91</ele>
        <time>2016-02-28T08:39:46.000Z</time>
      </trkpt>
      <trkpt lat="47.88852" lon="1.85309">
        <ele>82.91</ele>
        <time>2016-02-28T08:39:48.000Z</time>
      </trkpt>
      <trkpt lat="47.88848" lon="1.85298">
        <ele>82.91</ele>
        <time>2016-02-28T08:39:50.000Z</time>
      </trkpt>
      <trkpt lat="47.88843" lon="1.85287">
        <ele>84.12</ele>
        <time>2016-02-28T08:39:52.000Z</time>
      </trkpt>
      <trkpt lat="47.88839" lon="1.85277">
        <ele>84.12</ele>
        <time>2016-02-28T08:39:54.000Z</time>
      </trkpt>
      <trkpt lat="47.88835" lon="1.85265">
        <ele>84.12</ele>
        <time>2016-02-28T08:39:56.000Z</time>
      </trkpt>
      <trkpt lat="47.8883" lon="1.85254">
        <ele>84.12</ele>
        <time>2016-02-28T08:39:58.000Z</time>
      </trkpt>
      <trkpt lat="47.88825" lon="1.85243">
        <ele>84.12</ele>
        <time>2016-02-28T08:40:00.000Z</time>
      </trkpt>
      <trkpt lat="47.8882" lon="1.85233">
        <ele>84.12</ele>
        <time>2016-02-28T08:40:02.000Z</time>
      </trkpt>
      <trkpt lat="47.88815" lon="1.85222">
        <ele>84.12</ele>
        <time>2016-02-28T08:40:04.000Z</time>
      </trkpt>
      <trkpt lat="47.88811" lon="1.85211">
        <ele>84.12</ele>
        <time>2016-02-28T08:40:06.000Z</time>
      </trkpt>
      <trkpt lat="47.88805" lon="1.85199">
        <ele>82.91</ele>
        <time>2016-02-28T08:40:08.000Z</time>
      </trkpt>
      <trkpt lat="47.888" lon="1.85187">
        <ele>82.91</ele>
        <time>2016-02-28T08:40:10.000Z</time>
      </trkpt>
      <trkpt lat="47.88794" lon="1.85176">
        <ele>82.91</ele>
        <time>2016-02-28T08:40:12.000Z</time>
      </trkpt>
      <trkpt lat="47.88789" lon="1.85164">
        <ele>82.91</ele>
        <time>2016-02-28T08:40:14.000Z</time>
      </trkpt>
      <trkpt lat="47.88784" lon="1.85152">
        <ele>82.91</ele>
        <time>2016-02-28T08:40:16.000Z</time>
      </trkpt>
      <trkpt lat="47.88778" lon="1.8514">
        <ele>84.12</ele>
        <time>2016-02-28T08:40:18.000Z</time>
      </trkpt>
      <trkpt lat="47.88772" lon="1.85127">
        <ele>84.12</ele>
        <time>2016-02-28T08:40:20.000Z</time>
      </trkpt>
      <trkpt lat="47.88767" lon="1.85115">
        <ele>84.12</ele>
        <time>2016-02-28T08:40:22.000Z</time>
      </trkpt>
      <trkpt lat="47.88761" lon="1.85104">
        <ele>84.12</ele>
        <time>2016-02-28T08:40:24.000Z</time>
      </trkpt>
      <trkpt lat="47.88755" lon="1.85092">
        <ele>84.12</ele>
        <time>2016-02-28T08:40:26.000Z</time>
      </trkpt>
      <trkpt lat="47.88749" lon="1.8508">
        <ele>84.12</ele>
        <time>2016-02-28T08:40:28.000Z</time>
      </trkpt>
      <trkpt lat="47.88744" lon="1.85068">
        <ele>84.12</ele>
        <time>2016-02-28T08:40:30.000Z</time>
      </trkpt>
      <trkpt lat="47.88738" lon="1.85056">
        <ele>84.12</ele>
        <time>2016-02-28T08:40:32.000Z</time>
      </trkpt>
      <trkpt lat="47.88728" lon="1.85038">
        <ele>84.12</ele>
        <time>2016-02-28T08:40:34.000Z</time>
      </trkpt>
      <trkpt lat="47.88725" lon="1.85032">
        <ele>84.12</ele>
        <time>2016-02-28T08:40:36.000Z</time>
      </trkpt>
      <trkpt lat="47.88719" lon="1.85021">
        <ele>84.12</ele>
        <time>2016-02-28T08:40:38.000Z</time>
      </trkpt>
      <trkpt lat="47.88714" lon="1.8501">
        <ele>84.12</ele>
        <time>2016-02-28T08:40:40.000Z</time>
      </trkpt>
      <trkpt lat="47.88708" lon="1.84999">
        <ele>84.12</ele>
        <time>2016-02-28T08:40:42.000Z</time>
      </trkpt>
      <trkpt lat="47.88702" lon="1.84988">
        <ele>84.12</ele>
        <time>2016-02-28T08:40:44.000Z</time>
      </trkpt>
      <trkpt lat="47.88696" lon="1.84977">
        <ele>84.12</ele>
        <time>2016-02-28T08:40:46.000Z</time>
      </trkpt>
      <trkpt lat="47.88689" lon="1.84966">
        <ele>84.12</ele>
        <time>2016-02-28T08:40:48.000Z</time>
      </trkpt>
      <trkpt lat="47.88683" lon="1.84955">
        <ele>84.12</ele>
        <time>2016-02-28T08:40:50.000Z</time>
      </trkpt>
      <trkpt lat="47.88677" lon="1.84944">
        <ele>82.91</ele>
        <time>2016-02-28T08:40:52.000Z</time>
      </trkpt>
      <trkpt lat="47.8867" lon="1.84933">
        <ele>82.91</ele>
        <time>2016-02-28T08:40:54.000Z</time>
      </trkpt>
      <trkpt lat="47.88664" lon="1.84921">
        <ele>82.91</ele>
        <time>2016-02-28T08:40:56.000Z</time>
      </trkpt>
      <trkpt lat="47.88657" lon="1.84909">
        <ele>82.91</ele>
        <time>2016-02-28T08:40:58.000Z</time>
      </trkpt>
      <trkpt lat="47.8865" lon="1.84897">
        <ele>82.91</ele>
        <time>2016-02-28T08:41:00.000Z</time>
      </trkpt>
      <trkpt lat="47.8864" lon="1.84879">
        <ele>82.91</ele>
        <time>2016-02-28T08:41:02.000Z</time>
      </trkpt>
      <trkpt lat="47.88637" lon="1.84873">
        <ele>82.91</ele>
        <time>2016-02-28T08:41:04.000Z</time>
      </trkpt>
      <trkpt lat="47.8863" lon="1.84862">
        <ele>82.91</ele>
        <time>2016-02-28T08:41:06.000Z</time>
      </trkpt>
      <trkpt lat="47.88623" lon="1.84851">
        <ele>81.99</ele>
        <time>2016-02-28T08:41:08.000Z</time>
      </trkpt>
      <trkpt lat="47.88616" lon="1.8484">
        <ele>81.99</ele>
        <time>2016-02-28T08:41:10.000Z</time>
      </trkpt>
      <trkpt lat="47.88609" lon="1.84829">
        <ele>81.99</ele>
        <time>2016-02-28T08:41:12.000Z</time>
      </trkpt>
      <trkpt lat="47.88603" lon="1.84817">
        <ele>81.99</ele>
        <time>2016-02-28T08:41:14.000Z</time>
      </trkpt>
      <trkpt lat="47.88593" lon="1.848">
        <ele>81.99</ele>
        <time>2016-02-28T08:41:16.000Z</time>
      </trkpt>
      <trkpt lat="47.8859" lon="1.84794">
        <ele>81.99</ele>
        <time>2016-02-28T08:41:18.000Z</time>
      </trkpt>
      <trkpt lat="47.88584" lon="1.84784">
        <ele>81.99</ele>
        <time>2016-02-28T08:41:20.000Z</time>
      </trkpt>
      <trkpt lat="47.88578" lon="1.84772">
        <ele>81.99</ele>
        <time>2016-02-28T08:41:22.000Z</time>
      </trkpt>
      <trkpt lat="47.88571" lon="1.84762">
        <ele>81.99</ele>
        <time>2016-02-28T08:41:24.000Z</time>
      </trkpt>
      <trkpt lat="47.88565" lon="1.84751">
        <ele>81.99</ele>
        <time>2016-02-28T08:41:26.000Z</time>
      </trkpt>
      <trkpt lat="47.88559" lon="1.84741">
        <ele>81.99</ele>
        <time>2016-02-28T08:41:28.000Z</time>
      </trkpt>
      <trkpt lat="47.88554" lon="1.84731">
        <ele>81.99</ele>
        <time>2016-02-28T08:41:30.000Z</time>
      </trkpt>
      <trkpt lat="47.88547" lon="1.84722">
        <ele>81.99</ele>
        <time>2016-02-28T08:41:32.000Z</time>
      </trkpt>
      <trkpt lat="47.8854" lon="1.84713">
        <ele>81.99</ele>
        <time>2016-02-28T08:41:34.000Z</time>
      </trkpt>
      <trkpt lat="47.88533" lon="1.84704">
        <ele>81.99</ele>
        <time>2016-02-28T08:41:36.000Z</time>
      </trkpt>
      <trkpt lat="47.88526" lon="1.84695">
        <ele>81.99</ele>
        <time>2016-02-28T08:41:38.000Z</time>
      </trkpt>
      <trkpt lat="47.88518" lon="1.84686">
        <ele>81.99</ele>
        <time>2016-02-28T08:41:40.000Z</time>
      </trkpt>
      <trkpt lat="47.8851" lon="1.84676">
        <ele>81.08</ele>
        <time>2016-02-28T08:41:42.000Z</time>
      </trkpt>
      <trkpt lat="47.88504" lon="1.84668">
        <ele>81.08</ele>
        <time>2016-02-28T08:41:44.000Z</time>
      </trkpt>
      <trkpt lat="47.88493" lon="1.84656">
        <ele>81.08</ele>
        <time>2016-02-28T08:41:46.000Z</time>
      </trkpt>
      <trkpt lat="47.8849" lon="1.84651">
        <ele>81.08</ele>
        <time>2016-02-28T08:41:48.000Z</time>
      </trkpt>
      <trkpt lat="47.88484" lon="1.84643">
        <ele>81.08</ele>
        <time>2016-02-28T08:41:50.000Z</time>
      </trkpt>
      <trkpt lat="47.88477" lon="1.84637">
        <ele>81.08</ele>
        <time>2016-02-28T08:41:52.000Z</time>
      </trkpt>
      <trkpt lat="47.88471" lon="1.84629">
        <ele>81.08</ele>
        <time>2016-02-28T08:41:54.000Z</time>
      </trkpt>
      <trkpt lat="47.88465" lon="1.8462">
        <ele>81.08</ele>
        <time>2016-02-28T08:41:56.000Z</time>
      </trkpt>
      <trkpt lat="47.88459" lon="1.84611">
        <ele>81.08</ele>
        <time>2016-02-28T08:41:58.000Z</time>
      </trkpt>
      <trkpt lat="47.88453" lon="1.84601">
        <ele>81.08</ele>
        <time>2016-02-28T08:42:00.000Z</time>
      </trkpt>
      <trkpt lat="47.88447" lon="1.8459">
        <ele>81.08</ele>
        <time>2016-02-28T08:42:02.000Z</time>
      </trkpt>
      <trkpt lat="47.88442" lon="1.8458">
        <ele>81.08</ele>
        <time>2016-02-28T08:42:04.000Z</time>
      </trkpt>
      <trkpt lat="47.88436" lon="1.84569">
        <ele>81.08</ele>
        <time>2016-02-28T08:42:06.000Z</time>
      </trkpt>
      <trkpt lat="47.8843" lon="1.84558">
        <ele>81.08</ele>
        <time>2016-02-28T08:42:08.000Z</time>
      </trkpt>
      <trkpt lat="47.88424" lon="1.84548">
        <ele>81.08</ele>
        <time>2016-02-28T08:42:10.000Z</time>
      </trkpt>
      <trkpt lat="47.88418" lon="1.84537">
        <ele>81.08</ele>
        <time>2016-02-28T08:42:12.000Z</time>
      </trkpt>
      <trkpt lat="47.88412" lon="1.84527">
        <ele>81.08</ele>
        <time>2016-02-28T08:42:14.000Z</time>
      </trkpt>
      <trkpt lat="47.88406" lon="1.84516">
        <ele>81.08</ele>
        <time>2016-02-28T08:42:16.000Z</time>
      </trkpt>
      <trkpt lat="47.88398" lon="1.84507">
        <ele>81.08</ele>
        <time>2016-02-28T08:42:18.000Z</time>
      </trkpt>
      <trkpt lat="47.88391" lon="1.84497">
        <ele>81.08</ele>
        <time>2016-02-28T08:42:20.000Z</time>
      </trkpt>
      <trkpt lat="47.88383" lon="1.84488">
        <ele>81.08</ele>
        <time>2016-02-28T08:42:22.000Z</time>
      </trkpt>
      <trkpt lat="47.88376" lon="1.84478">
        <ele>81.08</ele>
        <time>2016-02-28T08:42:24.000Z</time>
      </trkpt>
      <trkpt lat="47.8837" lon="1.8447">
        <ele>81.08</ele>
        <time>2016-02-28T08:42:26.000Z</time>
      </trkpt>
      <trkpt lat="47.88364" lon="1.84463">
        <ele>81.08</ele>
        <time>2016-02-28T08:42:28.000Z</time>
      </trkpt>
      <trkpt lat="47.8836" lon="1.84458">
        <ele>81.08</ele>
        <time>2016-02-28T08:42:30.000Z</time>
      </trkpt>
      <trkpt lat="47.88358" lon="1.84454">
        <ele>81.08</ele>
        <time>2016-02-28T08:42:32.000Z</time>
      </trkpt>
      <trkpt lat="47.88355" lon="1.84451">
        <ele>79.86</ele>
        <time>2016-02-28T08:42:34.000Z</time>
      </trkpt>
      <trkpt lat="47.88351" lon="1.84446">
        <ele>79.86</ele>
        <time>2016-02-28T08:42:36.000Z</time>
      </trkpt>
      <trkpt lat="47.88346" lon="1.8444">
        <ele>79.86</ele>
        <time>2016-02-28T08:42:38.000Z</time>
      </trkpt>
      <trkpt lat="47.8834" lon="1.84432">
        <ele>79.86</ele>
        <time>2016-02-28T08:42:40.000Z</time>
      </trkpt>
      <trkpt lat="47.88337" lon="1.84416">
        <ele>79.86</ele>
        <time>2016-02-28T08:42:42.000Z</time>
      </trkpt>
      <trkpt lat="47.88334" lon="1.84412">
        <ele>79.86</ele>
        <time>2016-02-28T08:42:44.000Z</time>
      </trkpt>
      <trkpt lat="47.88328" lon="1.84403">
        <ele>79.86</ele>
        <time>2016-02-28T08:42:46.000Z</time>
      </trkpt>
      <trkpt lat="47.88322" lon="1.84394">
        <ele>78.94</ele>
        <time>2016-02-28T08:42:48.000Z</time>
      </trkpt>
      <trkpt lat="47.88317" lon="1.84386">
        <ele>78.94</ele>
        <time>2016-02-28T08:42:50.000Z</time>
      </trkpt>
      <trkpt lat="47.88311" lon="1.84378">
        <ele>78.94</ele>
        <time>2016-02-28T08:42:52.000Z</time>
      </trkpt>
      <trkpt lat="47.88306" lon="1.84371">
        <ele>78.94</ele>
        <time>2016-02-28T08:42:54.000Z</time>
      </trkpt>
      <trkpt lat="47.88303" lon="1.84362">
        <ele>78.94</ele>
        <time>2016-02-28T08:42:56.000Z</time>
      </trkpt>
      <trkpt lat="47.88298" lon="1.84355">
        <ele>78.94</ele>
        <time>2016-02-28T08:42:58.000Z</time>
      </trkpt>
      <trkpt lat="47.88293" lon="1.8435">
        <ele>78.94</ele>
        <time>2016-02-28T08:43:00.000Z</time>
      </trkpt>
      <trkpt lat="47.88288" lon="1.84342">
        <ele>78.94</ele>
        <time>2016-02-28T08:43:02.000Z</time>
      </trkpt>
      <trkpt lat="47.88283" lon="1.84334">
        <ele>78.94</ele>
        <time>2016-02-28T08:43:04.000Z</time>
      </trkpt>
      <trkpt lat="47.88278" lon="1.84325">
        <ele>78.94</ele>
        <time>2016-02-28T08:43:06.000Z</time>
      </trkpt>
      <trkpt lat="47.88273" lon="1.84316">
        <ele>78.94</ele>
        <time>2016-02-28T08:43:08.000Z</time>
      </trkpt>
      <trkpt lat="47.88268" lon="1.84305">
        <ele>78.94</ele>
        <time>2016-02-28T08:43:10.000Z</time>
      </trkpt>
      <trkpt lat="47.88263" lon="1.84296">
        <ele>78.94</ele>
        <time>2016-02-28T08:43:12.000Z</time>
      </trkpt>
      <trkpt lat="47.88258" lon="1.84286">
        <ele>78.94</ele>
        <time>2016-02-28T08:43:14.000Z</time>
      </trkpt>
      <trkpt lat="47.88253" lon="1.84275">
        <ele>78.94</ele>
        <time>2016-02-28T08:43:16.000Z</time>
      </trkpt>
      <trkpt lat="47.88246" lon="1.84268">
        <ele>78.94</ele>
        <time>2016-02-28T08:43:18.000Z</time>
      </trkpt>
      <trkpt lat="47.8824" lon="1.8426">
        <ele>78.94</ele>
        <time>2016-02-28T08:43:20.000Z</time>
      </trkpt>
      <trkpt lat="47.88235" lon="1.84252">
        <ele>78.94</ele>
        <time>2016-02-28T08:43:22.000Z</time>
      </trkpt>
      <trkpt lat="47.88231" lon="1.84242">
        <ele>78.94</ele>
        <time>2016-02-28T08:43:24.000Z</time>
      </trkpt>
      <trkpt lat="47.88226" lon="1.84234">
        <ele>78.94</ele>
        <time>2016-02-28T08:43:26.000Z</time>
      </trkpt>
      <trkpt lat="47.88222" lon="1.84226">
        <ele>78.94</ele>
        <time>2016-02-28T08:43:28.000Z</time>
      </trkpt>
      <trkpt lat="47.8822" lon="1.84214">
        <ele>78.94</ele>
        <time>2016-02-28T08:43:30.000Z</time>
      </trkpt>
      <trkpt lat="47.88215" lon="1.84204">
        <ele>78.94</ele>
        <time>2016-02-28T08:43:32.000Z</time>
      </trkpt>
      <trkpt lat="47.88209" lon="1.84196">
        <ele>78.94</ele>
        <time>2016-02-28T08:43:34.000Z</time>
      </trkpt>
      <trkpt lat="47.88203" lon="1.84185">
        <ele>78.94</ele>
        <time>2016-02-28T08:43:36.000Z</time>
      </trkpt>
      <trkpt lat="47.88197" lon="1.84174">
        <ele>78.03</ele>
        <time>2016-02-28T08:43:38.000Z</time>
      </trkpt>
      <trkpt lat="47.88192" lon="1.84163">
        <ele>78.03</ele>
        <time>2016-02-28T08:43:40.000Z</time>
      </trkpt>
      <trkpt lat="47.88186" lon="1.84152">
        <ele>78.03</ele>
        <time>2016-02-28T08:43:42.000Z</time>
      </trkpt>
      <trkpt lat="47.88182" lon="1.84141">
        <ele>78.03</ele>
        <time>2016-02-28T08:43:44.000Z</time>
      </trkpt>
      <trkpt lat="47.88177" lon="1.84133">
        <ele>78.03</ele>
        <time>2016-02-28T08:43:46.000Z</time>
      </trkpt>
      <trkpt lat="47.88171" lon="1.84124">
        <ele>78.03</ele>
        <time>2016-02-28T08:43:48.000Z</time>
      </trkpt>
      <trkpt lat="47.88164" lon="1.84118">
        <ele>78.03</ele>
        <time>2016-02-28T08:43:50.000Z</time>
      </trkpt>
      <trkpt lat="47.8816" lon="1.8411">
        <ele>78.03</ele>
        <time>2016-02-28T08:43:52.000Z</time>
      </trkpt>
      <trkpt lat="47.88152" lon="1.84098">
        <ele>78.03</ele>
        <time>2016-02-28T08:43:54.000Z</time>
      </trkpt>
      <trkpt lat="47.88149" lon="1.84094">
        <ele>78.03</ele>
        <time>2016-02-28T08:43:56.000Z</time>
      </trkpt>
      <trkpt lat="47.88143" lon="1.84084">
        <ele>78.03</ele>
        <time>2016-02-28T08:43:58.000Z</time>
      </trkpt>
      <trkpt lat="47.88137" lon="1.84076">
        <ele>78.03</ele>
        <time>2016-02-28T08:44:00.000Z</time>
      </trkpt>
      <trkpt lat="47.88131" lon="1.84066">
        <ele>78.03</ele>
        <time>2016-02-28T08:44:02.000Z</time>
      </trkpt>
      <trkpt lat="47.88126" lon="1.84058">
        <ele>78.03</ele>
        <time>2016-02-28T08:44:04.000Z</time>
      </trkpt>
      <trkpt lat="47.88122" lon="1.8405">
        <ele>78.03</ele>
        <time>2016-02-28T08:44:06.000Z</time>
      </trkpt>
      <trkpt lat="47.88113" lon="1.8404">
        <ele>78.03</ele>
        <time>2016-02-28T08:44:08.000Z</time>
      </trkpt>
      <trkpt lat="47.8811" lon="1.84036">
        <ele>78.03</ele>
        <time>2016-02-28T08:44:10.000Z</time>
      </trkpt>
      <trkpt lat="47.88104" lon="1.84025">
        <ele>78.03</ele>
        <time>2016-02-28T08:44:12.000Z</time>
      </trkpt>
      <trkpt lat="47.88097" lon="1.84015">
        <ele>78.03</ele>
        <time>2016-02-28T08:44:14.000Z</time>
      </trkpt>
      <trkpt lat="47.88089" lon="1.84009">
        <ele>78.03</ele>
        <time>2016-02-28T08:44:16.000Z</time>
      </trkpt>
      <trkpt lat="47.88083" lon="1.84005">
        <ele>78.03</ele>
        <time>2016-02-28T08:44:18.000Z</time>
      </trkpt>
      <trkpt lat="47.88078" lon="1.83998">
        <ele>78.03</ele>
        <time>2016-02-28T08:44:20.000Z</time>
      </trkpt>
      <trkpt lat="47.88073" lon="1.8399">
        <ele>78.03</ele>
        <time>2016-02-28T08:44:22.000Z</time>
      </trkpt>
      <trkpt lat="47.88068" lon="1.83984">
        <ele>78.03</ele>
        <time>2016-02-28T08:44:24.000Z</time>
      </trkpt>
      <trkpt lat="47.88062" lon="1.83976">
        <ele>78.03</ele>
        <time>2016-02-28T08:44:26.000Z</time>
      </trkpt>
      <trkpt lat="47.88057" lon="1.83969">
        <ele>78.03</ele>
        <time>2016-02-28T08:44:28.000Z</time>
      </trkpt>
      <trkpt lat="47.88052" lon="1.83962">
        <ele>78.03</ele>
        <time>2016-02-28T08:44:30.000Z</time>
      </trkpt>
      <trkpt lat="47.88046" lon="1.83955">
        <ele>78.03</ele>
        <time>2016-02-28T08:44:32.000Z</time>
      </trkpt>
      <trkpt lat="47.88042" lon="1.83946">
        <ele>78.03</ele>
        <time>2016-02-28T08:44:34.000Z</time>
      </trkpt>
      <trkpt lat="47.88036" lon="1.83939">
        <ele>78.03</ele>
        <time>2016-02-28T08:44:36.000Z</time>
      </trkpt>
      <trkpt lat="47.8803" lon="1.8393">
        <ele>78.03</ele>
        <time>2016-02-28T08:44:38.000Z</time>
      </trkpt>
      <trkpt lat="47.88024" lon="1.83921">
        <ele>78.03</ele>
        <time>2016-02-28T08:44:40.000Z</time>
      </trkpt>
      <trkpt lat="47.88018" lon="1.83913">
        <ele>78.03</ele>
        <time>2016-02-28T08:44:42.000Z</time>
      </trkpt>
      <trkpt lat="47.88012" lon="1.83905">
        <ele>78.03</ele>
        <time>2016-02-28T08:44:44.000Z</time>
      </trkpt>
      <trkpt lat="47.88006" lon="1.83896">
        <ele>78.03</ele>
        <time>2016-02-28T08:44:46.000Z</time>
      </trkpt>
      <trkpt lat="47.88" lon="1.83887">
        <ele>78.03</ele>
        <time>2016-02-28T08:44:48.000Z</time>
      </trkpt>
      <trkpt lat="47.87994" lon="1.83879">
        <ele>78.03</ele>
        <time>2016-02-28T08:44:50.000Z</time>
      </trkpt>
      <trkpt lat="47.87988" lon="1.83871">
        <ele>78.03</ele>
        <time>2016-02-28T08:44:52.000Z</time>
      </trkpt>
      <trkpt lat="47.87983" lon="1.83863">
        <ele>78.03</ele>
        <time>2016-02-28T08:44:54.000Z</time>
      </trkpt>
      <trkpt lat="47.87979" lon="1.83853">
        <ele>78.03</ele>
        <time>2016-02-28T08:44:56.000Z</time>
      </trkpt>
      <trkpt lat="47.87974" lon="1.83845">
        <ele>78.03</ele>
        <time>2016-02-28T08:44:58.000Z</time>
      </trkpt>
      <trkpt lat="47.87967" lon="1.83837">
        <ele>78.03</ele>
        <time>2016-02-28T08:45:00.000Z</time>
      </trkpt>
      <trkpt lat="47.87961" lon="1.83829">
        <ele>78.03</ele>
        <time>2016-02-28T08:45:02.000Z</time>
      </trkpt>
      <trkpt lat="47.87954" lon="1.8382">
        <ele>78.03</ele>
        <time>2016-02-28T08:45:04.000Z</time>
      </trkpt>
      <trkpt lat="47.87948" lon="1.83811">
        <ele>78.03</ele>
        <time>2016-02-28T08:45:06.000Z</time>
      </trkpt>
      <trkpt lat="47.87944" lon="1.83801">
        <ele>78.03</ele>
        <time>2016-02-28T08:45:08.000Z</time>
      </trkpt>
      <trkpt lat="47.87938" lon="1.83793">
        <ele>78.03</ele>
        <time>2016-02-28T08:45:10.000Z</time>
      </trkpt>
      <trkpt lat="47.87932" lon="1.83785">
        <ele>78.03</ele>
        <time>2016-02-28T08:45:12.000Z</time>
      </trkpt>
      <trkpt lat="47.87926" lon="1.83775">
        <ele>78.03</ele>
        <time>2016-02-28T08:45:14.000Z</time>
      </trkpt>
      <trkpt lat="47.87921" lon="1.83766">
        <ele>78.03</ele>
        <time>2016-02-28T08:45:16.000Z</time>
      </trkpt>
      <trkpt lat="47.87917" lon="1.83757">
        <ele>78.03</ele>
        <time>2016-02-28T08:45:18.000Z</time>
      </trkpt>
      <trkpt lat="47.87912" lon="1.83748">
        <ele>78.03</ele>
        <time>2016-02-28T08:45:20.000Z</time>
      </trkpt>
      <trkpt lat="47.87906" lon="1.83739">
        <ele>78.03</ele>
        <time>2016-02-28T08:45:22.000Z</time>
      </trkpt>
      <trkpt lat="47.87901" lon="1.8373">
        <ele>78.03</ele>
        <time>2016-02-28T08:45:24.000Z</time>
      </trkpt>
      <trkpt lat="47.87896" lon="1.83721">
        <ele>78.03</ele>
        <time>2016-02-28T08:45:26.000Z</time>
      </trkpt>
      <trkpt lat="47.87893" lon="1.83711">
        <ele>78.03</ele>
        <time>2016-02-28T08:45:28.000Z</time>
      </trkpt>
      <trkpt lat="47.87888" lon="1.83703">
        <ele>78.03</ele>
        <time>2016-02-28T08:45:30.000Z</time>
      </trkpt>
      <trkpt lat="47.87883" lon="1.83696">
        <ele>78.03</ele>
        <time>2016-02-28T08:45:32.000Z</time>
      </trkpt>
      <trkpt lat="47.87877" lon="1.83689">
        <ele>78.03</ele>
        <time>2016-02-28T08:45:34.000Z</time>
      </trkpt>
      <trkpt lat="47.87872" lon="1.83682">
        <ele>78.03</ele>
        <time>2016-02-28T08:45:36.000Z</time>
      </trkpt>
      <trkpt lat="47.87866" lon="1.83675">
        <ele>78.03</ele>
        <time>2016-02-28T08:45:38.000Z</time>
      </trkpt>
      <trkpt lat="47.8786" lon="1.83667">
        <ele>78.03</ele>
        <time>2016-02-28T08:45:40.000Z</time>
      </trkpt>
      <trkpt lat="47.87855" lon="1.83659">
        <ele>78.03</ele>
        <time>2016-02-28T08:45:42.000Z</time>
      </trkpt>
      <trkpt lat="47.8785" lon="1.83652">
        <ele>78.03</ele>
        <time>2016-02-28T08:45:44.000Z</time>
      </trkpt>
      <trkpt lat="47.87844" lon="1.83644">
        <ele>78.03</ele>
        <time>2016-02-28T08:45:46.000Z</time>
      </trkpt>
      <trkpt lat="47.87838" lon="1.83635">
        <ele>78.03</ele>
        <time>2016-02-28T08:45:48.000Z</time>
      </trkpt>
      <trkpt lat="47.87833" lon="1.83628">
        <ele>77.11</ele>
        <time>2016-02-28T08:45:50.000Z</time>
      </trkpt>
      <trkpt lat="47.87827" lon="1.83619">
        <ele>77.11</ele>
        <time>2016-02-28T08:45:52.000Z</time>
      </trkpt>
      <trkpt lat="47.87821" lon="1.83611">
        <ele>77.11</ele>
        <time>2016-02-28T08:45:54.000Z</time>
      </trkpt>
      <trkpt lat="47.87816" lon="1.83603">
        <ele>77.11</ele>
        <time>2016-02-28T08:45:56.000Z</time>
      </trkpt>
      <trkpt lat="47.87811" lon="1.83595">
        <ele>77.11</ele>
        <time>2016-02-28T08:45:58.000Z</time>
      </trkpt>
      <trkpt lat="47.87806" lon="1.83587">
        <ele>77.11</ele>
        <time>2016-02-28T08:46:00.000Z</time>
      </trkpt>
      <trkpt lat="47.87801" lon="1.83579">
        <ele>77.11</ele>
        <time>2016-02-28T08:46:02.000Z</time>
      </trkpt>
      <trkpt lat="47.87795" lon="1.83571">
        <ele>77.11</ele>
        <time>2016-02-28T08:46:04.000Z</time>
      </trkpt>
      <trkpt lat="47.8779" lon="1.83564">
        <ele>77.11</ele>
        <time>2016-02-28T08:46:06.000Z</time>
      </trkpt>
      <trkpt lat="47.87785" lon="1.83556">
        <ele>77.11</ele>
        <time>2016-02-28T08:46:08.000Z</time>
      </trkpt>
      <trkpt lat="47.8778" lon="1.83548">
        <ele>77.11</ele>
        <time>2016-02-28T08:46:10.000Z</time>
      </trkpt>
      <trkpt lat="47.87776" lon="1.8354">
        <ele>77.11</ele>
        <time>2016-02-28T08:46:12.000Z</time>
      </trkpt>
      <trkpt lat="47.87771" lon="1.83532">
        <ele>77.11</ele>
        <time>2016-02-28T08:46:14.000Z</time>
      </trkpt>
      <trkpt lat="47.87765" lon="1.83521">
        <ele>77.11</ele>
        <time>2016-02-28T08:46:16.000Z</time>
      </trkpt>
      <trkpt lat="47.87762" lon="1.83517">
        <ele>77.11</ele>
        <time>2016-02-28T08:46:18.000Z</time>
      </trkpt>
      <trkpt lat="47.87758" lon="1.83509">
        <ele>77.11</ele>
        <time>2016-02-28T08:46:20.000Z</time>
      </trkpt>
      <trkpt lat="47.87752" lon="1.83499">
        <ele>77.11</ele>
        <time>2016-02-28T08:46:22.000Z</time>
      </trkpt>
      <trkpt lat="47.87745" lon="1.83489">
        <ele>77.11</ele>
        <time>2016-02-28T08:46:24.000Z</time>
      </trkpt>
      <trkpt lat="47.87738" lon="1.83477">
        <ele>77.11</ele>
        <time>2016-02-28T08:46:26.000Z</time>
      </trkpt>
      <trkpt lat="47.87732" lon="1.83466">
        <ele>77.11</ele>
        <time>2016-02-28T08:46:28.000Z</time>
      </trkpt>
      <trkpt lat="47.87727" lon="1.83456">
        <ele>77.11</ele>
        <time>2016-02-28T08:46:30.000Z</time>
      </trkpt>
      <trkpt lat="47.87722" lon="1.83444">
        <ele>77.11</ele>
        <time>2016-02-28T08:46:32.000Z</time>
      </trkpt>
      <trkpt lat="47.87718" lon="1.83433">
        <ele>77.11</ele>
        <time>2016-02-28T08:46:34.000Z</time>
      </trkpt>
      <trkpt lat="47.87714" lon="1.83422">
        <ele>77.11</ele>
        <time>2016-02-28T08:46:36.000Z</time>
      </trkpt>
      <trkpt lat="47.87711" lon="1.8341">
        <ele>77.11</ele>
        <time>2016-02-28T08:46:38.000Z</time>
      </trkpt>
      <trkpt lat="47.87707" lon="1.83399">
        <ele>77.11</ele>
        <time>2016-02-28T08:46:40.000Z</time>
      </trkpt>
      <trkpt lat="47.87704" lon="1.83387">
        <ele>77.11</ele>
        <time>2016-02-28T08:46:42.000Z</time>
      </trkpt>
      <trkpt lat="47.877" lon="1.83378">
        <ele>77.11</ele>
        <time>2016-02-28T08:46:44.000Z</time>
      </trkpt>
      <trkpt lat="47.87695" lon="1.83369">
        <ele>77.11</ele>
        <time>2016-02-28T08:46:46.000Z</time>
      </trkpt>
      <trkpt lat="47.87692" lon="1.83359">
        <ele>77.11</ele>
        <time>2016-02-28T08:46:48.000Z</time>
      </trkpt>
      <trkpt lat="47.8769" lon="1.8335">
        <ele>77.11</ele>
        <time>2016-02-28T08:46:50.000Z</time>
      </trkpt>
      <trkpt lat="47.87687" lon="1.8334">
        <ele>77.11</ele>
        <time>2016-02-28T08:46:52.000Z</time>
      </trkpt>
      <trkpt lat="47.87682" lon="1.8333">
        <ele>77.11</ele>
        <time>2016-02-28T08:46:54.000Z</time>
      </trkpt>
      <trkpt lat="47.87678" lon="1.8332">
        <ele>77.11</ele>
        <time>2016-02-28T08:46:56.000Z</time>
      </trkpt>
      <trkpt lat="47.87674" lon="1.83309">
        <ele>77.11</ele>
        <time>2016-02-28T08:46:58.000Z</time>
      </trkpt>
      <trkpt lat="47.87668" lon="1.83298">
        <ele>77.11</ele>
        <time>2016-02-28T08:47:00.000Z</time>
      </trkpt>
      <trkpt lat="47.87663" lon="1.83287">
        <ele>77.11</ele>
        <time>2016-02-28T08:47:02.000Z</time>
      </trkpt>
      <trkpt lat="47.87658" lon="1.83274">
        <ele>77.11</ele>
        <time>2016-02-28T08:47:04.000Z</time>
      </trkpt>
      <trkpt lat="47.87651" lon="1.83265">
        <ele>77.11</ele>
        <time>2016-02-28T08:47:06.000Z</time>
      </trkpt>
      <trkpt lat="47.87647" lon="1.83259">
        <ele>77.11</ele>
        <time>2016-02-28T08:47:08.000Z</time>
      </trkpt>
      <trkpt lat="47.87643" lon="1.83249">
        <ele>78.03</ele>
        <time>2016-02-28T08:47:10.000Z</time>
      </trkpt>
      <trkpt lat="47.87641" lon="1.83238">
        <ele>78.03</ele>
        <time>2016-02-28T08:47:12.000Z</time>
      </trkpt>
      <trkpt lat="47.87637" lon="1.83226">
        <ele>78.03</ele>
        <time>2016-02-28T08:47:14.000Z</time>
      </trkpt>
      <trkpt lat="47.87634" lon="1.83214">
        <ele>78.03</ele>
        <time>2016-02-28T08:47:16.000Z</time>
      </trkpt>
      <trkpt lat="47.87631" lon="1.83201">
        <ele>78.03</ele>
        <time>2016-02-28T08:47:18.000Z</time>
      </trkpt>
      <trkpt lat="47.87628" lon="1.83189">
        <ele>78.03</ele>
        <time>2016-02-28T08:47:20.000Z</time>
      </trkpt>
      <trkpt lat="47.87624" lon="1.83178">
        <ele>78.03</ele>
        <time>2016-02-28T08:47:22.000Z</time>
      </trkpt>
      <trkpt lat="47.87621" lon="1.83166">
        <ele>78.94</ele>
        <time>2016-02-28T08:47:24.000Z</time>
      </trkpt>
      <trkpt lat="47.87618" lon="1.83154">
        <ele>78.94</ele>
        <time>2016-02-28T08:47:26.000Z</time>
      </trkpt>
      <trkpt lat="47.87612" lon="1.83135">
        <ele>78.94</ele>
        <time>2016-02-28T08:47:28.000Z</time>
      </trkpt>
      <trkpt lat="47.8761" lon="1.83129">
        <ele>78.94</ele>
        <time>2016-02-28T08:47:30.000Z</time>
      </trkpt>
      <trkpt lat="47.87605" lon="1.83116">
        <ele>78.94</ele>
        <time>2016-02-28T08:47:32.000Z</time>
      </trkpt>
      <trkpt lat="47.87601" lon="1.83104">
        <ele>78.94</ele>
        <time>2016-02-28T08:47:34.000Z</time>
      </trkpt>
      <trkpt lat="47.87597" lon="1.83091">
        <ele>78.94</ele>
        <time>2016-02-28T08:47:36.000Z</time>
      </trkpt>
      <trkpt lat="47.87592" lon="1.83078">
        <ele>78.94</ele>
        <time>2016-02-28T08:47:38.000Z</time>
      </trkpt>
      <trkpt lat="47.87587" lon="1.83065">
        <ele>78.94</ele>
        <time>2016-02-28T08:47:40.000Z</time>
      </trkpt>
      <trkpt lat="47.87582" lon="1.83053">
        <ele>78.94</ele>
        <time>2016-02-28T08:47:42.000Z</time>
      </trkpt>
      <trkpt lat="47.87577" lon="1.83043">
        <ele>78.94</ele>
        <time>2016-02-28T08:47:44.000Z</time>
      </trkpt>
      <trkpt lat="47.87571" lon="1.83032">
        <ele>78.94</ele>
        <time>2016-02-28T08:47:46.000Z</time>
      </trkpt>
      <trkpt lat="47.87565" lon="1.83022">
        <ele>78.94</ele>
        <time>2016-02-28T08:47:48.000Z</time>
      </trkpt>
      <trkpt lat="47.87559" lon="1.83013">
        <ele>78.94</ele>
        <time>2016-02-28T08:47:50.000Z</time>
      </trkpt>
      <trkpt lat="47.87554" lon="1.83004">
        <ele>78.94</ele>
        <time>2016-02-28T08:47:52.000Z</time>
      </trkpt>
      <trkpt lat="47.8755" lon="1.82998">
        <ele>78.94</ele>
        <time>2016-02-28T08:47:54.000Z</time>
      </trkpt>
      <trkpt lat="47.87545" lon="1.82991">
        <ele>78.94</ele>
        <time>2016-02-28T08:47:56.000Z</time>
      </trkpt>
      <trkpt lat="47.8754" lon="1.82985">
        <ele>78.94</ele>
        <time>2016-02-28T08:47:58.000Z</time>
      </trkpt>
      <trkpt lat="47.87536" lon="1.82979">
        <ele>78.94</ele>
        <time>2016-02-28T08:48:00.000Z</time>
      </trkpt>
      <trkpt lat="47.87532" lon="1.82979">
        <ele>78.94</ele>
        <time>2016-02-28T08:48:02.000Z</time>
      </trkpt>
      <trkpt lat="47.87529" lon="1.82983">
        <ele>78.94</ele>
        <time>2016-02-28T08:48:04.000Z</time>
      </trkpt>
      <trkpt lat="47.87527" lon="1.82986">
        <ele>78.94</ele>
        <time>2016-02-28T08:48:06.000Z</time>
      </trkpt>
      <trkpt lat="47.87525" lon="1.82989">
        <ele>78.94</ele>
        <time>2016-02-28T08:48:08.000Z</time>
      </trkpt>
      <trkpt lat="47.87522" lon="1.82992">
        <ele>78.94</ele>
        <time>2016-02-28T08:48:10.000Z</time>
      </trkpt>
      <trkpt lat="47.87519" lon="1.82997">
        <ele>78.94</ele>
        <time>2016-02-28T08:48:12.000Z</time>
      </trkpt>
      <trkpt lat="47.87515" lon="1.82999">
        <ele>78.94</ele>
        <time>2016-02-28T08:48:14.000Z</time>
      </trkpt>
      <trkpt lat="47.87513" lon="1.83">
        <ele>78.94</ele>
        <time>2016-02-28T08:48:16.000Z</time>
      </trkpt>
      <trkpt lat="47.87512" lon="1.83001">
        <ele>78.94</ele>
        <time>2016-02-28T08:48:18.000Z</time>
      </trkpt>
      <trkpt lat="47.87511" lon="1.83001">
        <ele>78.94</ele>
        <time>2016-02-28T08:48:20.000Z</time>
      </trkpt>
      <trkpt lat="47.87511" lon="1.83001">
        <ele>78.94</ele>
        <time>2016-02-28T08:48:22.000Z</time>
      </trkpt>
      <trkpt lat="47.87511" lon="1.83001">
        <ele>78.94</ele>
        <time>2016-02-28T08:48:24.000Z</time>
      </trkpt>
      <trkpt lat="47.87511" lon="1.83002">
        <ele>78.94</ele>
        <time>2016-02-28T08:48:26.000Z</time>
      </trkpt>
      <trkpt lat="47.87511" lon="1.83001">
        <ele>78.94</ele>
        <time>2016-02-28T08:48:28.000Z</time>
      </trkpt>
      <trkpt lat="47.87512" lon="1.83001">
        <ele>78.94</ele>
        <time>2016-02-28T08:48:30.000Z</time>
      </trkpt>
      <trkpt lat="47.87511" lon="1.83001">
        <ele>78.94</ele>
        <time>2016-02-28T08:48:32.000Z</time>
      </trkpt>
      <trkpt lat="47.87511" lon="1.83001">
        <ele>78.94</ele>
        <time>2016-02-28T08:48:34.000Z</time>
      </trkpt>
      <trkpt lat="47.87511" lon="1.83001">
        <ele>78.94</ele>
        <time>2016-02-28T08:48:36.000Z</time>
      </trkpt>
      <trkpt lat="47.87511" lon="1.83">
        <ele>78.94</ele>
        <time>2016-02-28T08:48:38.000Z</time>
      </trkpt>
      <trkpt lat="47.87511" lon="1.83">
        <ele>78.94</ele>
        <time>2016-02-28T08:48:40.000Z</time>
      </trkpt>
      <trkpt lat="47.87511" lon="1.83">
        <ele>78.94</ele>
        <time>2016-02-28T08:48:42.000Z</time>
      </trkpt>
      <trkpt lat="47.8751" lon="1.83">
        <ele>78.94</ele>
        <time>2016-02-28T08:48:44.000Z</time>
      </trkpt>
      <trkpt lat="47.8751" lon="1.83">
        <ele>78.94</ele>
        <time>2016-02-28T08:48:46.000Z</time>
      </trkpt>
      <trkpt lat="47.8751" lon="1.82999">
        <ele>78.94</ele>
        <time>2016-02-28T08:48:48.000Z</time>
      </trkpt>
      <trkpt lat="47.8751" lon="1.82999">
        <ele>78.94</ele>
        <time>2016-02-28T08:48:50.000Z</time>
      </trkpt>
      <trkpt lat="47.8751" lon="1.82999">
        <ele>78.94</ele>
        <time>2016-02-28T08:48:52.000Z</time>
      </trkpt>
      <trkpt lat="47.8751" lon="1.82998">
        <ele>78.94</ele>
        <time>2016-02-28T08:48:54.000Z</time>
      </trkpt>
      <trkpt lat="47.87509" lon="1.82998">
        <ele>78.94</ele>
        <time>2016-02-28T08:48:56.000Z</time>
      </trkpt>
      <trkpt lat="47.87509" lon="1.82998">
        <ele>78.94</ele>
        <time>2016-02-28T08:48:58.000Z</time>
      </trkpt>
      <trkpt lat="47.8751" lon="1.82998">
        <ele>78.94</ele>
        <time>2016-02-28T08:49:00.000Z</time>
      </trkpt>
      <trkpt lat="47.8751" lon="1.82999">
        <ele>78.94</ele>
        <time>2016-02-28T08:49:02.000Z</time>
      </trkpt>
      <trkpt lat="47.8751" lon="1.83">
        <ele>78.94</ele>
        <time>2016-02-28T08:49:04.000Z</time>
      </trkpt>
      <trkpt lat="47.8751" lon="1.83001">
        <ele>78.94</ele>
        <time>2016-02-28T08:49:06.000Z</time>
      </trkpt>
      <trkpt lat="47.8751" lon="1.83001">
        <ele>78.94</ele>
        <time>2016-02-28T08:49:08.000Z</time>
      </trkpt>
      <trkpt lat="47.8751" lon="1.83001">
        <ele>78.94</ele>
        <time>2016-02-28T08:49:10.000Z</time>
      </trkpt>
      <trkpt lat="47.8751" lon="1.83002">
        <ele>78.94</ele>
        <time>2016-02-28T08:49:12.000Z</time>
      </trkpt>
      <trkpt lat="47.8751" lon="1.83003">
        <ele>78.94</ele>
        <time>2016-02-28T08:49:14.000Z</time>
      </trkpt>
      <trkpt lat="47.8751" lon="1.83003">
        <ele>78.94</ele>
        <time>2016-02-28T08:49:16.000Z</time>
      </trkpt>
      <trkpt lat="47.8751" lon="1.83002">
        <ele>78.94</ele>
        <time>2016-02-28T08:49:18.000Z</time>
      </trkpt>
      <trkpt lat="47.8751" lon="1.83002">
        <ele>78.94</ele>
        <time>2016-02-28T08:49:20.000Z</time>
      </trkpt>
      <trkpt lat="47.87511" lon="1.83001">
        <ele>78.94</ele>
        <time>2016-02-28T08:49:22.000Z</time>
      </trkpt>
      <trkpt lat="47.87511" lon="1.83">
        <ele>78.94</ele>
        <time>2016-02-28T08:49:24.000Z</time>
      </trkpt>
      <trkpt lat="47.87511" lon="1.83">
        <ele>78.94</ele>
        <time>2016-02-28T08:49:26.000Z</time>
      </trkpt>
      <trkpt lat="47.87511" lon="1.83">
        <ele>78.94</ele>
        <time>2016-02-28T08:49:28.000Z</time>
      </trkpt>
      <trkpt lat="47.87511" lon="1.83">
        <ele>78.94</ele>
        <time>2016-02-28T08:49:30.000Z</time>
      </trkpt>
      <trkpt lat="47.87511" lon="1.83">
        <ele>78.94</ele>
        <time>2016-02-28T08:49:32.000Z</time>
      </trkpt>
      <trkpt lat="47.87511" lon="1.83">
        <ele>78.94</ele>
        <time>2016-02-28T08:49:34.000Z</time>
      </trkpt>
      <trkpt lat="47.87511" lon="1.83001">
        <ele>78.94</ele>
        <time>2016-02-28T08:49:36.000Z</time>
      </trkpt>
      <trkpt lat="47.87511" lon="1.83">
        <ele>78.94</ele>
        <time>2016-02-28T08:49:38.000Z</time>
      </trkpt>
      <trkpt lat="47.87511" lon="1.83">
        <ele>78.94</ele>
        <time>2016-02-28T08:49:40.000Z</time>
      </trkpt>
      <trkpt lat="47.87511" lon="1.83">
        <ele>78.94</ele>
        <time>2016-02-28T08:49:42.000Z</time>
      </trkpt>
      <trkpt lat="47.87511" lon="1.83">
        <ele>78.94</ele>
        <time>2016-02-28T08:49:44.000Z</time>
      </trkpt>
      <trkpt lat="47.8751" lon="1.83">
        <ele>78.94</ele>
        <time>2016-02-28T08:49:46.000Z</time>
      </trkpt>
      <trkpt lat="47.87509" lon="1.83002">
        <ele>78.94</ele>
        <time>2016-02-28T08:49:48.000Z</time>
      </trkpt>
      <trkpt lat="47.87508" lon="1.83005">
        <ele>78.94</ele>
        <time>2016-02-28T08:49:50.000Z</time>
      </trkpt>
      <trkpt lat="47.87504" lon="1.83009">
        <ele>78.94</ele>
        <time>2016-02-28T08:49:52.000Z</time>
      </trkpt>
      <trkpt lat="47.87501" lon="1.83014">
        <ele>78.94</ele>
        <time>2016-02-28T08:49:54.000Z</time>
      </trkpt>
      <trkpt lat="47.87497" lon="1.83019">
        <ele>78.94</ele>
        <time>2016-02-28T08:49:56.000Z</time>
      </trkpt>
      <trkpt lat="47.87493" lon="1.83026">
        <ele>78.94</ele>
        <time>2016-02-28T08:49:58.000Z</time>
      </trkpt>
      <trkpt lat="47.87489" lon="1.83032">
        <ele>78.94</ele>
        <time>2016-02-28T08:50:00.000Z</time>
      </trkpt>
      <trkpt lat="47.87484" lon="1.83037">
        <ele>78.94</ele>
        <time>2016-02-28T08:50:02.000Z</time>
      </trkpt>
      <trkpt lat="47.87478" lon="1.83043">
        <ele>79.86</ele>
        <time>2016-02-28T08:50:04.000Z</time>
      </trkpt>
      <trkpt lat="47.87474" lon="1.83051">
        <ele>79.86</ele>
        <time>2016-02-28T08:50:06.000Z</time>
      </trkpt>
      <trkpt lat="47.87474" lon="1.8306">
        <ele>79.86</ele>
        <time>2016-02-28T08:50:08.000Z</time>
      </trkpt>
      <trkpt lat="47.87477" lon="1.8307">
        <ele>79.86</ele>
        <time>2016-02-28T08:50:10.000Z</time>
      </trkpt>
      <trkpt lat="47.87482" lon="1.83078">
        <ele>79.86</ele>
        <time>2016-02-28T08:50:12.000Z</time>
      </trkpt>
      <trkpt lat="47.87487" lon="1.83087">
        <ele>81.08</ele>
        <time>2016-02-28T08:50:14.000Z</time>
      </trkpt>
      <trkpt lat="47.87492" lon="1.83097">
        <ele>81.08</ele>
        <time>2016-02-28T08:50:16.000Z</time>
      </trkpt>
      <trkpt lat="47.87498" lon="1.83107">
        <ele>81.08</ele>
        <time>2016-02-28T08:50:18.000Z</time>
      </trkpt>
      <trkpt lat="47.87503" lon="1.83117">
        <ele>81.08</ele>
        <time>2016-02-28T08:50:20.000Z</time>
      </trkpt>
      <trkpt lat="47.87509" lon="1.83128">
        <ele>81.08</ele>
        <time>2016-02-28T08:50:22.000Z</time>
      </trkpt>
      <trkpt lat="47.87515" lon="1.83138">
        <ele>81.08</ele>
        <time>2016-02-28T08:50:24.000Z</time>
      </trkpt>
      <trkpt lat="47.87521" lon="1.83149">
        <ele>81.08</ele>
        <time>2016-02-28T08:50:26.000Z</time>
      </trkpt>
      <trkpt lat="47.87527" lon="1.83159">
        <ele>81.08</ele>
        <time>2016-02-28T08:50:28.000Z</time>
      </trkpt>
      <trkpt lat="47.87534" lon="1.83169">
        <ele>81.08</ele>
        <time>2016-02-28T08:50:30.000Z</time>
      </trkpt>
      <trkpt lat="47.8754" lon="1.83179">
        <ele>81.08</ele>
        <time>2016-02-28T08:50:32.000Z</time>
      </trkpt>
      <trkpt lat="47.87547" lon="1.83195">
        <ele>81.08</ele>
        <time>2016-02-28T08:50:34.000Z</time>
      </trkpt>
      <trkpt lat="47.8755" lon="1.83201">
        <ele>81.08</ele>
        <time>2016-02-28T08:50:36.000Z</time>
      </trkpt>
      <trkpt lat="47.87554" lon="1.83213">
        <ele>81.08</ele>
        <time>2016-02-28T08:50:38.000Z</time>
      </trkpt>
      <trkpt lat="47.87559" lon="1.83227">
        <ele>81.08</ele>
        <time>2016-02-28T08:50:40.000Z</time>
      </trkpt>
      <trkpt lat="47.87564" lon="1.8324">
        <ele>81.08</ele>
        <time>2016-02-28T08:50:42.000Z</time>
      </trkpt>
      <trkpt lat="47.8757" lon="1.83254">
        <ele>81.08</ele>
        <time>2016-02-28T08:50:44.000Z</time>
      </trkpt>
      <trkpt lat="47.87575" lon="1.83268">
        <ele>81.08</ele>
        <time>2016-02-28T08:50:46.000Z</time>
      </trkpt>
      <trkpt lat="47.87579" lon="1.83281">
        <ele>81.08</ele>
        <time>2016-02-28T08:50:48.000Z</time>
      </trkpt>
      <trkpt lat="47.87582" lon="1.83294">
        <ele>81.08</ele>
        <time>2016-02-28T08:50:50.000Z</time>
      </trkpt>
      <trkpt lat="47.87585" lon="1.83308">
        <ele>81.08</ele>
        <time>2016-02-28T08:50:52.000Z</time>
      </trkpt>
      <trkpt lat="47.87587" lon="1.83322">
        <ele>79.86</ele>
        <time>2016-02-28T08:50:54.000Z</time>
      </trkpt>
      <trkpt lat="47.8759" lon="1.83336">
        <ele>79.86</ele>
        <time>2016-02-28T08:50:56.000Z</time>
      </trkpt>
      <trkpt lat="47.87593" lon="1.8335">
        <ele>79.86</ele>
        <time>2016-02-28T08:50:58.000Z</time>
      </trkpt>
      <trkpt lat="47.87596" lon="1.83363">
        <ele>79.86</ele>
        <time>2016-02-28T08:51:00.000Z</time>
      </trkpt>
      <trkpt lat="47.876" lon="1.83383">
        <ele>79.86</ele>
        <time>2016-02-28T08:51:02.000Z</time>
      </trkpt>
      <trkpt lat="47.87602" lon="1.83389">
        <ele>79.86</ele>
        <time>2016-02-28T08:51:04.000Z</time>
      </trkpt>
      <trkpt lat="47.87606" lon="1.83402">
        <ele>79.86</ele>
        <time>2016-02-28T08:51:06.000Z</time>
      </trkpt>
      <trkpt lat="47.87608" lon="1.83415">
        <ele>79.86</ele>
        <time>2016-02-28T08:51:08.000Z</time>
      </trkpt>
      <trkpt lat="47.8761" lon="1.83429">
        <ele>79.86</ele>
        <time>2016-02-28T08:51:10.000Z</time>
      </trkpt>
      <trkpt lat="47.87613" lon="1.83443">
        <ele>79.86</ele>
        <time>2016-02-28T08:51:12.000Z</time>
      </trkpt>
      <trkpt lat="47.87616" lon="1.83458">
        <ele>79.86</ele>
        <time>2016-02-28T08:51:14.000Z</time>
      </trkpt>
      <trkpt lat="47.87621" lon="1.83479">
        <ele>79.86</ele>
        <time>2016-02-28T08:51:16.000Z</time>
      </trkpt>
      <trkpt lat="47.87622" lon="1.83486">
        <ele>79.86</ele>
        <time>2016-02-28T08:51:18.000Z</time>
      </trkpt>
      <trkpt lat="47.87625" lon="1.835">
        <ele>79.86</ele>
        <time>2016-02-28T08:51:20.000Z</time>
      </trkpt>
      <trkpt lat="47.87628" lon="1.83514">
        <ele>79.86</ele>
        <time>2016-02-28T08:51:22.000Z</time>
      </trkpt>
      <trkpt lat="47.87631" lon="1.83527">
        <ele>79.86</ele>
        <time>2016-02-28T08:51:24.000Z</time>
      </trkpt>
      <trkpt lat="47.87634" lon="1.8354">
        <ele>79.86</ele>
        <time>2016-02-28T08:51:26.000Z</time>
      </trkpt>
      <trkpt lat="47.87637" lon="1.83553">
        <ele>79.86</ele>
        <time>2016-02-28T08:51:28.000Z</time>
      </trkpt>
      <trkpt lat="47.8764" lon="1.83566">
        <ele>79.86</ele>
        <time>2016-02-28T08:51:30.000Z</time>
      </trkpt>
      <trkpt lat="47.87643" lon="1.8358">
        <ele>79.86</ele>
        <time>2016-02-28T08:51:32.000Z</time>
      </trkpt>
      <trkpt lat="47.87645" lon="1.83594">
        <ele>79.86</ele>
        <time>2016-02-28T08:51:34.000Z</time>
      </trkpt>
      <trkpt lat="47.87648" lon="1.83608">
        <ele>79.86</ele>
        <time>2016-02-28T08:51:36.000Z</time>
      </trkpt>
      <trkpt lat="47.87651" lon="1.83622">
        <ele>79.86</ele>
        <time>2016-02-28T08:51:38.000Z</time>
      </trkpt>
      <trkpt lat="47.87654" lon="1.83635">
        <ele>79.86</ele>
        <time>2016-02-28T08:51:40.000Z</time>
      </trkpt>
      <trkpt lat="47.87657" lon="1.83647">
        <ele>79.86</ele>
        <time>2016-02-28T08:51:42.000Z</time>
      </trkpt>
      <trkpt lat="47.87659" lon="1.83659">
        <ele>79.86</ele>
        <time>2016-02-28T08:51:44.000Z</time>
      </trkpt>
      <trkpt lat="47.87661" lon="1.83672">
        <ele>79.86</ele>
        <time>2016-02-28T08:51:46.000Z</time>
      </trkpt>
      <trkpt lat="47.87664" lon="1.83686">
        <ele>79.86</ele>
        <time>2016-02-28T08:51:48.000Z</time>
      </trkpt>
      <trkpt lat="47.87667" lon="1.83699">
        <ele>79.86</ele>
        <time>2016-02-28T08:51:50.000Z</time>
      </trkpt>
      <trkpt lat="47.87671" lon="1.83711">
        <ele>79.86</ele>
        <time>2016-02-28T08:51:52.000Z</time>
      </trkpt>
      <trkpt lat="47.87673" lon="1.83724">
        <ele>79.86</ele>
        <time>2016-02-28T08:51:54.000Z</time>
      </trkpt>
      <trkpt lat="47.87675" lon="1.83736">
        <ele>79.86</ele>
        <time>2016-02-28T08:51:56.000Z</time>
      </trkpt>
      <trkpt lat="47.87674" lon="1.83747">
        <ele>79.86</ele>
        <time>2016-02-28T08:51:58.000Z</time>
      </trkpt>
      <trkpt lat="47.87668" lon="1.83753">
        <ele>81.08</ele>
        <time>2016-02-28T08:52:00.000Z</time>
      </trkpt>
      <trkpt lat="47.8766" lon="1.83757">
        <ele>81.08</ele>
        <time>2016-02-28T08:52:02.000Z</time>
      </trkpt>
      <trkpt lat="47.87652" lon="1.8376">
        <ele>81.08</ele>
        <time>2016-02-28T08:52:04.000Z</time>
      </trkpt>
      <trkpt lat="47.87643" lon="1.83763">
        <ele>81.08</ele>
        <time>2016-02-28T08:52:06.000Z</time>
      </trkpt>
      <trkpt lat="47.87633" lon="1.83768">
        <ele>81.08</ele>
        <time>2016-02-28T08:52:08.000Z</time>
      </trkpt>
      <trkpt lat="47.87624" lon="1.83772">
        <ele>81.08</ele>
        <time>2016-02-28T08:52:10.000Z</time>
      </trkpt>
      <trkpt lat="47.87615" lon="1.83777">
        <ele>81.08</ele>
        <time>2016-02-28T08:52:12.000Z</time>
      </trkpt>
      <trkpt lat="47.87601" lon="1.83783">
        <ele>81.08</ele>
        <time>2016-02-28T08:52:14.000Z</time>
      </trkpt>
      <trkpt lat="47.87596" lon="1.83785">
        <ele>81.08</ele>
        <time>2016-02-28T08:52:16.000Z</time>
      </trkpt>
      <trkpt lat="47.87586" lon="1.83788">
        <ele>81.08</ele>
        <time>2016-02-28T08:52:18.000Z</time>
      </trkpt>
      <trkpt lat="47.87577" lon="1.83791">
        <ele>79.86</ele>
        <time>2016-02-28T08:52:20.000Z</time>
      </trkpt>
      <trkpt lat="47.87567" lon="1.83794">
        <ele>79.86</ele>
        <time>2016-02-28T08:52:22.000Z</time>
      </trkpt>
      <trkpt lat="47.87558" lon="1.83796">
        <ele>79.86</ele>
        <time>2016-02-28T08:52:24.000Z</time>
      </trkpt>
      <trkpt lat="47.87548" lon="1.83797">
        <ele>79.86</ele>
        <time>2016-02-28T08:52:26.000Z</time>
      </trkpt>
      <trkpt lat="47.87539" lon="1.83799">
        <ele>79.86</ele>
        <time>2016-02-28T08:52:28.000Z</time>
      </trkpt>
      <trkpt lat="47.87529" lon="1.83801">
        <ele>79.86</ele>
        <time>2016-02-28T08:52:30.000Z</time>
      </trkpt>
      <trkpt lat="47.8752" lon="1.83804">
        <ele>79.86</ele>
        <time>2016-02-28T08:52:32.000Z</time>
      </trkpt>
      <trkpt lat="47.87511" lon="1.83808">
        <ele>81.08</ele>
        <time>2016-02-28T08:52:34.000Z</time>
      </trkpt>
      <trkpt lat="47.87502" lon="1.83813">
        <ele>81.08</ele>
        <time>2016-02-28T08:52:36.000Z</time>
      </trkpt>
      <trkpt lat="47.87494" lon="1.8382">
        <ele>81.08</ele>
        <time>2016-02-28T08:52:38.000Z</time>
      </trkpt>
      <trkpt lat="47.87485" lon="1.83826">
        <ele>81.08</ele>
        <time>2016-02-28T08:52:40.000Z</time>
      </trkpt>
      <trkpt lat="47.87473" lon="1.83836">
        <ele>81.08</ele>
        <time>2016-02-28T08:52:42.000Z</time>
      </trkpt>
      <trkpt lat="47.87469" lon="1.8384">
        <ele>81.08</ele>
        <time>2016-02-28T08:52:44.000Z</time>
      </trkpt>
      <trkpt lat="47.87461" lon="1.83847">
        <ele>81.08</ele>
        <time>2016-02-28T08:52:46.000Z</time>
      </trkpt>
      <trkpt lat="47.87453" lon="1.83854">
        <ele>81.08</ele>
        <time>2016-02-28T08:52:48.000Z</time>
      </trkpt>
      <trkpt lat="47.87444" lon="1.83861">
        <ele>79.86</ele>
        <time>2016-02-28T08:52:50.000Z</time>
      </trkpt>
      <trkpt lat="47.87436" lon="1.83868">
        <ele>79.86</ele>
        <time>2016-02-28T08:52:52.000Z</time>
      </trkpt>
      <trkpt lat="47.87427" lon="1.83875">
        <ele>79.86</ele>
        <time>2016-02-28T08:52:54.000Z</time>
      </trkpt>
      <trkpt lat="47.87419" lon="1.83883">
        <ele>79.86</ele>
        <time>2016-02-28T08:52:56.000Z</time>
      </trkpt>
      <trkpt lat="47.87411" lon="1.83891">
        <ele>79.86</ele>
        <time>2016-02-28T08:52:58.000Z</time>
      </trkpt>
      <trkpt lat="47.87402" lon="1.83899">
        <ele>79.86</ele>
        <time>2016-02-28T08:53:00.000Z</time>
      </trkpt>
      <trkpt lat="47.87394" lon="1.83908">
        <ele>79.86</ele>
        <time>2016-02-28T08:53:02.000Z</time>
      </trkpt>
      <trkpt lat="47.87388" lon="1.83918">
        <ele>79.86</ele>
        <time>2016-02-28T08:53:04.000Z</time>
      </trkpt>
      <trkpt lat="47.87382" lon="1.8393">
        <ele>79.86</ele>
        <time>2016-02-28T08:53:06.000Z</time>
      </trkpt>
      <trkpt lat="47.87376" lon="1.83943">
        <ele>79.86</ele>
        <time>2016-02-28T08:53:08.000Z</time>
      </trkpt>
      <trkpt lat="47.8737" lon="1.83954">
        <ele>79.86</ele>
        <time>2016-02-28T08:53:10.000Z</time>
      </trkpt>
      <trkpt lat="47.87364" lon="1.83965">
        <ele>79.86</ele>
        <time>2016-02-28T08:53:12.000Z</time>
      </trkpt>
      <trkpt lat="47.87358" lon="1.83975">
        <ele>79.86</ele>
        <time>2016-02-28T08:53:14.000Z</time>
      </trkpt>
      <trkpt lat="47.87352" lon="1.83985">
        <ele>79.86</ele>
        <time>2016-02-28T08:53:16.000Z</time>
      </trkpt>
      <trkpt lat="47.87347" lon="1.83995">
        <ele>79.86</ele>
        <time>2016-02-28T08:53:18.000Z</time>
      </trkpt>
      <trkpt lat="47.87345" lon="1.84002">
        <ele>79.86</ele>
        <time>2016-02-28T08:53:20.000Z</time>
      </trkpt>
      <trkpt lat="47.87341" lon="1.84009">
        <ele>79.86</ele>
        <time>2016-02-28T08:53:22.000Z</time>
      </trkpt>
      <trkpt lat="47.87336" lon="1.84009">
        <ele>79.86</ele>
        <time>2016-02-28T08:53:24.000Z</time>
      </trkpt>
      <trkpt lat="47.87329" lon="1.84007">
        <ele>79.86</ele>
        <time>2016-02-28T08:53:26.000Z</time>
      </trkpt>
      <trkpt lat="47.87322" lon="1.84006">
        <ele>79.86</ele>
        <time>2016-02-28T08:53:28.000Z</time>
      </trkpt>
      <trkpt lat="47.87314" lon="1.84006">
        <ele>79.86</ele>
        <time>2016-02-28T08:53:30.000Z</time>
      </trkpt>
      <trkpt lat="47.87306" lon="1.84007">
        <ele>79.86</ele>
        <time>2016-02-28T08:53:32.000Z</time>
      </trkpt>
      <trkpt lat="47.87298" lon="1.84004">
        <ele>79.86</ele>
        <time>2016-02-28T08:53:34.000Z</time>
      </trkpt>
      <trkpt lat="47.87289" lon="1.84003">
        <ele>79.86</ele>
        <time>2016-02-28T08:53:36.000Z</time>
      </trkpt>
      <trkpt lat="47.87281" lon="1.84001">
        <ele>79.86</ele>
        <time>2016-02-28T08:53:38.000Z</time>
      </trkpt>
      <trkpt lat="47.87272" lon="1.84">
        <ele>81.08</ele>
        <time>2016-02-28T08:53:40.000Z</time>
      </trkpt>
      <trkpt lat="47.87263" lon="1.83999">
        <ele>81.08</ele>
        <time>2016-02-28T08:53:42.000Z</time>
      </trkpt>
      <trkpt lat="47.87254" lon="1.83999">
        <ele>81.08</ele>
        <time>2016-02-28T08:53:44.000Z</time>
      </trkpt>
      <trkpt lat="47.87245" lon="1.83998">
        <ele>81.08</ele>
        <time>2016-02-28T08:53:46.000Z</time>
      </trkpt>
      <trkpt lat="47.87235" lon="1.83998">
        <ele>81.08</ele>
        <time>2016-02-28T08:53:48.000Z</time>
      </trkpt>
      <trkpt lat="47.87224" lon="1.83997">
        <ele>81.08</ele>
        <time>2016-02-28T08:53:50.000Z</time>
      </trkpt>
      <trkpt lat="47.87212" lon="1.83997">
        <ele>81.08</ele>
        <time>2016-02-28T08:53:52.000Z</time>
      </trkpt>
      <trkpt lat="47.872" lon="1.83997">
        <ele>81.08</ele>
        <time>2016-02-28T08:53:54.000Z</time>
      </trkpt>
      <trkpt lat="47.87187" lon="1.83995">
        <ele>81.08</ele>
        <time>2016-02-28T08:53:56.000Z</time>
      </trkpt>
      <trkpt lat="47.87175" lon="1.83992">
        <ele>81.08</ele>
        <time>2016-02-28T08:53:58.000Z</time>
      </trkpt>
      <trkpt lat="47.87162" lon="1.83988">
        <ele>79.86</ele>
        <time>2016-02-28T08:54:00.000Z</time>
      </trkpt>
      <trkpt lat="47.87149" lon="1.83987">
        <ele>79.86</ele>
        <time>2016-02-28T08:54:02.000Z</time>
      </trkpt>
      <trkpt lat="47.87137" lon="1.83984">
        <ele>78.94</ele>
        <time>2016-02-28T08:54:04.000Z</time>
      </trkpt>
      <trkpt lat="47.87128" lon="1.83984">
        <ele>78.94</ele>
        <time>2016-02-28T08:54:06.000Z</time>
      </trkpt>
      <trkpt lat="47.87125" lon="1.83987">
        <ele>78.94</ele>
        <time>2016-02-28T08:54:08.000Z</time>
      </trkpt>
      <trkpt lat="47.87122" lon="1.83987">
        <ele>78.03</ele>
        <time>2016-02-28T08:54:10.000Z</time>
      </trkpt>
      <trkpt lat="47.87119" lon="1.83986">
        <ele>78.03</ele>
        <time>2016-02-28T08:54:12.000Z</time>
      </trkpt>
      <trkpt lat="47.8712" lon="1.83982">
        <ele>78.03</ele>
        <time>2016-02-28T08:54:14.000Z</time>
      </trkpt>
      <trkpt lat="47.87122" lon="1.83978">
        <ele>78.03</ele>
        <time>2016-02-28T08:54:16.000Z</time>
      </trkpt>
      <trkpt lat="47.87123" lon="1.83977">
        <ele>78.03</ele>
        <time>2016-02-28T08:54:18.000Z</time>
      </trkpt>
      <trkpt lat="47.87123" lon="1.83975">
        <ele>78.03</ele>
        <time>2016-02-28T08:54:20.000Z</time>
      </trkpt>
      <trkpt lat="47.87122" lon="1.83966">
        <ele>78.03</ele>
        <time>2016-02-28T08:54:22.000Z</time>
      </trkpt>
      <trkpt lat="47.87122" lon="1.83962">
        <ele>78.03</ele>
        <time>2016-02-28T08:54:24.000Z</time>
      </trkpt>
      <trkpt lat="47.87123" lon="1.83951">
        <ele>77.11</ele>
        <time>2016-02-28T08:54:26.000Z</time>
      </trkpt>
      <trkpt lat="47.87125" lon="1.83936">
        <ele>77.11</ele>
        <time>2016-02-28T08:54:28.000Z</time>
      </trkpt>
      <trkpt lat="47.87132" lon="1.83927">
        <ele>75.9</ele>
        <time>2016-02-28T08:54:30.000Z</time>
      </trkpt>
      <trkpt lat="47.87141" lon="1.83926">
        <ele>75.9</ele>
        <time>2016-02-28T08:54:32.000Z</time>
      </trkpt>
      <trkpt lat="47.87149" lon="1.83928">
        <ele>75.9</ele>
        <time>2016-02-28T08:54:34.000Z</time>
      </trkpt>
      <trkpt lat="47.87158" lon="1.83928">
        <ele>75.9</ele>
        <time>2016-02-28T08:54:36.000Z</time>
      </trkpt>
      <trkpt lat="47.87165" lon="1.83923">
        <ele>75.9</ele>
        <time>2016-02-28T08:54:38.000Z</time>
      </trkpt>
      <trkpt lat="47.87171" lon="1.83915">
        <ele>75.9</ele>
        <time>2016-02-28T08:54:40.000Z</time>
      </trkpt>
      <trkpt lat="47.87177" lon="1.83906">
        <ele>75.9</ele>
        <time>2016-02-28T08:54:42.000Z</time>
      </trkpt>
      <trkpt lat="47.87182" lon="1.83896">
        <ele>75.9</ele>
        <time>2016-02-28T08:54:44.000Z</time>
      </trkpt>
      <trkpt lat="47.87187" lon="1.83886">
        <ele>77.11</ele>
        <time>2016-02-28T08:54:46.000Z</time>
      </trkpt>
      <trkpt lat="47.87192" lon="1.83874">
        <ele>77.11</ele>
        <time>2016-02-28T08:54:48.000Z</time>
      </trkpt>
      <trkpt lat="47.87195" lon="1.83861">
        <ele>77.11</ele>
        <time>2016-02-28T08:54:50.000Z</time>
      </trkpt>
      <trkpt lat="47.87198" lon="1.83847">
        <ele>77.11</ele>
        <time>2016-02-28T08:54:52.000Z</time>
      </trkpt>
      <trkpt lat="47.87201" lon="1.83833">
        <ele>77.11</ele>
        <time>2016-02-28T08:54:54.000Z</time>
      </trkpt>
      <trkpt lat="47.87203" lon="1.83817">
        <ele>75.9</ele>
        <time>2016-02-28T08:54:56.000Z</time>
      </trkpt>
      <trkpt lat="47.87204" lon="1.83802">
        <ele>75.9</ele>
        <time>2016-02-28T08:54:58.000Z</time>
      </trkpt>
      <trkpt lat="47.87206" lon="1.83786">
        <ele>75.9</ele>
        <time>2016-02-28T08:55:00.000Z</time>
      </trkpt>
      <trkpt lat="47.87208" lon="1.8377">
        <ele>75.9</ele>
        <time>2016-02-28T08:55:02.000Z</time>
      </trkpt>
      <trkpt lat="47.87209" lon="1.83755">
        <ele>75.9</ele>
        <time>2016-02-28T08:55:04.000Z</time>
      </trkpt>
      <trkpt lat="47.87209" lon="1.83739">
        <ele>75.9</ele>
        <time>2016-02-28T08:55:06.000Z</time>
      </trkpt>
      <trkpt lat="47.8721" lon="1.83723">
        <ele>75.9</ele>
        <time>2016-02-28T08:55:08.000Z</time>
      </trkpt>
      <trkpt lat="47.87211" lon="1.83708">
        <ele>74.07</ele>
        <time>2016-02-28T08:55:10.000Z</time>
      </trkpt>
      <trkpt lat="47.87213" lon="1.83693">
        <ele>74.07</ele>
        <time>2016-02-28T08:55:12.000Z</time>
      </trkpt>
      <trkpt lat="47.87213" lon="1.83678">
        <ele>74.07</ele>
        <time>2016-02-28T08:55:14.000Z</time>
      </trkpt>
      <trkpt lat="47.87213" lon="1.83663">
        <ele>74.07</ele>
        <time>2016-02-28T08:55:16.000Z</time>
      </trkpt>
      <trkpt lat="47.87212" lon="1.83648">
        <ele>74.07</ele>
        <time>2016-02-28T08:55:18.000Z</time>
      </trkpt>
      <trkpt lat="47.87211" lon="1.83633">
        <ele>74.07</ele>
        <time>2016-02-28T08:55:20.000Z</time>
      </trkpt>
      <trkpt lat="47.8721" lon="1.83619">
        <ele>74.07</ele>
        <time>2016-02-28T08:55:22.000Z</time>
      </trkpt>
      <trkpt lat="47.87208" lon="1.83605">
        <ele>74.07</ele>
        <time>2016-02-28T08:55:24.000Z</time>
      </trkpt>
      <trkpt lat="47.87206" lon="1.8359">
        <ele>74.07</ele>
        <time>2016-02-28T08:55:26.000Z</time>
      </trkpt>
      <trkpt lat="47.87204" lon="1.83575">
        <ele>74.07</ele>
        <time>2016-02-28T08:55:28.000Z</time>
      </trkpt>
      <trkpt lat="47.87201" lon="1.83561">
        <ele>74.07</ele>
        <time>2016-02-28T08:55:30.000Z</time>
      </trkpt>
      <trkpt lat="47.87198" lon="1.83547">
        <ele>74.07</ele>
        <time>2016-02-28T08:55:32.000Z</time>
      </trkpt>
      <trkpt lat="47.87194" lon="1.83533">
        <ele>74.07</ele>
        <time>2016-02-28T08:55:34.000Z</time>
      </trkpt>
      <trkpt lat="47.8719" lon="1.83519">
        <ele>74.07</ele>
        <time>2016-02-28T08:55:36.000Z</time>
      </trkpt>
      <trkpt lat="47.87185" lon="1.83505">
        <ele>74.07</ele>
        <time>2016-02-28T08:55:38.000Z</time>
      </trkpt>
      <trkpt lat="47.8718" lon="1.83493">
        <ele>74.07</ele>
        <time>2016-02-28T08:55:40.000Z</time>
      </trkpt>
      <trkpt lat="47.87173" lon="1.83482">
        <ele>74.07</ele>
        <time>2016-02-28T08:55:42.000Z</time>
      </trkpt>
      <trkpt lat="47.87166" lon="1.83471">
        <ele>74.07</ele>
        <time>2016-02-28T08:55:44.000Z</time>
      </trkpt>
      <trkpt lat="47.87155" lon="1.83458">
        <ele>74.07</ele>
        <time>2016-02-28T08:55:46.000Z</time>
      </trkpt>
      <trkpt lat="47.87151" lon="1.83454">
        <ele>74.07</ele>
        <time>2016-02-28T08:55:48.000Z</time>
      </trkpt>
      <trkpt lat="47.87141" lon="1.83449">
        <ele>74.07</ele>
        <time>2016-02-28T08:55:50.000Z</time>
      </trkpt>
      <trkpt lat="47.87131" lon="1.83446">
        <ele>74.07</ele>
        <time>2016-02-28T08:55:52.000Z</time>
      </trkpt>
      <trkpt lat="47.87121" lon="1.83444">
        <ele>74.07</ele>
        <time>2016-02-28T08:55:54.000Z</time>
      </trkpt>
      <trkpt lat="47.87112" lon="1.83442">
        <ele>74.07</ele>
        <time>2016-02-28T08:55:56.000Z</time>
      </trkpt>
      <trkpt lat="47.87102" lon="1.8344">
        <ele>74.07</ele>
        <time>2016-02-28T08:55:58.000Z</time>
      </trkpt>
      <trkpt lat="47.87094" lon="1.83434">
        <ele>74.07</ele>
        <time>2016-02-28T08:56:00.000Z</time>
      </trkpt>
      <trkpt lat="47.87086" lon="1.83426">
        <ele>74.07</ele>
        <time>2016-02-28T08:56:02.000Z</time>
      </trkpt>
      <trkpt lat="47.87077" lon="1.83418">
        <ele>74.07</ele>
        <time>2016-02-28T08:56:04.000Z</time>
      </trkpt>
      <trkpt lat="47.87068" lon="1.83412">
        <ele>74.07</ele>
        <time>2016-02-28T08:56:06.000Z</time>
      </trkpt>
      <trkpt lat="47.8706" lon="1.83406">
        <ele>74.07</ele>
        <time>2016-02-28T08:56:08.000Z</time>
      </trkpt>
      <trkpt lat="47.87052" lon="1.83399">
        <ele>74.07</ele>
        <time>2016-02-28T08:56:10.000Z</time>
      </trkpt>
      <trkpt lat="47.87044" lon="1.83391">
        <ele>74.07</ele>
        <time>2016-02-28T08:56:12.000Z</time>
      </trkpt>
      <trkpt lat="47.87036" lon="1.83382">
        <ele>74.07</ele>
        <time>2016-02-28T08:56:14.000Z</time>
      </trkpt>
      <trkpt lat="47.87025" lon="1.8337">
        <ele>74.07</ele>
        <time>2016-02-28T08:56:16.000Z</time>
      </trkpt>
      <trkpt lat="47.87021" lon="1.83366">
        <ele>74.07</ele>
        <time>2016-02-28T08:56:18.000Z</time>
      </trkpt>
      <trkpt lat="47.87013" lon="1.83359">
        <ele>74.98</ele>
        <time>2016-02-28T08:56:20.000Z</time>
      </trkpt>
      <trkpt lat="47.87006" lon="1.83351">
        <ele>74.98</ele>
        <time>2016-02-28T08:56:22.000Z</time>
      </trkpt>
      <trkpt lat="47.87" lon="1.83341">
        <ele>74.98</ele>
        <time>2016-02-28T08:56:24.000Z</time>
      </trkpt>
      <trkpt lat="47.86994" lon="1.8333">
        <ele>74.98</ele>
        <time>2016-02-28T08:56:26.000Z</time>
      </trkpt>
      <trkpt lat="47.86988" lon="1.83319">
        <ele>74.98</ele>
        <time>2016-02-28T08:56:28.000Z</time>
      </trkpt>
      <trkpt lat="47.86982" lon="1.83308">
        <ele>74.98</ele>
        <time>2016-02-28T08:56:30.000Z</time>
      </trkpt>
      <trkpt lat="47.86976" lon="1.83298">
        <ele>74.98</ele>
        <time>2016-02-28T08:56:32.000Z</time>
      </trkpt>
      <trkpt lat="47.86969" lon="1.8329">
        <ele>74.98</ele>
        <time>2016-02-28T08:56:34.000Z</time>
      </trkpt>
      <trkpt lat="47.86961" lon="1.83284">
        <ele>75.9</ele>
        <time>2016-02-28T08:56:36.000Z</time>
      </trkpt>
      <trkpt lat="47.86954" lon="1.83275">
        <ele>75.9</ele>
        <time>2016-02-28T08:56:38.000Z</time>
      </trkpt>
      <trkpt lat="47.86947" lon="1.83264">
        <ele>75.9</ele>
        <time>2016-02-28T08:56:40.000Z</time>
      </trkpt>
      <trkpt lat="47.8694" lon="1.83254">
        <ele>75.9</ele>
        <time>2016-02-28T08:56:42.000Z</time>
      </trkpt>
      <trkpt lat="47.86933" lon="1.83243">
        <ele>75.9</ele>
        <time>2016-02-28T08:56:44.000Z</time>
      </trkpt>
      <trkpt lat="47.86925" lon="1.83234">
        <ele>74.98</ele>
        <time>2016-02-28T08:56:46.000Z</time>
      </trkpt>
      <trkpt lat="47.86916" lon="1.83228">
        <ele>74.98</ele>
        <time>2016-02-28T08:56:48.000Z</time>
      </trkpt>
      <trkpt lat="47.86909" lon="1.8322">
        <ele>74.98</ele>
        <time>2016-02-28T08:56:50.000Z</time>
      </trkpt>
      <trkpt lat="47.86904" lon="1.83214">
        <ele>74.98</ele>
        <time>2016-02-28T08:56:52.000Z</time>
      </trkpt>
      <trkpt lat="47.86902" lon="1.83217">
        <ele>74.98</ele>
        <time>2016-02-28T08:56:54.000Z</time>
      </trkpt>
      <trkpt lat="47.86901" lon="1.83217">
        <ele>74.07</ele>
        <time>2016-02-28T08:56:56.000Z</time>
      </trkpt>
      <trkpt lat="47.86899" lon="1.83217">
        <ele>74.07</ele>
        <time>2016-02-28T08:56:58.000Z</time>
      </trkpt>
      <trkpt lat="47.86896" lon="1.83219">
        <ele>74.07</ele>
        <time>2016-02-28T08:57:00.000Z</time>
      </trkpt>
      <trkpt lat="47.86892" lon="1.83221">
        <ele>74.07</ele>
        <time>2016-02-28T08:57:02.000Z</time>
      </trkpt>
      <trkpt lat="47.86887" lon="1.83224">
        <ele>74.07</ele>
        <time>2016-02-28T08:57:04.000Z</time>
      </trkpt>
      <trkpt lat="47.86881" lon="1.83227">
        <ele>74.07</ele>
        <time>2016-02-28T08:57:06.000Z</time>
      </trkpt>
      <trkpt lat="47.86874" lon="1.83231">
        <ele>74.07</ele>
        <time>2016-02-28T08:57:08.000Z</time>
      </trkpt>
      <trkpt lat="47.86869" lon="1.83235">
        <ele>74.07</ele>
        <time>2016-02-28T08:57:10.000Z</time>
      </trkpt>
      <trkpt lat="47.86865" lon="1.83233">
        <ele>74.07</ele>
        <time>2016-02-28T08:57:12.000Z</time>
      </trkpt>
      <trkpt lat="47.86863" lon="1.83226">
        <ele>74.07</ele>
        <time>2016-02-28T08:57:14.000Z</time>
      </trkpt>
      <trkpt lat="47.86861" lon="1.83217">
        <ele>74.07</ele>
        <time>2016-02-28T08:57:16.000Z</time>
      </trkpt>
      <trkpt lat="47.86858" lon="1.83207">
        <ele>74.07</ele>
        <time>2016-02-28T08:57:18.000Z</time>
      </trkpt>
      <trkpt lat="47.86854" lon="1.83198">
        <ele>74.07</ele>
        <time>2016-02-28T08:57:20.000Z</time>
      </trkpt>
      <trkpt lat="47.86849" lon="1.83188">
        <ele>74.07</ele>
        <time>2016-02-28T08:57:22.000Z</time>
      </trkpt>
      <trkpt lat="47.86844" lon="1.83177">
        <ele>74.07</ele>
        <time>2016-02-28T08:57:24.000Z</time>
      </trkpt>
      <trkpt lat="47.8684" lon="1.83166">
        <ele>74.07</ele>
        <time>2016-02-28T08:57:26.000Z</time>
      </trkpt>
      <trkpt lat="47.86833" lon="1.83149">
        <ele>74.07</ele>
        <time>2016-02-28T08:57:28.000Z</time>
      </trkpt>
      <trkpt lat="47.8683" lon="1.83144">
        <ele>74.07</ele>
        <time>2016-02-28T08:57:30.000Z</time>
      </trkpt>
      <trkpt lat="47.86826" lon="1.83132">
        <ele>74.07</ele>
        <time>2016-02-28T08:57:32.000Z</time>
      </trkpt>
      <trkpt lat="47.86821" lon="1.83121">
        <ele>74.07</ele>
        <time>2016-02-28T08:57:34.000Z</time>
      </trkpt>
      <trkpt lat="47.86817" lon="1.8311">
        <ele>74.07</ele>
        <time>2016-02-28T08:57:36.000Z</time>
      </trkpt>
      <trkpt lat="47.86814" lon="1.831">
        <ele>74.07</ele>
        <time>2016-02-28T08:57:38.000Z</time>
      </trkpt>
      <trkpt lat="47.8681" lon="1.8309">
        <ele>74.07</ele>
        <time>2016-02-28T08:57:40.000Z</time>
      </trkpt>
      <trkpt lat="47.86805" lon="1.83074">
        <ele>74.07</ele>
        <time>2016-02-28T08:57:42.000Z</time>
      </trkpt>
      <trkpt lat="47.86804" lon="1.83069">
        <ele>74.07</ele>
        <time>2016-02-28T08:57:44.000Z</time>
      </trkpt>
      <trkpt lat="47.86801" lon="1.83059">
        <ele>74.07</ele>
        <time>2016-02-28T08:57:46.000Z</time>
      </trkpt>
      <trkpt lat="47.86799" lon="1.83049">
        <ele>74.07</ele>
        <time>2016-02-28T08:57:48.000Z</time>
      </trkpt>
      <trkpt lat="47.86796" lon="1.83039">
        <ele>74.07</ele>
        <time>2016-02-28T08:57:50.000Z</time>
      </trkpt>
      <trkpt lat="47.86794" lon="1.83031">
        <ele>74.07</ele>
        <time>2016-02-28T08:57:52.000Z</time>
      </trkpt>
      <trkpt lat="47.86791" lon="1.83024">
        <ele>74.07</ele>
        <time>2016-02-28T08:57:54.000Z</time>
      </trkpt>
      <trkpt lat="47.86787" lon="1.83012">
        <ele>74.07</ele>
        <time>2016-02-28T08:57:56.000Z</time>
      </trkpt>
      <trkpt lat="47.86787" lon="1.83012">
        <ele>74.07</ele>
        <time>2016-02-28T08:57:58.000Z</time>
      </trkpt>
      <trkpt lat="47.86783" lon="1.83">
        <ele>74.07</ele>
        <time>2016-02-28T08:58:00.000Z</time>
      </trkpt>
      <trkpt lat="47.86781" lon="1.82992">
        <ele>74.07</ele>
        <time>2016-02-28T08:58:02.000Z</time>
      </trkpt>
      <trkpt lat="47.86779" lon="1.82986">
        <ele>74.07</ele>
        <time>2016-02-28T08:58:04.000Z</time>
      </trkpt>
      <trkpt lat="47.86776" lon="1.82978">
        <ele>74.07</ele>
        <time>2016-02-28T08:58:06.000Z</time>
      </trkpt>
      <trkpt lat="47.86773" lon="1.82971">
        <ele>74.07</ele>
        <time>2016-02-28T08:58:08.000Z</time>
      </trkpt>
      <trkpt lat="47.86768" lon="1.82959">
        <ele>74.07</ele>
        <time>2016-02-28T08:58:10.000Z</time>
      </trkpt>
      <trkpt lat="47.86766" lon="1.82954">
        <ele>74.07</ele>
        <time>2016-02-28T08:58:12.000Z</time>
      </trkpt>
      <trkpt lat="47.86763" lon="1.82945">
        <ele>74.07</ele>
        <time>2016-02-28T08:58:14.000Z</time>
      </trkpt>
      <trkpt lat="47.86761" lon="1.82936">
        <ele>74.07</ele>
        <time>2016-02-28T08:58:16.000Z</time>
      </trkpt>
      <trkpt lat="47.86758" lon="1.82927">
        <ele>74.07</ele>
        <time>2016-02-28T08:58:18.000Z</time>
      </trkpt>
      <trkpt lat="47.86756" lon="1.82918">
        <ele>74.07</ele>
        <time>2016-02-28T08:58:20.000Z</time>
      </trkpt>
      <trkpt lat="47.86753" lon="1.82908">
        <ele>74.07</ele>
        <time>2016-02-28T08:58:22.000Z</time>
      </trkpt>
      <trkpt lat="47.8675" lon="1.82899">
        <ele>74.07</ele>
        <time>2016-02-28T08:58:24.000Z</time>
      </trkpt>
      <trkpt lat="47.86747" lon="1.82889">
        <ele>74.07</ele>
        <time>2016-02-28T08:58:26.000Z</time>
      </trkpt>
      <trkpt lat="47.86744" lon="1.82878">
        <ele>74.07</ele>
        <time>2016-02-28T08:58:28.000Z</time>
      </trkpt>
      <trkpt lat="47.86743" lon="1.82867">
        <ele>74.07</ele>
        <time>2016-02-28T08:58:30.000Z</time>
      </trkpt>
      <trkpt lat="47.8674" lon="1.82857">
        <ele>74.07</ele>
        <time>2016-02-28T08:58:32.000Z</time>
      </trkpt>
      <trkpt lat="47.86738" lon="1.82845">
        <ele>74.07</ele>
        <time>2016-02-28T08:58:34.000Z</time>
      </trkpt>
      <trkpt lat="47.86737" lon="1.82834">
        <ele>74.07</ele>
        <time>2016-02-28T08:58:36.000Z</time>
      </trkpt>
      <trkpt lat="47.86736" lon="1.82824">
        <ele>74.07</ele>
        <time>2016-02-28T08:58:38.000Z</time>
      </trkpt>
      <trkpt lat="47.86735" lon="1.82812">
        <ele>74.07</ele>
        <time>2016-02-28T08:58:40.000Z</time>
      </trkpt>
      <trkpt lat="47.86733" lon="1.82801">
        <ele>74.07</ele>
        <time>2016-02-28T08:58:42.000Z</time>
      </trkpt>
      <trkpt lat="47.86731" lon="1.8279">
        <ele>74.07</ele>
        <time>2016-02-28T08:58:44.000Z</time>
      </trkpt>
      <trkpt lat="47.86728" lon="1.8278">
        <ele>74.07</ele>
        <time>2016-02-28T08:58:46.000Z</time>
      </trkpt>
      <trkpt lat="47.86724" lon="1.82774">
        <ele>74.07</ele>
        <time>2016-02-28T08:58:48.000Z</time>
      </trkpt>
      <trkpt lat="47.86723" lon="1.82768">
        <ele>74.07</ele>
        <time>2016-02-28T08:58:50.000Z</time>
      </trkpt>
      <trkpt lat="47.86724" lon="1.82758">
        <ele>74.07</ele>
        <time>2016-02-28T08:58:52.000Z</time>
      </trkpt>
      <trkpt lat="47.86721" lon="1.82743">
        <ele>74.07</ele>
        <time>2016-02-28T08:58:54.000Z</time>
      </trkpt>
      <trkpt lat="47.8672" lon="1.82738">
        <ele>74.07</ele>
        <time>2016-02-28T08:58:56.000Z</time>
      </trkpt>
      <trkpt lat="47.86717" lon="1.82727">
        <ele>74.07</ele>
        <time>2016-02-28T08:58:58.000Z</time>
      </trkpt>
      <trkpt lat="47.86715" lon="1.82717">
        <ele>74.07</ele>
        <time>2016-02-28T08:59:00.000Z</time>
      </trkpt>
      <trkpt lat="47.86711" lon="1.82708">
        <ele>74.98</ele>
        <time>2016-02-28T08:59:02.000Z</time>
      </trkpt>
      <trkpt lat="47.86705" lon="1.827">
        <ele>74.98</ele>
        <time>2016-02-28T08:59:04.000Z</time>
      </trkpt>
      <trkpt lat="47.86701" lon="1.82691">
        <ele>75.9</ele>
        <time>2016-02-28T08:59:06.000Z</time>
      </trkpt>
      <trkpt lat="47.86698" lon="1.82678">
        <ele>75.9</ele>
        <time>2016-02-28T08:59:08.000Z</time>
      </trkpt>
      <trkpt lat="47.86694" lon="1.82667">
        <ele>75.9</ele>
        <time>2016-02-28T08:59:10.000Z</time>
      </trkpt>
      <trkpt lat="47.8669" lon="1.82654">
        <ele>75.9</ele>
        <time>2016-02-28T08:59:12.000Z</time>
      </trkpt>
      <trkpt lat="47.86685" lon="1.82641">
        <ele>75.9</ele>
        <time>2016-02-28T08:59:14.000Z</time>
      </trkpt>
      <trkpt lat="47.86681" lon="1.82625">
        <ele>75.9</ele>
        <time>2016-02-28T08:59:16.000Z</time>
      </trkpt>
      <trkpt lat="47.86676" lon="1.82612">
        <ele>75.9</ele>
        <time>2016-02-28T08:59:18.000Z</time>
      </trkpt>
      <trkpt lat="47.86669" lon="1.826">
        <ele>75.9</ele>
        <time>2016-02-28T08:59:20.000Z</time>
      </trkpt>
      <trkpt lat="47.86664" lon="1.82587">
        <ele>77.11</ele>
        <time>2016-02-28T08:59:22.000Z</time>
      </trkpt>
      <trkpt lat="47.86659" lon="1.82574">
        <ele>77.11</ele>
        <time>2016-02-28T08:59:24.000Z</time>
      </trkpt>
      <trkpt lat="47.86653" lon="1.82561">
        <ele>77.11</ele>
        <time>2016-02-28T08:59:26.000Z</time>
      </trkpt>
      <trkpt lat="47.86648" lon="1.82547">
        <ele>77.11</ele>
        <time>2016-02-28T08:59:28.000Z</time>
      </trkpt>
      <trkpt lat="47.86643" lon="1.82534">
        <ele>77.11</ele>
        <time>2016-02-28T08:59:30.000Z</time>
      </trkpt>
      <trkpt lat="47.86638" lon="1.82521">
        <ele>77.11</ele>
        <time>2016-02-28T08:59:32.000Z</time>
      </trkpt>
      <trkpt lat="47.86634" lon="1.82507">
        <ele>77.11</ele>
        <time>2016-02-28T08:59:34.000Z</time>
      </trkpt>
      <trkpt lat="47.86628" lon="1.82494">
        <ele>78.03</ele>
        <time>2016-02-28T08:59:36.000Z</time>
      </trkpt>
      <trkpt lat="47.86623" lon="1.8248">
        <ele>78.03</ele>
        <time>2016-02-28T08:59:38.000Z</time>
      </trkpt>
      <trkpt lat="47.86618" lon="1.82466">
        <ele>78.03</ele>
        <time>2016-02-28T08:59:40.000Z</time>
      </trkpt>
      <trkpt lat="47.86613" lon="1.82451">
        <ele>78.03</ele>
        <time>2016-02-28T08:59:42.000Z</time>
      </trkpt>
      <trkpt lat="47.86607" lon="1.82435">
        <ele>78.03</ele>
        <time>2016-02-28T08:59:44.000Z</time>
      </trkpt>
      <trkpt lat="47.86602" lon="1.82419">
        <ele>78.03</ele>
        <time>2016-02-28T08:59:46.000Z</time>
      </trkpt>
      <trkpt lat="47.86596" lon="1.82404">
        <ele>78.03</ele>
        <time>2016-02-28T08:59:48.000Z</time>
      </trkpt>
      <trkpt lat="47.86591" lon="1.82388">
        <ele>78.03</ele>
        <time>2016-02-28T08:59:50.000Z</time>
      </trkpt>
      <trkpt lat="47.86586" lon="1.82372">
        <ele>78.03</ele>
        <time>2016-02-28T08:59:52.000Z</time>
      </trkpt>
      <trkpt lat="47.86581" lon="1.82357">
        <ele>78.03</ele>
        <time>2016-02-28T08:59:54.000Z</time>
      </trkpt>
      <trkpt lat="47.86577" lon="1.82341">
        <ele>78.03</ele>
        <time>2016-02-28T08:59:56.000Z</time>
      </trkpt>
      <trkpt lat="47.86572" lon="1.82326">
        <ele>78.03</ele>
        <time>2016-02-28T08:59:58.000Z</time>
      </trkpt>
      <trkpt lat="47.86568" lon="1.82311">
        <ele>78.03</ele>
        <time>2016-02-28T09:00:00.000Z</time>
      </trkpt>
      <trkpt lat="47.86562" lon="1.82296">
        <ele>78.03</ele>
        <time>2016-02-28T09:00:02.000Z</time>
      </trkpt>
      <trkpt lat="47.86553" lon="1.82274">
        <ele>78.03</ele>
        <time>2016-02-28T09:00:04.000Z</time>
      </trkpt>
      <trkpt lat="47.86551" lon="1.82266">
        <ele>78.03</ele>
        <time>2016-02-28T09:00:06.000Z</time>
      </trkpt>
      <trkpt lat="47.86551" lon="1.82248">
        <ele>78.03</ele>
        <time>2016-02-28T09:00:08.000Z</time>
      </trkpt>
      <trkpt lat="47.86546" lon="1.82233">
        <ele>78.03</ele>
        <time>2016-02-28T09:00:10.000Z</time>
      </trkpt>
      <trkpt lat="47.8654" lon="1.82221">
        <ele>75.9</ele>
        <time>2016-02-28T09:00:12.000Z</time>
      </trkpt>
      <trkpt lat="47.86536" lon="1.8221">
        <ele>75.9</ele>
        <time>2016-02-28T09:00:14.000Z</time>
      </trkpt>
      <trkpt lat="47.86533" lon="1.82197">
        <ele>75.9</ele>
        <time>2016-02-28T09:00:16.000Z</time>
      </trkpt>
      <trkpt lat="47.86528" lon="1.82184">
        <ele>75.9</ele>
        <time>2016-02-28T09:00:18.000Z</time>
      </trkpt>
      <trkpt lat="47.86523" lon="1.8217">
        <ele>75.9</ele>
        <time>2016-02-28T09:00:20.000Z</time>
      </trkpt>
      <trkpt lat="47.8652" lon="1.82163">
        <ele>74.98</ele>
        <time>2016-02-28T09:00:22.000Z</time>
      </trkpt>
      <trkpt lat="47.86515" lon="1.82142">
        <ele>74.98</ele>
        <time>2016-02-28T09:00:24.000Z</time>
      </trkpt>
      <trkpt lat="47.86512" lon="1.82127">
        <ele>74.98</ele>
        <time>2016-02-28T09:00:26.000Z</time>
      </trkpt>
      <trkpt lat="47.86512" lon="1.82118">
        <ele>74.98</ele>
        <time>2016-02-28T09:00:28.000Z</time>
      </trkpt>
      <trkpt lat="47.86513" lon="1.82113">
        <ele>74.98</ele>
        <time>2016-02-28T09:00:30.000Z</time>
      </trkpt>
      <trkpt lat="47.86513" lon="1.82108">
        <ele>74.98</ele>
        <time>2016-02-28T09:00:32.000Z</time>
      </trkpt>
      <trkpt lat="47.86513" lon="1.82103">
        <ele>74.98</ele>
        <time>2016-02-28T09:00:34.000Z</time>
      </trkpt>
      <trkpt lat="47.86513" lon="1.82097">
        <ele>74.98</ele>
        <time>2016-02-28T09:00:36.000Z</time>
      </trkpt>
      <trkpt lat="47.86514" lon="1.82088">
        <ele>74.98</ele>
        <time>2016-02-28T09:00:38.000Z</time>
      </trkpt>
      <trkpt lat="47.86513" lon="1.82076">
        <ele>74.98</ele>
        <time>2016-02-28T09:00:40.000Z</time>
      </trkpt>
      <trkpt lat="47.86509" lon="1.82063">
        <ele>74.98</ele>
        <time>2016-02-28T09:00:42.000Z</time>
      </trkpt>
      <trkpt lat="47.86503" lon="1.82052">
        <ele>74.98</ele>
        <time>2016-02-28T09:00:44.000Z</time>
      </trkpt>
      <trkpt lat="47.86497" lon="1.82034">
        <ele>74.98</ele>
        <time>2016-02-28T09:00:46.000Z</time>
      </trkpt>
      <trkpt lat="47.86496" lon="1.82027">
        <ele>74.98</ele>
        <time>2016-02-28T09:00:48.000Z</time>
      </trkpt>
      <trkpt lat="47.86493" lon="1.82013">
        <ele>74.98</ele>
        <time>2016-02-28T09:00:50.000Z</time>
      </trkpt>
      <trkpt lat="47.86491" lon="1.81998">
        <ele>74.98</ele>
        <time>2016-02-28T09:00:52.000Z</time>
      </trkpt>
      <trkpt lat="47.86489" lon="1.81982">
        <ele>74.98</ele>
        <time>2016-02-28T09:00:54.000Z</time>
      </trkpt>
      <trkpt lat="47.86487" lon="1.81966">
        <ele>74.98</ele>
        <time>2016-02-28T09:00:56.000Z</time>
      </trkpt>
      <trkpt lat="47.86486" lon="1.81951">
        <ele>74.98</ele>
        <time>2016-02-28T09:00:58.000Z</time>
      </trkpt>
      <trkpt lat="47.86484" lon="1.81934">
        <ele>74.98</ele>
        <time>2016-02-28T09:01:00.000Z</time>
      </trkpt>
      <trkpt lat="47.86485" lon="1.81918">
        <ele>74.98</ele>
        <time>2016-02-28T09:01:02.000Z</time>
      </trkpt>
      <trkpt lat="47.86486" lon="1.81901">
        <ele>74.98</ele>
        <time>2016-02-28T09:01:04.000Z</time>
      </trkpt>
      <trkpt lat="47.86486" lon="1.81883">
        <ele>75.9</ele>
        <time>2016-02-28T09:01:06.000Z</time>
      </trkpt>
      <trkpt lat="47.86489" lon="1.81866">
        <ele>75.9</ele>
        <time>2016-02-28T09:01:08.000Z</time>
      </trkpt>
      <trkpt lat="47.86491" lon="1.8185">
        <ele>75.9</ele>
        <time>2016-02-28T09:01:10.000Z</time>
      </trkpt>
      <trkpt lat="47.86491" lon="1.81835">
        <ele>75.9</ele>
        <time>2016-02-28T09:01:12.000Z</time>
      </trkpt>
      <trkpt lat="47.86493" lon="1.81819">
        <ele>75.9</ele>
        <time>2016-02-28T09:01:14.000Z</time>
      </trkpt>
      <trkpt lat="47.86495" lon="1.81794">
        <ele>75.9</ele>
        <time>2016-02-28T09:01:16.000Z</time>
      </trkpt>
      <trkpt lat="47.86495" lon="1.81785">
        <ele>75.9</ele>
        <time>2016-02-28T09:01:18.000Z</time>
      </trkpt>
      <trkpt lat="47.86494" lon="1.81769">
        <ele>75.9</ele>
        <time>2016-02-28T09:01:20.000Z</time>
      </trkpt>
      <trkpt lat="47.86494" lon="1.81753">
        <ele>75.9</ele>
        <time>2016-02-28T09:01:22.000Z</time>
      </trkpt>
      <trkpt lat="47.86493" lon="1.81738">
        <ele>75.9</ele>
        <time>2016-02-28T09:01:24.000Z</time>
      </trkpt>
      <trkpt lat="47.86492" lon="1.81721">
        <ele>75.9</ele>
        <time>2016-02-28T09:01:26.000Z</time>
      </trkpt>
      <trkpt lat="47.86491" lon="1.81705">
        <ele>75.9</ele>
        <time>2016-02-28T09:01:28.000Z</time>
      </trkpt>
      <trkpt lat="47.86489" lon="1.8168">
        <ele>75.9</ele>
        <time>2016-02-28T09:01:30.000Z</time>
      </trkpt>
      <trkpt lat="47.86489" lon="1.81672">
        <ele>75.9</ele>
        <time>2016-02-28T09:01:32.000Z</time>
      </trkpt>
      <trkpt lat="47.86489" lon="1.81657">
        <ele>75.9</ele>
        <time>2016-02-28T09:01:34.000Z</time>
      </trkpt>
      <trkpt lat="47.86488" lon="1.81642">
        <ele>75.9</ele>
        <time>2016-02-28T09:01:36.000Z</time>
      </trkpt>
      <trkpt lat="47.86488" lon="1.81628">
        <ele>75.9</ele>
        <time>2016-02-28T09:01:38.000Z</time>
      </trkpt>
      <trkpt lat="47.86487" lon="1.81616">
        <ele>75.9</ele>
        <time>2016-02-28T09:01:40.000Z</time>
      </trkpt>
      <trkpt lat="47.86486" lon="1.81604">
        <ele>75.9</ele>
        <time>2016-02-28T09:01:42.000Z</time>
      </trkpt>
      <trkpt lat="47.86485" lon="1.81594">
        <ele>75.9</ele>
        <time>2016-02-28T09:01:44.000Z</time>
      </trkpt>
      <trkpt lat="47.86485" lon="1.81584">
        <ele>75.9</ele>
        <time>2016-02-28T09:01:46.000Z</time>
      </trkpt>
      <trkpt lat="47.86485" lon="1.81577">
        <ele>75.9</ele>
        <time>2016-02-28T09:01:48.000Z</time>
      </trkpt>
      <trkpt lat="47.86485" lon="1.81569">
        <ele>75.9</ele>
        <time>2016-02-28T09:01:50.000Z</time>
      </trkpt>
      <trkpt lat="47.86485" lon="1.81558">
        <ele>75.9</ele>
        <time>2016-02-28T09:01:52.000Z</time>
      </trkpt>
      <trkpt lat="47.86486" lon="1.81545">
        <ele>75.9</ele>
        <time>2016-02-28T09:01:54.000Z</time>
      </trkpt>
      <trkpt lat="47.86489" lon="1.81531">
        <ele>75.9</ele>
        <time>2016-02-28T09:01:56.000Z</time>
      </trkpt>
      <trkpt lat="47.8649" lon="1.81519">
        <ele>75.9</ele>
        <time>2016-02-28T09:01:58.000Z</time>
      </trkpt>
      <trkpt lat="47.86491" lon="1.81506">
        <ele>75.9</ele>
        <time>2016-02-28T09:02:00.000Z</time>
      </trkpt>
      <trkpt lat="47.86491" lon="1.81491">
        <ele>75.9</ele>
        <time>2016-02-28T09:02:02.000Z</time>
      </trkpt>
      <trkpt lat="47.86489" lon="1.81477">
        <ele>75.9</ele>
        <time>2016-02-28T09:02:04.000Z</time>
      </trkpt>
      <trkpt lat="47.86489" lon="1.81463">
        <ele>75.9</ele>
        <time>2016-02-28T09:02:06.000Z</time>
      </trkpt>
      <trkpt lat="47.86488" lon="1.81448">
        <ele>75.9</ele>
        <time>2016-02-28T09:02:08.000Z</time>
      </trkpt>
      <trkpt lat="47.86485" lon="1.81434">
        <ele>75.9</ele>
        <time>2016-02-28T09:02:10.000Z</time>
      </trkpt>
      <trkpt lat="47.86486" lon="1.81418">
        <ele>75.9</ele>
        <time>2016-02-28T09:02:12.000Z</time>
      </trkpt>
      <trkpt lat="47.86487" lon="1.81399">
        <ele>75.9</ele>
        <time>2016-02-28T09:02:14.000Z</time>
      </trkpt>
      <trkpt lat="47.86488" lon="1.8138">
        <ele>75.9</ele>
        <time>2016-02-28T09:02:16.000Z</time>
      </trkpt>
      <trkpt lat="47.86486" lon="1.81363">
        <ele>75.9</ele>
        <time>2016-02-28T09:02:18.000Z</time>
      </trkpt>
      <trkpt lat="47.86482" lon="1.81347">
        <ele>75.9</ele>
        <time>2016-02-28T09:02:20.000Z</time>
      </trkpt>
      <trkpt lat="47.86475" lon="1.81335">
        <ele>75.9</ele>
        <time>2016-02-28T09:02:22.000Z</time>
      </trkpt>
      <trkpt lat="47.86469" lon="1.81323">
        <ele>75.9</ele>
        <time>2016-02-28T09:02:24.000Z</time>
      </trkpt>
      <trkpt lat="47.86462" lon="1.81311">
        <ele>75.9</ele>
        <time>2016-02-28T09:02:26.000Z</time>
      </trkpt>
      <trkpt lat="47.86455" lon="1.81299">
        <ele>75.9</ele>
        <time>2016-02-28T09:02:28.000Z</time>
      </trkpt>
      <trkpt lat="47.86448" lon="1.81288">
        <ele>75.9</ele>
        <time>2016-02-28T09:02:30.000Z</time>
      </trkpt>
      <trkpt lat="47.86442" lon="1.81276">
        <ele>77.11</ele>
        <time>2016-02-28T09:02:32.000Z</time>
      </trkpt>
      <trkpt lat="47.86435" lon="1.81265">
        <ele>77.11</ele>
        <time>2016-02-28T09:02:34.000Z</time>
      </trkpt>
      <trkpt lat="47.86429" lon="1.81253">
        <ele>77.11</ele>
        <time>2016-02-28T09:02:36.000Z</time>
      </trkpt>
      <trkpt lat="47.86423" lon="1.81239">
        <ele>77.11</ele>
        <time>2016-02-28T09:02:38.000Z</time>
      </trkpt>
      <trkpt lat="47.86416" lon="1.81228">
        <ele>77.11</ele>
        <time>2016-02-28T09:02:40.000Z</time>
      </trkpt>
      <trkpt lat="47.8641" lon="1.81218">
        <ele>77.11</ele>
        <time>2016-02-28T09:02:42.000Z</time>
      </trkpt>
      <trkpt lat="47.86406" lon="1.81214">
        <ele>77.11</ele>
        <time>2016-02-28T09:02:44.000Z</time>
      </trkpt>
      <trkpt lat="47.86399" lon="1.81203">
        <ele>77.11</ele>
        <time>2016-02-28T09:02:46.000Z</time>
      </trkpt>
      <trkpt lat="47.86396" lon="1.81196">
        <ele>77.11</ele>
        <time>2016-02-28T09:02:48.000Z</time>
      </trkpt>
      <trkpt lat="47.86394" lon="1.81194">
        <ele>77.11</ele>
        <time>2016-02-28T09:02:50.000Z</time>
      </trkpt>
      <trkpt lat="47.86393" lon="1.81192">
        <ele>77.11</ele>
        <time>2016-02-28T09:02:52.000Z</time>
      </trkpt>
      <trkpt lat="47.8639" lon="1.81188">
        <ele>77.11</ele>
        <time>2016-02-28T09:02:54.000Z</time>
      </trkpt>
      <trkpt lat="47.86385" lon="1.81179">
        <ele>77.11</ele>
        <time>2016-02-28T09:02:56.000Z</time>
      </trkpt>
      <trkpt lat="47.86379" lon="1.81169">
        <ele>77.11</ele>
        <time>2016-02-28T09:02:58.000Z</time>
      </trkpt>
      <trkpt lat="47.86371" lon="1.81158">
        <ele>77.11</ele>
        <time>2016-02-28T09:03:00.000Z</time>
      </trkpt>
      <trkpt lat="47.86362" lon="1.81148">
        <ele>77.11</ele>
        <time>2016-02-28T09:03:02.000Z</time>
      </trkpt>
      <trkpt lat="47.86354" lon="1.81139">
        <ele>77.11</ele>
        <time>2016-02-28T09:03:04.000Z</time>
      </trkpt>
      <trkpt lat="47.86349" lon="1.8113">
        <ele>75.9</ele>
        <time>2016-02-28T09:03:06.000Z</time>
      </trkpt>
      <trkpt lat="47.86345" lon="1.81119">
        <ele>75.9</ele>
        <time>2016-02-28T09:03:08.000Z</time>
      </trkpt>
      <trkpt lat="47.86339" lon="1.81103">
        <ele>75.9</ele>
        <time>2016-02-28T09:03:10.000Z</time>
      </trkpt>
      <trkpt lat="47.86337" lon="1.81098">
        <ele>75.9</ele>
        <time>2016-02-28T09:03:12.000Z</time>
      </trkpt>
      <trkpt lat="47.86335" lon="1.81088">
        <ele>75.9</ele>
        <time>2016-02-28T09:03:14.000Z</time>
      </trkpt>
      <trkpt lat="47.86334" lon="1.81075">
        <ele>75.9</ele>
        <time>2016-02-28T09:03:16.000Z</time>
      </trkpt>
      <trkpt lat="47.86333" lon="1.81062">
        <ele>75.9</ele>
        <time>2016-02-28T09:03:18.000Z</time>
      </trkpt>
      <trkpt lat="47.86332" lon="1.81051">
        <ele>75.9</ele>
        <time>2016-02-28T09:03:20.000Z</time>
      </trkpt>
      <trkpt lat="47.86332" lon="1.81041">
        <ele>75.9</ele>
        <time>2016-02-28T09:03:22.000Z</time>
      </trkpt>
      <trkpt lat="47.86331" lon="1.81029">
        <ele>75.9</ele>
        <time>2016-02-28T09:03:24.000Z</time>
      </trkpt>
      <trkpt lat="47.8633" lon="1.81016">
        <ele>75.9</ele>
        <time>2016-02-28T09:03:26.000Z</time>
      </trkpt>
      <trkpt lat="47.86328" lon="1.81001">
        <ele>75.9</ele>
        <time>2016-02-28T09:03:28.000Z</time>
      </trkpt>
      <trkpt lat="47.86326" lon="1.80985">
        <ele>75.9</ele>
        <time>2016-02-28T09:03:30.000Z</time>
      </trkpt>
      <trkpt lat="47.86326" lon="1.80969">
        <ele>75.9</ele>
        <time>2016-02-28T09:03:32.000Z</time>
      </trkpt>
      <trkpt lat="47.86326" lon="1.80952">
        <ele>75.9</ele>
        <time>2016-02-28T09:03:34.000Z</time>
      </trkpt>
      <trkpt lat="47.86326" lon="1.80936">
        <ele>75.9</ele>
        <time>2016-02-28T09:03:36.000Z</time>
      </trkpt>
      <trkpt lat="47.86326" lon="1.8092">
        <ele>75.9</ele>
        <time>2016-02-28T09:03:38.000Z</time>
      </trkpt>
      <trkpt lat="47.86326" lon="1.80906">
        <ele>75.9</ele>
        <time>2016-02-28T09:03:40.000Z</time>
      </trkpt>
      <trkpt lat="47.86328" lon="1.80892">
        <ele>75.9</ele>
        <time>2016-02-28T09:03:42.000Z</time>
      </trkpt>
      <trkpt lat="47.86327" lon="1.80878">
        <ele>75.9</ele>
        <time>2016-02-28T09:03:44.000Z</time>
      </trkpt>
      <trkpt lat="47.86325" lon="1.80865">
        <ele>75.9</ele>
        <time>2016-02-28T09:03:46.000Z</time>
      </trkpt>
      <trkpt lat="47.86325" lon="1.80852">
        <ele>75.9</ele>
        <time>2016-02-28T09:03:48.000Z</time>
      </trkpt>
      <trkpt lat="47.86324" lon="1.80838">
        <ele>75.9</ele>
        <time>2016-02-28T09:03:50.000Z</time>
      </trkpt>
      <trkpt lat="47.86322" lon="1.80824">
        <ele>75.9</ele>
        <time>2016-02-28T09:03:52.000Z</time>
      </trkpt>
      <trkpt lat="47.86321" lon="1.80808">
        <ele>75.9</ele>
        <time>2016-02-28T09:03:54.000Z</time>
      </trkpt>
      <trkpt lat="47.86319" lon="1.80794">
        <ele>75.9</ele>
        <time>2016-02-28T09:03:56.000Z</time>
      </trkpt>
      <trkpt lat="47.86318" lon="1.80781">
        <ele>75.9</ele>
        <time>2016-02-28T09:03:58.000Z</time>
      </trkpt>
      <trkpt lat="47.86321" lon="1.80771">
        <ele>75.9</ele>
        <time>2016-02-28T09:04:00.000Z</time>
      </trkpt>
      <trkpt lat="47.86323" lon="1.80758">
        <ele>75.9</ele>
        <time>2016-02-28T09:04:02.000Z</time>
      </trkpt>
      <trkpt lat="47.86327" lon="1.80743">
        <ele>75.9</ele>
        <time>2016-02-28T09:04:04.000Z</time>
      </trkpt>
      <trkpt lat="47.8633" lon="1.80728">
        <ele>75.9</ele>
        <time>2016-02-28T09:04:06.000Z</time>
      </trkpt>
      <trkpt lat="47.86332" lon="1.80713">
        <ele>75.9</ele>
        <time>2016-02-28T09:04:08.000Z</time>
      </trkpt>
      <trkpt lat="47.86335" lon="1.80697">
        <ele>75.9</ele>
        <time>2016-02-28T09:04:10.000Z</time>
      </trkpt>
      <trkpt lat="47.86335" lon="1.80685">
        <ele>74.98</ele>
        <time>2016-02-28T09:04:12.000Z</time>
      </trkpt>
      <trkpt lat="47.86335" lon="1.80673">
        <ele>74.98</ele>
        <time>2016-02-28T09:04:14.000Z</time>
      </trkpt>
      <trkpt lat="47.86335" lon="1.8066">
        <ele>74.98</ele>
        <time>2016-02-28T09:04:16.000Z</time>
      </trkpt>
      <trkpt lat="47.86335" lon="1.80646">
        <ele>74.98</ele>
        <time>2016-02-28T09:04:18.000Z</time>
      </trkpt>
      <trkpt lat="47.86335" lon="1.80629">
        <ele>74.98</ele>
        <time>2016-02-28T09:04:20.000Z</time>
      </trkpt>
      <trkpt lat="47.86334" lon="1.80612">
        <ele>74.98</ele>
        <time>2016-02-28T09:04:22.000Z</time>
      </trkpt>
      <trkpt lat="47.86334" lon="1.80596">
        <ele>74.98</ele>
        <time>2016-02-28T09:04:24.000Z</time>
      </trkpt>
      <trkpt lat="47.86337" lon="1.8058">
        <ele>74.98</ele>
        <time>2016-02-28T09:04:26.000Z</time>
      </trkpt>
      <trkpt lat="47.86337" lon="1.80565">
        <ele>74.98</ele>
        <time>2016-02-28T09:04:28.000Z</time>
      </trkpt>
      <trkpt lat="47.86335" lon="1.80549">
        <ele>74.98</ele>
        <time>2016-02-28T09:04:30.000Z</time>
      </trkpt>
      <trkpt lat="47.86335" lon="1.80534">
        <ele>74.98</ele>
        <time>2016-02-28T09:04:32.000Z</time>
      </trkpt>
      <trkpt lat="47.86337" lon="1.80517">
        <ele>74.98</ele>
        <time>2016-02-28T09:04:34.000Z</time>
      </trkpt>
      <trkpt lat="47.86336" lon="1.80492">
        <ele>74.98</ele>
        <time>2016-02-28T09:04:36.000Z</time>
      </trkpt>
      <trkpt lat="47.86336" lon="1.80484">
        <ele>74.98</ele>
        <time>2016-02-28T09:04:38.000Z</time>
      </trkpt>
      <trkpt lat="47.86336" lon="1.80467">
        <ele>74.98</ele>
        <time>2016-02-28T09:04:40.000Z</time>
      </trkpt>
      <trkpt lat="47.86334" lon="1.80452">
        <ele>74.98</ele>
        <time>2016-02-28T09:04:42.000Z</time>
      </trkpt>
      <trkpt lat="47.86333" lon="1.80437">
        <ele>74.98</ele>
        <time>2016-02-28T09:04:44.000Z</time>
      </trkpt>
      <trkpt lat="47.86331" lon="1.80422">
        <ele>74.98</ele>
        <time>2016-02-28T09:04:46.000Z</time>
      </trkpt>
      <trkpt lat="47.86327" lon="1.80407">
        <ele>74.98</ele>
        <time>2016-02-28T09:04:48.000Z</time>
      </trkpt>
      <trkpt lat="47.86323" lon="1.80392">
        <ele>74.98</ele>
        <time>2016-02-28T09:04:50.000Z</time>
      </trkpt>
      <trkpt lat="47.86321" lon="1.80377">
        <ele>74.98</ele>
        <time>2016-02-28T09:04:52.000Z</time>
      </trkpt>
      <trkpt lat="47.86319" lon="1.80363">
        <ele>74.98</ele>
        <time>2016-02-28T09:04:54.000Z</time>
      </trkpt>
      <trkpt lat="47.86317" lon="1.80348">
        <ele>74.98</ele>
        <time>2016-02-28T09:04:56.000Z</time>
      </trkpt>
      <trkpt lat="47.86313" lon="1.80334">
        <ele>74.98</ele>
        <time>2016-02-28T09:04:58.000Z</time>
      </trkpt>
      <trkpt lat="47.86309" lon="1.80321">
        <ele>74.98</ele>
        <time>2016-02-28T09:05:00.000Z</time>
      </trkpt>
      <trkpt lat="47.86305" lon="1.80307">
        <ele>74.98</ele>
        <time>2016-02-28T09:05:02.000Z</time>
      </trkpt>
      <trkpt lat="47.863" lon="1.80293">
        <ele>74.98</ele>
        <time>2016-02-28T09:05:04.000Z</time>
      </trkpt>
      <trkpt lat="47.86295" lon="1.8028">
        <ele>74.98</ele>
        <time>2016-02-28T09:05:06.000Z</time>
      </trkpt>
      <trkpt lat="47.86292" lon="1.80266">
        <ele>75.9</ele>
        <time>2016-02-28T09:05:08.000Z</time>
      </trkpt>
      <trkpt lat="47.86295" lon="1.80251">
        <ele>75.9</ele>
        <time>2016-02-28T09:05:10.000Z</time>
      </trkpt>
      <trkpt lat="47.86301" lon="1.80238">
        <ele>75.9</ele>
        <time>2016-02-28T09:05:12.000Z</time>
      </trkpt>
      <trkpt lat="47.86303" lon="1.80223">
        <ele>75.9</ele>
        <time>2016-02-28T09:05:14.000Z</time>
      </trkpt>
      <trkpt lat="47.86304" lon="1.80208">
        <ele>75.9</ele>
        <time>2016-02-28T09:05:16.000Z</time>
      </trkpt>
      <trkpt lat="47.86307" lon="1.80192">
        <ele>75.9</ele>
        <time>2016-02-28T09:05:18.000Z</time>
      </trkpt>
      <trkpt lat="47.8631" lon="1.80177">
        <ele>75.9</ele>
        <time>2016-02-28T09:05:20.000Z</time>
      </trkpt>
      <trkpt lat="47.86312" lon="1.80161">
        <ele>75.9</ele>
        <time>2016-02-28T09:05:22.000Z</time>
      </trkpt>
      <trkpt lat="47.86313" lon="1.80145">
        <ele>75.9</ele>
        <time>2016-02-28T09:05:24.000Z</time>
      </trkpt>
      <trkpt lat="47.86313" lon="1.80129">
        <ele>75.9</ele>
        <time>2016-02-28T09:05:26.000Z</time>
      </trkpt>
      <trkpt lat="47.86312" lon="1.80113">
        <ele>75.9</ele>
        <time>2016-02-28T09:05:28.000Z</time>
      </trkpt>
      <trkpt lat="47.8631" lon="1.80098">
        <ele>75.9</ele>
        <time>2016-02-28T09:05:30.000Z</time>
      </trkpt>
      <trkpt lat="47.86308" lon="1.80084">
        <ele>75.9</ele>
        <time>2016-02-28T09:05:32.000Z</time>
      </trkpt>
      <trkpt lat="47.86306" lon="1.80069">
        <ele>75.9</ele>
        <time>2016-02-28T09:05:34.000Z</time>
      </trkpt>
      <trkpt lat="47.86303" lon="1.80055">
        <ele>75.9</ele>
        <time>2016-02-28T09:05:36.000Z</time>
      </trkpt>
      <trkpt lat="47.86301" lon="1.80039">
        <ele>75.9</ele>
        <time>2016-02-28T09:05:38.000Z</time>
      </trkpt>
      <trkpt lat="47.863" lon="1.80024">
        <ele>75.9</ele>
        <time>2016-02-28T09:05:40.000Z</time>
      </trkpt>
      <trkpt lat="47.863" lon="1.80009">
        <ele>75.9</ele>
        <time>2016-02-28T09:05:42.000Z</time>
      </trkpt>
      <trkpt lat="47.86299" lon="1.79994">
        <ele>75.9</ele>
        <time>2016-02-28T09:05:44.000Z</time>
      </trkpt>
      <trkpt lat="47.86298" lon="1.79978">
        <ele>75.9</ele>
        <time>2016-02-28T09:05:46.000Z</time>
      </trkpt>
      <trkpt lat="47.86297" lon="1.79963">
        <ele>75.9</ele>
        <time>2016-02-28T09:05:48.000Z</time>
      </trkpt>
      <trkpt lat="47.86296" lon="1.79952">
        <ele>75.9</ele>
        <time>2016-02-28T09:05:50.000Z</time>
      </trkpt>
      <trkpt lat="47.86299" lon="1.79937">
        <ele>75.9</ele>
        <time>2016-02-28T09:05:52.000Z</time>
      </trkpt>
      <trkpt lat="47.863" lon="1.79923">
        <ele>75.9</ele>
        <time>2016-02-28T09:05:54.000Z</time>
      </trkpt>
      <trkpt lat="47.863" lon="1.79912">
        <ele>75.9</ele>
        <time>2016-02-28T09:05:56.000Z</time>
      </trkpt>
      <trkpt lat="47.86304" lon="1.79905">
        <ele>74.07</ele>
        <time>2016-02-28T09:05:58.000Z</time>
      </trkpt>
      <trkpt lat="47.86307" lon="1.79896">
        <ele>74.07</ele>
        <time>2016-02-28T09:06:00.000Z</time>
      </trkpt>
      <trkpt lat="47.86304" lon="1.79887">
        <ele>74.07</ele>
        <time>2016-02-28T09:06:02.000Z</time>
      </trkpt>
      <trkpt lat="47.86301" lon="1.79882">
        <ele>74.07</ele>
        <time>2016-02-28T09:06:04.000Z</time>
      </trkpt>
      <trkpt lat="47.86297" lon="1.7988">
        <ele>74.07</ele>
        <time>2016-02-28T09:06:06.000Z</time>
      </trkpt>
      <trkpt lat="47.86297" lon="1.79874">
        <ele>74.07</ele>
        <time>2016-02-28T09:06:08.000Z</time>
      </trkpt>
      <trkpt lat="47.86298" lon="1.79868">
        <ele>74.07</ele>
        <time>2016-02-28T09:06:10.000Z</time>
      </trkpt>
      <trkpt lat="47.86299" lon="1.79862">
        <ele>74.07</ele>
        <time>2016-02-28T09:06:12.000Z</time>
      </trkpt>
      <trkpt lat="47.86299" lon="1.79853">
        <ele>74.07</ele>
        <time>2016-02-28T09:06:14.000Z</time>
      </trkpt>
      <trkpt lat="47.86301" lon="1.79839">
        <ele>74.07</ele>
        <time>2016-02-28T09:06:16.000Z</time>
      </trkpt>
      <trkpt lat="47.86302" lon="1.79834">
        <ele>75.9</ele>
        <time>2016-02-28T09:06:18.000Z</time>
      </trkpt>
      <trkpt lat="47.86304" lon="1.79826">
        <ele>75.9</ele>
        <time>2016-02-28T09:06:20.000Z</time>
      </trkpt>
      <trkpt lat="47.86305" lon="1.79818">
        <ele>78.94</ele>
        <time>2016-02-28T09:06:22.000Z</time>
      </trkpt>
      <trkpt lat="47.86306" lon="1.79811">
        <ele>78.94</ele>
        <time>2016-02-28T09:06:24.000Z</time>
      </trkpt>
      <trkpt lat="47.86308" lon="1.79803">
        <ele>78.94</ele>
        <time>2016-02-28T09:06:26.000Z</time>
      </trkpt>
      <trkpt lat="47.8631" lon="1.79794">
        <ele>79.86</ele>
        <time>2016-02-28T09:06:28.000Z</time>
      </trkpt>
      <trkpt lat="47.86312" lon="1.79786">
        <ele>79.86</ele>
        <time>2016-02-28T09:06:30.000Z</time>
      </trkpt>
      <trkpt lat="47.86316" lon="1.79778">
        <ele>79.86</ele>
        <time>2016-02-28T09:06:32.000Z</time>
      </trkpt>
      <trkpt lat="47.86319" lon="1.7977">
        <ele>79.86</ele>
        <time>2016-02-28T09:06:34.000Z</time>
      </trkpt>
      <trkpt lat="47.86322" lon="1.79762">
        <ele>79.86</ele>
        <time>2016-02-28T09:06:36.000Z</time>
      </trkpt>
      <trkpt lat="47.86324" lon="1.79755">
        <ele>81.08</ele>
        <time>2016-02-28T09:06:38.000Z</time>
      </trkpt>
      <trkpt lat="47.86326" lon="1.79747">
        <ele>81.08</ele>
        <time>2016-02-28T09:06:40.000Z</time>
      </trkpt>
      <trkpt lat="47.86329" lon="1.7974">
        <ele>81.08</ele>
        <time>2016-02-28T09:06:42.000Z</time>
      </trkpt>
      <trkpt lat="47.86331" lon="1.79733">
        <ele>81.08</ele>
        <time>2016-02-28T09:06:44.000Z</time>
      </trkpt>
      <trkpt lat="47.86334" lon="1.79726">
        <ele>81.08</ele>
        <time>2016-02-28T09:06:46.000Z</time>
      </trkpt>
      <trkpt lat="47.86337" lon="1.79718">
        <ele>81.08</ele>
        <time>2016-02-28T09:06:48.000Z</time>
      </trkpt>
      <trkpt lat="47.86339" lon="1.79709">
        <ele>81.08</ele>
        <time>2016-02-28T09:06:50.000Z</time>
      </trkpt>
      <trkpt lat="47.86341" lon="1.797">
        <ele>81.08</ele>
        <time>2016-02-28T09:06:52.000Z</time>
      </trkpt>
      <trkpt lat="47.86343" lon="1.79692">
        <ele>81.08</ele>
        <time>2016-02-28T09:06:54.000Z</time>
      </trkpt>
      <trkpt lat="47.86345" lon="1.79684">
        <ele>81.08</ele>
        <time>2016-02-28T09:06:56.000Z</time>
      </trkpt>
      <trkpt lat="47.86347" lon="1.79677">
        <ele>81.08</ele>
        <time>2016-02-28T09:06:58.000Z</time>
      </trkpt>
      <trkpt lat="47.8635" lon="1.7967">
        <ele>81.08</ele>
        <time>2016-02-28T09:07:00.000Z</time>
      </trkpt>
      <trkpt lat="47.86352" lon="1.79662">
        <ele>81.08</ele>
        <time>2016-02-28T09:07:02.000Z</time>
      </trkpt>
      <trkpt lat="47.86354" lon="1.79653">
        <ele>81.08</ele>
        <time>2016-02-28T09:07:04.000Z</time>
      </trkpt>
      <trkpt lat="47.86356" lon="1.79644">
        <ele>81.08</ele>
        <time>2016-02-28T09:07:06.000Z</time>
      </trkpt>
      <trkpt lat="47.86358" lon="1.79634">
        <ele>79.86</ele>
        <time>2016-02-28T09:07:08.000Z</time>
      </trkpt>
      <trkpt lat="47.8636" lon="1.79625">
        <ele>79.86</ele>
        <time>2016-02-28T09:07:10.000Z</time>
      </trkpt>
      <trkpt lat="47.86362" lon="1.79615">
        <ele>79.86</ele>
        <time>2016-02-28T09:07:12.000Z</time>
      </trkpt>
      <trkpt lat="47.86363" lon="1.79606">
        <ele>79.86</ele>
        <time>2016-02-28T09:07:14.000Z</time>
      </trkpt>
      <trkpt lat="47.86365" lon="1.79597">
        <ele>79.86</ele>
        <time>2016-02-28T09:07:16.000Z</time>
      </trkpt>
      <trkpt lat="47.86366" lon="1.79587">
        <ele>79.86</ele>
        <time>2016-02-28T09:07:18.000Z</time>
      </trkpt>
      <trkpt lat="47.86368" lon="1.79578">
        <ele>79.86</ele>
        <time>2016-02-28T09:07:20.000Z</time>
      </trkpt>
      <trkpt lat="47.86369" lon="1.79569">
        <ele>79.86</ele>
        <time>2016-02-28T09:07:22.000Z</time>
      </trkpt>
      <trkpt lat="47.86371" lon="1.79559">
        <ele>79.86</ele>
        <time>2016-02-28T09:07:24.000Z</time>
      </trkpt>
      <trkpt lat="47.86372" lon="1.79549">
        <ele>79.86</ele>
        <time>2016-02-28T09:07:26.000Z</time>
      </trkpt>
      <trkpt lat="47.86373" lon="1.79539">
        <ele>79.86</ele>
        <time>2016-02-28T09:07:28.000Z</time>
      </trkpt>
      <trkpt lat="47.86373" lon="1.79528">
        <ele>79.86</ele>
        <time>2016-02-28T09:07:30.000Z</time>
      </trkpt>
      <trkpt lat="47.86374" lon="1.79517">
        <ele>79.86</ele>
        <time>2016-02-28T09:07:32.000Z</time>
      </trkpt>
      <trkpt lat="47.86374" lon="1.79507">
        <ele>79.86</ele>
        <time>2016-02-28T09:07:34.000Z</time>
      </trkpt>
      <trkpt lat="47.86373" lon="1.79496">
        <ele>79.86</ele>
        <time>2016-02-28T09:07:36.000Z</time>
      </trkpt>
      <trkpt lat="47.86373" lon="1.79485">
        <ele>79.86</ele>
        <time>2016-02-28T09:07:38.000Z</time>
      </trkpt>
      <trkpt lat="47.86372" lon="1.79474">
        <ele>79.86</ele>
        <time>2016-02-28T09:07:40.000Z</time>
      </trkpt>
      <trkpt lat="47.86372" lon="1.79463">
        <ele>79.86</ele>
        <time>2016-02-28T09:07:42.000Z</time>
      </trkpt>
      <trkpt lat="47.86372" lon="1.79453">
        <ele>79.86</ele>
        <time>2016-02-28T09:07:44.000Z</time>
      </trkpt>
      <trkpt lat="47.86372" lon="1.79442">
        <ele>79.86</ele>
        <time>2016-02-28T09:07:46.000Z</time>
      </trkpt>
      <trkpt lat="47.86371" lon="1.79431">
        <ele>79.86</ele>
        <time>2016-02-28T09:07:48.000Z</time>
      </trkpt>
      <trkpt lat="47.86371" lon="1.7942">
        <ele>79.86</ele>
        <time>2016-02-28T09:07:50.000Z</time>
      </trkpt>
      <trkpt lat="47.86371" lon="1.79409">
        <ele>79.86</ele>
        <time>2016-02-28T09:07:52.000Z</time>
      </trkpt>
      <trkpt lat="47.8637" lon="1.79398">
        <ele>79.86</ele>
        <time>2016-02-28T09:07:54.000Z</time>
      </trkpt>
      <trkpt lat="47.86369" lon="1.79381">
        <ele>79.86</ele>
        <time>2016-02-28T09:07:56.000Z</time>
      </trkpt>
      <trkpt lat="47.86369" lon="1.79376">
        <ele>79.86</ele>
        <time>2016-02-28T09:07:58.000Z</time>
      </trkpt>
      <trkpt lat="47.86369" lon="1.79364">
        <ele>79.86</ele>
        <time>2016-02-28T09:08:00.000Z</time>
      </trkpt>
      <trkpt lat="47.86368" lon="1.79354">
        <ele>79.86</ele>
        <time>2016-02-28T09:08:02.000Z</time>
      </trkpt>
      <trkpt lat="47.86367" lon="1.79344">
        <ele>79.86</ele>
        <time>2016-02-28T09:08:04.000Z</time>
      </trkpt>
      <trkpt lat="47.86367" lon="1.79334">
        <ele>79.86</ele>
        <time>2016-02-28T09:08:06.000Z</time>
      </trkpt>
      <trkpt lat="47.86367" lon="1.79324">
        <ele>79.86</ele>
        <time>2016-02-28T09:08:08.000Z</time>
      </trkpt>
      <trkpt lat="47.86367" lon="1.79315">
        <ele>79.86</ele>
        <time>2016-02-28T09:08:10.000Z</time>
      </trkpt>
      <trkpt lat="47.86366" lon="1.79309">
        <ele>79.86</ele>
        <time>2016-02-28T09:08:12.000Z</time>
      </trkpt>
      <trkpt lat="47.86366" lon="1.79304">
        <ele>79.86</ele>
        <time>2016-02-28T09:08:14.000Z</time>
      </trkpt>
      <trkpt lat="47.86365" lon="1.79298">
        <ele>79.86</ele>
        <time>2016-02-28T09:08:16.000Z</time>
      </trkpt>
      <trkpt lat="47.86365" lon="1.79293">
        <ele>79.86</ele>
        <time>2016-02-28T09:08:18.000Z</time>
      </trkpt>
      <trkpt lat="47.86365" lon="1.79285">
        <ele>79.86</ele>
        <time>2016-02-28T09:08:20.000Z</time>
      </trkpt>
      <trkpt lat="47.86364" lon="1.79277">
        <ele>79.86</ele>
        <time>2016-02-28T09:08:22.000Z</time>
      </trkpt>
      <trkpt lat="47.86363" lon="1.79267">
        <ele>79.86</ele>
        <time>2016-02-28T09:08:24.000Z</time>
      </trkpt>
      <trkpt lat="47.86363" lon="1.79258">
        <ele>79.86</ele>
        <time>2016-02-28T09:08:26.000Z</time>
      </trkpt>
      <trkpt lat="47.86362" lon="1.79248">
        <ele>79.86</ele>
        <time>2016-02-28T09:08:28.000Z</time>
      </trkpt>
      <trkpt lat="47.86361" lon="1.79238">
        <ele>79.86</ele>
        <time>2016-02-28T09:08:30.000Z</time>
      </trkpt>
      <trkpt lat="47.8636" lon="1.79228">
        <ele>79.86</ele>
        <time>2016-02-28T09:08:32.000Z</time>
      </trkpt>
      <trkpt lat="47.86359" lon="1.79217">
        <ele>79.86</ele>
        <time>2016-02-28T09:08:34.000Z</time>
      </trkpt>
      <trkpt lat="47.86357" lon="1.79207">
        <ele>79.86</ele>
        <time>2016-02-28T09:08:36.000Z</time>
      </trkpt>
      <trkpt lat="47.86353" lon="1.79197">
        <ele>79.86</ele>
        <time>2016-02-28T09:08:38.000Z</time>
      </trkpt>
      <trkpt lat="47.86349" lon="1.79187">
        <ele>79.86</ele>
        <time>2016-02-28T09:08:40.000Z</time>
      </trkpt>
      <trkpt lat="47.86346" lon="1.79177">
        <ele>78.94</ele>
        <time>2016-02-28T09:08:42.000Z</time>
      </trkpt>
      <trkpt lat="47.86345" lon="1.79165">
        <ele>78.94</ele>
        <time>2016-02-28T09:08:44.000Z</time>
      </trkpt>
      <trkpt lat="47.86344" lon="1.79149">
        <ele>78.94</ele>
        <time>2016-02-28T09:08:46.000Z</time>
      </trkpt>
      <trkpt lat="47.86343" lon="1.79132">
        <ele>78.03</ele>
        <time>2016-02-28T09:08:48.000Z</time>
      </trkpt>
      <trkpt lat="47.86343" lon="1.7912">
        <ele>78.03</ele>
        <time>2016-02-28T09:08:50.000Z</time>
      </trkpt>
      <trkpt lat="47.86342" lon="1.79113">
        <ele>77.11</ele>
        <time>2016-02-28T09:08:52.000Z</time>
      </trkpt>
      <trkpt lat="47.86342" lon="1.79108">
        <ele>77.11</ele>
        <time>2016-02-28T09:08:54.000Z</time>
      </trkpt>
      <trkpt lat="47.86342" lon="1.79101">
        <ele>77.11</ele>
        <time>2016-02-28T09:08:56.000Z</time>
      </trkpt>
      <trkpt lat="47.86341" lon="1.79093">
        <ele>77.11</ele>
        <time>2016-02-28T09:08:58.000Z</time>
      </trkpt>
      <trkpt lat="47.8634" lon="1.79087">
        <ele>77.11</ele>
        <time>2016-02-28T09:09:00.000Z</time>
      </trkpt>
      <trkpt lat="47.86339" lon="1.79086">
        <ele>75.9</ele>
        <time>2016-02-28T09:09:02.000Z</time>
      </trkpt>
      <trkpt lat="47.86339" lon="1.79085">
        <ele>75.9</ele>
        <time>2016-02-28T09:09:04.000Z</time>
      </trkpt>
      <trkpt lat="47.86339" lon="1.79085">
        <ele>75.9</ele>
        <time>2016-02-28T09:09:06.000Z</time>
      </trkpt>
      <trkpt lat="47.86338" lon="1.79086">
        <ele>75.9</ele>
        <time>2016-02-28T09:09:08.000Z</time>
      </trkpt>
      <trkpt lat="47.86338" lon="1.79086">
        <ele>75.9</ele>
        <time>2016-02-28T09:09:10.000Z</time>
      </trkpt>
      <trkpt lat="47.86338" lon="1.79087">
        <ele>74.07</ele>
        <time>2016-02-28T09:09:12.000Z</time>
      </trkpt>
      <trkpt lat="47.86337" lon="1.79087">
        <ele>74.07</ele>
        <time>2016-02-28T09:09:14.000Z</time>
      </trkpt>
      <trkpt lat="47.86337" lon="1.79087">
        <ele>74.07</ele>
        <time>2016-02-28T09:09:16.000Z</time>
      </trkpt>
      <trkpt lat="47.86336" lon="1.79088">
        <ele>74.07</ele>
        <time>2016-02-28T09:09:18.000Z</time>
      </trkpt>
      <trkpt lat="47.86336" lon="1.7909">
        <ele>74.07</ele>
        <time>2016-02-28T09:09:20.000Z</time>
      </trkpt>
      <trkpt lat="47.86335" lon="1.79091">
        <ele>74.07</ele>
        <time>2016-02-28T09:09:22.000Z</time>
      </trkpt>
      <trkpt lat="47.86335" lon="1.79091">
        <ele>74.07</ele>
        <time>2016-02-28T09:09:24.000Z</time>
      </trkpt>
      <trkpt lat="47.86335" lon="1.79091">
        <ele>74.07</ele>
        <time>2016-02-28T09:09:26.000Z</time>
      </trkpt>
      <trkpt lat="47.86335" lon="1.79091">
        <ele>74.07</ele>
        <time>2016-02-28T09:09:28.000Z</time>
      </trkpt>
      <trkpt lat="47.86336" lon="1.79091">
        <ele>74.07</ele>
        <time>2016-02-28T09:09:30.000Z</time>
      </trkpt>
      <trkpt lat="47.86336" lon="1.79091">
        <ele>74.07</ele>
        <time>2016-02-28T09:09:32.000Z</time>
      </trkpt>
      <trkpt lat="47.86336" lon="1.79091">
        <ele>74.07</ele>
        <time>2016-02-28T09:09:34.000Z</time>
      </trkpt>
      <trkpt lat="47.86336" lon="1.79092">
        <ele>74.07</ele>
        <time>2016-02-28T09:09:36.000Z</time>
      </trkpt>
      <trkpt lat="47.86336" lon="1.79093">
        <ele>74.07</ele>
        <time>2016-02-28T09:09:38.000Z</time>
      </trkpt>
      <trkpt lat="47.86336" lon="1.79093">
        <ele>74.07</ele>
        <time>2016-02-28T09:09:40.000Z</time>
      </trkpt>
      <trkpt lat="47.86336" lon="1.79093">
        <ele>74.07</ele>
        <time>2016-02-28T09:09:42.000Z</time>
      </trkpt>
      <trkpt lat="47.86336" lon="1.79092">
        <ele>74.07</ele>
        <time>2016-02-28T09:09:44.000Z</time>
      </trkpt>
      <trkpt lat="47.86336" lon="1.79092">
        <ele>74.07</ele>
        <time>2016-02-28T09:09:46.000Z</time>
      </trkpt>
      <trkpt lat="47.86336" lon="1.79092">
        <ele>74.07</ele>
        <time>2016-02-28T09:09:48.000Z</time>
      </trkpt>
      <trkpt lat="47.86336" lon="1.79092">
        <ele>74.07</ele>
        <time>2016-02-28T09:09:50.000Z</time>
      </trkpt>
      <trkpt lat="47.86336" lon="1.79092">
        <ele>74.07</ele>
        <time>2016-02-28T09:09:52.000Z</time>
      </trkpt>
      <trkpt lat="47.86336" lon="1.79092">
        <ele>74.07</ele>
        <time>2016-02-28T09:09:54.000Z</time>
      </trkpt>
      <trkpt lat="47.86336" lon="1.79092">
        <ele>74.07</ele>
        <time>2016-02-28T09:09:56.000Z</time>
      </trkpt>
      <trkpt lat="47.86336" lon="1.79092">
        <ele>74.07</ele>
        <time>2016-02-28T09:09:58.000Z</time>
      </trkpt>
      <trkpt lat="47.86336" lon="1.79092">
        <ele>74.07</ele>
        <time>2016-02-28T09:10:00.000Z</time>
      </trkpt>
      <trkpt lat="47.86336" lon="1.79091">
        <ele>74.07</ele>
        <time>2016-02-28T09:10:02.000Z</time>
      </trkpt>
      <trkpt lat="47.86336" lon="1.79091">
        <ele>74.07</ele>
        <time>2016-02-28T09:10:04.000Z</time>
      </trkpt>
      <trkpt lat="47.86336" lon="1.79091">
        <ele>74.07</ele>
        <time>2016-02-28T09:10:06.000Z</time>
      </trkpt>
      <trkpt lat="47.86337" lon="1.79091">
        <ele>74.07</ele>
        <time>2016-02-28T09:10:08.000Z</time>
      </trkpt>
      <trkpt lat="47.86337" lon="1.79091">
        <ele>74.07</ele>
        <time>2016-02-28T09:10:10.000Z</time>
      </trkpt>
      <trkpt lat="47.86337" lon="1.7909">
        <ele>74.07</ele>
        <time>2016-02-28T09:10:12.000Z</time>
      </trkpt>
      <trkpt lat="47.86337" lon="1.79091">
        <ele>74.07</ele>
        <time>2016-02-28T09:10:14.000Z</time>
      </trkpt>
      <trkpt lat="47.86337" lon="1.79091">
        <ele>74.07</ele>
        <time>2016-02-28T09:10:16.000Z</time>
      </trkpt>
      <trkpt lat="47.86337" lon="1.7909">
        <ele>74.07</ele>
        <time>2016-02-28T09:10:18.000Z</time>
      </trkpt>
      <trkpt lat="47.86337" lon="1.7909">
        <ele>74.07</ele>
        <time>2016-02-28T09:10:20.000Z</time>
      </trkpt>
      <trkpt lat="47.86337" lon="1.7909">
        <ele>74.07</ele>
        <time>2016-02-28T09:10:22.000Z</time>
      </trkpt>
      <trkpt lat="47.86337" lon="1.7909">
        <ele>74.07</ele>
        <time>2016-02-28T09:10:24.000Z</time>
      </trkpt>
      <trkpt lat="47.86337" lon="1.7909">
        <ele>74.07</ele>
        <time>2016-02-28T09:10:26.000Z</time>
      </trkpt>
      <trkpt lat="47.86337" lon="1.7909">
        <ele>74.07</ele>
        <time>2016-02-28T09:10:28.000Z</time>
      </trkpt>
      <trkpt lat="47.86337" lon="1.7909">
        <ele>74.07</ele>
        <time>2016-02-28T09:10:30.000Z</time>
      </trkpt>
      <trkpt lat="47.86337" lon="1.7909">
        <ele>74.07</ele>
        <time>2016-02-28T09:10:32.000Z</time>
      </trkpt>
      <trkpt lat="47.86336" lon="1.7909">
        <ele>74.07</ele>
        <time>2016-02-28T09:10:34.000Z</time>
      </trkpt>
      <trkpt lat="47.86336" lon="1.7909">
        <ele>74.07</ele>
        <time>2016-02-28T09:10:36.000Z</time>
      </trkpt>
      <trkpt lat="47.86336" lon="1.7909">
        <ele>74.07</ele>
        <time>2016-02-28T09:10:38.000Z</time>
      </trkpt>
      <trkpt lat="47.86336" lon="1.79091">
        <ele>74.07</ele>
        <time>2016-02-28T09:10:40.000Z</time>
      </trkpt>
      <trkpt lat="47.86337" lon="1.79089">
        <ele>74.07</ele>
        <time>2016-02-28T09:10:42.000Z</time>
      </trkpt>
      <trkpt lat="47.86338" lon="1.79087">
        <ele>74.07</ele>
        <time>2016-02-28T09:10:44.000Z</time>
      </trkpt>
      <trkpt lat="47.86339" lon="1.79087">
        <ele>74.07</ele>
        <time>2016-02-28T09:10:46.000Z</time>
      </trkpt>
      <trkpt lat="47.86339" lon="1.79086">
        <ele>74.07</ele>
        <time>2016-02-28T09:10:48.000Z</time>
      </trkpt>
      <trkpt lat="47.86339" lon="1.79086">
        <ele>74.07</ele>
        <time>2016-02-28T09:10:50.000Z</time>
      </trkpt>
      <trkpt lat="47.86339" lon="1.79086">
        <ele>74.07</ele>
        <time>2016-02-28T09:10:52.000Z</time>
      </trkpt>
      <trkpt lat="47.8634" lon="1.79086">
        <ele>74.07</ele>
        <time>2016-02-28T09:10:54.000Z</time>
      </trkpt>
      <trkpt lat="47.8634" lon="1.79086">
        <ele>74.07</ele>
        <time>2016-02-28T09:10:56.000Z</time>
      </trkpt>
      <trkpt lat="47.8634" lon="1.79085">
        <ele>74.07</ele>
        <time>2016-02-28T09:10:58.000Z</time>
      </trkpt>
      <trkpt lat="47.8634" lon="1.79085">
        <ele>74.07</ele>
        <time>2016-02-28T09:11:00.000Z</time>
      </trkpt>
      <trkpt lat="47.86341" lon="1.79086">
        <ele>74.07</ele>
        <time>2016-02-28T09:11:02.000Z</time>
      </trkpt>
      <trkpt lat="47.86341" lon="1.79086">
        <ele>74.07</ele>
        <time>2016-02-28T09:11:04.000Z</time>
      </trkpt>
      <trkpt lat="47.86341" lon="1.79085">
        <ele>74.07</ele>
        <time>2016-02-28T09:11:06.000Z</time>
      </trkpt>
      <trkpt lat="47.8634" lon="1.79086">
        <ele>74.98</ele>
        <time>2016-02-28T09:11:08.000Z</time>
      </trkpt>
      <trkpt lat="47.8634" lon="1.79085">
        <ele>74.98</ele>
        <time>2016-02-28T09:11:10.000Z</time>
      </trkpt>
      <trkpt lat="47.86341" lon="1.79085">
        <ele>74.98</ele>
        <time>2016-02-28T09:11:12.000Z</time>
      </trkpt>
      <trkpt lat="47.86341" lon="1.79085">
        <ele>74.98</ele>
        <time>2016-02-28T09:11:14.000Z</time>
      </trkpt>
      <trkpt lat="47.86341" lon="1.79085">
        <ele>74.98</ele>
        <time>2016-02-28T09:11:16.000Z</time>
      </trkpt>
      <trkpt lat="47.86341" lon="1.79085">
        <ele>74.98</ele>
        <time>2016-02-28T09:11:18.000Z</time>
      </trkpt>
      <trkpt lat="47.86341" lon="1.79085">
        <ele>74.98</ele>
        <time>2016-02-28T09:11:20.000Z</time>
      </trkpt>
      <trkpt lat="47.8634" lon="1.79085">
        <ele>74.98</ele>
        <time>2016-02-28T09:11:22.000Z</time>
      </trkpt>
      <trkpt lat="47.8634" lon="1.79085">
        <ele>74.98</ele>
        <time>2016-02-28T09:11:24.000Z</time>
      </trkpt>
      <trkpt lat="47.8634" lon="1.79085">
        <ele>74.98</ele>
        <time>2016-02-28T09:11:26.000Z</time>
      </trkpt>
      <trkpt lat="47.8634" lon="1.79084">
        <ele>74.98</ele>
        <time>2016-02-28T09:11:28.000Z</time>
      </trkpt>
      <trkpt lat="47.8634" lon="1.79084">
        <ele>74.98</ele>
        <time>2016-02-28T09:11:30.000Z</time>
      </trkpt>
      <trkpt lat="47.86341" lon="1.79084">
        <ele>74.98</ele>
        <time>2016-02-28T09:11:32.000Z</time>
      </trkpt>
      <trkpt lat="47.86341" lon="1.79084">
        <ele>74.98</ele>
        <time>2016-02-28T09:11:34.000Z</time>
      </trkpt>
      <trkpt lat="47.86341" lon="1.79084">
        <ele>74.98</ele>
        <time>2016-02-28T09:11:36.000Z</time>
      </trkpt>
      <trkpt lat="47.86341" lon="1.79084">
        <ele>74.98</ele>
        <time>2016-02-28T09:11:38.000Z</time>
      </trkpt>
      <trkpt lat="47.86342" lon="1.79082">
        <ele>74.98</ele>
        <time>2016-02-28T09:11:40.000Z</time>
      </trkpt>
      <trkpt lat="47.86343" lon="1.79079">
        <ele>74.98</ele>
        <time>2016-02-28T09:11:42.000Z</time>
      </trkpt>
      <trkpt lat="47.86342" lon="1.79075">
        <ele>74.98</ele>
        <time>2016-02-28T09:11:44.000Z</time>
      </trkpt>
      <trkpt lat="47.8634" lon="1.79069">
        <ele>74.98</ele>
        <time>2016-02-28T09:11:46.000Z</time>
      </trkpt>
      <trkpt lat="47.86339" lon="1.79063">
        <ele>74.98</ele>
        <time>2016-02-28T09:11:48.000Z</time>
      </trkpt>
      <trkpt lat="47.86337" lon="1.79055">
        <ele>74.98</ele>
        <time>2016-02-28T09:11:50.000Z</time>
      </trkpt>
      <trkpt lat="47.86336" lon="1.79045">
        <ele>74.98</ele>
        <time>2016-02-28T09:11:52.000Z</time>
      </trkpt>
      <trkpt lat="47.86336" lon="1.79034">
        <ele>74.98</ele>
        <time>2016-02-28T09:11:54.000Z</time>
      </trkpt>
      <trkpt lat="47.86335" lon="1.79022">
        <ele>74.98</ele>
        <time>2016-02-28T09:11:56.000Z</time>
      </trkpt>
      <trkpt lat="47.86334" lon="1.79011">
        <ele>74.98</ele>
        <time>2016-02-28T09:11:58.000Z</time>
      </trkpt>
      <trkpt lat="47.86331" lon="1.78999">
        <ele>74.98</ele>
        <time>2016-02-28T09:12:00.000Z</time>
      </trkpt>
      <trkpt lat="47.8633" lon="1.78986">
        <ele>74.98</ele>
        <time>2016-02-28T09:12:02.000Z</time>
      </trkpt>
      <trkpt lat="47.8633" lon="1.78972">
        <ele>74.98</ele>
        <time>2016-02-28T09:12:04.000Z</time>
      </trkpt>
      <trkpt lat="47.86329" lon="1.78959">
        <ele>74.98</ele>
        <time>2016-02-28T09:12:06.000Z</time>
      </trkpt>
      <trkpt lat="47.86328" lon="1.78945">
        <ele>74.98</ele>
        <time>2016-02-28T09:12:08.000Z</time>
      </trkpt>
      <trkpt lat="47.86327" lon="1.78931">
        <ele>74.98</ele>
        <time>2016-02-28T09:12:10.000Z</time>
      </trkpt>
      <trkpt lat="47.86327" lon="1.78918">
        <ele>74.98</ele>
        <time>2016-02-28T09:12:12.000Z</time>
      </trkpt>
      <trkpt lat="47.86327" lon="1.78906">
        <ele>74.98</ele>
        <time>2016-02-28T09:12:14.000Z</time>
      </trkpt>
      <trkpt lat="47.86328" lon="1.78893">
        <ele>74.98</ele>
        <time>2016-02-28T09:12:16.000Z</time>
      </trkpt>
      <trkpt lat="47.86327" lon="1.7888">
        <ele>74.98</ele>
        <time>2016-02-28T09:12:18.000Z</time>
      </trkpt>
      <trkpt lat="47.86327" lon="1.78866">
        <ele>74.98</ele>
        <time>2016-02-28T09:12:20.000Z</time>
      </trkpt>
      <trkpt lat="47.86327" lon="1.78853">
        <ele>78.03</ele>
        <time>2016-02-28T09:12:22.000Z</time>
      </trkpt>
      <trkpt lat="47.86326" lon="1.7884">
        <ele>78.03</ele>
        <time>2016-02-28T09:12:24.000Z</time>
      </trkpt>
      <trkpt lat="47.86325" lon="1.78832">
        <ele>78.03</ele>
        <time>2016-02-28T09:12:26.000Z</time>
      </trkpt>
      <trkpt lat="47.86324" lon="1.78823">
        <ele>78.94</ele>
        <time>2016-02-28T09:12:28.000Z</time>
      </trkpt>
      <trkpt lat="47.86324" lon="1.78814">
        <ele>78.94</ele>
        <time>2016-02-28T09:12:30.000Z</time>
      </trkpt>
      <trkpt lat="47.86325" lon="1.78804">
        <ele>78.94</ele>
        <time>2016-02-28T09:12:32.000Z</time>
      </trkpt>
      <trkpt lat="47.86326" lon="1.78794">
        <ele>79.86</ele>
        <time>2016-02-28T09:12:34.000Z</time>
      </trkpt>
      <trkpt lat="47.86327" lon="1.78784">
        <ele>79.86</ele>
        <time>2016-02-28T09:12:36.000Z</time>
      </trkpt>
      <trkpt lat="47.86328" lon="1.78772">
        <ele>79.86</ele>
        <time>2016-02-28T09:12:38.000Z</time>
      </trkpt>
      <trkpt lat="47.86329" lon="1.78761">
        <ele>79.86</ele>
        <time>2016-02-28T09:12:40.000Z</time>
      </trkpt>
      <trkpt lat="47.8633" lon="1.7875">
        <ele>79.86</ele>
        <time>2016-02-28T09:12:42.000Z</time>
      </trkpt>
      <trkpt lat="47.86331" lon="1.78739">
        <ele>79.86</ele>
        <time>2016-02-28T09:12:44.000Z</time>
      </trkpt>
      <trkpt lat="47.86332" lon="1.78727">
        <ele>79.86</ele>
        <time>2016-02-28T09:12:46.000Z</time>
      </trkpt>
      <trkpt lat="47.86333" lon="1.78715">
        <ele>79.86</ele>
        <time>2016-02-28T09:12:48.000Z</time>
      </trkpt>
      <trkpt lat="47.86334" lon="1.78704">
        <ele>79.86</ele>
        <time>2016-02-28T09:12:50.000Z</time>
      </trkpt>
      <trkpt lat="47.86335" lon="1.78693">
        <ele>79.86</ele>
        <time>2016-02-28T09:12:52.000Z</time>
      </trkpt>
      <trkpt lat="47.86336" lon="1.78682">
        <ele>79.86</ele>
        <time>2016-02-28T09:12:54.000Z</time>
      </trkpt>
      <trkpt lat="47.86337" lon="1.78672">
        <ele>79.86</ele>
        <time>2016-02-28T09:12:56.000Z</time>
      </trkpt>
      <trkpt lat="47.86338" lon="1.78661">
        <ele>79.86</ele>
        <time>2016-02-28T09:12:58.000Z</time>
      </trkpt>
      <trkpt lat="47.86339" lon="1.7865">
        <ele>79.86</ele>
        <time>2016-02-28T09:13:00.000Z</time>
      </trkpt>
      <trkpt lat="47.8634" lon="1.78639">
        <ele>79.86</ele>
        <time>2016-02-28T09:13:02.000Z</time>
      </trkpt>
      <trkpt lat="47.86341" lon="1.78627">
        <ele>79.86</ele>
        <time>2016-02-28T09:13:04.000Z</time>
      </trkpt>
      <trkpt lat="47.86343" lon="1.78616">
        <ele>79.86</ele>
        <time>2016-02-28T09:13:06.000Z</time>
      </trkpt>
      <trkpt lat="47.86344" lon="1.78605">
        <ele>79.86</ele>
        <time>2016-02-28T09:13:08.000Z</time>
      </trkpt>
      <trkpt lat="47.86345" lon="1.78589">
        <ele>79.86</ele>
        <time>2016-02-28T09:13:10.000Z</time>
      </trkpt>
      <trkpt lat="47.86346" lon="1.78583">
        <ele>79.86</ele>
        <time>2016-02-28T09:13:12.000Z</time>
      </trkpt>
      <trkpt lat="47.86347" lon="1.7857">
        <ele>79.86</ele>
        <time>2016-02-28T09:13:14.000Z</time>
      </trkpt>
      <trkpt lat="47.86348" lon="1.78559">
        <ele>79.86</ele>
        <time>2016-02-28T09:13:16.000Z</time>
      </trkpt>
      <trkpt lat="47.86349" lon="1.78547">
        <ele>79.86</ele>
        <time>2016-02-28T09:13:18.000Z</time>
      </trkpt>
      <trkpt lat="47.86348" lon="1.78536">
        <ele>79.86</ele>
        <time>2016-02-28T09:13:20.000Z</time>
      </trkpt>
      <trkpt lat="47.86347" lon="1.78526">
        <ele>79.86</ele>
        <time>2016-02-28T09:13:22.000Z</time>
      </trkpt>
      <trkpt lat="47.86345" lon="1.78517">
        <ele>79.86</ele>
        <time>2016-02-28T09:13:24.000Z</time>
      </trkpt>
      <trkpt lat="47.86342" lon="1.78507">
        <ele>79.86</ele>
        <time>2016-02-28T09:13:26.000Z</time>
      </trkpt>
      <trkpt lat="47.86339" lon="1.78497">
        <ele>79.86</ele>
        <time>2016-02-28T09:13:28.000Z</time>
      </trkpt>
      <trkpt lat="47.86336" lon="1.78487">
        <ele>79.86</ele>
        <time>2016-02-28T09:13:30.000Z</time>
      </trkpt>
      <trkpt lat="47.86332" lon="1.78478">
        <ele>79.86</ele>
        <time>2016-02-28T09:13:32.000Z</time>
      </trkpt>
      <trkpt lat="47.86331" lon="1.7847">
        <ele>79.86</ele>
        <time>2016-02-28T09:13:34.000Z</time>
      </trkpt>
      <trkpt lat="47.8633" lon="1.78462">
        <ele>79.86</ele>
        <time>2016-02-28T09:13:36.000Z</time>
      </trkpt>
      <trkpt lat="47.8633" lon="1.78442">
        <ele>77.11</ele>
        <time>2016-02-28T09:13:38.000Z</time>
      </trkpt>
      <trkpt lat="47.8633" lon="1.78433">
        <ele>77.11</ele>
        <time>2016-02-28T09:13:40.000Z</time>
      </trkpt>
      <trkpt lat="47.86333" lon="1.78414">
        <ele>77.11</ele>
        <time>2016-02-28T09:13:42.000Z</time>
      </trkpt>
      <trkpt lat="47.86332" lon="1.78396">
        <ele>74.98</ele>
        <time>2016-02-28T09:13:44.000Z</time>
      </trkpt>
      <trkpt lat="47.86327" lon="1.78382">
        <ele>74.98</ele>
        <time>2016-02-28T09:13:46.000Z</time>
      </trkpt>
      <trkpt lat="47.86322" lon="1.78369">
        <ele>74.07</ele>
        <time>2016-02-28T09:13:48.000Z</time>
      </trkpt>
      <trkpt lat="47.86318" lon="1.78357">
        <ele>74.07</ele>
        <time>2016-02-28T09:13:50.000Z</time>
      </trkpt>
      <trkpt lat="47.86315" lon="1.78345">
        <ele>74.07</ele>
        <time>2016-02-28T09:13:52.000Z</time>
      </trkpt>
      <trkpt lat="47.86312" lon="1.78333">
        <ele>74.07</ele>
        <time>2016-02-28T09:13:54.000Z</time>
      </trkpt>
      <trkpt lat="47.86311" lon="1.78322">
        <ele>74.07</ele>
        <time>2016-02-28T09:13:56.000Z</time>
      </trkpt>
      <trkpt lat="47.86308" lon="1.78312">
        <ele>71.93</ele>
        <time>2016-02-28T09:13:58.000Z</time>
      </trkpt>
      <trkpt lat="47.86304" lon="1.783">
        <ele>71.93</ele>
        <time>2016-02-28T09:14:00.000Z</time>
      </trkpt>
      <trkpt lat="47.86301" lon="1.78287">
        <ele>71.93</ele>
        <time>2016-02-28T09:14:02.000Z</time>
      </trkpt>
      <trkpt lat="47.86297" lon="1.78274">
        <ele>71.93</ele>
        <time>2016-02-28T09:14:04.000Z</time>
      </trkpt>
      <trkpt lat="47.86296" lon="1.78261">
        <ele>71.93</ele>
        <time>2016-02-28T09:14:06.000Z</time>
      </trkpt>
      <trkpt lat="47.86293" lon="1.78249">
        <ele>71.93</ele>
        <time>2016-02-28T09:14:08.000Z</time>
      </trkpt>
      <trkpt lat="47.86291" lon="1.78237">
        <ele>71.93</ele>
        <time>2016-02-28T09:14:10.000Z</time>
      </trkpt>
      <trkpt lat="47.86289" lon="1.78223">
        <ele>71.93</ele>
        <time>2016-02-28T09:14:12.000Z</time>
      </trkpt>
      <trkpt lat="47.86287" lon="1.78209">
        <ele>71.93</ele>
        <time>2016-02-28T09:14:14.000Z</time>
      </trkpt>
      <trkpt lat="47.86282" lon="1.78197">
        <ele>71.93</ele>
        <time>2016-02-28T09:14:16.000Z</time>
      </trkpt>
      <trkpt lat="47.86277" lon="1.78186">
        <ele>71.02</ele>
        <time>2016-02-28T09:14:18.000Z</time>
      </trkpt>
      <trkpt lat="47.86275" lon="1.78174">
        <ele>71.02</ele>
        <time>2016-02-28T09:14:20.000Z</time>
      </trkpt>
      <trkpt lat="47.86275" lon="1.78161">
        <ele>71.02</ele>
        <time>2016-02-28T09:14:22.000Z</time>
      </trkpt>
      <trkpt lat="47.86275" lon="1.78149">
        <ele>71.02</ele>
        <time>2016-02-28T09:14:24.000Z</time>
      </trkpt>
      <trkpt lat="47.86274" lon="1.78135">
        <ele>71.02</ele>
        <time>2016-02-28T09:14:26.000Z</time>
      </trkpt>
      <trkpt lat="47.86273" lon="1.78121">
        <ele>71.02</ele>
        <time>2016-02-28T09:14:28.000Z</time>
      </trkpt>
      <trkpt lat="47.86272" lon="1.78107">
        <ele>71.02</ele>
        <time>2016-02-28T09:14:30.000Z</time>
      </trkpt>
      <trkpt lat="47.86271" lon="1.78093">
        <ele>71.02</ele>
        <time>2016-02-28T09:14:32.000Z</time>
      </trkpt>
      <trkpt lat="47.8627" lon="1.7808">
        <ele>71.02</ele>
        <time>2016-02-28T09:14:34.000Z</time>
      </trkpt>
      <trkpt lat="47.86268" lon="1.78067">
        <ele>71.02</ele>
        <time>2016-02-28T09:14:36.000Z</time>
      </trkpt>
      <trkpt lat="47.86267" lon="1.78054">
        <ele>71.02</ele>
        <time>2016-02-28T09:14:38.000Z</time>
      </trkpt>
      <trkpt lat="47.86265" lon="1.7804">
        <ele>71.02</ele>
        <time>2016-02-28T09:14:40.000Z</time>
      </trkpt>
      <trkpt lat="47.86262" lon="1.78024">
        <ele>71.02</ele>
        <time>2016-02-28T09:14:42.000Z</time>
      </trkpt>
      <trkpt lat="47.86261" lon="1.7801">
        <ele>71.02</ele>
        <time>2016-02-28T09:14:44.000Z</time>
      </trkpt>
      <trkpt lat="47.8626" lon="1.77994">
        <ele>71.02</ele>
        <time>2016-02-28T09:14:46.000Z</time>
      </trkpt>
      <trkpt lat="47.86258" lon="1.77978">
        <ele>71.02</ele>
        <time>2016-02-28T09:14:48.000Z</time>
      </trkpt>
      <trkpt lat="47.86255" lon="1.77955">
        <ele>71.02</ele>
        <time>2016-02-28T09:14:50.000Z</time>
      </trkpt>
      <trkpt lat="47.86254" lon="1.77947">
        <ele>71.02</ele>
        <time>2016-02-28T09:14:52.000Z</time>
      </trkpt>
      <trkpt lat="47.86252" lon="1.77931">
        <ele>71.02</ele>
        <time>2016-02-28T09:14:54.000Z</time>
      </trkpt>
      <trkpt lat="47.8625" lon="1.77916">
        <ele>71.02</ele>
        <time>2016-02-28T09:14:56.000Z</time>
      </trkpt>
      <trkpt lat="47.86249" lon="1.77899">
        <ele>71.02</ele>
        <time>2016-02-28T09:14:58.000Z</time>
      </trkpt>
      <trkpt lat="47.8625" lon="1.77881">
        <ele>71.02</ele>
        <time>2016-02-28T09:15:00.000Z</time>
      </trkpt>
      <trkpt lat="47.86249" lon="1.77864">
        <ele>71.02</ele>
        <time>2016-02-28T09:15:02.000Z</time>
      </trkpt>
      <trkpt lat="47.86248" lon="1.77848">
        <ele>71.02</ele>
        <time>2016-02-28T09:15:04.000Z</time>
      </trkpt>
      <trkpt lat="47.86247" lon="1.77832">
        <ele>71.02</ele>
        <time>2016-02-28T09:15:06.000Z</time>
      </trkpt>
      <trkpt lat="47.86246" lon="1.77815">
        <ele>71.02</ele>
        <time>2016-02-28T09:15:08.000Z</time>
      </trkpt>
      <trkpt lat="47.86244" lon="1.77799">
        <ele>71.02</ele>
        <time>2016-02-28T09:15:10.000Z</time>
      </trkpt>
      <trkpt lat="47.86242" lon="1.77784">
        <ele>71.02</ele>
        <time>2016-02-28T09:15:12.000Z</time>
      </trkpt>
      <trkpt lat="47.86239" lon="1.77767">
        <ele>71.02</ele>
        <time>2016-02-28T09:15:14.000Z</time>
      </trkpt>
      <trkpt lat="47.86234" lon="1.77743">
        <ele>71.02</ele>
        <time>2016-02-28T09:15:16.000Z</time>
      </trkpt>
      <trkpt lat="47.86233" lon="1.77735">
        <ele>71.02</ele>
        <time>2016-02-28T09:15:18.000Z</time>
      </trkpt>
      <trkpt lat="47.8623" lon="1.77718">
        <ele>71.02</ele>
        <time>2016-02-28T09:15:20.000Z</time>
      </trkpt>
      <trkpt lat="47.86227" lon="1.77701">
        <ele>71.02</ele>
        <time>2016-02-28T09:15:22.000Z</time>
      </trkpt>
      <trkpt lat="47.86224" lon="1.77686">
        <ele>71.02</ele>
        <time>2016-02-28T09:15:24.000Z</time>
      </trkpt>
      <trkpt lat="47.86221" lon="1.7767">
        <ele>71.02</ele>
        <time>2016-02-28T09:15:26.000Z</time>
      </trkpt>
      <trkpt lat="47.86216" lon="1.77654">
        <ele>71.02</ele>
        <time>2016-02-28T09:15:28.000Z</time>
      </trkpt>
      <trkpt lat="47.86212" lon="1.77638">
        <ele>71.02</ele>
        <time>2016-02-28T09:15:30.000Z</time>
      </trkpt>
      <trkpt lat="47.86208" lon="1.77621">
        <ele>71.02</ele>
        <time>2016-02-28T09:15:32.000Z</time>
      </trkpt>
      <trkpt lat="47.86204" lon="1.77604">
        <ele>71.02</ele>
        <time>2016-02-28T09:15:34.000Z</time>
      </trkpt>
      <trkpt lat="47.86201" lon="1.77588">
        <ele>71.02</ele>
        <time>2016-02-28T09:15:36.000Z</time>
      </trkpt>
      <trkpt lat="47.86199" lon="1.77571">
        <ele>71.02</ele>
        <time>2016-02-28T09:15:38.000Z</time>
      </trkpt>
      <trkpt lat="47.86197" lon="1.77554">
        <ele>71.02</ele>
        <time>2016-02-28T09:15:40.000Z</time>
      </trkpt>
      <trkpt lat="47.86196" lon="1.77537">
        <ele>71.02</ele>
        <time>2016-02-28T09:15:42.000Z</time>
      </trkpt>
      <trkpt lat="47.86194" lon="1.77521">
        <ele>71.02</ele>
        <time>2016-02-28T09:15:44.000Z</time>
      </trkpt>
      <trkpt lat="47.86192" lon="1.77506">
        <ele>71.02</ele>
        <time>2016-02-28T09:15:46.000Z</time>
      </trkpt>
      <trkpt lat="47.86188" lon="1.77491">
        <ele>71.02</ele>
        <time>2016-02-28T09:15:48.000Z</time>
      </trkpt>
      <trkpt lat="47.86184" lon="1.77478">
        <ele>71.02</ele>
        <time>2016-02-28T09:15:50.000Z</time>
      </trkpt>
      <trkpt lat="47.8618" lon="1.77463">
        <ele>71.02</ele>
        <time>2016-02-28T09:15:52.000Z</time>
      </trkpt>
      <trkpt lat="47.86175" lon="1.77449">
        <ele>71.02</ele>
        <time>2016-02-28T09:15:54.000Z</time>
      </trkpt>
      <trkpt lat="47.86171" lon="1.77435">
        <ele>71.02</ele>
        <time>2016-02-28T09:15:56.000Z</time>
      </trkpt>
      <trkpt lat="47.86166" lon="1.77421">
        <ele>71.02</ele>
        <time>2016-02-28T09:15:58.000Z</time>
      </trkpt>
      <trkpt lat="47.86161" lon="1.77407">
        <ele>71.02</ele>
        <time>2016-02-28T09:16:00.000Z</time>
      </trkpt>
      <trkpt lat="47.86158" lon="1.77391">
        <ele>71.02</ele>
        <time>2016-02-28T09:16:02.000Z</time>
      </trkpt>
      <trkpt lat="47.86156" lon="1.77376">
        <ele>71.02</ele>
        <time>2016-02-28T09:16:04.000Z</time>
      </trkpt>
      <trkpt lat="47.86154" lon="1.77361">
        <ele>71.02</ele>
        <time>2016-02-28T09:16:06.000Z</time>
      </trkpt>
      <trkpt lat="47.86154" lon="1.77343">
        <ele>71.02</ele>
        <time>2016-02-28T09:16:08.000Z</time>
      </trkpt>
      <trkpt lat="47.86153" lon="1.77327">
        <ele>71.02</ele>
        <time>2016-02-28T09:16:10.000Z</time>
      </trkpt>
      <trkpt lat="47.86151" lon="1.7731">
        <ele>71.02</ele>
        <time>2016-02-28T09:16:12.000Z</time>
      </trkpt>
      <trkpt lat="47.8615" lon="1.77295">
        <ele>70.1</ele>
        <time>2016-02-28T09:16:14.000Z</time>
      </trkpt>
      <trkpt lat="47.86146" lon="1.77273">
        <ele>70.1</ele>
        <time>2016-02-28T09:16:16.000Z</time>
      </trkpt>
      <trkpt lat="47.86143" lon="1.77266">
        <ele>70.1</ele>
        <time>2016-02-28T09:16:18.000Z</time>
      </trkpt>
      <trkpt lat="47.86139" lon="1.77253">
        <ele>70.1</ele>
        <time>2016-02-28T09:16:20.000Z</time>
      </trkpt>
      <trkpt lat="47.86134" lon="1.77239">
        <ele>70.1</ele>
        <time>2016-02-28T09:16:22.000Z</time>
      </trkpt>
      <trkpt lat="47.8613" lon="1.77224">
        <ele>70.1</ele>
        <time>2016-02-28T09:16:24.000Z</time>
      </trkpt>
      <trkpt lat="47.86126" lon="1.7721">
        <ele>70.1</ele>
        <time>2016-02-28T09:16:26.000Z</time>
      </trkpt>
      <trkpt lat="47.86121" lon="1.77199">
        <ele>70.1</ele>
        <time>2016-02-28T09:16:28.000Z</time>
      </trkpt>
      <trkpt lat="47.86113" lon="1.77188">
        <ele>70.1</ele>
        <time>2016-02-28T09:16:30.000Z</time>
      </trkpt>
      <trkpt lat="47.86108" lon="1.77176">
        <ele>70.1</ele>
        <time>2016-02-28T09:16:32.000Z</time>
      </trkpt>
      <trkpt lat="47.86103" lon="1.77163">
        <ele>70.1</ele>
        <time>2016-02-28T09:16:34.000Z</time>
      </trkpt>
      <trkpt lat="47.86097" lon="1.77151">
        <ele>70.1</ele>
        <time>2016-02-28T09:16:36.000Z</time>
      </trkpt>
      <trkpt lat="47.8609" lon="1.77141">
        <ele>70.1</ele>
        <time>2016-02-28T09:16:38.000Z</time>
      </trkpt>
      <trkpt lat="47.86083" lon="1.7713">
        <ele>70.1</ele>
        <time>2016-02-28T09:16:40.000Z</time>
      </trkpt>
      <trkpt lat="47.86075" lon="1.77118">
        <ele>70.1</ele>
        <time>2016-02-28T09:16:42.000Z</time>
      </trkpt>
      <trkpt lat="47.86065" lon="1.771">
        <ele>70.1</ele>
        <time>2016-02-28T09:16:44.000Z</time>
      </trkpt>
      <trkpt lat="47.86062" lon="1.77094">
        <ele>70.1</ele>
        <time>2016-02-28T09:16:46.000Z</time>
      </trkpt>
      <trkpt lat="47.86057" lon="1.77081">
        <ele>70.1</ele>
        <time>2016-02-28T09:16:48.000Z</time>
      </trkpt>
      <trkpt lat="47.86052" lon="1.77067">
        <ele>70.1</ele>
        <time>2016-02-28T09:16:50.000Z</time>
      </trkpt>
      <trkpt lat="47.86046" lon="1.77053">
        <ele>70.1</ele>
        <time>2016-02-28T09:16:52.000Z</time>
      </trkpt>
      <trkpt lat="47.86041" lon="1.7704">
        <ele>70.1</ele>
        <time>2016-02-28T09:16:54.000Z</time>
      </trkpt>
      <trkpt lat="47.86036" lon="1.77026">
        <ele>70.1</ele>
        <time>2016-02-28T09:16:56.000Z</time>
      </trkpt>
      <trkpt lat="47.8603" lon="1.77012">
        <ele>70.1</ele>
        <time>2016-02-28T09:16:58.000Z</time>
      </trkpt>
      <trkpt lat="47.86027" lon="1.77006">
        <ele>70.1</ele>
        <time>2016-02-28T09:17:00.000Z</time>
      </trkpt>
      <trkpt lat="47.86018" lon="1.76987">
        <ele>70.1</ele>
        <time>2016-02-28T09:17:02.000Z</time>
      </trkpt>
      <trkpt lat="47.8601" lon="1.76978">
        <ele>70.1</ele>
        <time>2016-02-28T09:17:04.000Z</time>
      </trkpt>
      <trkpt lat="47.86003" lon="1.76972">
        <ele>70.1</ele>
        <time>2016-02-28T09:17:06.000Z</time>
      </trkpt>
      <trkpt lat="47.85996" lon="1.76966">
        <ele>71.93</ele>
        <time>2016-02-28T09:17:08.000Z</time>
      </trkpt>
      <trkpt lat="47.85991" lon="1.76955">
        <ele>71.93</ele>
        <time>2016-02-28T09:17:10.000Z</time>
      </trkpt>
      <trkpt lat="47.85983" lon="1.76937">
        <ele>71.93</ele>
        <time>2016-02-28T09:17:12.000Z</time>
      </trkpt>
      <trkpt lat="47.8598" lon="1.76931">
        <ele>71.93</ele>
        <time>2016-02-28T09:17:14.000Z</time>
      </trkpt>
      <trkpt lat="47.85975" lon="1.76919">
        <ele>71.93</ele>
        <time>2016-02-28T09:17:16.000Z</time>
      </trkpt>
      <trkpt lat="47.8597" lon="1.76908">
        <ele>71.93</ele>
        <time>2016-02-28T09:17:18.000Z</time>
      </trkpt>
      <trkpt lat="47.85965" lon="1.76897">
        <ele>71.93</ele>
        <time>2016-02-28T09:17:20.000Z</time>
      </trkpt>
      <trkpt lat="47.85959" lon="1.76887">
        <ele>71.93</ele>
        <time>2016-02-28T09:17:22.000Z</time>
      </trkpt>
      <trkpt lat="47.85952" lon="1.76879">
        <ele>71.93</ele>
        <time>2016-02-28T09:17:24.000Z</time>
      </trkpt>
      <trkpt lat="47.85945" lon="1.76872">
        <ele>71.93</ele>
        <time>2016-02-28T09:17:26.000Z</time>
      </trkpt>
      <trkpt lat="47.85939" lon="1.76868">
        <ele>71.93</ele>
        <time>2016-02-28T09:17:28.000Z</time>
      </trkpt>
      <trkpt lat="47.85933" lon="1.76866">
        <ele>71.93</ele>
        <time>2016-02-28T09:17:30.000Z</time>
      </trkpt>
      <trkpt lat="47.85928" lon="1.76863">
        <ele>71.93</ele>
        <time>2016-02-28T09:17:32.000Z</time>
      </trkpt>
      <trkpt lat="47.85922" lon="1.7686">
        <ele>71.93</ele>
        <time>2016-02-28T09:17:34.000Z</time>
      </trkpt>
      <trkpt lat="47.85916" lon="1.76857">
        <ele>71.93</ele>
        <time>2016-02-28T09:17:36.000Z</time>
      </trkpt>
      <trkpt lat="47.85912" lon="1.76853">
        <ele>71.93</ele>
        <time>2016-02-28T09:17:38.000Z</time>
      </trkpt>
      <trkpt lat="47.85907" lon="1.7685">
        <ele>71.93</ele>
        <time>2016-02-28T09:17:40.000Z</time>
      </trkpt>
      <trkpt lat="47.85903" lon="1.76845">
        <ele>71.93</ele>
        <time>2016-02-28T09:17:42.000Z</time>
      </trkpt>
      <trkpt lat="47.85898" lon="1.76839">
        <ele>71.93</ele>
        <time>2016-02-28T09:17:44.000Z</time>
      </trkpt>
      <trkpt lat="47.85894" lon="1.76831">
        <ele>71.93</ele>
        <time>2016-02-28T09:17:46.000Z</time>
      </trkpt>
      <trkpt lat="47.8589" lon="1.76822">
        <ele>71.93</ele>
        <time>2016-02-28T09:17:48.000Z</time>
      </trkpt>
      <trkpt lat="47.85886" lon="1.76813">
        <ele>71.93</ele>
        <time>2016-02-28T09:17:50.000Z</time>
      </trkpt>
      <trkpt lat="47.8588" lon="1.76804">
        <ele>71.93</ele>
        <time>2016-02-28T09:17:52.000Z</time>
      </trkpt>
      <trkpt lat="47.85876" lon="1.76794">
        <ele>71.93</ele>
        <time>2016-02-28T09:17:54.000Z</time>
      </trkpt>
      <trkpt lat="47.8587" lon="1.76784">
        <ele>71.93</ele>
        <time>2016-02-28T09:17:56.000Z</time>
      </trkpt>
      <trkpt lat="47.85864" lon="1.76774">
        <ele>71.93</ele>
        <time>2016-02-28T09:17:58.000Z</time>
      </trkpt>
      <trkpt lat="47.85857" lon="1.76766">
        <ele>71.93</ele>
        <time>2016-02-28T09:18:00.000Z</time>
      </trkpt>
      <trkpt lat="47.8585" lon="1.76758">
        <ele>71.93</ele>
        <time>2016-02-28T09:18:02.000Z</time>
      </trkpt>
      <trkpt lat="47.85843" lon="1.76751">
        <ele>71.93</ele>
        <time>2016-02-28T09:18:04.000Z</time>
      </trkpt>
      <trkpt lat="47.85839" lon="1.76739">
        <ele>71.93</ele>
        <time>2016-02-28T09:18:06.000Z</time>
      </trkpt>
      <trkpt lat="47.85833" lon="1.76727">
        <ele>73.15</ele>
        <time>2016-02-28T09:18:08.000Z</time>
      </trkpt>
      <trkpt lat="47.85822" lon="1.76712">
        <ele>73.15</ele>
        <time>2016-02-28T09:18:10.000Z</time>
      </trkpt>
      <trkpt lat="47.85818" lon="1.76709">
        <ele>73.15</ele>
        <time>2016-02-28T09:18:12.000Z</time>
      </trkpt>
      <trkpt lat="47.85814" lon="1.76698">
        <ele>73.15</ele>
        <time>2016-02-28T09:18:14.000Z</time>
      </trkpt>
      <trkpt lat="47.8581" lon="1.76684">
        <ele>73.15</ele>
        <time>2016-02-28T09:18:16.000Z</time>
      </trkpt>
      <trkpt lat="47.85803" lon="1.76672">
        <ele>73.15</ele>
        <time>2016-02-28T09:18:18.000Z</time>
      </trkpt>
      <trkpt lat="47.85796" lon="1.7666">
        <ele>73.15</ele>
        <time>2016-02-28T09:18:20.000Z</time>
      </trkpt>
      <trkpt lat="47.85789" lon="1.76648">
        <ele>73.15</ele>
        <time>2016-02-28T09:18:22.000Z</time>
      </trkpt>
      <trkpt lat="47.85782" lon="1.76629">
        <ele>73.15</ele>
        <time>2016-02-28T09:18:24.000Z</time>
      </trkpt>
      <trkpt lat="47.85779" lon="1.76624">
        <ele>73.15</ele>
        <time>2016-02-28T09:18:26.000Z</time>
      </trkpt>
      <trkpt lat="47.85771" lon="1.76615">
        <ele>73.15</ele>
        <time>2016-02-28T09:18:28.000Z</time>
      </trkpt>
      <trkpt lat="47.85765" lon="1.76603">
        <ele>73.15</ele>
        <time>2016-02-28T09:18:30.000Z</time>
      </trkpt>
      <trkpt lat="47.85759" lon="1.76593">
        <ele>73.15</ele>
        <time>2016-02-28T09:18:32.000Z</time>
      </trkpt>
      <trkpt lat="47.85756" lon="1.76583">
        <ele>73.15</ele>
        <time>2016-02-28T09:18:34.000Z</time>
      </trkpt>
      <trkpt lat="47.85751" lon="1.76573">
        <ele>73.15</ele>
        <time>2016-02-28T09:18:36.000Z</time>
      </trkpt>
      <trkpt lat="47.85743" lon="1.76563">
        <ele>73.15</ele>
        <time>2016-02-28T09:18:38.000Z</time>
      </trkpt>
      <trkpt lat="47.85736" lon="1.76553">
        <ele>73.15</ele>
        <time>2016-02-28T09:18:40.000Z</time>
      </trkpt>
      <trkpt lat="47.85729" lon="1.76543">
        <ele>73.15</ele>
        <time>2016-02-28T09:18:42.000Z</time>
      </trkpt>
      <trkpt lat="47.85722" lon="1.76532">
        <ele>73.15</ele>
        <time>2016-02-28T09:18:44.000Z</time>
      </trkpt>
      <trkpt lat="47.85715" lon="1.76521">
        <ele>73.15</ele>
        <time>2016-02-28T09:18:46.000Z</time>
      </trkpt>
      <trkpt lat="47.85708" lon="1.76511">
        <ele>73.15</ele>
        <time>2016-02-28T09:18:48.000Z</time>
      </trkpt>
      <trkpt lat="47.857" lon="1.76501">
        <ele>73.15</ele>
        <time>2016-02-28T09:18:50.000Z</time>
      </trkpt>
      <trkpt lat="47.85693" lon="1.76491">
        <ele>73.15</ele>
        <time>2016-02-28T09:18:52.000Z</time>
      </trkpt>
      <trkpt lat="47.85685" lon="1.76483">
        <ele>74.07</ele>
        <time>2016-02-28T09:18:54.000Z</time>
      </trkpt>
      <trkpt lat="47.85681" lon="1.76473">
        <ele>74.07</ele>
        <time>2016-02-28T09:18:56.000Z</time>
      </trkpt>
      <trkpt lat="47.85677" lon="1.76464">
        <ele>74.07</ele>
        <time>2016-02-28T09:18:58.000Z</time>
      </trkpt>
      <trkpt lat="47.85671" lon="1.76456">
        <ele>74.07</ele>
        <time>2016-02-28T09:19:00.000Z</time>
      </trkpt>
      <trkpt lat="47.85665" lon="1.76447">
        <ele>74.07</ele>
        <time>2016-02-28T09:19:02.000Z</time>
      </trkpt>
      <trkpt lat="47.85658" lon="1.76438">
        <ele>74.07</ele>
        <time>2016-02-28T09:19:04.000Z</time>
      </trkpt>
      <trkpt lat="47.85654" lon="1.76428">
        <ele>74.07</ele>
        <time>2016-02-28T09:19:06.000Z</time>
      </trkpt>
      <trkpt lat="47.85648" lon="1.76418">
        <ele>74.07</ele>
        <time>2016-02-28T09:19:08.000Z</time>
      </trkpt>
      <trkpt lat="47.85643" lon="1.7641">
        <ele>74.07</ele>
        <time>2016-02-28T09:19:10.000Z</time>
      </trkpt>
      <trkpt lat="47.85638" lon="1.764">
        <ele>74.07</ele>
        <time>2016-02-28T09:19:12.000Z</time>
      </trkpt>
      <trkpt lat="47.85632" lon="1.76391">
        <ele>74.07</ele>
        <time>2016-02-28T09:19:14.000Z</time>
      </trkpt>
      <trkpt lat="47.85626" lon="1.76383">
        <ele>74.07</ele>
        <time>2016-02-28T09:19:16.000Z</time>
      </trkpt>
      <trkpt lat="47.8562" lon="1.76372">
        <ele>74.07</ele>
        <time>2016-02-28T09:19:18.000Z</time>
      </trkpt>
      <trkpt lat="47.85615" lon="1.76362">
        <ele>74.07</ele>
        <time>2016-02-28T09:19:20.000Z</time>
      </trkpt>
      <trkpt lat="47.85609" lon="1.7635">
        <ele>74.07</ele>
        <time>2016-02-28T09:19:22.000Z</time>
      </trkpt>
      <trkpt lat="47.85604" lon="1.76341">
        <ele>74.07</ele>
        <time>2016-02-28T09:19:24.000Z</time>
      </trkpt>
      <trkpt lat="47.856" lon="1.76331">
        <ele>74.07</ele>
        <time>2016-02-28T09:19:26.000Z</time>
      </trkpt>
      <trkpt lat="47.85595" lon="1.7632">
        <ele>74.07</ele>
        <time>2016-02-28T09:19:28.000Z</time>
      </trkpt>
      <trkpt lat="47.8559" lon="1.7631">
        <ele>74.07</ele>
        <time>2016-02-28T09:19:30.000Z</time>
      </trkpt>
      <trkpt lat="47.8559" lon="1.76299">
        <ele>74.07</ele>
        <time>2016-02-28T09:19:32.000Z</time>
      </trkpt>
      <trkpt lat="47.85592" lon="1.76287">
        <ele>73.15</ele>
        <time>2016-02-28T09:19:34.000Z</time>
      </trkpt>
      <trkpt lat="47.85586" lon="1.76274">
        <ele>73.15</ele>
        <time>2016-02-28T09:19:36.000Z</time>
      </trkpt>
      <trkpt lat="47.85583" lon="1.76262">
        <ele>73.15</ele>
        <time>2016-02-28T09:19:38.000Z</time>
      </trkpt>
      <trkpt lat="47.85581" lon="1.76249">
        <ele>73.15</ele>
        <time>2016-02-28T09:19:40.000Z</time>
      </trkpt>
      <trkpt lat="47.85582" lon="1.76237">
        <ele>73.15</ele>
        <time>2016-02-28T09:19:42.000Z</time>
      </trkpt>
      <trkpt lat="47.85584" lon="1.76225">
        <ele>73.15</ele>
        <time>2016-02-28T09:19:44.000Z</time>
      </trkpt>
      <trkpt lat="47.85578" lon="1.76217">
        <ele>73.15</ele>
        <time>2016-02-28T09:19:46.000Z</time>
      </trkpt>
      <trkpt lat="47.85572" lon="1.76208">
        <ele>73.15</ele>
        <time>2016-02-28T09:19:48.000Z</time>
      </trkpt>
      <trkpt lat="47.85568" lon="1.76197">
        <ele>73.15</ele>
        <time>2016-02-28T09:19:50.000Z</time>
      </trkpt>
      <trkpt lat="47.85564" lon="1.76186">
        <ele>73.15</ele>
        <time>2016-02-28T09:19:52.000Z</time>
      </trkpt>
      <trkpt lat="47.85559" lon="1.76176">
        <ele>73.15</ele>
        <time>2016-02-28T09:19:54.000Z</time>
      </trkpt>
      <trkpt lat="47.85553" lon="1.76167">
        <ele>73.15</ele>
        <time>2016-02-28T09:19:56.000Z</time>
      </trkpt>
      <trkpt lat="47.85546" lon="1.76158">
        <ele>73.15</ele>
        <time>2016-02-28T09:19:58.000Z</time>
      </trkpt>
      <trkpt lat="47.85539" lon="1.76149">
        <ele>73.15</ele>
        <time>2016-02-28T09:20:00.000Z</time>
      </trkpt>
      <trkpt lat="47.85533" lon="1.76141">
        <ele>73.15</ele>
        <time>2016-02-28T09:20:02.000Z</time>
      </trkpt>
      <trkpt lat="47.85529" lon="1.7613">
        <ele>73.15</ele>
        <time>2016-02-28T09:20:04.000Z</time>
      </trkpt>
      <trkpt lat="47.85524" lon="1.76121">
        <ele>73.15</ele>
        <time>2016-02-28T09:20:06.000Z</time>
      </trkpt>
      <trkpt lat="47.85518" lon="1.76109">
        <ele>73.15</ele>
        <time>2016-02-28T09:20:08.000Z</time>
      </trkpt>
      <trkpt lat="47.85513" lon="1.76098">
        <ele>73.15</ele>
        <time>2016-02-28T09:20:10.000Z</time>
      </trkpt>
      <trkpt lat="47.85507" lon="1.76087">
        <ele>73.15</ele>
        <time>2016-02-28T09:20:12.000Z</time>
      </trkpt>
      <trkpt lat="47.85501" lon="1.76077">
        <ele>73.15</ele>
        <time>2016-02-28T09:20:14.000Z</time>
      </trkpt>
      <trkpt lat="47.85489" lon="1.76065">
        <ele>73.15</ele>
        <time>2016-02-28T09:20:16.000Z</time>
      </trkpt>
      <trkpt lat="47.85482" lon="1.76058">
        <ele>73.15</ele>
        <time>2016-02-28T09:20:18.000Z</time>
      </trkpt>
      <trkpt lat="47.85479" lon="1.76054">
        <ele>73.15</ele>
        <time>2016-02-28T09:20:20.000Z</time>
      </trkpt>
      <trkpt lat="47.85476" lon="1.76045">
        <ele>73.15</ele>
        <time>2016-02-28T09:20:22.000Z</time>
      </trkpt>
      <trkpt lat="47.85471" lon="1.76037">
        <ele>73.15</ele>
        <time>2016-02-28T09:20:24.000Z</time>
      </trkpt>
      <trkpt lat="47.85465" lon="1.7603">
        <ele>73.15</ele>
        <time>2016-02-28T09:20:26.000Z</time>
      </trkpt>
      <trkpt lat="47.85459" lon="1.76022">
        <ele>73.15</ele>
        <time>2016-02-28T09:20:28.000Z</time>
      </trkpt>
      <trkpt lat="47.85455" lon="1.76012">
        <ele>73.15</ele>
        <time>2016-02-28T09:20:30.000Z</time>
      </trkpt>
      <trkpt lat="47.8545" lon="1.76001">
        <ele>73.15</ele>
        <time>2016-02-28T09:20:32.000Z</time>
      </trkpt>
      <trkpt lat="47.85444" lon="1.75993">
        <ele>73.15</ele>
        <time>2016-02-28T09:20:34.000Z</time>
      </trkpt>
      <trkpt lat="47.85438" lon="1.75984">
        <ele>73.15</ele>
        <time>2016-02-28T09:20:36.000Z</time>
      </trkpt>
      <trkpt lat="47.85432" lon="1.75973">
        <ele>74.07</ele>
        <time>2016-02-28T09:20:38.000Z</time>
      </trkpt>
      <trkpt lat="47.85427" lon="1.75962">
        <ele>74.07</ele>
        <time>2016-02-28T09:20:40.000Z</time>
      </trkpt>
      <trkpt lat="47.85422" lon="1.75951">
        <ele>74.07</ele>
        <time>2016-02-28T09:20:42.000Z</time>
      </trkpt>
      <trkpt lat="47.85415" lon="1.75941">
        <ele>74.07</ele>
        <time>2016-02-28T09:20:44.000Z</time>
      </trkpt>
      <trkpt lat="47.85409" lon="1.75927">
        <ele>74.07</ele>
        <time>2016-02-28T09:20:46.000Z</time>
      </trkpt>
      <trkpt lat="47.85406" lon="1.75923">
        <ele>73.15</ele>
        <time>2016-02-28T09:20:48.000Z</time>
      </trkpt>
      <trkpt lat="47.85402" lon="1.75912">
        <ele>73.15</ele>
        <time>2016-02-28T09:20:50.000Z</time>
      </trkpt>
      <trkpt lat="47.85397" lon="1.75902">
        <ele>73.15</ele>
        <time>2016-02-28T09:20:52.000Z</time>
      </trkpt>
      <trkpt lat="47.85391" lon="1.75891">
        <ele>73.15</ele>
        <time>2016-02-28T09:20:54.000Z</time>
      </trkpt>
      <trkpt lat="47.85386" lon="1.75879">
        <ele>73.15</ele>
        <time>2016-02-28T09:20:56.000Z</time>
      </trkpt>
      <trkpt lat="47.85381" lon="1.75868">
        <ele>73.15</ele>
        <time>2016-02-28T09:20:58.000Z</time>
      </trkpt>
      <trkpt lat="47.85377" lon="1.75858">
        <ele>73.15</ele>
        <time>2016-02-28T09:21:00.000Z</time>
      </trkpt>
      <trkpt lat="47.85373" lon="1.75848">
        <ele>73.15</ele>
        <time>2016-02-28T09:21:02.000Z</time>
      </trkpt>
      <trkpt lat="47.85368" lon="1.75838">
        <ele>73.15</ele>
        <time>2016-02-28T09:21:04.000Z</time>
      </trkpt>
      <trkpt lat="47.85361" lon="1.75827">
        <ele>73.15</ele>
        <time>2016-02-28T09:21:06.000Z</time>
      </trkpt>
      <trkpt lat="47.85355" lon="1.75815">
        <ele>73.15</ele>
        <time>2016-02-28T09:21:08.000Z</time>
      </trkpt>
      <trkpt lat="47.85349" lon="1.75804">
        <ele>73.15</ele>
        <time>2016-02-28T09:21:10.000Z</time>
      </trkpt>
      <trkpt lat="47.85343" lon="1.75794">
        <ele>73.15</ele>
        <time>2016-02-28T09:21:12.000Z</time>
      </trkpt>
      <trkpt lat="47.85339" lon="1.75784">
        <ele>73.15</ele>
        <time>2016-02-28T09:21:14.000Z</time>
      </trkpt>
      <trkpt lat="47.85334" lon="1.75773">
        <ele>73.15</ele>
        <time>2016-02-28T09:21:16.000Z</time>
      </trkpt>
      <trkpt lat="47.85328" lon="1.75762">
        <ele>73.15</ele>
        <time>2016-02-28T09:21:18.000Z</time>
      </trkpt>
      <trkpt lat="47.85322" lon="1.75751">
        <ele>73.15</ele>
        <time>2016-02-28T09:21:20.000Z</time>
      </trkpt>
      <trkpt lat="47.85316" lon="1.7574">
        <ele>73.15</ele>
        <time>2016-02-28T09:21:22.000Z</time>
      </trkpt>
      <trkpt lat="47.8531" lon="1.75727">
        <ele>73.15</ele>
        <time>2016-02-28T09:21:24.000Z</time>
      </trkpt>
      <trkpt lat="47.85304" lon="1.75717">
        <ele>73.15</ele>
        <time>2016-02-28T09:21:26.000Z</time>
      </trkpt>
      <trkpt lat="47.85299" lon="1.75704">
        <ele>71.93</ele>
        <time>2016-02-28T09:21:28.000Z</time>
      </trkpt>
      <trkpt lat="47.85292" lon="1.75698">
        <ele>71.93</ele>
        <time>2016-02-28T09:21:30.000Z</time>
      </trkpt>
      <trkpt lat="47.85285" lon="1.75692">
        <ele>71.93</ele>
        <time>2016-02-28T09:21:32.000Z</time>
      </trkpt>
      <trkpt lat="47.85277" lon="1.75689">
        <ele>71.93</ele>
        <time>2016-02-28T09:21:34.000Z</time>
      </trkpt>
      <trkpt lat="47.85271" lon="1.7569">
        <ele>71.93</ele>
        <time>2016-02-28T09:21:36.000Z</time>
      </trkpt>
      <trkpt lat="47.85266" lon="1.75687">
        <ele>73.15</ele>
        <time>2016-02-28T09:21:38.000Z</time>
      </trkpt>
      <trkpt lat="47.85264" lon="1.75681">
        <ele>73.15</ele>
        <time>2016-02-28T09:21:40.000Z</time>
      </trkpt>
      <trkpt lat="47.85262" lon="1.75677">
        <ele>73.15</ele>
        <time>2016-02-28T09:21:42.000Z</time>
      </trkpt>
      <trkpt lat="47.8526" lon="1.75673">
        <ele>73.15</ele>
        <time>2016-02-28T09:21:44.000Z</time>
      </trkpt>
      <trkpt lat="47.85259" lon="1.75669">
        <ele>73.15</ele>
        <time>2016-02-28T09:21:46.000Z</time>
      </trkpt>
      <trkpt lat="47.85257" lon="1.75663">
        <ele>73.15</ele>
        <time>2016-02-28T09:21:48.000Z</time>
      </trkpt>
      <trkpt lat="47.85254" lon="1.75656">
        <ele>73.15</ele>
        <time>2016-02-28T09:21:50.000Z</time>
      </trkpt>
      <trkpt lat="47.85251" lon="1.7565">
        <ele>73.15</ele>
        <time>2016-02-28T09:21:52.000Z</time>
      </trkpt>
      <trkpt lat="47.85249" lon="1.75644">
        <ele>73.15</ele>
        <time>2016-02-28T09:21:54.000Z</time>
      </trkpt>
      <trkpt lat="47.85247" lon="1.75637">
        <ele>73.15</ele>
        <time>2016-02-28T09:21:56.000Z</time>
      </trkpt>
      <trkpt lat="47.85244" lon="1.7563">
        <ele>73.15</ele>
        <time>2016-02-28T09:21:58.000Z</time>
      </trkpt>
      <trkpt lat="47.85242" lon="1.75624">
        <ele>73.15</ele>
        <time>2016-02-28T09:22:00.000Z</time>
      </trkpt>
      <trkpt lat="47.85239" lon="1.75618">
        <ele>73.15</ele>
        <time>2016-02-28T09:22:02.000Z</time>
      </trkpt>
      <trkpt lat="47.85236" lon="1.75612">
        <ele>73.15</ele>
        <time>2016-02-28T09:22:04.000Z</time>
      </trkpt>
      <trkpt lat="47.85234" lon="1.75606">
        <ele>73.15</ele>
        <time>2016-02-28T09:22:06.000Z</time>
      </trkpt>
      <trkpt lat="47.85232" lon="1.756">
        <ele>73.15</ele>
        <time>2016-02-28T09:22:08.000Z</time>
      </trkpt>
      <trkpt lat="47.85231" lon="1.75594">
        <ele>73.15</ele>
        <time>2016-02-28T09:22:10.000Z</time>
      </trkpt>
      <trkpt lat="47.85229" lon="1.75589">
        <ele>73.15</ele>
        <time>2016-02-28T09:22:12.000Z</time>
      </trkpt>
      <trkpt lat="47.85228" lon="1.75584">
        <ele>74.07</ele>
        <time>2016-02-28T09:22:14.000Z</time>
      </trkpt>
      <trkpt lat="47.85226" lon="1.75578">
        <ele>74.07</ele>
        <time>2016-02-28T09:22:16.000Z</time>
      </trkpt>
      <trkpt lat="47.85225" lon="1.75571">
        <ele>74.07</ele>
        <time>2016-02-28T09:22:18.000Z</time>
      </trkpt>
      <trkpt lat="47.85224" lon="1.75564">
        <ele>74.07</ele>
        <time>2016-02-28T09:22:20.000Z</time>
      </trkpt>
      <trkpt lat="47.85221" lon="1.75558">
        <ele>74.07</ele>
        <time>2016-02-28T09:22:22.000Z</time>
      </trkpt>
      <trkpt lat="47.85219" lon="1.75552">
        <ele>74.07</ele>
        <time>2016-02-28T09:22:24.000Z</time>
      </trkpt>
      <trkpt lat="47.85215" lon="1.75545">
        <ele>74.07</ele>
        <time>2016-02-28T09:22:26.000Z</time>
      </trkpt>
      <trkpt lat="47.85212" lon="1.75537">
        <ele>73.15</ele>
        <time>2016-02-28T09:22:28.000Z</time>
      </trkpt>
      <trkpt lat="47.85208" lon="1.75529">
        <ele>73.15</ele>
        <time>2016-02-28T09:22:30.000Z</time>
      </trkpt>
      <trkpt lat="47.85205" lon="1.75522">
        <ele>73.15</ele>
        <time>2016-02-28T09:22:32.000Z</time>
      </trkpt>
      <trkpt lat="47.85202" lon="1.75515">
        <ele>73.15</ele>
        <time>2016-02-28T09:22:34.000Z</time>
      </trkpt>
      <trkpt lat="47.852" lon="1.75508">
        <ele>73.15</ele>
        <time>2016-02-28T09:22:36.000Z</time>
      </trkpt>
      <trkpt lat="47.85198" lon="1.75501">
        <ele>73.15</ele>
        <time>2016-02-28T09:22:38.000Z</time>
      </trkpt>
      <trkpt lat="47.85195" lon="1.75493">
        <ele>73.15</ele>
        <time>2016-02-28T09:22:40.000Z</time>
      </trkpt>
      <trkpt lat="47.85193" lon="1.75485">
        <ele>73.15</ele>
        <time>2016-02-28T09:22:42.000Z</time>
      </trkpt>
      <trkpt lat="47.8519" lon="1.75476">
        <ele>73.15</ele>
        <time>2016-02-28T09:22:44.000Z</time>
      </trkpt>
      <trkpt lat="47.85187" lon="1.75468">
        <ele>73.15</ele>
        <time>2016-02-28T09:22:46.000Z</time>
      </trkpt>
      <trkpt lat="47.85183" lon="1.7546">
        <ele>73.15</ele>
        <time>2016-02-28T09:22:48.000Z</time>
      </trkpt>
      <trkpt lat="47.85179" lon="1.75451">
        <ele>73.15</ele>
        <time>2016-02-28T09:22:50.000Z</time>
      </trkpt>
      <trkpt lat="47.85177" lon="1.75442">
        <ele>73.15</ele>
        <time>2016-02-28T09:22:52.000Z</time>
      </trkpt>
      <trkpt lat="47.85174" lon="1.75433">
        <ele>73.15</ele>
        <time>2016-02-28T09:22:54.000Z</time>
      </trkpt>
      <trkpt lat="47.85169" lon="1.75423">
        <ele>73.15</ele>
        <time>2016-02-28T09:22:56.000Z</time>
      </trkpt>
      <trkpt lat="47.85164" lon="1.75414">
        <ele>73.15</ele>
        <time>2016-02-28T09:22:58.000Z</time>
      </trkpt>
      <trkpt lat="47.85158" lon="1.75406">
        <ele>73.15</ele>
        <time>2016-02-28T09:23:00.000Z</time>
      </trkpt>
      <trkpt lat="47.85154" lon="1.75395">
        <ele>73.15</ele>
        <time>2016-02-28T09:23:02.000Z</time>
      </trkpt>
      <trkpt lat="47.8515" lon="1.75385">
        <ele>73.15</ele>
        <time>2016-02-28T09:23:04.000Z</time>
      </trkpt>
      <trkpt lat="47.85145" lon="1.75376">
        <ele>73.15</ele>
        <time>2016-02-28T09:23:06.000Z</time>
      </trkpt>
      <trkpt lat="47.8514" lon="1.75367">
        <ele>73.15</ele>
        <time>2016-02-28T09:23:08.000Z</time>
      </trkpt>
      <trkpt lat="47.85138" lon="1.75356">
        <ele>73.15</ele>
        <time>2016-02-28T09:23:10.000Z</time>
      </trkpt>
      <trkpt lat="47.85134" lon="1.75346">
        <ele>73.15</ele>
        <time>2016-02-28T09:23:12.000Z</time>
      </trkpt>
      <trkpt lat="47.8513" lon="1.75336">
        <ele>73.15</ele>
        <time>2016-02-28T09:23:14.000Z</time>
      </trkpt>
      <trkpt lat="47.85128" lon="1.75325">
        <ele>73.15</ele>
        <time>2016-02-28T09:23:16.000Z</time>
      </trkpt>
      <trkpt lat="47.85126" lon="1.75313">
        <ele>73.15</ele>
        <time>2016-02-28T09:23:18.000Z</time>
      </trkpt>
      <trkpt lat="47.85123" lon="1.75302">
        <ele>73.15</ele>
        <time>2016-02-28T09:23:20.000Z</time>
      </trkpt>
      <trkpt lat="47.85118" lon="1.75292">
        <ele>73.15</ele>
        <time>2016-02-28T09:23:22.000Z</time>
      </trkpt>
      <trkpt lat="47.85113" lon="1.75282">
        <ele>73.15</ele>
        <time>2016-02-28T09:23:24.000Z</time>
      </trkpt>
      <trkpt lat="47.85108" lon="1.75272">
        <ele>73.15</ele>
        <time>2016-02-28T09:23:26.000Z</time>
      </trkpt>
      <trkpt lat="47.85102" lon="1.7526">
        <ele>73.15</ele>
        <time>2016-02-28T09:23:28.000Z</time>
      </trkpt>
      <trkpt lat="47.85096" lon="1.75248">
        <ele>73.15</ele>
        <time>2016-02-28T09:23:30.000Z</time>
      </trkpt>
      <trkpt lat="47.85091" lon="1.75236">
        <ele>73.15</ele>
        <time>2016-02-28T09:23:32.000Z</time>
      </trkpt>
      <trkpt lat="47.85086" lon="1.75225">
        <ele>73.15</ele>
        <time>2016-02-28T09:23:34.000Z</time>
      </trkpt>
      <trkpt lat="47.8508" lon="1.75214">
        <ele>73.15</ele>
        <time>2016-02-28T09:23:36.000Z</time>
      </trkpt>
      <trkpt lat="47.85074" lon="1.75205">
        <ele>73.15</ele>
        <time>2016-02-28T09:23:38.000Z</time>
      </trkpt>
      <trkpt lat="47.85068" lon="1.75195">
        <ele>73.15</ele>
        <time>2016-02-28T09:23:40.000Z</time>
      </trkpt>
      <trkpt lat="47.85062" lon="1.75186">
        <ele>73.15</ele>
        <time>2016-02-28T09:23:42.000Z</time>
      </trkpt>
      <trkpt lat="47.85057" lon="1.75177">
        <ele>73.15</ele>
        <time>2016-02-28T09:23:44.000Z</time>
      </trkpt>
      <trkpt lat="47.85053" lon="1.75166">
        <ele>73.15</ele>
        <time>2016-02-28T09:23:46.000Z</time>
      </trkpt>
      <trkpt lat="47.85049" lon="1.75156">
        <ele>73.15</ele>
        <time>2016-02-28T09:23:48.000Z</time>
      </trkpt>
      <trkpt lat="47.85048" lon="1.75144">
        <ele>73.15</ele>
        <time>2016-02-28T09:23:50.000Z</time>
      </trkpt>
      <trkpt lat="47.85046" lon="1.75131">
        <ele>73.15</ele>
        <time>2016-02-28T09:23:52.000Z</time>
      </trkpt>
      <trkpt lat="47.85044" lon="1.75118">
        <ele>73.15</ele>
        <time>2016-02-28T09:23:54.000Z</time>
      </trkpt>
      <trkpt lat="47.8504" lon="1.75105">
        <ele>73.15</ele>
        <time>2016-02-28T09:23:56.000Z</time>
      </trkpt>
      <trkpt lat="47.85034" lon="1.75093">
        <ele>73.15</ele>
        <time>2016-02-28T09:23:58.000Z</time>
      </trkpt>
      <trkpt lat="47.8503" lon="1.75086">
        <ele>73.15</ele>
        <time>2016-02-28T09:24:00.000Z</time>
      </trkpt>
      <trkpt lat="47.85029" lon="1.7508">
        <ele>73.15</ele>
        <time>2016-02-28T09:24:02.000Z</time>
      </trkpt>
      <trkpt lat="47.85026" lon="1.75074">
        <ele>73.15</ele>
        <time>2016-02-28T09:24:04.000Z</time>
      </trkpt>
      <trkpt lat="47.85021" lon="1.75063">
        <ele>73.15</ele>
        <time>2016-02-28T09:24:06.000Z</time>
      </trkpt>
      <trkpt lat="47.8502" lon="1.7506">
        <ele>73.15</ele>
        <time>2016-02-28T09:24:08.000Z</time>
      </trkpt>
      <trkpt lat="47.85017" lon="1.7505">
        <ele>73.15</ele>
        <time>2016-02-28T09:24:10.000Z</time>
      </trkpt>
      <trkpt lat="47.85014" lon="1.75039">
        <ele>73.15</ele>
        <time>2016-02-28T09:24:12.000Z</time>
      </trkpt>
      <trkpt lat="47.85011" lon="1.75028">
        <ele>73.15</ele>
        <time>2016-02-28T09:24:14.000Z</time>
      </trkpt>
      <trkpt lat="47.85007" lon="1.75015">
        <ele>73.15</ele>
        <time>2016-02-28T09:24:16.000Z</time>
      </trkpt>
      <trkpt lat="47.85002" lon="1.75003">
        <ele>73.15</ele>
        <time>2016-02-28T09:24:18.000Z</time>
      </trkpt>
      <trkpt lat="47.84996" lon="1.74991">
        <ele>73.15</ele>
        <time>2016-02-28T09:24:20.000Z</time>
      </trkpt>
      <trkpt lat="47.84992" lon="1.74982">
        <ele>73.15</ele>
        <time>2016-02-28T09:24:22.000Z</time>
      </trkpt>
      <trkpt lat="47.8499" lon="1.7497">
        <ele>73.15</ele>
        <time>2016-02-28T09:24:24.000Z</time>
      </trkpt>
      <trkpt lat="47.84985" lon="1.74957">
        <ele>73.15</ele>
        <time>2016-02-28T09:24:26.000Z</time>
      </trkpt>
      <trkpt lat="47.84979" lon="1.74945">
        <ele>73.15</ele>
        <time>2016-02-28T09:24:28.000Z</time>
      </trkpt>
      <trkpt lat="47.84975" lon="1.74933">
        <ele>73.15</ele>
        <time>2016-02-28T09:24:30.000Z</time>
      </trkpt>
      <trkpt lat="47.84971" lon="1.7492">
        <ele>73.15</ele>
        <time>2016-02-28T09:24:32.000Z</time>
      </trkpt>
      <trkpt lat="47.84966" lon="1.74908">
        <ele>73.15</ele>
        <time>2016-02-28T09:24:34.000Z</time>
      </trkpt>
      <trkpt lat="47.84961" lon="1.74896">
        <ele>73.15</ele>
        <time>2016-02-28T09:24:36.000Z</time>
      </trkpt>
      <trkpt lat="47.84956" lon="1.74884">
        <ele>73.15</ele>
        <time>2016-02-28T09:24:38.000Z</time>
      </trkpt>
      <trkpt lat="47.84951" lon="1.74869">
        <ele>73.15</ele>
        <time>2016-02-28T09:24:40.000Z</time>
      </trkpt>
      <trkpt lat="47.84945" lon="1.74856">
        <ele>73.15</ele>
        <time>2016-02-28T09:24:42.000Z</time>
      </trkpt>
      <trkpt lat="47.8494" lon="1.74843">
        <ele>73.15</ele>
        <time>2016-02-28T09:24:44.000Z</time>
      </trkpt>
      <trkpt lat="47.84934" lon="1.7483">
        <ele>73.15</ele>
        <time>2016-02-28T09:24:46.000Z</time>
      </trkpt>
      <trkpt lat="47.84929" lon="1.74818">
        <ele>73.15</ele>
        <time>2016-02-28T09:24:48.000Z</time>
      </trkpt>
      <trkpt lat="47.84923" lon="1.74805">
        <ele>73.15</ele>
        <time>2016-02-28T09:24:50.000Z</time>
      </trkpt>
      <trkpt lat="47.84918" lon="1.74791">
        <ele>73.15</ele>
        <time>2016-02-28T09:24:52.000Z</time>
      </trkpt>
      <trkpt lat="47.84912" lon="1.74778">
        <ele>73.15</ele>
        <time>2016-02-28T09:24:54.000Z</time>
      </trkpt>
      <trkpt lat="47.84908" lon="1.74765">
        <ele>73.15</ele>
        <time>2016-02-28T09:24:56.000Z</time>
      </trkpt>
      <trkpt lat="47.84902" lon="1.74753">
        <ele>73.15</ele>
        <time>2016-02-28T09:24:58.000Z</time>
      </trkpt>
      <trkpt lat="47.84897" lon="1.74741">
        <ele>73.15</ele>
        <time>2016-02-28T09:25:00.000Z</time>
      </trkpt>
      <trkpt lat="47.8489" lon="1.74729">
        <ele>73.15</ele>
        <time>2016-02-28T09:25:02.000Z</time>
      </trkpt>
      <trkpt lat="47.84882" lon="1.74721">
        <ele>74.07</ele>
        <time>2016-02-28T09:25:04.000Z</time>
      </trkpt>
      <trkpt lat="47.84876" lon="1.74708">
        <ele>74.07</ele>
        <time>2016-02-28T09:25:06.000Z</time>
      </trkpt>
      <trkpt lat="47.84873" lon="1.74692">
        <ele>74.07</ele>
        <time>2016-02-28T09:25:08.000Z</time>
      </trkpt>
      <trkpt lat="47.84872" lon="1.74678">
        <ele>74.07</ele>
        <time>2016-02-28T09:25:10.000Z</time>
      </trkpt>
      <trkpt lat="47.8487" lon="1.74664">
        <ele>74.07</ele>
        <time>2016-02-28T09:25:12.000Z</time>
      </trkpt>
      <trkpt lat="47.84864" lon="1.74652">
        <ele>74.07</ele>
        <time>2016-02-28T09:25:14.000Z</time>
      </trkpt>
      <trkpt lat="47.84859" lon="1.74632">
        <ele>74.07</ele>
        <time>2016-02-28T09:25:16.000Z</time>
      </trkpt>
      <trkpt lat="47.84856" lon="1.74626">
        <ele>74.07</ele>
        <time>2016-02-28T09:25:18.000Z</time>
      </trkpt>
      <trkpt lat="47.84852" lon="1.74614">
        <ele>74.07</ele>
        <time>2016-02-28T09:25:20.000Z</time>
      </trkpt>
      <trkpt lat="47.84847" lon="1.74601">
        <ele>74.07</ele>
        <time>2016-02-28T09:25:22.000Z</time>
      </trkpt>
      <trkpt lat="47.84842" lon="1.74589">
        <ele>74.07</ele>
        <time>2016-02-28T09:25:24.000Z</time>
      </trkpt>
      <trkpt lat="47.84837" lon="1.74576">
        <ele>74.07</ele>
        <time>2016-02-28T09:25:26.000Z</time>
      </trkpt>
      <trkpt lat="47.84834" lon="1.74566">
        <ele>74.07</ele>
        <time>2016-02-28T09:25:28.000Z</time>
      </trkpt>
      <trkpt lat="47.8483" lon="1.74554">
        <ele>74.07</ele>
        <time>2016-02-28T09:25:30.000Z</time>
      </trkpt>
      <trkpt lat="47.84825" lon="1.74535">
        <ele>74.07</ele>
        <time>2016-02-28T09:25:32.000Z</time>
      </trkpt>
      <trkpt lat="47.84822" lon="1.74529">
        <ele>74.07</ele>
        <time>2016-02-28T09:25:34.000Z</time>
      </trkpt>
      <trkpt lat="47.84816" lon="1.74523">
        <ele>74.07</ele>
        <time>2016-02-28T09:25:36.000Z</time>
      </trkpt>
      <trkpt lat="47.84811" lon="1.74512">
        <ele>74.07</ele>
        <time>2016-02-28T09:25:38.000Z</time>
      </trkpt>
      <trkpt lat="47.84805" lon="1.74502">
        <ele>74.07</ele>
        <time>2016-02-28T09:25:40.000Z</time>
      </trkpt>
      <trkpt lat="47.84803" lon="1.7449">
        <ele>74.07</ele>
        <time>2016-02-28T09:25:42.000Z</time>
      </trkpt>
      <trkpt lat="47.84804" lon="1.74479">
        <ele>74.07</ele>
        <time>2016-02-28T09:25:44.000Z</time>
      </trkpt>
      <trkpt lat="47.84804" lon="1.74465">
        <ele>74.07</ele>
        <time>2016-02-28T09:25:46.000Z</time>
      </trkpt>
      <trkpt lat="47.84802" lon="1.7446">
        <ele>74.07</ele>
        <time>2016-02-28T09:25:48.000Z</time>
      </trkpt>
      <trkpt lat="47.848" lon="1.74448">
        <ele>74.07</ele>
        <time>2016-02-28T09:25:50.000Z</time>
      </trkpt>
      <trkpt lat="47.84799" lon="1.74436">
        <ele>74.07</ele>
        <time>2016-02-28T09:25:52.000Z</time>
      </trkpt>
      <trkpt lat="47.84798" lon="1.74428">
        <ele>74.07</ele>
        <time>2016-02-28T09:25:54.000Z</time>
      </trkpt>
      <trkpt lat="47.84796" lon="1.74419">
        <ele>74.07</ele>
        <time>2016-02-28T09:25:56.000Z</time>
      </trkpt>
      <trkpt lat="47.84793" lon="1.74408">
        <ele>74.07</ele>
        <time>2016-02-28T09:25:58.000Z</time>
      </trkpt>
      <trkpt lat="47.84791" lon="1.74396">
        <ele>74.07</ele>
        <time>2016-02-28T09:26:00.000Z</time>
      </trkpt>
      <trkpt lat="47.84789" lon="1.74383">
        <ele>74.07</ele>
        <time>2016-02-28T09:26:02.000Z</time>
      </trkpt>
      <trkpt lat="47.84789" lon="1.74371">
        <ele>74.07</ele>
        <time>2016-02-28T09:26:04.000Z</time>
      </trkpt>
      <trkpt lat="47.84786" lon="1.74359">
        <ele>74.07</ele>
        <time>2016-02-28T09:26:06.000Z</time>
      </trkpt>
      <trkpt lat="47.84782" lon="1.74347">
        <ele>74.07</ele>
        <time>2016-02-28T09:26:08.000Z</time>
      </trkpt>
      <trkpt lat="47.84779" lon="1.74335">
        <ele>74.07</ele>
        <time>2016-02-28T09:26:10.000Z</time>
      </trkpt>
      <trkpt lat="47.84775" lon="1.74322">
        <ele>74.07</ele>
        <time>2016-02-28T09:26:12.000Z</time>
      </trkpt>
      <trkpt lat="47.84773" lon="1.74309">
        <ele>74.07</ele>
        <time>2016-02-28T09:26:14.000Z</time>
      </trkpt>
      <trkpt lat="47.84772" lon="1.74295">
        <ele>74.07</ele>
        <time>2016-02-28T09:26:16.000Z</time>
      </trkpt>
      <trkpt lat="47.84768" lon="1.74282">
        <ele>74.07</ele>
        <time>2016-02-28T09:26:18.000Z</time>
      </trkpt>
      <trkpt lat="47.84766" lon="1.74268">
        <ele>74.07</ele>
        <time>2016-02-28T09:26:20.000Z</time>
      </trkpt>
      <trkpt lat="47.84764" lon="1.74256">
        <ele>74.07</ele>
        <time>2016-02-28T09:26:22.000Z</time>
      </trkpt>
      <trkpt lat="47.84762" lon="1.74243">
        <ele>74.07</ele>
        <time>2016-02-28T09:26:24.000Z</time>
      </trkpt>
      <trkpt lat="47.84758" lon="1.74232">
        <ele>74.07</ele>
        <time>2016-02-28T09:26:26.000Z</time>
      </trkpt>
      <trkpt lat="47.84756" lon="1.7422">
        <ele>74.07</ele>
        <time>2016-02-28T09:26:28.000Z</time>
      </trkpt>
      <trkpt lat="47.84755" lon="1.74206">
        <ele>74.07</ele>
        <time>2016-02-28T09:26:30.000Z</time>
      </trkpt>
      <trkpt lat="47.8475" lon="1.74193">
        <ele>74.07</ele>
        <time>2016-02-28T09:26:32.000Z</time>
      </trkpt>
      <trkpt lat="47.84748" lon="1.74179">
        <ele>74.07</ele>
        <time>2016-02-28T09:26:34.000Z</time>
      </trkpt>
      <trkpt lat="47.84745" lon="1.74167">
        <ele>74.07</ele>
        <time>2016-02-28T09:26:36.000Z</time>
      </trkpt>
      <trkpt lat="47.84741" lon="1.74154">
        <ele>74.07</ele>
        <time>2016-02-28T09:26:38.000Z</time>
      </trkpt>
      <trkpt lat="47.84737" lon="1.74141">
        <ele>74.07</ele>
        <time>2016-02-28T09:26:40.000Z</time>
      </trkpt>
      <trkpt lat="47.84733" lon="1.74128">
        <ele>74.07</ele>
        <time>2016-02-28T09:26:42.000Z</time>
      </trkpt>
      <trkpt lat="47.84728" lon="1.74115">
        <ele>74.07</ele>
        <time>2016-02-28T09:26:44.000Z</time>
      </trkpt>
      <trkpt lat="47.84726" lon="1.74103">
        <ele>74.07</ele>
        <time>2016-02-28T09:26:46.000Z</time>
      </trkpt>
      <trkpt lat="47.84724" lon="1.74093">
        <ele>74.07</ele>
        <time>2016-02-28T09:26:48.000Z</time>
      </trkpt>
      <trkpt lat="47.84721" lon="1.74084">
        <ele>71.93</ele>
        <time>2016-02-28T09:26:50.000Z</time>
      </trkpt>
      <trkpt lat="47.84718" lon="1.74077">
        <ele>71.93</ele>
        <time>2016-02-28T09:26:52.000Z</time>
      </trkpt>
      <trkpt lat="47.84714" lon="1.74069">
        <ele>71.93</ele>
        <time>2016-02-28T09:26:54.000Z</time>
      </trkpt>
      <trkpt lat="47.84709" lon="1.74059">
        <ele>71.93</ele>
        <time>2016-02-28T09:26:56.000Z</time>
      </trkpt>
      <trkpt lat="47.84705" lon="1.74049">
        <ele>71.93</ele>
        <time>2016-02-28T09:26:58.000Z</time>
      </trkpt>
      <trkpt lat="47.84702" lon="1.74037">
        <ele>71.93</ele>
        <time>2016-02-28T09:27:00.000Z</time>
      </trkpt>
      <trkpt lat="47.84699" lon="1.74025">
        <ele>71.93</ele>
        <time>2016-02-28T09:27:02.000Z</time>
      </trkpt>
      <trkpt lat="47.84695" lon="1.74013">
        <ele>71.93</ele>
        <time>2016-02-28T09:27:04.000Z</time>
      </trkpt>
      <trkpt lat="47.84691" lon="1.74002">
        <ele>71.93</ele>
        <time>2016-02-28T09:27:06.000Z</time>
      </trkpt>
      <trkpt lat="47.84687" lon="1.73992">
        <ele>71.93</ele>
        <time>2016-02-28T09:27:08.000Z</time>
      </trkpt>
      <trkpt lat="47.84683" lon="1.7398">
        <ele>71.93</ele>
        <time>2016-02-28T09:27:10.000Z</time>
      </trkpt>
      <trkpt lat="47.84681" lon="1.73968">
        <ele>71.93</ele>
        <time>2016-02-28T09:27:12.000Z</time>
      </trkpt>
      <trkpt lat="47.84677" lon="1.73958">
        <ele>71.93</ele>
        <time>2016-02-28T09:27:14.000Z</time>
      </trkpt>
      <trkpt lat="47.84672" lon="1.73947">
        <ele>71.93</ele>
        <time>2016-02-28T09:27:16.000Z</time>
      </trkpt>
      <trkpt lat="47.84668" lon="1.73935">
        <ele>71.93</ele>
        <time>2016-02-28T09:27:18.000Z</time>
      </trkpt>
      <trkpt lat="47.84663" lon="1.73922">
        <ele>73.15</ele>
        <time>2016-02-28T09:27:20.000Z</time>
      </trkpt>
      <trkpt lat="47.84659" lon="1.7391">
        <ele>73.15</ele>
        <time>2016-02-28T09:27:22.000Z</time>
      </trkpt>
      <trkpt lat="47.84655" lon="1.73897">
        <ele>73.15</ele>
        <time>2016-02-28T09:27:24.000Z</time>
      </trkpt>
      <trkpt lat="47.8465" lon="1.73879">
        <ele>73.15</ele>
        <time>2016-02-28T09:27:26.000Z</time>
      </trkpt>
      <trkpt lat="47.84648" lon="1.73874">
        <ele>73.15</ele>
        <time>2016-02-28T09:27:28.000Z</time>
      </trkpt>
      <trkpt lat="47.84644" lon="1.73863">
        <ele>73.15</ele>
        <time>2016-02-28T09:27:30.000Z</time>
      </trkpt>
      <trkpt lat="47.84641" lon="1.73849">
        <ele>73.15</ele>
        <time>2016-02-28T09:27:32.000Z</time>
      </trkpt>
      <trkpt lat="47.84637" lon="1.73836">
        <ele>73.15</ele>
        <time>2016-02-28T09:27:34.000Z</time>
      </trkpt>
      <trkpt lat="47.84633" lon="1.73823">
        <ele>73.15</ele>
        <time>2016-02-28T09:27:36.000Z</time>
      </trkpt>
      <trkpt lat="47.8463" lon="1.7381">
        <ele>73.15</ele>
        <time>2016-02-28T09:27:38.000Z</time>
      </trkpt>
      <trkpt lat="47.84625" lon="1.73794">
        <ele>73.15</ele>
        <time>2016-02-28T09:27:40.000Z</time>
      </trkpt>
      <trkpt lat="47.84622" lon="1.7379">
        <ele>73.15</ele>
        <time>2016-02-28T09:27:42.000Z</time>
      </trkpt>
      <trkpt lat="47.84618" lon="1.73779">
        <ele>73.15</ele>
        <time>2016-02-28T09:27:44.000Z</time>
      </trkpt>
      <trkpt lat="47.84615" lon="1.73768">
        <ele>73.15</ele>
        <time>2016-02-28T09:27:46.000Z</time>
      </trkpt>
      <trkpt lat="47.84612" lon="1.73754">
        <ele>73.15</ele>
        <time>2016-02-28T09:27:48.000Z</time>
      </trkpt>
      <trkpt lat="47.84608" lon="1.73739">
        <ele>73.15</ele>
        <time>2016-02-28T09:27:50.000Z</time>
      </trkpt>
      <trkpt lat="47.84603" lon="1.73724">
        <ele>73.15</ele>
        <time>2016-02-28T09:27:52.000Z</time>
      </trkpt>
      <trkpt lat="47.84598" lon="1.73709">
        <ele>73.15</ele>
        <time>2016-02-28T09:27:54.000Z</time>
      </trkpt>
      <trkpt lat="47.84594" lon="1.73696">
        <ele>73.15</ele>
        <time>2016-02-28T09:27:56.000Z</time>
      </trkpt>
      <trkpt lat="47.84589" lon="1.73685">
        <ele>73.15</ele>
        <time>2016-02-28T09:27:58.000Z</time>
      </trkpt>
      <trkpt lat="47.84583" lon="1.73675">
        <ele>73.15</ele>
        <time>2016-02-28T09:28:00.000Z</time>
      </trkpt>
      <trkpt lat="47.84579" lon="1.73662">
        <ele>73.15</ele>
        <time>2016-02-28T09:28:02.000Z</time>
      </trkpt>
      <trkpt lat="47.84574" lon="1.73653">
        <ele>73.15</ele>
        <time>2016-02-28T09:28:04.000Z</time>
      </trkpt>
      <trkpt lat="47.84571" lon="1.7364">
        <ele>73.15</ele>
        <time>2016-02-28T09:28:06.000Z</time>
      </trkpt>
      <trkpt lat="47.84566" lon="1.73628">
        <ele>73.15</ele>
        <time>2016-02-28T09:28:08.000Z</time>
      </trkpt>
      <trkpt lat="47.8456" lon="1.73617">
        <ele>73.15</ele>
        <time>2016-02-28T09:28:10.000Z</time>
      </trkpt>
      <trkpt lat="47.84555" lon="1.73607">
        <ele>73.15</ele>
        <time>2016-02-28T09:28:12.000Z</time>
      </trkpt>
      <trkpt lat="47.8455" lon="1.73596">
        <ele>73.15</ele>
        <time>2016-02-28T09:28:14.000Z</time>
      </trkpt>
      <trkpt lat="47.84543" lon="1.73587">
        <ele>73.15</ele>
        <time>2016-02-28T09:28:16.000Z</time>
      </trkpt>
      <trkpt lat="47.84535" lon="1.73585">
        <ele>73.15</ele>
        <time>2016-02-28T09:28:18.000Z</time>
      </trkpt>
      <trkpt lat="47.8453" lon="1.73578">
        <ele>73.15</ele>
        <time>2016-02-28T09:28:20.000Z</time>
      </trkpt>
      <trkpt lat="47.8453" lon="1.73565">
        <ele>73.15</ele>
        <time>2016-02-28T09:28:22.000Z</time>
      </trkpt>
      <trkpt lat="47.84527" lon="1.73556">
        <ele>73.15</ele>
        <time>2016-02-28T09:28:24.000Z</time>
      </trkpt>
      <trkpt lat="47.84519" lon="1.7355">
        <ele>73.15</ele>
        <time>2016-02-28T09:28:26.000Z</time>
      </trkpt>
      <trkpt lat="47.84516" lon="1.73539">
        <ele>73.15</ele>
        <time>2016-02-28T09:28:28.000Z</time>
      </trkpt>
      <trkpt lat="47.84514" lon="1.73529">
        <ele>73.15</ele>
        <time>2016-02-28T09:28:30.000Z</time>
      </trkpt>
      <trkpt lat="47.84509" lon="1.73519">
        <ele>73.15</ele>
        <time>2016-02-28T09:28:32.000Z</time>
      </trkpt>
      <trkpt lat="47.84504" lon="1.73507">
        <ele>73.15</ele>
        <time>2016-02-28T09:28:34.000Z</time>
      </trkpt>
      <trkpt lat="47.84499" lon="1.73493">
        <ele>73.15</ele>
        <time>2016-02-28T09:28:36.000Z</time>
      </trkpt>
      <trkpt lat="47.8449" lon="1.73473">
        <ele>73.15</ele>
        <time>2016-02-28T09:28:38.000Z</time>
      </trkpt>
      <trkpt lat="47.84486" lon="1.73466">
        <ele>73.15</ele>
        <time>2016-02-28T09:28:40.000Z</time>
      </trkpt>
      <trkpt lat="47.8448" lon="1.73454">
        <ele>73.15</ele>
        <time>2016-02-28T09:28:42.000Z</time>
      </trkpt>
      <trkpt lat="47.84472" lon="1.73445">
        <ele>73.15</ele>
        <time>2016-02-28T09:28:44.000Z</time>
      </trkpt>
      <trkpt lat="47.84465" lon="1.73435">
        <ele>73.15</ele>
        <time>2016-02-28T09:28:46.000Z</time>
      </trkpt>
      <trkpt lat="47.84459" lon="1.73423">
        <ele>73.15</ele>
        <time>2016-02-28T09:28:48.000Z</time>
      </trkpt>
      <trkpt lat="47.84452" lon="1.73412">
        <ele>73.15</ele>
        <time>2016-02-28T09:28:50.000Z</time>
      </trkpt>
      <trkpt lat="47.84445" lon="1.73404">
        <ele>73.15</ele>
        <time>2016-02-28T09:28:52.000Z</time>
      </trkpt>
      <trkpt lat="47.84442" lon="1.73399">
        <ele>71.93</ele>
        <time>2016-02-28T09:28:54.000Z</time>
      </trkpt>
      <trkpt lat="47.84442" lon="1.73381">
        <ele>71.93</ele>
        <time>2016-02-28T09:28:56.000Z</time>
      </trkpt>
      <trkpt lat="47.84443" lon="1.7337">
        <ele>71.93</ele>
        <time>2016-02-28T09:28:58.000Z</time>
      </trkpt>
      <trkpt lat="47.8444" lon="1.73359">
        <ele>71.93</ele>
        <time>2016-02-28T09:29:00.000Z</time>
      </trkpt>
      <trkpt lat="47.84437" lon="1.73348">
        <ele>71.93</ele>
        <time>2016-02-28T09:29:02.000Z</time>
      </trkpt>
      <trkpt lat="47.84435" lon="1.73336">
        <ele>71.93</ele>
        <time>2016-02-28T09:29:04.000Z</time>
      </trkpt>
      <trkpt lat="47.84425" lon="1.73326">
        <ele>71.93</ele>
        <time>2016-02-28T09:29:06.000Z</time>
      </trkpt>
      <trkpt lat="47.84423" lon="1.73322">
        <ele>71.93</ele>
        <time>2016-02-28T09:29:08.000Z</time>
      </trkpt>
      <trkpt lat="47.84419" lon="1.73313">
        <ele>71.93</ele>
        <time>2016-02-28T09:29:10.000Z</time>
      </trkpt>
      <trkpt lat="47.84415" lon="1.73306">
        <ele>71.93</ele>
        <time>2016-02-28T09:29:12.000Z</time>
      </trkpt>
      <trkpt lat="47.84413" lon="1.73301">
        <ele>71.93</ele>
        <time>2016-02-28T09:29:14.000Z</time>
      </trkpt>
      <trkpt lat="47.8441" lon="1.73296">
        <ele>71.93</ele>
        <time>2016-02-28T09:29:16.000Z</time>
      </trkpt>
      <trkpt lat="47.84408" lon="1.73291">
        <ele>71.93</ele>
        <time>2016-02-28T09:29:18.000Z</time>
      </trkpt>
      <trkpt lat="47.84404" lon="1.73284">
        <ele>71.93</ele>
        <time>2016-02-28T09:29:20.000Z</time>
      </trkpt>
      <trkpt lat="47.84399" lon="1.73274">
        <ele>71.93</ele>
        <time>2016-02-28T09:29:22.000Z</time>
      </trkpt>
      <trkpt lat="47.84393" lon="1.73264">
        <ele>71.93</ele>
        <time>2016-02-28T09:29:24.000Z</time>
      </trkpt>
      <trkpt lat="47.84389" lon="1.73252">
        <ele>71.93</ele>
        <time>2016-02-28T09:29:26.000Z</time>
      </trkpt>
      <trkpt lat="47.84384" lon="1.7324">
        <ele>71.93</ele>
        <time>2016-02-28T09:29:28.000Z</time>
      </trkpt>
      <trkpt lat="47.84377" lon="1.73232">
        <ele>71.93</ele>
        <time>2016-02-28T09:29:30.000Z</time>
      </trkpt>
      <trkpt lat="47.84372" lon="1.7322">
        <ele>71.93</ele>
        <time>2016-02-28T09:29:32.000Z</time>
      </trkpt>
      <trkpt lat="47.84372" lon="1.73205">
        <ele>71.93</ele>
        <time>2016-02-28T09:29:34.000Z</time>
      </trkpt>
      <trkpt lat="47.84366" lon="1.73193">
        <ele>71.93</ele>
        <time>2016-02-28T09:29:36.000Z</time>
      </trkpt>
      <trkpt lat="47.8436" lon="1.73181">
        <ele>71.93</ele>
        <time>2016-02-28T09:29:38.000Z</time>
      </trkpt>
      <trkpt lat="47.84357" lon="1.73168">
        <ele>71.93</ele>
        <time>2016-02-28T09:29:40.000Z</time>
      </trkpt>
      <trkpt lat="47.84355" lon="1.73155">
        <ele>71.93</ele>
        <time>2016-02-28T09:29:42.000Z</time>
      </trkpt>
      <trkpt lat="47.84347" lon="1.73144">
        <ele>71.02</ele>
        <time>2016-02-28T09:29:44.000Z</time>
      </trkpt>
      <trkpt lat="47.84341" lon="1.73132">
        <ele>71.02</ele>
        <time>2016-02-28T09:29:46.000Z</time>
      </trkpt>
      <trkpt lat="47.84337" lon="1.7312">
        <ele>71.02</ele>
        <time>2016-02-28T09:29:48.000Z</time>
      </trkpt>
      <trkpt lat="47.8433" lon="1.73102">
        <ele>71.02</ele>
        <time>2016-02-28T09:29:50.000Z</time>
      </trkpt>
      <trkpt lat="47.84329" lon="1.73096">
        <ele>71.02</ele>
        <time>2016-02-28T09:29:52.000Z</time>
      </trkpt>
      <trkpt lat="47.84323" lon="1.73086">
        <ele>71.02</ele>
        <time>2016-02-28T09:29:54.000Z</time>
      </trkpt>
      <trkpt lat="47.8432" lon="1.73074">
        <ele>71.02</ele>
        <time>2016-02-28T09:29:56.000Z</time>
      </trkpt>
      <trkpt lat="47.84315" lon="1.73063">
        <ele>71.02</ele>
        <time>2016-02-28T09:29:58.000Z</time>
      </trkpt>
      <trkpt lat="47.84308" lon="1.73051">
        <ele>71.02</ele>
        <time>2016-02-28T09:30:00.000Z</time>
      </trkpt>
      <trkpt lat="47.84301" lon="1.7304">
        <ele>71.02</ele>
        <time>2016-02-28T09:30:02.000Z</time>
      </trkpt>
      <trkpt lat="47.84294" lon="1.7303">
        <ele>71.02</ele>
        <time>2016-02-28T09:30:04.000Z</time>
      </trkpt>
      <trkpt lat="47.84289" lon="1.73017">
        <ele>71.02</ele>
        <time>2016-02-28T09:30:06.000Z</time>
      </trkpt>
      <trkpt lat="47.84283" lon="1.73005">
        <ele>71.02</ele>
        <time>2016-02-28T09:30:08.000Z</time>
      </trkpt>
      <trkpt lat="47.84273" lon="1.72997">
        <ele>71.02</ele>
        <time>2016-02-28T09:30:10.000Z</time>
      </trkpt>
      <trkpt lat="47.84262" lon="1.72988">
        <ele>71.02</ele>
        <time>2016-02-28T09:30:12.000Z</time>
      </trkpt>
      <trkpt lat="47.84253" lon="1.72976">
        <ele>71.02</ele>
        <time>2016-02-28T09:30:14.000Z</time>
      </trkpt>
      <trkpt lat="47.84246" lon="1.72963">
        <ele>71.02</ele>
        <time>2016-02-28T09:30:16.000Z</time>
      </trkpt>
      <trkpt lat="47.84238" lon="1.72952">
        <ele>71.02</ele>
        <time>2016-02-28T09:30:18.000Z</time>
      </trkpt>
      <trkpt lat="47.84229" lon="1.72941">
        <ele>71.02</ele>
        <time>2016-02-28T09:30:20.000Z</time>
      </trkpt>
      <trkpt lat="47.84223" lon="1.72928">
        <ele>71.02</ele>
        <time>2016-02-28T09:30:22.000Z</time>
      </trkpt>
      <trkpt lat="47.8422" lon="1.72916">
        <ele>71.02</ele>
        <time>2016-02-28T09:30:24.000Z</time>
      </trkpt>
      <trkpt lat="47.84213" lon="1.7291">
        <ele>71.02</ele>
        <time>2016-02-28T09:30:26.000Z</time>
      </trkpt>
      <trkpt lat="47.84205" lon="1.72903">
        <ele>71.02</ele>
        <time>2016-02-28T09:30:28.000Z</time>
      </trkpt>
      <trkpt lat="47.84199" lon="1.72892">
        <ele>71.02</ele>
        <time>2016-02-28T09:30:30.000Z</time>
      </trkpt>
      <trkpt lat="47.84192" lon="1.7288">
        <ele>71.02</ele>
        <time>2016-02-28T09:30:32.000Z</time>
      </trkpt>
      <trkpt lat="47.84184" lon="1.7287">
        <ele>71.02</ele>
        <time>2016-02-28T09:30:34.000Z</time>
      </trkpt>
      <trkpt lat="47.84175" lon="1.7286">
        <ele>71.02</ele>
        <time>2016-02-28T09:30:36.000Z</time>
      </trkpt>
      <trkpt lat="47.84169" lon="1.7285">
        <ele>71.02</ele>
        <time>2016-02-28T09:30:38.000Z</time>
      </trkpt>
      <trkpt lat="47.84159" lon="1.72844">
        <ele>71.02</ele>
        <time>2016-02-28T09:30:40.000Z</time>
      </trkpt>
      <trkpt lat="47.84152" lon="1.72835">
        <ele>71.02</ele>
        <time>2016-02-28T09:30:42.000Z</time>
      </trkpt>
      <trkpt lat="47.84146" lon="1.72825">
        <ele>71.02</ele>
        <time>2016-02-28T09:30:44.000Z</time>
      </trkpt>
      <trkpt lat="47.8414" lon="1.72805">
        <ele>71.02</ele>
        <time>2016-02-28T09:30:46.000Z</time>
      </trkpt>
      <trkpt lat="47.84138" lon="1.72797">
        <ele>71.02</ele>
        <time>2016-02-28T09:30:48.000Z</time>
      </trkpt>
      <trkpt lat="47.84133" lon="1.72782">
        <ele>70.1</ele>
        <time>2016-02-28T09:30:50.000Z</time>
      </trkpt>
      <trkpt lat="47.84123" lon="1.72774">
        <ele>70.1</ele>
        <time>2016-02-28T09:30:52.000Z</time>
      </trkpt>
      <trkpt lat="47.84115" lon="1.72765">
        <ele>70.1</ele>
        <time>2016-02-28T09:30:54.000Z</time>
      </trkpt>
      <trkpt lat="47.84108" lon="1.72753">
        <ele>70.1</ele>
        <time>2016-02-28T09:30:56.000Z</time>
      </trkpt>
      <trkpt lat="47.841" lon="1.72745">
        <ele>70.1</ele>
        <time>2016-02-28T09:30:58.000Z</time>
      </trkpt>
      <trkpt lat="47.84091" lon="1.72737">
        <ele>70.1</ele>
        <time>2016-02-28T09:31:00.000Z</time>
      </trkpt>
      <trkpt lat="47.84083" lon="1.72728">
        <ele>70.1</ele>
        <time>2016-02-28T09:31:02.000Z</time>
      </trkpt>
      <trkpt lat="47.84076" lon="1.72718">
        <ele>68.88</ele>
        <time>2016-02-28T09:31:04.000Z</time>
      </trkpt>
      <trkpt lat="47.84074" lon="1.72707">
        <ele>68.88</ele>
        <time>2016-02-28T09:31:06.000Z</time>
      </trkpt>
      <trkpt lat="47.84073" lon="1.72696">
        <ele>68.88</ele>
        <time>2016-02-28T09:31:08.000Z</time>
      </trkpt>
      <trkpt lat="47.8407" lon="1.72687">
        <ele>68.88</ele>
        <time>2016-02-28T09:31:10.000Z</time>
      </trkpt>
      <trkpt lat="47.84064" lon="1.72681">
        <ele>68.88</ele>
        <time>2016-02-28T09:31:12.000Z</time>
      </trkpt>
      <trkpt lat="47.84059" lon="1.72674">
        <ele>67.97</ele>
        <time>2016-02-28T09:31:14.000Z</time>
      </trkpt>
      <trkpt lat="47.84053" lon="1.72665">
        <ele>67.97</ele>
        <time>2016-02-28T09:31:16.000Z</time>
      </trkpt>
      <trkpt lat="47.84049" lon="1.72655">
        <ele>67.97</ele>
        <time>2016-02-28T09:31:18.000Z</time>
      </trkpt>
      <trkpt lat="47.84042" lon="1.72645">
        <ele>67.97</ele>
        <time>2016-02-28T09:31:20.000Z</time>
      </trkpt>
      <trkpt lat="47.84035" lon="1.72636">
        <ele>67.97</ele>
        <time>2016-02-28T09:31:22.000Z</time>
      </trkpt>
      <trkpt lat="47.8403" lon="1.72628">
        <ele>67.97</ele>
        <time>2016-02-28T09:31:24.000Z</time>
      </trkpt>
      <trkpt lat="47.84025" lon="1.72622">
        <ele>67.97</ele>
        <time>2016-02-28T09:31:26.000Z</time>
      </trkpt>
      <trkpt lat="47.84017" lon="1.72623">
        <ele>67.97</ele>
        <time>2016-02-28T09:31:28.000Z</time>
      </trkpt>
      <trkpt lat="47.8401" lon="1.72624">
        <ele>67.97</ele>
        <time>2016-02-28T09:31:30.000Z</time>
      </trkpt>
      <trkpt lat="47.84006" lon="1.72617">
        <ele>67.97</ele>
        <time>2016-02-28T09:31:32.000Z</time>
      </trkpt>
      <trkpt lat="47.84003" lon="1.7261">
        <ele>70.1</ele>
        <time>2016-02-28T09:31:34.000Z</time>
      </trkpt>
      <trkpt lat="47.83995" lon="1.7261">
        <ele>70.1</ele>
        <time>2016-02-28T09:31:36.000Z</time>
      </trkpt>
      <trkpt lat="47.83986" lon="1.72614">
        <ele>70.1</ele>
        <time>2016-02-28T09:31:38.000Z</time>
      </trkpt>
      <trkpt lat="47.83977" lon="1.72607">
        <ele>70.1</ele>
        <time>2016-02-28T09:31:40.000Z</time>
      </trkpt>
      <trkpt lat="47.8397" lon="1.72597">
        <ele>70.1</ele>
        <time>2016-02-28T09:31:42.000Z</time>
      </trkpt>
      <trkpt lat="47.83964" lon="1.72586">
        <ele>68.88</ele>
        <time>2016-02-28T09:31:44.000Z</time>
      </trkpt>
      <trkpt lat="47.83962" lon="1.72575">
        <ele>68.88</ele>
        <time>2016-02-28T09:31:46.000Z</time>
      </trkpt>
      <trkpt lat="47.83957" lon="1.72568">
        <ele>68.88</ele>
        <time>2016-02-28T09:31:48.000Z</time>
      </trkpt>
      <trkpt lat="47.83951" lon="1.72561">
        <ele>68.88</ele>
        <time>2016-02-28T09:31:50.000Z</time>
      </trkpt>
      <trkpt lat="47.83945" lon="1.72554">
        <ele>68.88</ele>
        <time>2016-02-28T09:31:52.000Z</time>
      </trkpt>
      <trkpt lat="47.83938" lon="1.72552">
        <ele>68.88</ele>
        <time>2016-02-28T09:31:54.000Z</time>
      </trkpt>
      <trkpt lat="47.83932" lon="1.72543">
        <ele>68.88</ele>
        <time>2016-02-28T09:31:56.000Z</time>
      </trkpt>
      <trkpt lat="47.83927" lon="1.72533">
        <ele>68.88</ele>
        <time>2016-02-28T09:31:58.000Z</time>
      </trkpt>
      <trkpt lat="47.83919" lon="1.72528">
        <ele>68.88</ele>
        <time>2016-02-28T09:32:00.000Z</time>
      </trkpt>
      <trkpt lat="47.83912" lon="1.72524">
        <ele>68.88</ele>
        <time>2016-02-28T09:32:02.000Z</time>
      </trkpt>
      <trkpt lat="47.83906" lon="1.72515">
        <ele>70.1</ele>
        <time>2016-02-28T09:32:04.000Z</time>
      </trkpt>
      <trkpt lat="47.83901" lon="1.72503">
        <ele>70.1</ele>
        <time>2016-02-28T09:32:06.000Z</time>
      </trkpt>
      <trkpt lat="47.83896" lon="1.7249">
        <ele>70.1</ele>
        <time>2016-02-28T09:32:08.000Z</time>
      </trkpt>
      <trkpt lat="47.8389" lon="1.7248">
        <ele>70.1</ele>
        <time>2016-02-28T09:32:10.000Z</time>
      </trkpt>
      <trkpt lat="47.83884" lon="1.72472">
        <ele>70.1</ele>
        <time>2016-02-28T09:32:12.000Z</time>
      </trkpt>
      <trkpt lat="47.83878" lon="1.72466">
        <ele>70.1</ele>
        <time>2016-02-28T09:32:14.000Z</time>
      </trkpt>
      <trkpt lat="47.83871" lon="1.72464">
        <ele>70.1</ele>
        <time>2016-02-28T09:32:16.000Z</time>
      </trkpt>
      <trkpt lat="47.83865" lon="1.72463">
        <ele>70.1</ele>
        <time>2016-02-28T09:32:18.000Z</time>
      </trkpt>
      <trkpt lat="47.83859" lon="1.72462">
        <ele>70.1</ele>
        <time>2016-02-28T09:32:20.000Z</time>
      </trkpt>
      <trkpt lat="47.83853" lon="1.72463">
        <ele>70.1</ele>
        <time>2016-02-28T09:32:22.000Z</time>
      </trkpt>
      <trkpt lat="47.83846" lon="1.72464">
        <ele>71.02</ele>
        <time>2016-02-28T09:32:24.000Z</time>
      </trkpt>
      <trkpt lat="47.8384" lon="1.72465">
        <ele>71.02</ele>
        <time>2016-02-28T09:32:26.000Z</time>
      </trkpt>
      <trkpt lat="47.83834" lon="1.72466">
        <ele>71.02</ele>
        <time>2016-02-28T09:32:28.000Z</time>
      </trkpt>
      <trkpt lat="47.83827" lon="1.72465">
        <ele>71.93</ele>
        <time>2016-02-28T09:32:30.000Z</time>
      </trkpt>
      <trkpt lat="47.83822" lon="1.72459">
        <ele>71.93</ele>
        <time>2016-02-28T09:32:32.000Z</time>
      </trkpt>
      <trkpt lat="47.83818" lon="1.72452">
        <ele>71.93</ele>
        <time>2016-02-28T09:32:34.000Z</time>
      </trkpt>
      <trkpt lat="47.83815" lon="1.72442">
        <ele>71.93</ele>
        <time>2016-02-28T09:32:36.000Z</time>
      </trkpt>
      <trkpt lat="47.83814" lon="1.72431">
        <ele>71.93</ele>
        <time>2016-02-28T09:32:38.000Z</time>
      </trkpt>
      <trkpt lat="47.83809" lon="1.72421">
        <ele>71.02</ele>
        <time>2016-02-28T09:32:40.000Z</time>
      </trkpt>
      <trkpt lat="47.838" lon="1.72404">
        <ele>71.02</ele>
        <time>2016-02-28T09:32:42.000Z</time>
      </trkpt>
      <trkpt lat="47.83797" lon="1.72398">
        <ele>71.02</ele>
        <time>2016-02-28T09:32:44.000Z</time>
      </trkpt>
      <trkpt lat="47.8379" lon="1.72387">
        <ele>71.02</ele>
        <time>2016-02-28T09:32:46.000Z</time>
      </trkpt>
      <trkpt lat="47.83783" lon="1.7238">
        <ele>71.02</ele>
        <time>2016-02-28T09:32:48.000Z</time>
      </trkpt>
      <trkpt lat="47.83777" lon="1.72373">
        <ele>71.02</ele>
        <time>2016-02-28T09:32:50.000Z</time>
      </trkpt>
      <trkpt lat="47.8377" lon="1.72368">
        <ele>71.02</ele>
        <time>2016-02-28T09:32:52.000Z</time>
      </trkpt>
      <trkpt lat="47.8376" lon="1.72359">
        <ele>71.02</ele>
        <time>2016-02-28T09:32:54.000Z</time>
      </trkpt>
      <trkpt lat="47.83753" lon="1.72353">
        <ele>71.02</ele>
        <time>2016-02-28T09:32:56.000Z</time>
      </trkpt>
      <trkpt lat="47.83749" lon="1.72349">
        <ele>71.02</ele>
        <time>2016-02-28T09:32:58.000Z</time>
      </trkpt>
      <trkpt lat="47.83743" lon="1.7234">
        <ele>70.1</ele>
        <time>2016-02-28T09:33:00.000Z</time>
      </trkpt>
      <trkpt lat="47.83738" lon="1.7233">
        <ele>70.1</ele>
        <time>2016-02-28T09:33:02.000Z</time>
      </trkpt>
      <trkpt lat="47.83732" lon="1.72321">
        <ele>70.1</ele>
        <time>2016-02-28T09:33:04.000Z</time>
      </trkpt>
      <trkpt lat="47.83727" lon="1.7231">
        <ele>70.1</ele>
        <time>2016-02-28T09:33:06.000Z</time>
      </trkpt>
      <trkpt lat="47.83722" lon="1.723">
        <ele>70.1</ele>
        <time>2016-02-28T09:33:08.000Z</time>
      </trkpt>
      <trkpt lat="47.83711" lon="1.72292">
        <ele>70.1</ele>
        <time>2016-02-28T09:33:10.000Z</time>
      </trkpt>
      <trkpt lat="47.83708" lon="1.72291">
        <ele>70.1</ele>
        <time>2016-02-28T09:33:12.000Z</time>
      </trkpt>
      <trkpt lat="47.83701" lon="1.72288">
        <ele>70.1</ele>
        <time>2016-02-28T09:33:14.000Z</time>
      </trkpt>
      <trkpt lat="47.83693" lon="1.72286">
        <ele>71.02</ele>
        <time>2016-02-28T09:33:16.000Z</time>
      </trkpt>
      <trkpt lat="47.83685" lon="1.72282">
        <ele>71.02</ele>
        <time>2016-02-28T09:33:18.000Z</time>
      </trkpt>
      <trkpt lat="47.83677" lon="1.72275">
        <ele>71.02</ele>
        <time>2016-02-28T09:33:20.000Z</time>
      </trkpt>
      <trkpt lat="47.8367" lon="1.72269">
        <ele>71.02</ele>
        <time>2016-02-28T09:33:22.000Z</time>
      </trkpt>
      <trkpt lat="47.83659" lon="1.72259">
        <ele>71.02</ele>
        <time>2016-02-28T09:33:24.000Z</time>
      </trkpt>
      <trkpt lat="47.83656" lon="1.72256">
        <ele>71.02</ele>
        <time>2016-02-28T09:33:26.000Z</time>
      </trkpt>
      <trkpt lat="47.8365" lon="1.7225">
        <ele>71.02</ele>
        <time>2016-02-28T09:33:28.000Z</time>
      </trkpt>
      <trkpt lat="47.83643" lon="1.72245">
        <ele>71.02</ele>
        <time>2016-02-28T09:33:30.000Z</time>
      </trkpt>
      <trkpt lat="47.83636" lon="1.72239">
        <ele>71.02</ele>
        <time>2016-02-28T09:33:32.000Z</time>
      </trkpt>
      <trkpt lat="47.83629" lon="1.72232">
        <ele>71.02</ele>
        <time>2016-02-28T09:33:34.000Z</time>
      </trkpt>
      <trkpt lat="47.83623" lon="1.72228">
        <ele>71.02</ele>
        <time>2016-02-28T09:33:36.000Z</time>
      </trkpt>
      <trkpt lat="47.83617" lon="1.72224">
        <ele>71.02</ele>
        <time>2016-02-28T09:33:38.000Z</time>
      </trkpt>
      <trkpt lat="47.83611" lon="1.72219">
        <ele>71.02</ele>
        <time>2016-02-28T09:33:40.000Z</time>
      </trkpt>
      <trkpt lat="47.83606" lon="1.72214">
        <ele>71.02</ele>
        <time>2016-02-28T09:33:42.000Z</time>
      </trkpt>
      <trkpt lat="47.83602" lon="1.72208">
        <ele>71.02</ele>
        <time>2016-02-28T09:33:44.000Z</time>
      </trkpt>
      <trkpt lat="47.83599" lon="1.72203">
        <ele>71.02</ele>
        <time>2016-02-28T09:33:46.000Z</time>
      </trkpt>
      <trkpt lat="47.83596" lon="1.72197">
        <ele>71.02</ele>
        <time>2016-02-28T09:33:48.000Z</time>
      </trkpt>
      <trkpt lat="47.83592" lon="1.72192">
        <ele>71.02</ele>
        <time>2016-02-28T09:33:50.000Z</time>
      </trkpt>
      <trkpt lat="47.83588" lon="1.72187">
        <ele>71.02</ele>
        <time>2016-02-28T09:33:52.000Z</time>
      </trkpt>
      <trkpt lat="47.83582" lon="1.72179">
        <ele>71.02</ele>
        <time>2016-02-28T09:33:54.000Z</time>
      </trkpt>
      <trkpt lat="47.83579" lon="1.72177">
        <ele>71.02</ele>
        <time>2016-02-28T09:33:56.000Z</time>
      </trkpt>
      <trkpt lat="47.83575" lon="1.72172">
        <ele>71.02</ele>
        <time>2016-02-28T09:33:58.000Z</time>
      </trkpt>
      <trkpt lat="47.83571" lon="1.72167">
        <ele>71.02</ele>
        <time>2016-02-28T09:34:00.000Z</time>
      </trkpt>
      <trkpt lat="47.83567" lon="1.72163">
        <ele>71.02</ele>
        <time>2016-02-28T09:34:02.000Z</time>
      </trkpt>
      <trkpt lat="47.83562" lon="1.72162">
        <ele>71.02</ele>
        <time>2016-02-28T09:34:04.000Z</time>
      </trkpt>
      <trkpt lat="47.83555" lon="1.72167">
        <ele>71.02</ele>
        <time>2016-02-28T09:34:06.000Z</time>
      </trkpt>
      <trkpt lat="47.83551" lon="1.72173">
        <ele>71.02</ele>
        <time>2016-02-28T09:34:08.000Z</time>
      </trkpt>
      <trkpt lat="47.83549" lon="1.72176">
        <ele>71.02</ele>
        <time>2016-02-28T09:34:10.000Z</time>
      </trkpt>
      <trkpt lat="47.83546" lon="1.72179">
        <ele>71.02</ele>
        <time>2016-02-28T09:34:12.000Z</time>
      </trkpt>
      <trkpt lat="47.83542" lon="1.72177">
        <ele>71.02</ele>
        <time>2016-02-28T09:34:14.000Z</time>
      </trkpt>
      <trkpt lat="47.83539" lon="1.72172">
        <ele>71.93</ele>
        <time>2016-02-28T09:34:16.000Z</time>
      </trkpt>
      <trkpt lat="47.83537" lon="1.72165">
        <ele>71.93</ele>
        <time>2016-02-28T09:34:18.000Z</time>
      </trkpt>
      <trkpt lat="47.83536" lon="1.72157">
        <ele>71.93</ele>
        <time>2016-02-28T09:34:20.000Z</time>
      </trkpt>
      <trkpt lat="47.83534" lon="1.7215">
        <ele>71.93</ele>
        <time>2016-02-28T09:34:22.000Z</time>
      </trkpt>
      <trkpt lat="47.83533" lon="1.72143">
        <ele>71.93</ele>
        <time>2016-02-28T09:34:24.000Z</time>
      </trkpt>
      <trkpt lat="47.83531" lon="1.72135">
        <ele>71.93</ele>
        <time>2016-02-28T09:34:26.000Z</time>
      </trkpt>
      <trkpt lat="47.8353" lon="1.72128">
        <ele>71.93</ele>
        <time>2016-02-28T09:34:28.000Z</time>
      </trkpt>
      <trkpt lat="47.83528" lon="1.72122">
        <ele>73.15</ele>
        <time>2016-02-28T09:34:30.000Z</time>
      </trkpt>
      <trkpt lat="47.83527" lon="1.72117">
        <ele>73.15</ele>
        <time>2016-02-28T09:34:32.000Z</time>
      </trkpt>
      <trkpt lat="47.83526" lon="1.72112">
        <ele>73.15</ele>
        <time>2016-02-28T09:34:34.000Z</time>
      </trkpt>
      <trkpt lat="47.83524" lon="1.72107">
        <ele>73.15</ele>
        <time>2016-02-28T09:34:36.000Z</time>
      </trkpt>
      <trkpt lat="47.83522" lon="1.72103">
        <ele>73.15</ele>
        <time>2016-02-28T09:34:38.000Z</time>
      </trkpt>
      <trkpt lat="47.83521" lon="1.72098">
        <ele>73.15</ele>
        <time>2016-02-28T09:34:40.000Z</time>
      </trkpt>
      <trkpt lat="47.83519" lon="1.72092">
        <ele>73.15</ele>
        <time>2016-02-28T09:34:42.000Z</time>
      </trkpt>
      <trkpt lat="47.83517" lon="1.72088">
        <ele>73.15</ele>
        <time>2016-02-28T09:34:44.000Z</time>
      </trkpt>
      <trkpt lat="47.83515" lon="1.72083">
        <ele>73.15</ele>
        <time>2016-02-28T09:34:46.000Z</time>
      </trkpt>
      <trkpt lat="47.83514" lon="1.72078">
        <ele>73.15</ele>
        <time>2016-02-28T09:34:48.000Z</time>
      </trkpt>
      <trkpt lat="47.83511" lon="1.72071">
        <ele>73.15</ele>
        <time>2016-02-28T09:34:50.000Z</time>
      </trkpt>
      <trkpt lat="47.83507" lon="1.72063">
        <ele>73.15</ele>
        <time>2016-02-28T09:34:52.000Z</time>
      </trkpt>
      <trkpt lat="47.83504" lon="1.72055">
        <ele>73.15</ele>
        <time>2016-02-28T09:34:54.000Z</time>
      </trkpt>
      <trkpt lat="47.83499" lon="1.72046">
        <ele>73.15</ele>
        <time>2016-02-28T09:34:56.000Z</time>
      </trkpt>
      <trkpt lat="47.83495" lon="1.72038">
        <ele>73.15</ele>
        <time>2016-02-28T09:34:58.000Z</time>
      </trkpt>
      <trkpt lat="47.83491" lon="1.7203">
        <ele>71.93</ele>
        <time>2016-02-28T09:35:00.000Z</time>
      </trkpt>
      <trkpt lat="47.83487" lon="1.72022">
        <ele>71.93</ele>
        <time>2016-02-28T09:35:02.000Z</time>
      </trkpt>
      <trkpt lat="47.83481" lon="1.72011">
        <ele>71.93</ele>
        <time>2016-02-28T09:35:04.000Z</time>
      </trkpt>
      <trkpt lat="47.83479" lon="1.72008">
        <ele>71.93</ele>
        <time>2016-02-28T09:35:06.000Z</time>
      </trkpt>
      <trkpt lat="47.83475" lon="1.72001">
        <ele>71.93</ele>
        <time>2016-02-28T09:35:08.000Z</time>
      </trkpt>
      <trkpt lat="47.83471" lon="1.71994">
        <ele>71.93</ele>
        <time>2016-02-28T09:35:10.000Z</time>
      </trkpt>
      <trkpt lat="47.83467" lon="1.71986">
        <ele>71.93</ele>
        <time>2016-02-28T09:35:12.000Z</time>
      </trkpt>
      <trkpt lat="47.83462" lon="1.71979">
        <ele>71.93</ele>
        <time>2016-02-28T09:35:14.000Z</time>
      </trkpt>
      <trkpt lat="47.83458" lon="1.71972">
        <ele>71.93</ele>
        <time>2016-02-28T09:35:16.000Z</time>
      </trkpt>
      <trkpt lat="47.83454" lon="1.71965">
        <ele>71.93</ele>
        <time>2016-02-28T09:35:18.000Z</time>
      </trkpt>
      <trkpt lat="47.8345" lon="1.71958">
        <ele>71.93</ele>
        <time>2016-02-28T09:35:20.000Z</time>
      </trkpt>
      <trkpt lat="47.83446" lon="1.71951">
        <ele>71.93</ele>
        <time>2016-02-28T09:35:22.000Z</time>
      </trkpt>
      <trkpt lat="47.83442" lon="1.71943">
        <ele>71.93</ele>
        <time>2016-02-28T09:35:24.000Z</time>
      </trkpt>
      <trkpt lat="47.83438" lon="1.71936">
        <ele>71.93</ele>
        <time>2016-02-28T09:35:26.000Z</time>
      </trkpt>
      <trkpt lat="47.83433" lon="1.71928">
        <ele>71.93</ele>
        <time>2016-02-28T09:35:28.000Z</time>
      </trkpt>
      <trkpt lat="47.83428" lon="1.7192">
        <ele>71.93</ele>
        <time>2016-02-28T09:35:30.000Z</time>
      </trkpt>
      <trkpt lat="47.83421" lon="1.71908">
        <ele>71.93</ele>
        <time>2016-02-28T09:35:32.000Z</time>
      </trkpt>
      <trkpt lat="47.83418" lon="1.71904">
        <ele>71.93</ele>
        <time>2016-02-28T09:35:34.000Z</time>
      </trkpt>
      <trkpt lat="47.83413" lon="1.71896">
        <ele>71.93</ele>
        <time>2016-02-28T09:35:36.000Z</time>
      </trkpt>
      <trkpt lat="47.83408" lon="1.71887">
        <ele>71.93</ele>
        <time>2016-02-28T09:35:38.000Z</time>
      </trkpt>
      <trkpt lat="47.83402" lon="1.71879">
        <ele>71.93</ele>
        <time>2016-02-28T09:35:40.000Z</time>
      </trkpt>
      <trkpt lat="47.83397" lon="1.71871">
        <ele>71.93</ele>
        <time>2016-02-28T09:35:42.000Z</time>
      </trkpt>
      <trkpt lat="47.83392" lon="1.71864">
        <ele>71.93</ele>
        <time>2016-02-28T09:35:44.000Z</time>
      </trkpt>
      <trkpt lat="47.83384" lon="1.71853">
        <ele>71.93</ele>
        <time>2016-02-28T09:35:46.000Z</time>
      </trkpt>
      <trkpt lat="47.83381" lon="1.7185">
        <ele>71.93</ele>
        <time>2016-02-28T09:35:48.000Z</time>
      </trkpt>
      <trkpt lat="47.83376" lon="1.71842">
        <ele>71.93</ele>
        <time>2016-02-28T09:35:50.000Z</time>
      </trkpt>
      <trkpt lat="47.8337" lon="1.71834">
        <ele>71.93</ele>
        <time>2016-02-28T09:35:52.000Z</time>
      </trkpt>
      <trkpt lat="47.83365" lon="1.71827">
        <ele>71.93</ele>
        <time>2016-02-28T09:35:54.000Z</time>
      </trkpt>
      <trkpt lat="47.83359" lon="1.71819">
        <ele>71.93</ele>
        <time>2016-02-28T09:35:56.000Z</time>
      </trkpt>
      <trkpt lat="47.83353" lon="1.71811">
        <ele>71.93</ele>
        <time>2016-02-28T09:35:58.000Z</time>
      </trkpt>
      <trkpt lat="47.83348" lon="1.71803">
        <ele>71.93</ele>
        <time>2016-02-28T09:36:00.000Z</time>
      </trkpt>
      <trkpt lat="47.83342" lon="1.71795">
        <ele>71.93</ele>
        <time>2016-02-28T09:36:02.000Z</time>
      </trkpt>
      <trkpt lat="47.83337" lon="1.71787">
        <ele>71.93</ele>
        <time>2016-02-28T09:36:04.000Z</time>
      </trkpt>
      <trkpt lat="47.83331" lon="1.71779">
        <ele>71.93</ele>
        <time>2016-02-28T09:36:06.000Z</time>
      </trkpt>
      <trkpt lat="47.83326" lon="1.71771">
        <ele>71.93</ele>
        <time>2016-02-28T09:36:08.000Z</time>
      </trkpt>
      <trkpt lat="47.83321" lon="1.71763">
        <ele>71.93</ele>
        <time>2016-02-28T09:36:10.000Z</time>
      </trkpt>
      <trkpt lat="47.83315" lon="1.71756">
        <ele>71.93</ele>
        <time>2016-02-28T09:36:12.000Z</time>
      </trkpt>
      <trkpt lat="47.83309" lon="1.71749">
        <ele>71.93</ele>
        <time>2016-02-28T09:36:14.000Z</time>
      </trkpt>
      <trkpt lat="47.83304" lon="1.71741">
        <ele>71.93</ele>
        <time>2016-02-28T09:36:16.000Z</time>
      </trkpt>
      <trkpt lat="47.83298" lon="1.71734">
        <ele>71.93</ele>
        <time>2016-02-28T09:36:18.000Z</time>
      </trkpt>
      <trkpt lat="47.83292" lon="1.71725">
        <ele>71.93</ele>
        <time>2016-02-28T09:36:20.000Z</time>
      </trkpt>
      <trkpt lat="47.83286" lon="1.71717">
        <ele>71.93</ele>
        <time>2016-02-28T09:36:22.000Z</time>
      </trkpt>
      <trkpt lat="47.83281" lon="1.71708">
        <ele>71.93</ele>
        <time>2016-02-28T09:36:24.000Z</time>
      </trkpt>
      <trkpt lat="47.83276" lon="1.71698">
        <ele>71.93</ele>
        <time>2016-02-28T09:36:26.000Z</time>
      </trkpt>
      <trkpt lat="47.83271" lon="1.71689">
        <ele>71.93</ele>
        <time>2016-02-28T09:36:28.000Z</time>
      </trkpt>
      <trkpt lat="47.83264" lon="1.71674">
        <ele>71.93</ele>
        <time>2016-02-28T09:36:30.000Z</time>
      </trkpt>
      <trkpt lat="47.83261" lon="1.71669">
        <ele>71.93</ele>
        <time>2016-02-28T09:36:32.000Z</time>
      </trkpt>
      <trkpt lat="47.83257" lon="1.71659">
        <ele>71.93</ele>
        <time>2016-02-28T09:36:34.000Z</time>
      </trkpt>
      <trkpt lat="47.83252" lon="1.71648">
        <ele>71.93</ele>
        <time>2016-02-28T09:36:36.000Z</time>
      </trkpt>
      <trkpt lat="47.83249" lon="1.71638">
        <ele>71.93</ele>
        <time>2016-02-28T09:36:38.000Z</time>
      </trkpt>
      <trkpt lat="47.83246" lon="1.71627">
        <ele>71.93</ele>
        <time>2016-02-28T09:36:40.000Z</time>
      </trkpt>
      <trkpt lat="47.83245" lon="1.71615">
        <ele>71.93</ele>
        <time>2016-02-28T09:36:42.000Z</time>
      </trkpt>
      <trkpt lat="47.83246" lon="1.71602">
        <ele>71.93</ele>
        <time>2016-02-28T09:36:44.000Z</time>
      </trkpt>
      <trkpt lat="47.83247" lon="1.7159">
        <ele>73.15</ele>
        <time>2016-02-28T09:36:46.000Z</time>
      </trkpt>
      <trkpt lat="47.83249" lon="1.71578">
        <ele>73.15</ele>
        <time>2016-02-28T09:36:48.000Z</time>
      </trkpt>
      <trkpt lat="47.8325" lon="1.71566">
        <ele>73.15</ele>
        <time>2016-02-28T09:36:50.000Z</time>
      </trkpt>
      <trkpt lat="47.83251" lon="1.71552">
        <ele>73.15</ele>
        <time>2016-02-28T09:36:52.000Z</time>
      </trkpt>
      <trkpt lat="47.8325" lon="1.71539">
        <ele>73.15</ele>
        <time>2016-02-28T09:36:54.000Z</time>
      </trkpt>
      <trkpt lat="47.83247" lon="1.71527">
        <ele>73.15</ele>
        <time>2016-02-28T09:36:56.000Z</time>
      </trkpt>
      <trkpt lat="47.83241" lon="1.71517">
        <ele>73.15</ele>
        <time>2016-02-28T09:36:58.000Z</time>
      </trkpt>
      <trkpt lat="47.83233" lon="1.7151">
        <ele>73.15</ele>
        <time>2016-02-28T09:37:00.000Z</time>
      </trkpt>
      <trkpt lat="47.83224" lon="1.71503">
        <ele>73.15</ele>
        <time>2016-02-28T09:37:02.000Z</time>
      </trkpt>
      <trkpt lat="47.83216" lon="1.71497">
        <ele>73.15</ele>
        <time>2016-02-28T09:37:04.000Z</time>
      </trkpt>
      <trkpt lat="47.83209" lon="1.71489">
        <ele>73.15</ele>
        <time>2016-02-28T09:37:06.000Z</time>
      </trkpt>
      <trkpt lat="47.83201" lon="1.71481">
        <ele>73.15</ele>
        <time>2016-02-28T09:37:08.000Z</time>
      </trkpt>
      <trkpt lat="47.83194" lon="1.71473">
        <ele>73.15</ele>
        <time>2016-02-28T09:37:10.000Z</time>
      </trkpt>
      <trkpt lat="47.83184" lon="1.7146">
        <ele>71.93</ele>
        <time>2016-02-28T09:37:12.000Z</time>
      </trkpt>
      <trkpt lat="47.83177" lon="1.71451">
        <ele>71.93</ele>
        <time>2016-02-28T09:37:14.000Z</time>
      </trkpt>
      <trkpt lat="47.83173" lon="1.71446">
        <ele>71.93</ele>
        <time>2016-02-28T09:37:16.000Z</time>
      </trkpt>
      <trkpt lat="47.83165" lon="1.71438">
        <ele>71.93</ele>
        <time>2016-02-28T09:37:18.000Z</time>
      </trkpt>
      <trkpt lat="47.83158" lon="1.7143">
        <ele>71.93</ele>
        <time>2016-02-28T09:37:20.000Z</time>
      </trkpt>
      <trkpt lat="47.8315" lon="1.71422">
        <ele>71.93</ele>
        <time>2016-02-28T09:37:22.000Z</time>
      </trkpt>
      <trkpt lat="47.83142" lon="1.71414">
        <ele>71.93</ele>
        <time>2016-02-28T09:37:24.000Z</time>
      </trkpt>
      <trkpt lat="47.8313" lon="1.71402">
        <ele>71.93</ele>
        <time>2016-02-28T09:37:26.000Z</time>
      </trkpt>
      <trkpt lat="47.83126" lon="1.71397">
        <ele>71.93</ele>
        <time>2016-02-28T09:37:28.000Z</time>
      </trkpt>
      <trkpt lat="47.83119" lon="1.71388">
        <ele>71.93</ele>
        <time>2016-02-28T09:37:30.000Z</time>
      </trkpt>
      <trkpt lat="47.83112" lon="1.71378">
        <ele>71.93</ele>
        <time>2016-02-28T09:37:32.000Z</time>
      </trkpt>
      <trkpt lat="47.83106" lon="1.71367">
        <ele>71.93</ele>
        <time>2016-02-28T09:37:34.000Z</time>
      </trkpt>
      <trkpt lat="47.83098" lon="1.71357">
        <ele>71.93</ele>
        <time>2016-02-28T09:37:36.000Z</time>
      </trkpt>
      <trkpt lat="47.8309" lon="1.71348">
        <ele>71.93</ele>
        <time>2016-02-28T09:37:38.000Z</time>
      </trkpt>
      <trkpt lat="47.83082" lon="1.71339">
        <ele>71.93</ele>
        <time>2016-02-28T09:37:40.000Z</time>
      </trkpt>
      <trkpt lat="47.8307" lon="1.71325">
        <ele>71.93</ele>
        <time>2016-02-28T09:37:42.000Z</time>
      </trkpt>
      <trkpt lat="47.83065" lon="1.7132">
        <ele>71.93</ele>
        <time>2016-02-28T09:37:44.000Z</time>
      </trkpt>
      <trkpt lat="47.83057" lon="1.71312">
        <ele>71.93</ele>
        <time>2016-02-28T09:37:46.000Z</time>
      </trkpt>
      <trkpt lat="47.83049" lon="1.71303">
        <ele>71.93</ele>
        <time>2016-02-28T09:37:48.000Z</time>
      </trkpt>
      <trkpt lat="47.83041" lon="1.71296">
        <ele>71.93</ele>
        <time>2016-02-28T09:37:50.000Z</time>
      </trkpt>
      <trkpt lat="47.83034" lon="1.71287">
        <ele>71.93</ele>
        <time>2016-02-28T09:37:52.000Z</time>
      </trkpt>
      <trkpt lat="47.83027" lon="1.71275">
        <ele>71.93</ele>
        <time>2016-02-28T09:37:54.000Z</time>
      </trkpt>
      <trkpt lat="47.83017" lon="1.71257">
        <ele>71.93</ele>
        <time>2016-02-28T09:37:56.000Z</time>
      </trkpt>
      <trkpt lat="47.83014" lon="1.71251">
        <ele>71.93</ele>
        <time>2016-02-28T09:37:58.000Z</time>
      </trkpt>
      <trkpt lat="47.83006" lon="1.71239">
        <ele>71.93</ele>
        <time>2016-02-28T09:38:00.000Z</time>
      </trkpt>
      <trkpt lat="47.82999" lon="1.71228">
        <ele>71.93</ele>
        <time>2016-02-28T09:38:02.000Z</time>
      </trkpt>
      <trkpt lat="47.82992" lon="1.71216">
        <ele>71.93</ele>
        <time>2016-02-28T09:38:04.000Z</time>
      </trkpt>
      <trkpt lat="47.82985" lon="1.71205">
        <ele>71.93</ele>
        <time>2016-02-28T09:38:06.000Z</time>
      </trkpt>
      <trkpt lat="47.82977" lon="1.71195">
        <ele>71.93</ele>
        <time>2016-02-28T09:38:08.000Z</time>
      </trkpt>
      <trkpt lat="47.82969" lon="1.71185">
        <ele>71.93</ele>
        <time>2016-02-28T09:38:10.000Z</time>
      </trkpt>
      <trkpt lat="47.82962" lon="1.71176">
        <ele>71.93</ele>
        <time>2016-02-28T09:38:12.000Z</time>
      </trkpt>
      <trkpt lat="47.82954" lon="1.71166">
        <ele>71.93</ele>
        <time>2016-02-28T09:38:14.000Z</time>
      </trkpt>
      <trkpt lat="47.82946" lon="1.71156">
        <ele>71.93</ele>
        <time>2016-02-28T09:38:16.000Z</time>
      </trkpt>
      <trkpt lat="47.82938" lon="1.71147">
        <ele>71.93</ele>
        <time>2016-02-28T09:38:18.000Z</time>
      </trkpt>
      <trkpt lat="47.8293" lon="1.71138">
        <ele>71.93</ele>
        <time>2016-02-28T09:38:20.000Z</time>
      </trkpt>
      <trkpt lat="47.82922" lon="1.71129">
        <ele>71.93</ele>
        <time>2016-02-28T09:38:22.000Z</time>
      </trkpt>
      <trkpt lat="47.82913" lon="1.71121">
        <ele>71.93</ele>
        <time>2016-02-28T09:38:24.000Z</time>
      </trkpt>
      <trkpt lat="47.82904" lon="1.71114">
        <ele>71.93</ele>
        <time>2016-02-28T09:38:26.000Z</time>
      </trkpt>
      <trkpt lat="47.82896" lon="1.71105">
        <ele>71.93</ele>
        <time>2016-02-28T09:38:28.000Z</time>
      </trkpt>
      <trkpt lat="47.82887" lon="1.71097">
        <ele>71.93</ele>
        <time>2016-02-28T09:38:30.000Z</time>
      </trkpt>
      <trkpt lat="47.82878" lon="1.71088">
        <ele>71.93</ele>
        <time>2016-02-28T09:38:32.000Z</time>
      </trkpt>
      <trkpt lat="47.8287" lon="1.71079">
        <ele>71.93</ele>
        <time>2016-02-28T09:38:34.000Z</time>
      </trkpt>
      <trkpt lat="47.82861" lon="1.71069">
        <ele>71.93</ele>
        <time>2016-02-28T09:38:36.000Z</time>
      </trkpt>
      <trkpt lat="47.82852" lon="1.7106">
        <ele>71.93</ele>
        <time>2016-02-28T09:38:38.000Z</time>
      </trkpt>
      <trkpt lat="47.82844" lon="1.71051">
        <ele>71.93</ele>
        <time>2016-02-28T09:38:40.000Z</time>
      </trkpt>
      <trkpt lat="47.82835" lon="1.71041">
        <ele>71.93</ele>
        <time>2016-02-28T09:38:42.000Z</time>
      </trkpt>
      <trkpt lat="47.82826" lon="1.71032">
        <ele>71.93</ele>
        <time>2016-02-28T09:38:44.000Z</time>
      </trkpt>
      <trkpt lat="47.82818" lon="1.71022">
        <ele>71.93</ele>
        <time>2016-02-28T09:38:46.000Z</time>
      </trkpt>
      <trkpt lat="47.82809" lon="1.71013">
        <ele>71.93</ele>
        <time>2016-02-28T09:38:48.000Z</time>
      </trkpt>
      <trkpt lat="47.828" lon="1.71003">
        <ele>71.93</ele>
        <time>2016-02-28T09:38:50.000Z</time>
      </trkpt>
      <trkpt lat="47.82792" lon="1.70993">
        <ele>71.93</ele>
        <time>2016-02-28T09:38:52.000Z</time>
      </trkpt>
      <trkpt lat="47.82779" lon="1.70977">
        <ele>71.93</ele>
        <time>2016-02-28T09:38:54.000Z</time>
      </trkpt>
      <trkpt lat="47.82775" lon="1.70971">
        <ele>71.93</ele>
        <time>2016-02-28T09:38:56.000Z</time>
      </trkpt>
      <trkpt lat="47.82767" lon="1.7096">
        <ele>71.93</ele>
        <time>2016-02-28T09:38:58.000Z</time>
      </trkpt>
      <trkpt lat="47.82759" lon="1.70949">
        <ele>71.93</ele>
        <time>2016-02-28T09:39:00.000Z</time>
      </trkpt>
      <trkpt lat="47.82751" lon="1.70939">
        <ele>71.93</ele>
        <time>2016-02-28T09:39:02.000Z</time>
      </trkpt>
      <trkpt lat="47.82743" lon="1.70929">
        <ele>71.93</ele>
        <time>2016-02-28T09:39:04.000Z</time>
      </trkpt>
      <trkpt lat="47.8273" lon="1.70916">
        <ele>71.93</ele>
        <time>2016-02-28T09:39:06.000Z</time>
      </trkpt>
      <trkpt lat="47.82722" lon="1.70906">
        <ele>71.93</ele>
        <time>2016-02-28T09:39:08.000Z</time>
      </trkpt>
      <trkpt lat="47.82717" lon="1.70902">
        <ele>71.93</ele>
        <time>2016-02-28T09:39:10.000Z</time>
      </trkpt>
      <trkpt lat="47.82708" lon="1.70892">
        <ele>71.93</ele>
        <time>2016-02-28T09:39:12.000Z</time>
      </trkpt>
      <trkpt lat="47.82699" lon="1.70882">
        <ele>71.93</ele>
        <time>2016-02-28T09:39:14.000Z</time>
      </trkpt>
      <trkpt lat="47.82691" lon="1.70872">
        <ele>71.93</ele>
        <time>2016-02-28T09:39:16.000Z</time>
      </trkpt>
      <trkpt lat="47.82683" lon="1.70862">
        <ele>71.93</ele>
        <time>2016-02-28T09:39:18.000Z</time>
      </trkpt>
      <trkpt lat="47.82674" lon="1.70852">
        <ele>71.93</ele>
        <time>2016-02-28T09:39:20.000Z</time>
      </trkpt>
      <trkpt lat="47.82666" lon="1.70843">
        <ele>71.93</ele>
        <time>2016-02-28T09:39:22.000Z</time>
      </trkpt>
      <trkpt lat="47.82657" lon="1.70834">
        <ele>71.93</ele>
        <time>2016-02-28T09:39:24.000Z</time>
      </trkpt>
      <trkpt lat="47.82648" lon="1.70826">
        <ele>71.93</ele>
        <time>2016-02-28T09:39:26.000Z</time>
      </trkpt>
      <trkpt lat="47.8264" lon="1.70817">
        <ele>71.93</ele>
        <time>2016-02-28T09:39:28.000Z</time>
      </trkpt>
      <trkpt lat="47.82631" lon="1.70807">
        <ele>71.93</ele>
        <time>2016-02-28T09:39:30.000Z</time>
      </trkpt>
      <trkpt lat="47.82623" lon="1.70796">
        <ele>71.93</ele>
        <time>2016-02-28T09:39:32.000Z</time>
      </trkpt>
      <trkpt lat="47.82617" lon="1.70783">
        <ele>71.93</ele>
        <time>2016-02-28T09:39:34.000Z</time>
      </trkpt>
      <trkpt lat="47.82613" lon="1.70768">
        <ele>71.93</ele>
        <time>2016-02-28T09:39:36.000Z</time>
      </trkpt>
      <trkpt lat="47.8261" lon="1.70753">
        <ele>71.93</ele>
        <time>2016-02-28T09:39:38.000Z</time>
      </trkpt>
      <trkpt lat="47.82605" lon="1.7074">
        <ele>71.93</ele>
        <time>2016-02-28T09:39:40.000Z</time>
      </trkpt>
      <trkpt lat="47.82598" lon="1.70728">
        <ele>71.93</ele>
        <time>2016-02-28T09:39:42.000Z</time>
      </trkpt>
      <trkpt lat="47.8259" lon="1.70718">
        <ele>71.93</ele>
        <time>2016-02-28T09:39:44.000Z</time>
      </trkpt>
      <trkpt lat="47.82582" lon="1.70709">
        <ele>71.02</ele>
        <time>2016-02-28T09:39:46.000Z</time>
      </trkpt>
      <trkpt lat="47.82571" lon="1.70703">
        <ele>71.02</ele>
        <time>2016-02-28T09:39:48.000Z</time>
      </trkpt>
      <trkpt lat="47.82561" lon="1.70697">
        <ele>71.02</ele>
        <time>2016-02-28T09:39:50.000Z</time>
      </trkpt>
      <trkpt lat="47.8255" lon="1.7069">
        <ele>71.02</ele>
        <time>2016-02-28T09:39:52.000Z</time>
      </trkpt>
      <trkpt lat="47.8254" lon="1.70682">
        <ele>71.02</ele>
        <time>2016-02-28T09:39:54.000Z</time>
      </trkpt>
      <trkpt lat="47.8253" lon="1.70672">
        <ele>71.02</ele>
        <time>2016-02-28T09:39:56.000Z</time>
      </trkpt>
      <trkpt lat="47.82519" lon="1.70661">
        <ele>71.02</ele>
        <time>2016-02-28T09:39:58.000Z</time>
      </trkpt>
      <trkpt lat="47.82509" lon="1.70653">
        <ele>71.02</ele>
        <time>2016-02-28T09:40:00.000Z</time>
      </trkpt>
      <trkpt lat="47.825" lon="1.70647">
        <ele>71.02</ele>
        <time>2016-02-28T09:40:02.000Z</time>
      </trkpt>
      <trkpt lat="47.82492" lon="1.7064">
        <ele>71.02</ele>
        <time>2016-02-28T09:40:04.000Z</time>
      </trkpt>
      <trkpt lat="47.82485" lon="1.70631">
        <ele>71.02</ele>
        <time>2016-02-28T09:40:06.000Z</time>
      </trkpt>
      <trkpt lat="47.82477" lon="1.70623">
        <ele>71.02</ele>
        <time>2016-02-28T09:40:08.000Z</time>
      </trkpt>
      <trkpt lat="47.82468" lon="1.70616">
        <ele>71.02</ele>
        <time>2016-02-28T09:40:10.000Z</time>
      </trkpt>
      <trkpt lat="47.82458" lon="1.70609">
        <ele>71.02</ele>
        <time>2016-02-28T09:40:12.000Z</time>
      </trkpt>
      <trkpt lat="47.82448" lon="1.70602">
        <ele>71.02</ele>
        <time>2016-02-28T09:40:14.000Z</time>
      </trkpt>
      <trkpt lat="47.82438" lon="1.70597">
        <ele>71.02</ele>
        <time>2016-02-28T09:40:16.000Z</time>
      </trkpt>
      <trkpt lat="47.82429" lon="1.70591">
        <ele>71.02</ele>
        <time>2016-02-28T09:40:18.000Z</time>
      </trkpt>
      <trkpt lat="47.82419" lon="1.70585">
        <ele>71.02</ele>
        <time>2016-02-28T09:40:20.000Z</time>
      </trkpt>
      <trkpt lat="47.82408" lon="1.7058">
        <ele>71.02</ele>
        <time>2016-02-28T09:40:22.000Z</time>
      </trkpt>
      <trkpt lat="47.82398" lon="1.70575">
        <ele>71.02</ele>
        <time>2016-02-28T09:40:24.000Z</time>
      </trkpt>
      <trkpt lat="47.82388" lon="1.70571">
        <ele>71.02</ele>
        <time>2016-02-28T09:40:26.000Z</time>
      </trkpt>
      <trkpt lat="47.82379" lon="1.70565">
        <ele>71.02</ele>
        <time>2016-02-28T09:40:28.000Z</time>
      </trkpt>
      <trkpt lat="47.82368" lon="1.70561">
        <ele>71.02</ele>
        <time>2016-02-28T09:40:30.000Z</time>
      </trkpt>
      <trkpt lat="47.82358" lon="1.70556">
        <ele>71.02</ele>
        <time>2016-02-28T09:40:32.000Z</time>
      </trkpt>
      <trkpt lat="47.82347" lon="1.70551">
        <ele>71.02</ele>
        <time>2016-02-28T09:40:34.000Z</time>
      </trkpt>
      <trkpt lat="47.82337" lon="1.70545">
        <ele>71.02</ele>
        <time>2016-02-28T09:40:36.000Z</time>
      </trkpt>
      <trkpt lat="47.82327" lon="1.70539">
        <ele>71.02</ele>
        <time>2016-02-28T09:40:38.000Z</time>
      </trkpt>
      <trkpt lat="47.82318" lon="1.70533">
        <ele>71.02</ele>
        <time>2016-02-28T09:40:40.000Z</time>
      </trkpt>
      <trkpt lat="47.82309" lon="1.70525">
        <ele>71.02</ele>
        <time>2016-02-28T09:40:42.000Z</time>
      </trkpt>
      <trkpt lat="47.82299" lon="1.70517">
        <ele>71.02</ele>
        <time>2016-02-28T09:40:44.000Z</time>
      </trkpt>
      <trkpt lat="47.82285" lon="1.70503">
        <ele>71.02</ele>
        <time>2016-02-28T09:40:46.000Z</time>
      </trkpt>
      <trkpt lat="47.82276" lon="1.70494">
        <ele>71.02</ele>
        <time>2016-02-28T09:40:48.000Z</time>
      </trkpt>
      <trkpt lat="47.82271" lon="1.70489">
        <ele>71.02</ele>
        <time>2016-02-28T09:40:50.000Z</time>
      </trkpt>
      <trkpt lat="47.82262" lon="1.7048">
        <ele>71.02</ele>
        <time>2016-02-28T09:40:52.000Z</time>
      </trkpt>
      <trkpt lat="47.82253" lon="1.70471">
        <ele>71.02</ele>
        <time>2016-02-28T09:40:54.000Z</time>
      </trkpt>
      <trkpt lat="47.82244" lon="1.70463">
        <ele>70.1</ele>
        <time>2016-02-28T09:40:56.000Z</time>
      </trkpt>
      <trkpt lat="47.82235" lon="1.70454">
        <ele>70.1</ele>
        <time>2016-02-28T09:40:58.000Z</time>
      </trkpt>
      <trkpt lat="47.82225" lon="1.70447">
        <ele>70.1</ele>
        <time>2016-02-28T09:41:00.000Z</time>
      </trkpt>
      <trkpt lat="47.82212" lon="1.70434">
        <ele>70.1</ele>
        <time>2016-02-28T09:41:02.000Z</time>
      </trkpt>
      <trkpt lat="47.82208" lon="1.7043">
        <ele>70.1</ele>
        <time>2016-02-28T09:41:04.000Z</time>
      </trkpt>
      <trkpt lat="47.82199" lon="1.70421">
        <ele>71.93</ele>
        <time>2016-02-28T09:41:06.000Z</time>
      </trkpt>
      <trkpt lat="47.82191" lon="1.70411">
        <ele>71.93</ele>
        <time>2016-02-28T09:41:08.000Z</time>
      </trkpt>
      <trkpt lat="47.82184" lon="1.704">
        <ele>71.93</ele>
        <time>2016-02-28T09:41:10.000Z</time>
      </trkpt>
      <trkpt lat="47.82184" lon="1.70388">
        <ele>74.07</ele>
        <time>2016-02-28T09:41:12.000Z</time>
      </trkpt>
      <trkpt lat="47.82193" lon="1.70371">
        <ele>74.07</ele>
        <time>2016-02-28T09:41:14.000Z</time>
      </trkpt>
      <trkpt lat="47.82199" lon="1.7036">
        <ele>74.98</ele>
        <time>2016-02-28T09:41:16.000Z</time>
      </trkpt>
      <trkpt lat="47.82201" lon="1.70354">
        <ele>74.98</ele>
        <time>2016-02-28T09:41:18.000Z</time>
      </trkpt>
      <trkpt lat="47.82208" lon="1.70343">
        <ele>74.98</ele>
        <time>2016-02-28T09:41:20.000Z</time>
      </trkpt>
      <trkpt lat="47.82214" lon="1.70331">
        <ele>77.11</ele>
        <time>2016-02-28T09:41:22.000Z</time>
      </trkpt>
      <trkpt lat="47.8222" lon="1.70319">
        <ele>77.11</ele>
        <time>2016-02-28T09:41:24.000Z</time>
      </trkpt>
      <trkpt lat="47.82226" lon="1.70307">
        <ele>77.11</ele>
        <time>2016-02-28T09:41:26.000Z</time>
      </trkpt>
      <trkpt lat="47.82232" lon="1.70295">
        <ele>77.11</ele>
        <time>2016-02-28T09:41:28.000Z</time>
      </trkpt>
      <trkpt lat="47.82239" lon="1.70283">
        <ele>77.11</ele>
        <time>2016-02-28T09:41:30.000Z</time>
      </trkpt>
      <trkpt lat="47.82245" lon="1.7027">
        <ele>78.03</ele>
        <time>2016-02-28T09:41:32.000Z</time>
      </trkpt>
      <trkpt lat="47.82252" lon="1.70258">
        <ele>78.03</ele>
        <time>2016-02-28T09:41:34.000Z</time>
      </trkpt>
      <trkpt lat="47.82258" lon="1.70245">
        <ele>79.86</ele>
        <time>2016-02-28T09:41:36.000Z</time>
      </trkpt>
      <trkpt lat="47.82265" lon="1.70233">
        <ele>79.86</ele>
        <time>2016-02-28T09:41:38.000Z</time>
      </trkpt>
      <trkpt lat="47.82271" lon="1.70219">
        <ele>79.86</ele>
        <time>2016-02-28T09:41:40.000Z</time>
      </trkpt>
      <trkpt lat="47.82277" lon="1.70206">
        <ele>79.86</ele>
        <time>2016-02-28T09:41:42.000Z</time>
      </trkpt>
      <trkpt lat="47.82287" lon="1.70187">
        <ele>79.86</ele>
        <time>2016-02-28T09:41:44.000Z</time>
      </trkpt>
      <trkpt lat="47.8229" lon="1.7018">
        <ele>79.86</ele>
        <time>2016-02-28T09:41:46.000Z</time>
      </trkpt>
      <trkpt lat="47.82296" lon="1.70167">
        <ele>79.86</ele>
        <time>2016-02-28T09:41:48.000Z</time>
      </trkpt>
      <trkpt lat="47.82303" lon="1.70154">
        <ele>79.86</ele>
        <time>2016-02-28T09:41:50.000Z</time>
      </trkpt>
      <trkpt lat="47.82309" lon="1.70141">
        <ele>79.86</ele>
        <time>2016-02-28T09:41:52.000Z</time>
      </trkpt>
      <trkpt lat="47.82316" lon="1.70128">
        <ele>79.86</ele>
        <time>2016-02-28T09:41:54.000Z</time>
      </trkpt>
      <trkpt lat="47.82322" lon="1.70115">
        <ele>79.86</ele>
        <time>2016-02-28T09:41:56.000Z</time>
      </trkpt>
      <trkpt lat="47.82332" lon="1.70096">
        <ele>79.86</ele>
        <time>2016-02-28T09:41:58.000Z</time>
      </trkpt>
      <trkpt lat="47.82335" lon="1.70089">
        <ele>79.86</ele>
        <time>2016-02-28T09:42:00.000Z</time>
      </trkpt>
      <trkpt lat="47.82342" lon="1.70076">
        <ele>78.94</ele>
        <time>2016-02-28T09:42:02.000Z</time>
      </trkpt>
      <trkpt lat="47.82348" lon="1.70063">
        <ele>78.94</ele>
        <time>2016-02-28T09:42:04.000Z</time>
      </trkpt>
      <trkpt lat="47.82355" lon="1.70051">
        <ele>78.03</ele>
        <time>2016-02-28T09:42:06.000Z</time>
      </trkpt>
      <trkpt lat="47.82361" lon="1.70037">
        <ele>78.03</ele>
        <time>2016-02-28T09:42:08.000Z</time>
      </trkpt>
      <trkpt lat="47.82368" lon="1.70025">
        <ele>78.03</ele>
        <time>2016-02-28T09:42:10.000Z</time>
      </trkpt>
      <trkpt lat="47.82372" lon="1.7002">
        <ele>77.11</ele>
        <time>2016-02-28T09:42:12.000Z</time>
      </trkpt>
      <trkpt lat="47.82373" lon="1.7002">
        <ele>77.11</ele>
        <time>2016-02-28T09:42:14.000Z</time>
      </trkpt>
      <trkpt lat="47.82374" lon="1.70021">
        <ele>75.9</ele>
        <time>2016-02-28T09:42:16.000Z</time>
      </trkpt>
      <trkpt lat="47.82374" lon="1.70021">
        <ele>75.9</ele>
        <time>2016-02-28T09:42:18.000Z</time>
      </trkpt>
      <trkpt lat="47.82374" lon="1.70022">
        <ele>75.9</ele>
        <time>2016-02-28T09:42:20.000Z</time>
      </trkpt>
      <trkpt lat="47.82374" lon="1.70022">
        <ele>74.98</ele>
        <time>2016-02-28T09:42:22.000Z</time>
      </trkpt>
      <trkpt lat="47.82374" lon="1.70022">
        <ele>74.98</ele>
        <time>2016-02-28T09:42:24.000Z</time>
      </trkpt>
      <trkpt lat="47.82375" lon="1.70021">
        <ele>74.98</ele>
        <time>2016-02-28T09:42:26.000Z</time>
      </trkpt>
      <trkpt lat="47.82376" lon="1.70018">
        <ele>74.98</ele>
        <time>2016-02-28T09:42:28.000Z</time>
      </trkpt>
      <trkpt lat="47.82378" lon="1.70014">
        <ele>74.98</ele>
        <time>2016-02-28T09:42:30.000Z</time>
      </trkpt>
      <trkpt lat="47.8238" lon="1.7001">
        <ele>74.98</ele>
        <time>2016-02-28T09:42:32.000Z</time>
      </trkpt>
      <trkpt lat="47.82383" lon="1.70005">
        <ele>74.98</ele>
        <time>2016-02-28T09:42:34.000Z</time>
      </trkpt>
      <trkpt lat="47.82384" lon="1.70001">
        <ele>75.9</ele>
        <time>2016-02-28T09:42:36.000Z</time>
      </trkpt>
      <trkpt lat="47.82386" lon="1.69997">
        <ele>75.9</ele>
        <time>2016-02-28T09:42:38.000Z</time>
      </trkpt>
      <trkpt lat="47.82389" lon="1.6999">
        <ele>75.9</ele>
        <time>2016-02-28T09:42:40.000Z</time>
      </trkpt>
      <trkpt lat="47.82391" lon="1.69987">
        <ele>75.9</ele>
        <time>2016-02-28T09:42:42.000Z</time>
      </trkpt>
      <trkpt lat="47.82393" lon="1.69987">
        <ele>75.9</ele>
        <time>2016-02-28T09:42:44.000Z</time>
      </trkpt>
      <trkpt lat="47.82395" lon="1.69988">
        <ele>73.15</ele>
        <time>2016-02-28T09:42:46.000Z</time>
      </trkpt>
      <trkpt lat="47.824" lon="1.69991">
        <ele>73.15</ele>
        <time>2016-02-28T09:42:48.000Z</time>
      </trkpt>
      <trkpt lat="47.82406" lon="1.69998">
        <ele>73.15</ele>
        <time>2016-02-28T09:42:50.000Z</time>
      </trkpt>
      <trkpt lat="47.82412" lon="1.70007">
        <ele>71.93</ele>
        <time>2016-02-28T09:42:52.000Z</time>
      </trkpt>
      <trkpt lat="47.82417" lon="1.70016">
        <ele>71.93</ele>
        <time>2016-02-28T09:42:54.000Z</time>
      </trkpt>
      <trkpt lat="47.82425" lon="1.7003">
        <ele>71.02</ele>
        <time>2016-02-28T09:42:56.000Z</time>
      </trkpt>
      <trkpt lat="47.82428" lon="1.70034">
        <ele>71.02</ele>
        <time>2016-02-28T09:42:58.000Z</time>
      </trkpt>
      <trkpt lat="47.82434" lon="1.70041">
        <ele>71.02</ele>
        <time>2016-02-28T09:43:00.000Z</time>
      </trkpt>
      <trkpt lat="47.82441" lon="1.70047">
        <ele>71.02</ele>
        <time>2016-02-28T09:43:02.000Z</time>
      </trkpt>
      <trkpt lat="47.82449" lon="1.70051">
        <ele>71.02</ele>
        <time>2016-02-28T09:43:04.000Z</time>
      </trkpt>
      <trkpt lat="47.82456" lon="1.70054">
        <ele>71.02</ele>
        <time>2016-02-28T09:43:06.000Z</time>
      </trkpt>
      <trkpt lat="47.82468" lon="1.7006">
        <ele>71.02</ele>
        <time>2016-02-28T09:43:08.000Z</time>
      </trkpt>
      <trkpt lat="47.82472" lon="1.70062">
        <ele>71.02</ele>
        <time>2016-02-28T09:43:10.000Z</time>
      </trkpt>
      <trkpt lat="47.8248" lon="1.70067">
        <ele>71.02</ele>
        <time>2016-02-28T09:43:12.000Z</time>
      </trkpt>
      <trkpt lat="47.82487" lon="1.7007">
        <ele>71.02</ele>
        <time>2016-02-28T09:43:14.000Z</time>
      </trkpt>
      <trkpt lat="47.82495" lon="1.70074">
        <ele>71.02</ele>
        <time>2016-02-28T09:43:16.000Z</time>
      </trkpt>
      <trkpt lat="47.82502" lon="1.70079">
        <ele>71.02</ele>
        <time>2016-02-28T09:43:18.000Z</time>
      </trkpt>
      <trkpt lat="47.8251" lon="1.70085">
        <ele>71.02</ele>
        <time>2016-02-28T09:43:20.000Z</time>
      </trkpt>
      <trkpt lat="47.82518" lon="1.70091">
        <ele>71.02</ele>
        <time>2016-02-28T09:43:22.000Z</time>
      </trkpt>
      <trkpt lat="47.82525" lon="1.70097">
        <ele>71.02</ele>
        <time>2016-02-28T09:43:24.000Z</time>
      </trkpt>
      <trkpt lat="47.82532" lon="1.70104">
        <ele>70.1</ele>
        <time>2016-02-28T09:43:26.000Z</time>
      </trkpt>
      <trkpt lat="47.82538" lon="1.70111">
        <ele>70.1</ele>
        <time>2016-02-28T09:43:28.000Z</time>
      </trkpt>
      <trkpt lat="47.82544" lon="1.70118">
        <ele>70.1</ele>
        <time>2016-02-28T09:43:30.000Z</time>
      </trkpt>
      <trkpt lat="47.8255" lon="1.70125">
        <ele>70.1</ele>
        <time>2016-02-28T09:43:32.000Z</time>
      </trkpt>
      <trkpt lat="47.82555" lon="1.70133">
        <ele>70.1</ele>
        <time>2016-02-28T09:43:34.000Z</time>
      </trkpt>
      <trkpt lat="47.8256" lon="1.7014">
        <ele>70.1</ele>
        <time>2016-02-28T09:43:36.000Z</time>
      </trkpt>
      <trkpt lat="47.82565" lon="1.70148">
        <ele>70.1</ele>
        <time>2016-02-28T09:43:38.000Z</time>
      </trkpt>
      <trkpt lat="47.82569" lon="1.70156">
        <ele>70.1</ele>
        <time>2016-02-28T09:43:40.000Z</time>
      </trkpt>
      <trkpt lat="47.82574" lon="1.70163">
        <ele>70.1</ele>
        <time>2016-02-28T09:43:42.000Z</time>
      </trkpt>
      <trkpt lat="47.82578" lon="1.70172">
        <ele>70.1</ele>
        <time>2016-02-28T09:43:44.000Z</time>
      </trkpt>
      <trkpt lat="47.82583" lon="1.7018">
        <ele>70.1</ele>
        <time>2016-02-28T09:43:46.000Z</time>
      </trkpt>
      <trkpt lat="47.82588" lon="1.70188">
        <ele>70.1</ele>
        <time>2016-02-28T09:43:48.000Z</time>
      </trkpt>
      <trkpt lat="47.82593" lon="1.70196">
        <ele>70.1</ele>
        <time>2016-02-28T09:43:50.000Z</time>
      </trkpt>
      <trkpt lat="47.82598" lon="1.70204">
        <ele>70.1</ele>
        <time>2016-02-28T09:43:52.000Z</time>
      </trkpt>
      <trkpt lat="47.82603" lon="1.70212">
        <ele>70.1</ele>
        <time>2016-02-28T09:43:54.000Z</time>
      </trkpt>
      <trkpt lat="47.82608" lon="1.7022">
        <ele>70.1</ele>
        <time>2016-02-28T09:43:56.000Z</time>
      </trkpt>
      <trkpt lat="47.82615" lon="1.70227">
        <ele>70.1</ele>
        <time>2016-02-28T09:43:58.000Z</time>
      </trkpt>
      <trkpt lat="47.82621" lon="1.70232">
        <ele>70.1</ele>
        <time>2016-02-28T09:44:00.000Z</time>
      </trkpt>
      <trkpt lat="47.82628" lon="1.70235">
        <ele>70.1</ele>
        <time>2016-02-28T09:44:02.000Z</time>
      </trkpt>
      <trkpt lat="47.82634" lon="1.70236">
        <ele>70.1</ele>
        <time>2016-02-28T09:44:04.000Z</time>
      </trkpt>
      <trkpt lat="47.82641" lon="1.70237">
        <ele>70.1</ele>
        <time>2016-02-28T09:44:06.000Z</time>
      </trkpt>
      <trkpt lat="47.82648" lon="1.70237">
        <ele>71.02</ele>
        <time>2016-02-28T09:44:08.000Z</time>
      </trkpt>
      <trkpt lat="47.82655" lon="1.70237">
        <ele>71.02</ele>
        <time>2016-02-28T09:44:10.000Z</time>
      </trkpt>
      <trkpt lat="47.82661" lon="1.70238">
        <ele>71.02</ele>
        <time>2016-02-28T09:44:12.000Z</time>
      </trkpt>
      <trkpt lat="47.82666" lon="1.70246">
        <ele>71.02</ele>
        <time>2016-02-28T09:44:14.000Z</time>
      </trkpt>
      <trkpt lat="47.8267" lon="1.70254">
        <ele>71.02</ele>
        <time>2016-02-28T09:44:16.000Z</time>
      </trkpt>
      <trkpt lat="47.82675" lon="1.70263">
        <ele>71.93</ele>
        <time>2016-02-28T09:44:18.000Z</time>
      </trkpt>
      <trkpt lat="47.8268" lon="1.7027">
        <ele>71.93</ele>
        <time>2016-02-28T09:44:20.000Z</time>
      </trkpt>
      <trkpt lat="47.82686" lon="1.70283">
        <ele>71.93</ele>
        <time>2016-02-28T09:44:22.000Z</time>
      </trkpt>
      <trkpt lat="47.82688" lon="1.70288">
        <ele>71.93</ele>
        <time>2016-02-28T09:44:24.000Z</time>
      </trkpt>
      <trkpt lat="47.82692" lon="1.70298">
        <ele>71.93</ele>
        <time>2016-02-28T09:44:26.000Z</time>
      </trkpt>
      <trkpt lat="47.82698" lon="1.70308">
        <ele>73.15</ele>
        <time>2016-02-28T09:44:28.000Z</time>
      </trkpt>
      <trkpt lat="47.82702" lon="1.7032">
        <ele>73.15</ele>
        <time>2016-02-28T09:44:30.000Z</time>
      </trkpt>
      <trkpt lat="47.82707" lon="1.70331">
        <ele>73.15</ele>
        <time>2016-02-28T09:44:32.000Z</time>
      </trkpt>
      <trkpt lat="47.82712" lon="1.70342">
        <ele>73.15</ele>
        <time>2016-02-28T09:44:34.000Z</time>
      </trkpt>
      <trkpt lat="47.82717" lon="1.70352">
        <ele>73.15</ele>
        <time>2016-02-28T09:44:36.000Z</time>
      </trkpt>
      <trkpt lat="47.82723" lon="1.70362">
        <ele>73.15</ele>
        <time>2016-02-28T09:44:38.000Z</time>
      </trkpt>
      <trkpt lat="47.82729" lon="1.70371">
        <ele>73.15</ele>
        <time>2016-02-28T09:44:40.000Z</time>
      </trkpt>
      <trkpt lat="47.82735" lon="1.70379">
        <ele>73.15</ele>
        <time>2016-02-28T09:44:42.000Z</time>
      </trkpt>
      <trkpt lat="47.82741" lon="1.70387">
        <ele>73.15</ele>
        <time>2016-02-28T09:44:44.000Z</time>
      </trkpt>
      <trkpt lat="47.82752" lon="1.70397">
        <ele>73.15</ele>
        <time>2016-02-28T09:44:46.000Z</time>
      </trkpt>
      <trkpt lat="47.82756" lon="1.70399">
        <ele>73.15</ele>
        <time>2016-02-28T09:44:48.000Z</time>
      </trkpt>
      <trkpt lat="47.82768" lon="1.70407">
        <ele>73.15</ele>
        <time>2016-02-28T09:44:50.000Z</time>
      </trkpt>
      <trkpt lat="47.82772" lon="1.7041">
        <ele>73.15</ele>
        <time>2016-02-28T09:44:52.000Z</time>
      </trkpt>
      <trkpt lat="47.82779" lon="1.70417">
        <ele>73.15</ele>
        <time>2016-02-28T09:44:54.000Z</time>
      </trkpt>
      <trkpt lat="47.82786" lon="1.70424">
        <ele>73.15</ele>
        <time>2016-02-28T09:44:56.000Z</time>
      </trkpt>
      <trkpt lat="47.82793" lon="1.70432">
        <ele>73.15</ele>
        <time>2016-02-28T09:44:58.000Z</time>
      </trkpt>
      <trkpt lat="47.82799" lon="1.7044">
        <ele>73.15</ele>
        <time>2016-02-28T09:45:00.000Z</time>
      </trkpt>
      <trkpt lat="47.82806" lon="1.70447">
        <ele>73.15</ele>
        <time>2016-02-28T09:45:02.000Z</time>
      </trkpt>
      <trkpt lat="47.82812" lon="1.70455">
        <ele>73.15</ele>
        <time>2016-02-28T09:45:04.000Z</time>
      </trkpt>
      <trkpt lat="47.82819" lon="1.70462">
        <ele>73.15</ele>
        <time>2016-02-28T09:45:06.000Z</time>
      </trkpt>
      <trkpt lat="47.82825" lon="1.7047">
        <ele>73.15</ele>
        <time>2016-02-28T09:45:08.000Z</time>
      </trkpt>
      <trkpt lat="47.8283" lon="1.70479">
        <ele>73.15</ele>
        <time>2016-02-28T09:45:10.000Z</time>
      </trkpt>
      <trkpt lat="47.82835" lon="1.70486">
        <ele>74.98</ele>
        <time>2016-02-28T09:45:12.000Z</time>
      </trkpt>
      <trkpt lat="47.82838" lon="1.70493">
        <ele>74.98</ele>
        <time>2016-02-28T09:45:14.000Z</time>
      </trkpt>
      <trkpt lat="47.82845" lon="1.70495">
        <ele>74.98</ele>
        <time>2016-02-28T09:45:16.000Z</time>
      </trkpt>
      <trkpt lat="47.82847" lon="1.70498">
        <ele>74.98</ele>
        <time>2016-02-28T09:45:18.000Z</time>
      </trkpt>
      <trkpt lat="47.82852" lon="1.70504">
        <ele>74.98</ele>
        <time>2016-02-28T09:45:20.000Z</time>
      </trkpt>
      <trkpt lat="47.82858" lon="1.70511">
        <ele>75.9</ele>
        <time>2016-02-28T09:45:22.000Z</time>
      </trkpt>
      <trkpt lat="47.82864" lon="1.70517">
        <ele>75.9</ele>
        <time>2016-02-28T09:45:24.000Z</time>
      </trkpt>
      <trkpt lat="47.8287" lon="1.70524">
        <ele>75.9</ele>
        <time>2016-02-28T09:45:26.000Z</time>
      </trkpt>
      <trkpt lat="47.82876" lon="1.70529">
        <ele>75.9</ele>
        <time>2016-02-28T09:45:28.000Z</time>
      </trkpt>
      <trkpt lat="47.82882" lon="1.70537">
        <ele>75.9</ele>
        <time>2016-02-28T09:45:30.000Z</time>
      </trkpt>
      <trkpt lat="47.82892" lon="1.70546">
        <ele>77.11</ele>
        <time>2016-02-28T09:45:32.000Z</time>
      </trkpt>
      <trkpt lat="47.82895" lon="1.70549">
        <ele>77.11</ele>
        <time>2016-02-28T09:45:34.000Z</time>
      </trkpt>
      <trkpt lat="47.82901" lon="1.70556">
        <ele>77.11</ele>
        <time>2016-02-28T09:45:36.000Z</time>
      </trkpt>
      <trkpt lat="47.82907" lon="1.70563">
        <ele>77.11</ele>
        <time>2016-02-28T09:45:38.000Z</time>
      </trkpt>
      <trkpt lat="47.82915" lon="1.70571">
        <ele>77.11</ele>
        <time>2016-02-28T09:45:40.000Z</time>
      </trkpt>
      <trkpt lat="47.82923" lon="1.7058">
        <ele>77.11</ele>
        <time>2016-02-28T09:45:42.000Z</time>
      </trkpt>
      <trkpt lat="47.8293" lon="1.70588">
        <ele>77.11</ele>
        <time>2016-02-28T09:45:44.000Z</time>
      </trkpt>
      <trkpt lat="47.8294" lon="1.706">
        <ele>77.11</ele>
        <time>2016-02-28T09:45:46.000Z</time>
      </trkpt>
      <trkpt lat="47.82945" lon="1.70608">
        <ele>77.11</ele>
        <time>2016-02-28T09:45:48.000Z</time>
      </trkpt>
      <trkpt lat="47.82949" lon="1.70612">
        <ele>77.11</ele>
        <time>2016-02-28T09:45:50.000Z</time>
      </trkpt>
      <trkpt lat="47.82955" lon="1.7062">
        <ele>77.11</ele>
        <time>2016-02-28T09:45:52.000Z</time>
      </trkpt>
      <trkpt lat="47.82961" lon="1.70629">
        <ele>77.11</ele>
        <time>2016-02-28T09:45:54.000Z</time>
      </trkpt>
      <trkpt lat="47.82968" lon="1.70637">
        <ele>77.11</ele>
        <time>2016-02-28T09:45:56.000Z</time>
      </trkpt>
      <trkpt lat="47.82974" lon="1.70644">
        <ele>77.11</ele>
        <time>2016-02-28T09:45:58.000Z</time>
      </trkpt>
      <trkpt lat="47.8298" lon="1.70651">
        <ele>77.11</ele>
        <time>2016-02-28T09:46:00.000Z</time>
      </trkpt>
      <trkpt lat="47.82986" lon="1.7066">
        <ele>77.11</ele>
        <time>2016-02-28T09:46:02.000Z</time>
      </trkpt>
      <trkpt lat="47.82993" lon="1.70669">
        <ele>77.11</ele>
        <time>2016-02-28T09:46:04.000Z</time>
      </trkpt>
      <trkpt lat="47.83" lon="1.70678">
        <ele>77.11</ele>
        <time>2016-02-28T09:46:06.000Z</time>
      </trkpt>
      <trkpt lat="47.83008" lon="1.70685">
        <ele>77.11</ele>
        <time>2016-02-28T09:46:08.000Z</time>
      </trkpt>
      <trkpt lat="47.83015" lon="1.70692">
        <ele>77.11</ele>
        <time>2016-02-28T09:46:10.000Z</time>
      </trkpt>
      <trkpt lat="47.8302" lon="1.70699">
        <ele>77.11</ele>
        <time>2016-02-28T09:46:12.000Z</time>
      </trkpt>
      <trkpt lat="47.83022" lon="1.70704">
        <ele>77.11</ele>
        <time>2016-02-28T09:46:14.000Z</time>
      </trkpt>
      <trkpt lat="47.83023" lon="1.70707">
        <ele>77.11</ele>
        <time>2016-02-28T09:46:16.000Z</time>
      </trkpt>
      <trkpt lat="47.83024" lon="1.70707">
        <ele>77.11</ele>
        <time>2016-02-28T09:46:18.000Z</time>
      </trkpt>
      <trkpt lat="47.83025" lon="1.70708">
        <ele>77.11</ele>
        <time>2016-02-28T09:46:20.000Z</time>
      </trkpt>
      <trkpt lat="47.83026" lon="1.70706">
        <ele>77.11</ele>
        <time>2016-02-28T09:46:22.000Z</time>
      </trkpt>
      <trkpt lat="47.83027" lon="1.70708">
        <ele>77.11</ele>
        <time>2016-02-28T09:46:24.000Z</time>
      </trkpt>
      <trkpt lat="47.83028" lon="1.70708">
        <ele>77.11</ele>
        <time>2016-02-28T09:46:26.000Z</time>
      </trkpt>
      <trkpt lat="47.83031" lon="1.70712">
        <ele>77.11</ele>
        <time>2016-02-28T09:46:28.000Z</time>
      </trkpt>
      <trkpt lat="47.83033" lon="1.70714">
        <ele>77.11</ele>
        <time>2016-02-28T09:46:30.000Z</time>
      </trkpt>
      <trkpt lat="47.83038" lon="1.70721">
        <ele>77.11</ele>
        <time>2016-02-28T09:46:32.000Z</time>
      </trkpt>
      <trkpt lat="47.83043" lon="1.70728">
        <ele>77.11</ele>
        <time>2016-02-28T09:46:34.000Z</time>
      </trkpt>
      <trkpt lat="47.8305" lon="1.70734">
        <ele>77.11</ele>
        <time>2016-02-28T09:46:36.000Z</time>
      </trkpt>
      <trkpt lat="47.83058" lon="1.70738">
        <ele>77.11</ele>
        <time>2016-02-28T09:46:38.000Z</time>
      </trkpt>
      <trkpt lat="47.83065" lon="1.70743">
        <ele>77.11</ele>
        <time>2016-02-28T09:46:40.000Z</time>
      </trkpt>
      <trkpt lat="47.83071" lon="1.7075">
        <ele>75.9</ele>
        <time>2016-02-28T09:46:42.000Z</time>
      </trkpt>
      <trkpt lat="47.83078" lon="1.70757">
        <ele>75.9</ele>
        <time>2016-02-28T09:46:44.000Z</time>
      </trkpt>
      <trkpt lat="47.83085" lon="1.70763">
        <ele>75.9</ele>
        <time>2016-02-28T09:46:46.000Z</time>
      </trkpt>
      <trkpt lat="47.83092" lon="1.70771">
        <ele>75.9</ele>
        <time>2016-02-28T09:46:48.000Z</time>
      </trkpt>
      <trkpt lat="47.83098" lon="1.70778">
        <ele>75.9</ele>
        <time>2016-02-28T09:46:50.000Z</time>
      </trkpt>
      <trkpt lat="47.83105" lon="1.70785">
        <ele>75.9</ele>
        <time>2016-02-28T09:46:52.000Z</time>
      </trkpt>
      <trkpt lat="47.83111" lon="1.70792">
        <ele>75.9</ele>
        <time>2016-02-28T09:46:54.000Z</time>
      </trkpt>
      <trkpt lat="47.83117" lon="1.708">
        <ele>75.9</ele>
        <time>2016-02-28T09:46:56.000Z</time>
      </trkpt>
      <trkpt lat="47.83124" lon="1.70808">
        <ele>77.11</ele>
        <time>2016-02-28T09:46:58.000Z</time>
      </trkpt>
      <trkpt lat="47.83129" lon="1.70817">
        <ele>77.11</ele>
        <time>2016-02-28T09:47:00.000Z</time>
      </trkpt>
      <trkpt lat="47.83135" lon="1.70826">
        <ele>78.03</ele>
        <time>2016-02-28T09:47:02.000Z</time>
      </trkpt>
      <trkpt lat="47.8314" lon="1.70835">
        <ele>78.03</ele>
        <time>2016-02-28T09:47:04.000Z</time>
      </trkpt>
      <trkpt lat="47.83147" lon="1.70843">
        <ele>78.03</ele>
        <time>2016-02-28T09:47:06.000Z</time>
      </trkpt>
      <trkpt lat="47.83153" lon="1.70851">
        <ele>78.03</ele>
        <time>2016-02-28T09:47:08.000Z</time>
      </trkpt>
      <trkpt lat="47.83158" lon="1.70857">
        <ele>78.03</ele>
        <time>2016-02-28T09:47:10.000Z</time>
      </trkpt>
      <trkpt lat="47.83165" lon="1.70862">
        <ele>78.03</ele>
        <time>2016-02-28T09:47:12.000Z</time>
      </trkpt>
      <trkpt lat="47.83172" lon="1.70869">
        <ele>78.03</ele>
        <time>2016-02-28T09:47:14.000Z</time>
      </trkpt>
      <trkpt lat="47.83178" lon="1.70877">
        <ele>78.03</ele>
        <time>2016-02-28T09:47:16.000Z</time>
      </trkpt>
      <trkpt lat="47.83184" lon="1.70883">
        <ele>78.03</ele>
        <time>2016-02-28T09:47:18.000Z</time>
      </trkpt>
      <trkpt lat="47.83191" lon="1.70891">
        <ele>78.03</ele>
        <time>2016-02-28T09:47:20.000Z</time>
      </trkpt>
      <trkpt lat="47.83197" lon="1.70899">
        <ele>78.03</ele>
        <time>2016-02-28T09:47:22.000Z</time>
      </trkpt>
      <trkpt lat="47.83203" lon="1.70906">
        <ele>78.03</ele>
        <time>2016-02-28T09:47:24.000Z</time>
      </trkpt>
      <trkpt lat="47.83209" lon="1.70912">
        <ele>78.03</ele>
        <time>2016-02-28T09:47:26.000Z</time>
      </trkpt>
      <trkpt lat="47.83217" lon="1.70918">
        <ele>78.03</ele>
        <time>2016-02-28T09:47:28.000Z</time>
      </trkpt>
      <trkpt lat="47.83224" lon="1.70926">
        <ele>78.03</ele>
        <time>2016-02-28T09:47:30.000Z</time>
      </trkpt>
      <trkpt lat="47.83232" lon="1.70934">
        <ele>78.03</ele>
        <time>2016-02-28T09:47:32.000Z</time>
      </trkpt>
      <trkpt lat="47.83239" lon="1.70944">
        <ele>78.03</ele>
        <time>2016-02-28T09:47:34.000Z</time>
      </trkpt>
      <trkpt lat="47.83246" lon="1.70954">
        <ele>78.03</ele>
        <time>2016-02-28T09:47:36.000Z</time>
      </trkpt>
      <trkpt lat="47.83253" lon="1.70965">
        <ele>77.11</ele>
        <time>2016-02-28T09:47:38.000Z</time>
      </trkpt>
      <trkpt lat="47.83259" lon="1.70975">
        <ele>77.11</ele>
        <time>2016-02-28T09:47:40.000Z</time>
      </trkpt>
      <trkpt lat="47.83266" lon="1.70986">
        <ele>77.11</ele>
        <time>2016-02-28T09:47:42.000Z</time>
      </trkpt>
      <trkpt lat="47.83273" lon="1.70996">
        <ele>77.11</ele>
        <time>2016-02-28T09:47:44.000Z</time>
      </trkpt>
      <trkpt lat="47.8328" lon="1.71006">
        <ele>77.11</ele>
        <time>2016-02-28T09:47:46.000Z</time>
      </trkpt>
      <trkpt lat="47.83287" lon="1.71017">
        <ele>75.9</ele>
        <time>2016-02-28T09:47:48.000Z</time>
      </trkpt>
      <trkpt lat="47.83294" lon="1.71027">
        <ele>75.9</ele>
        <time>2016-02-28T09:47:50.000Z</time>
      </trkpt>
      <trkpt lat="47.83301" lon="1.71038">
        <ele>75.9</ele>
        <time>2016-02-28T09:47:52.000Z</time>
      </trkpt>
      <trkpt lat="47.83308" lon="1.71048">
        <ele>75.9</ele>
        <time>2016-02-28T09:47:54.000Z</time>
      </trkpt>
      <trkpt lat="47.83315" lon="1.71059">
        <ele>75.9</ele>
        <time>2016-02-28T09:47:56.000Z</time>
      </trkpt>
      <trkpt lat="47.83322" lon="1.71069">
        <ele>75.9</ele>
        <time>2016-02-28T09:47:58.000Z</time>
      </trkpt>
      <trkpt lat="47.8333" lon="1.7108">
        <ele>75.9</ele>
        <time>2016-02-28T09:48:00.000Z</time>
      </trkpt>
      <trkpt lat="47.83338" lon="1.7109">
        <ele>74.98</ele>
        <time>2016-02-28T09:48:02.000Z</time>
      </trkpt>
      <trkpt lat="47.83345" lon="1.71101">
        <ele>74.98</ele>
        <time>2016-02-28T09:48:04.000Z</time>
      </trkpt>
      <trkpt lat="47.83351" lon="1.71112">
        <ele>74.98</ele>
        <time>2016-02-28T09:48:06.000Z</time>
      </trkpt>
      <trkpt lat="47.83358" lon="1.71121">
        <ele>74.98</ele>
        <time>2016-02-28T09:48:08.000Z</time>
      </trkpt>
      <trkpt lat="47.83367" lon="1.71134">
        <ele>74.98</ele>
        <time>2016-02-28T09:48:10.000Z</time>
      </trkpt>
      <trkpt lat="47.8337" lon="1.71138">
        <ele>74.98</ele>
        <time>2016-02-28T09:48:12.000Z</time>
      </trkpt>
      <trkpt lat="47.83376" lon="1.71147">
        <ele>74.98</ele>
        <time>2016-02-28T09:48:14.000Z</time>
      </trkpt>
      <trkpt lat="47.83383" lon="1.71155">
        <ele>74.98</ele>
        <time>2016-02-28T09:48:16.000Z</time>
      </trkpt>
      <trkpt lat="47.83391" lon="1.71161">
        <ele>74.98</ele>
        <time>2016-02-28T09:48:18.000Z</time>
      </trkpt>
      <trkpt lat="47.83398" lon="1.71168">
        <ele>74.98</ele>
        <time>2016-02-28T09:48:20.000Z</time>
      </trkpt>
      <trkpt lat="47.83406" lon="1.71176">
        <ele>74.98</ele>
        <time>2016-02-28T09:48:22.000Z</time>
      </trkpt>
      <trkpt lat="47.83413" lon="1.71184">
        <ele>74.98</ele>
        <time>2016-02-28T09:48:24.000Z</time>
      </trkpt>
      <trkpt lat="47.8342" lon="1.71193">
        <ele>74.98</ele>
        <time>2016-02-28T09:48:26.000Z</time>
      </trkpt>
      <trkpt lat="47.83426" lon="1.71202">
        <ele>74.98</ele>
        <time>2016-02-28T09:48:28.000Z</time>
      </trkpt>
      <trkpt lat="47.83431" lon="1.71209">
        <ele>74.98</ele>
        <time>2016-02-28T09:48:30.000Z</time>
      </trkpt>
      <trkpt lat="47.83433" lon="1.71209">
        <ele>74.98</ele>
        <time>2016-02-28T09:48:32.000Z</time>
      </trkpt>
      <trkpt lat="47.83433" lon="1.71209">
        <ele>74.98</ele>
        <time>2016-02-28T09:48:34.000Z</time>
      </trkpt>
      <trkpt lat="47.83434" lon="1.71209">
        <ele>74.98</ele>
        <time>2016-02-28T09:48:36.000Z</time>
      </trkpt>
      <trkpt lat="47.83435" lon="1.71209">
        <ele>75.9</ele>
        <time>2016-02-28T09:48:38.000Z</time>
      </trkpt>
      <trkpt lat="47.83434" lon="1.71211">
        <ele>75.9</ele>
        <time>2016-02-28T09:48:40.000Z</time>
      </trkpt>
      <trkpt lat="47.83434" lon="1.71213">
        <ele>75.9</ele>
        <time>2016-02-28T09:48:42.000Z</time>
      </trkpt>
      <trkpt lat="47.83434" lon="1.71215">
        <ele>75.9</ele>
        <time>2016-02-28T09:48:44.000Z</time>
      </trkpt>
      <trkpt lat="47.83435" lon="1.71217">
        <ele>75.9</ele>
        <time>2016-02-28T09:48:46.000Z</time>
      </trkpt>
      <trkpt lat="47.83438" lon="1.71221">
        <ele>75.9</ele>
        <time>2016-02-28T09:48:48.000Z</time>
      </trkpt>
      <trkpt lat="47.83442" lon="1.71226">
        <ele>75.9</ele>
        <time>2016-02-28T09:48:50.000Z</time>
      </trkpt>
      <trkpt lat="47.83444" lon="1.71232">
        <ele>75.9</ele>
        <time>2016-02-28T09:48:52.000Z</time>
      </trkpt>
      <trkpt lat="47.83447" lon="1.71239">
        <ele>75.9</ele>
        <time>2016-02-28T09:48:54.000Z</time>
      </trkpt>
      <trkpt lat="47.8345" lon="1.71246">
        <ele>75.9</ele>
        <time>2016-02-28T09:48:56.000Z</time>
      </trkpt>
      <trkpt lat="47.83454" lon="1.71254">
        <ele>75.9</ele>
        <time>2016-02-28T09:48:58.000Z</time>
      </trkpt>
      <trkpt lat="47.83458" lon="1.71263">
        <ele>75.9</ele>
        <time>2016-02-28T09:49:00.000Z</time>
      </trkpt>
      <trkpt lat="47.83463" lon="1.71272">
        <ele>75.9</ele>
        <time>2016-02-28T09:49:02.000Z</time>
      </trkpt>
      <trkpt lat="47.83469" lon="1.71281">
        <ele>75.9</ele>
        <time>2016-02-28T09:49:04.000Z</time>
      </trkpt>
      <trkpt lat="47.83475" lon="1.7129">
        <ele>75.9</ele>
        <time>2016-02-28T09:49:06.000Z</time>
      </trkpt>
      <trkpt lat="47.83485" lon="1.71302">
        <ele>75.9</ele>
        <time>2016-02-28T09:49:08.000Z</time>
      </trkpt>
      <trkpt lat="47.83488" lon="1.71306">
        <ele>75.9</ele>
        <time>2016-02-28T09:49:10.000Z</time>
      </trkpt>
      <trkpt lat="47.83494" lon="1.71315">
        <ele>75.9</ele>
        <time>2016-02-28T09:49:12.000Z</time>
      </trkpt>
      <trkpt lat="47.835" lon="1.71324">
        <ele>75.9</ele>
        <time>2016-02-28T09:49:14.000Z</time>
      </trkpt>
      <trkpt lat="47.83506" lon="1.71333">
        <ele>75.9</ele>
        <time>2016-02-28T09:49:16.000Z</time>
      </trkpt>
      <trkpt lat="47.83511" lon="1.71341">
        <ele>77.11</ele>
        <time>2016-02-28T09:49:18.000Z</time>
      </trkpt>
      <trkpt lat="47.83517" lon="1.71351">
        <ele>77.11</ele>
        <time>2016-02-28T09:49:20.000Z</time>
      </trkpt>
      <trkpt lat="47.8352" lon="1.71356">
        <ele>77.11</ele>
        <time>2016-02-28T09:49:22.000Z</time>
      </trkpt>
      <trkpt lat="47.83522" lon="1.7136">
        <ele>77.11</ele>
        <time>2016-02-28T09:49:24.000Z</time>
      </trkpt>
      <trkpt lat="47.83527" lon="1.71368">
        <ele>77.11</ele>
        <time>2016-02-28T09:49:26.000Z</time>
      </trkpt>
      <trkpt lat="47.83533" lon="1.71377">
        <ele>77.11</ele>
        <time>2016-02-28T09:49:28.000Z</time>
      </trkpt>
      <trkpt lat="47.83539" lon="1.71386">
        <ele>77.11</ele>
        <time>2016-02-28T09:49:30.000Z</time>
      </trkpt>
      <trkpt lat="47.83545" lon="1.71395">
        <ele>77.11</ele>
        <time>2016-02-28T09:49:32.000Z</time>
      </trkpt>
      <trkpt lat="47.83555" lon="1.71406">
        <ele>77.11</ele>
        <time>2016-02-28T09:49:34.000Z</time>
      </trkpt>
      <trkpt lat="47.83562" lon="1.71415">
        <ele>77.11</ele>
        <time>2016-02-28T09:49:36.000Z</time>
      </trkpt>
      <trkpt lat="47.83566" lon="1.7142">
        <ele>75.9</ele>
        <time>2016-02-28T09:49:38.000Z</time>
      </trkpt>
      <trkpt lat="47.83572" lon="1.71429">
        <ele>75.9</ele>
        <time>2016-02-28T09:49:40.000Z</time>
      </trkpt>
      <trkpt lat="47.83579" lon="1.71438">
        <ele>75.9</ele>
        <time>2016-02-28T09:49:42.000Z</time>
      </trkpt>
      <trkpt lat="47.83586" lon="1.71447">
        <ele>75.9</ele>
        <time>2016-02-28T09:49:44.000Z</time>
      </trkpt>
      <trkpt lat="47.83593" lon="1.71457">
        <ele>75.9</ele>
        <time>2016-02-28T09:49:46.000Z</time>
      </trkpt>
      <trkpt lat="47.83599" lon="1.71467">
        <ele>75.9</ele>
        <time>2016-02-28T09:49:48.000Z</time>
      </trkpt>
      <trkpt lat="47.83608" lon="1.71483">
        <ele>75.9</ele>
        <time>2016-02-28T09:49:50.000Z</time>
      </trkpt>
      <trkpt lat="47.83611" lon="1.71488">
        <ele>75.9</ele>
        <time>2016-02-28T09:49:52.000Z</time>
      </trkpt>
      <trkpt lat="47.83617" lon="1.71499">
        <ele>75.9</ele>
        <time>2016-02-28T09:49:54.000Z</time>
      </trkpt>
      <trkpt lat="47.83624" lon="1.7151">
        <ele>75.9</ele>
        <time>2016-02-28T09:49:56.000Z</time>
      </trkpt>
      <trkpt lat="47.83631" lon="1.71521">
        <ele>75.9</ele>
        <time>2016-02-28T09:49:58.000Z</time>
      </trkpt>
      <trkpt lat="47.83639" lon="1.71531">
        <ele>75.9</ele>
        <time>2016-02-28T09:50:00.000Z</time>
      </trkpt>
      <trkpt lat="47.83647" lon="1.71541">
        <ele>75.9</ele>
        <time>2016-02-28T09:50:02.000Z</time>
      </trkpt>
      <trkpt lat="47.83658" lon="1.71556">
        <ele>75.9</ele>
        <time>2016-02-28T09:50:04.000Z</time>
      </trkpt>
      <trkpt lat="47.83662" lon="1.71561">
        <ele>75.9</ele>
        <time>2016-02-28T09:50:06.000Z</time>
      </trkpt>
      <trkpt lat="47.8367" lon="1.71571">
        <ele>75.9</ele>
        <time>2016-02-28T09:50:08.000Z</time>
      </trkpt>
      <trkpt lat="47.83675" lon="1.71581">
        <ele>75.9</ele>
        <time>2016-02-28T09:50:10.000Z</time>
      </trkpt>
      <trkpt lat="47.83681" lon="1.71591">
        <ele>75.9</ele>
        <time>2016-02-28T09:50:12.000Z</time>
      </trkpt>
      <trkpt lat="47.83687" lon="1.71602">
        <ele>75.9</ele>
        <time>2016-02-28T09:50:14.000Z</time>
      </trkpt>
      <trkpt lat="47.83696" lon="1.71621">
        <ele>75.9</ele>
        <time>2016-02-28T09:50:16.000Z</time>
      </trkpt>
      <trkpt lat="47.837" lon="1.71627">
        <ele>75.9</ele>
        <time>2016-02-28T09:50:18.000Z</time>
      </trkpt>
      <trkpt lat="47.83706" lon="1.71641">
        <ele>75.9</ele>
        <time>2016-02-28T09:50:20.000Z</time>
      </trkpt>
      <trkpt lat="47.83714" lon="1.71653">
        <ele>74.07</ele>
        <time>2016-02-28T09:50:22.000Z</time>
      </trkpt>
      <trkpt lat="47.83721" lon="1.71665">
        <ele>74.07</ele>
        <time>2016-02-28T09:50:24.000Z</time>
      </trkpt>
      <trkpt lat="47.83729" lon="1.71676">
        <ele>74.07</ele>
        <time>2016-02-28T09:50:26.000Z</time>
      </trkpt>
      <trkpt lat="47.83737" lon="1.71686">
        <ele>73.15</ele>
        <time>2016-02-28T09:50:28.000Z</time>
      </trkpt>
      <trkpt lat="47.83745" lon="1.71696">
        <ele>73.15</ele>
        <time>2016-02-28T09:50:30.000Z</time>
      </trkpt>
      <trkpt lat="47.83753" lon="1.71708">
        <ele>73.15</ele>
        <time>2016-02-28T09:50:32.000Z</time>
      </trkpt>
      <trkpt lat="47.83761" lon="1.7172">
        <ele>73.15</ele>
        <time>2016-02-28T09:50:34.000Z</time>
      </trkpt>
      <trkpt lat="47.83769" lon="1.71732">
        <ele>73.15</ele>
        <time>2016-02-28T09:50:36.000Z</time>
      </trkpt>
      <trkpt lat="47.83775" lon="1.71745">
        <ele>71.93</ele>
        <time>2016-02-28T09:50:38.000Z</time>
      </trkpt>
      <trkpt lat="47.83782" lon="1.71756">
        <ele>71.93</ele>
        <time>2016-02-28T09:50:40.000Z</time>
      </trkpt>
      <trkpt lat="47.83791" lon="1.71765">
        <ele>71.93</ele>
        <time>2016-02-28T09:50:42.000Z</time>
      </trkpt>
      <trkpt lat="47.83798" lon="1.7177">
        <ele>71.93</ele>
        <time>2016-02-28T09:50:44.000Z</time>
      </trkpt>
      <trkpt lat="47.83803" lon="1.71784">
        <ele>71.93</ele>
        <time>2016-02-28T09:50:46.000Z</time>
      </trkpt>
      <trkpt lat="47.83807" lon="1.71788">
        <ele>71.93</ele>
        <time>2016-02-28T09:50:48.000Z</time>
      </trkpt>
      <trkpt lat="47.83813" lon="1.71796">
        <ele>71.93</ele>
        <time>2016-02-28T09:50:50.000Z</time>
      </trkpt>
      <trkpt lat="47.8382" lon="1.71804">
        <ele>71.93</ele>
        <time>2016-02-28T09:50:52.000Z</time>
      </trkpt>
      <trkpt lat="47.83827" lon="1.71812">
        <ele>71.93</ele>
        <time>2016-02-28T09:50:54.000Z</time>
      </trkpt>
      <trkpt lat="47.83834" lon="1.71821">
        <ele>71.93</ele>
        <time>2016-02-28T09:50:56.000Z</time>
      </trkpt>
      <trkpt lat="47.83839" lon="1.71831">
        <ele>71.93</ele>
        <time>2016-02-28T09:50:58.000Z</time>
      </trkpt>
      <trkpt lat="47.83845" lon="1.7184">
        <ele>71.93</ele>
        <time>2016-02-28T09:51:00.000Z</time>
      </trkpt>
      <trkpt lat="47.83853" lon="1.7185">
        <ele>71.93</ele>
        <time>2016-02-28T09:51:02.000Z</time>
      </trkpt>
      <trkpt lat="47.8386" lon="1.71861">
        <ele>71.93</ele>
        <time>2016-02-28T09:51:04.000Z</time>
      </trkpt>
      <trkpt lat="47.83867" lon="1.7187">
        <ele>71.93</ele>
        <time>2016-02-28T09:51:06.000Z</time>
      </trkpt>
      <trkpt lat="47.83873" lon="1.71881">
        <ele>71.93</ele>
        <time>2016-02-28T09:51:08.000Z</time>
      </trkpt>
      <trkpt lat="47.83878" lon="1.71892">
        <ele>71.93</ele>
        <time>2016-02-28T09:51:10.000Z</time>
      </trkpt>
      <trkpt lat="47.83884" lon="1.71903">
        <ele>71.93</ele>
        <time>2016-02-28T09:51:12.000Z</time>
      </trkpt>
      <trkpt lat="47.83893" lon="1.71918">
        <ele>71.93</ele>
        <time>2016-02-28T09:51:14.000Z</time>
      </trkpt>
      <trkpt lat="47.83899" lon="1.71929">
        <ele>71.93</ele>
        <time>2016-02-28T09:51:16.000Z</time>
      </trkpt>
      <trkpt lat="47.83902" lon="1.71934">
        <ele>71.93</ele>
        <time>2016-02-28T09:51:18.000Z</time>
      </trkpt>
      <trkpt lat="47.83909" lon="1.71944">
        <ele>71.93</ele>
        <time>2016-02-28T09:51:20.000Z</time>
      </trkpt>
      <trkpt lat="47.83915" lon="1.71955">
        <ele>71.93</ele>
        <time>2016-02-28T09:51:22.000Z</time>
      </trkpt>
      <trkpt lat="47.83921" lon="1.71965">
        <ele>71.93</ele>
        <time>2016-02-28T09:51:24.000Z</time>
      </trkpt>
      <trkpt lat="47.83927" lon="1.71976">
        <ele>71.93</ele>
        <time>2016-02-28T09:51:26.000Z</time>
      </trkpt>
      <trkpt lat="47.83933" lon="1.71987">
        <ele>71.93</ele>
        <time>2016-02-28T09:51:28.000Z</time>
      </trkpt>
      <trkpt lat="47.83942" lon="1.72003">
        <ele>71.93</ele>
        <time>2016-02-28T09:51:30.000Z</time>
      </trkpt>
      <trkpt lat="47.83945" lon="1.72009">
        <ele>71.93</ele>
        <time>2016-02-28T09:51:32.000Z</time>
      </trkpt>
      <trkpt lat="47.83952" lon="1.72019">
        <ele>71.93</ele>
        <time>2016-02-28T09:51:34.000Z</time>
      </trkpt>
      <trkpt lat="47.83958" lon="1.72031">
        <ele>71.93</ele>
        <time>2016-02-28T09:51:36.000Z</time>
      </trkpt>
      <trkpt lat="47.83964" lon="1.72042">
        <ele>71.93</ele>
        <time>2016-02-28T09:51:38.000Z</time>
      </trkpt>
      <trkpt lat="47.83971" lon="1.72053">
        <ele>71.93</ele>
        <time>2016-02-28T09:51:40.000Z</time>
      </trkpt>
      <trkpt lat="47.8398" lon="1.72069">
        <ele>71.93</ele>
        <time>2016-02-28T09:51:42.000Z</time>
      </trkpt>
      <trkpt lat="47.83986" lon="1.7208">
        <ele>71.93</ele>
        <time>2016-02-28T09:51:44.000Z</time>
      </trkpt>
      <trkpt lat="47.83989" lon="1.72086">
        <ele>71.93</ele>
        <time>2016-02-28T09:51:46.000Z</time>
      </trkpt>
      <trkpt lat="47.83995" lon="1.72097">
        <ele>71.93</ele>
        <time>2016-02-28T09:51:48.000Z</time>
      </trkpt>
      <trkpt lat="47.84001" lon="1.72108">
        <ele>71.93</ele>
        <time>2016-02-28T09:51:50.000Z</time>
      </trkpt>
      <trkpt lat="47.84008" lon="1.72119">
        <ele>71.93</ele>
        <time>2016-02-28T09:51:52.000Z</time>
      </trkpt>
      <trkpt lat="47.84014" lon="1.7213">
        <ele>71.93</ele>
        <time>2016-02-28T09:51:54.000Z</time>
      </trkpt>
      <trkpt lat="47.84021" lon="1.7214">
        <ele>71.93</ele>
        <time>2016-02-28T09:51:56.000Z</time>
      </trkpt>
      <trkpt lat="47.84033" lon="1.72154">
        <ele>71.93</ele>
        <time>2016-02-28T09:51:58.000Z</time>
      </trkpt>
      <trkpt lat="47.84036" lon="1.72159">
        <ele>71.93</ele>
        <time>2016-02-28T09:52:00.000Z</time>
      </trkpt>
      <trkpt lat="47.84044" lon="1.7217">
        <ele>71.93</ele>
        <time>2016-02-28T09:52:02.000Z</time>
      </trkpt>
      <trkpt lat="47.84051" lon="1.7218">
        <ele>71.93</ele>
        <time>2016-02-28T09:52:04.000Z</time>
      </trkpt>
      <trkpt lat="47.8406" lon="1.72191">
        <ele>71.93</ele>
        <time>2016-02-28T09:52:06.000Z</time>
      </trkpt>
      <trkpt lat="47.84067" lon="1.72202">
        <ele>71.93</ele>
        <time>2016-02-28T09:52:08.000Z</time>
      </trkpt>
      <trkpt lat="47.84074" lon="1.72212">
        <ele>71.93</ele>
        <time>2016-02-28T09:52:10.000Z</time>
      </trkpt>
      <trkpt lat="47.84084" lon="1.72226">
        <ele>71.93</ele>
        <time>2016-02-28T09:52:12.000Z</time>
      </trkpt>
      <trkpt lat="47.84087" lon="1.7223">
        <ele>71.93</ele>
        <time>2016-02-28T09:52:14.000Z</time>
      </trkpt>
      <trkpt lat="47.84094" lon="1.72239">
        <ele>71.93</ele>
        <time>2016-02-28T09:52:16.000Z</time>
      </trkpt>
      <trkpt lat="47.84101" lon="1.72248">
        <ele>73.15</ele>
        <time>2016-02-28T09:52:18.000Z</time>
      </trkpt>
      <trkpt lat="47.84108" lon="1.72257">
        <ele>73.15</ele>
        <time>2016-02-28T09:52:20.000Z</time>
      </trkpt>
      <trkpt lat="47.84116" lon="1.72263">
        <ele>73.15</ele>
        <time>2016-02-28T09:52:22.000Z</time>
      </trkpt>
      <trkpt lat="47.84123" lon="1.72273">
        <ele>73.15</ele>
        <time>2016-02-28T09:52:24.000Z</time>
      </trkpt>
      <trkpt lat="47.8413" lon="1.7228">
        <ele>73.15</ele>
        <time>2016-02-28T09:52:26.000Z</time>
      </trkpt>
      <trkpt lat="47.84137" lon="1.72288">
        <ele>74.07</ele>
        <time>2016-02-28T09:52:28.000Z</time>
      </trkpt>
      <trkpt lat="47.84145" lon="1.72294">
        <ele>74.07</ele>
        <time>2016-02-28T09:52:30.000Z</time>
      </trkpt>
      <trkpt lat="47.84154" lon="1.72304">
        <ele>74.07</ele>
        <time>2016-02-28T09:52:32.000Z</time>
      </trkpt>
      <trkpt lat="47.84162" lon="1.72314">
        <ele>74.07</ele>
        <time>2016-02-28T09:52:34.000Z</time>
      </trkpt>
      <trkpt lat="47.84169" lon="1.72325">
        <ele>74.07</ele>
        <time>2016-02-28T09:52:36.000Z</time>
      </trkpt>
      <trkpt lat="47.84176" lon="1.72337">
        <ele>73.15</ele>
        <time>2016-02-28T09:52:38.000Z</time>
      </trkpt>
      <trkpt lat="47.84185" lon="1.72349">
        <ele>73.15</ele>
        <time>2016-02-28T09:52:40.000Z</time>
      </trkpt>
      <trkpt lat="47.842" lon="1.72362">
        <ele>73.15</ele>
        <time>2016-02-28T09:52:42.000Z</time>
      </trkpt>
      <trkpt lat="47.84204" lon="1.72367">
        <ele>73.15</ele>
        <time>2016-02-28T09:52:44.000Z</time>
      </trkpt>
      <trkpt lat="47.84212" lon="1.72372">
        <ele>73.15</ele>
        <time>2016-02-28T09:52:46.000Z</time>
      </trkpt>
      <trkpt lat="47.84219" lon="1.72377">
        <ele>73.15</ele>
        <time>2016-02-28T09:52:48.000Z</time>
      </trkpt>
      <trkpt lat="47.84227" lon="1.72386">
        <ele>73.15</ele>
        <time>2016-02-28T09:52:50.000Z</time>
      </trkpt>
      <trkpt lat="47.84235" lon="1.72394">
        <ele>73.15</ele>
        <time>2016-02-28T09:52:52.000Z</time>
      </trkpt>
      <trkpt lat="47.84242" lon="1.72404">
        <ele>73.15</ele>
        <time>2016-02-28T09:52:54.000Z</time>
      </trkpt>
      <trkpt lat="47.84253" lon="1.72419">
        <ele>73.15</ele>
        <time>2016-02-28T09:52:56.000Z</time>
      </trkpt>
      <trkpt lat="47.84257" lon="1.72424">
        <ele>73.15</ele>
        <time>2016-02-28T09:52:58.000Z</time>
      </trkpt>
      <trkpt lat="47.84265" lon="1.72433">
        <ele>73.15</ele>
        <time>2016-02-28T09:53:00.000Z</time>
      </trkpt>
      <trkpt lat="47.8427" lon="1.72444">
        <ele>73.15</ele>
        <time>2016-02-28T09:53:02.000Z</time>
      </trkpt>
      <trkpt lat="47.84275" lon="1.72454">
        <ele>73.15</ele>
        <time>2016-02-28T09:53:04.000Z</time>
      </trkpt>
      <trkpt lat="47.84279" lon="1.72464">
        <ele>73.15</ele>
        <time>2016-02-28T09:53:06.000Z</time>
      </trkpt>
      <trkpt lat="47.84284" lon="1.72472">
        <ele>73.15</ele>
        <time>2016-02-28T09:53:08.000Z</time>
      </trkpt>
      <trkpt lat="47.84284" lon="1.72472">
        <ele>73.15</ele>
        <time>2016-02-28T09:53:10.000Z</time>
      </trkpt>
      <trkpt lat="47.84284" lon="1.72472">
        <ele>73.15</ele>
        <time>2016-02-28T09:53:12.000Z</time>
      </trkpt>
      <trkpt lat="47.84284" lon="1.72473">
        <ele>73.15</ele>
        <time>2016-02-28T09:53:14.000Z</time>
      </trkpt>
      <trkpt lat="47.84284" lon="1.72473">
        <ele>73.15</ele>
        <time>2016-02-28T09:53:16.000Z</time>
      </trkpt>
      <trkpt lat="47.84285" lon="1.72473">
        <ele>73.15</ele>
        <time>2016-02-28T09:53:18.000Z</time>
      </trkpt>
      <trkpt lat="47.84285" lon="1.72473">
        <ele>73.15</ele>
        <time>2016-02-28T09:53:20.000Z</time>
      </trkpt>
      <trkpt lat="47.84285" lon="1.72473">
        <ele>73.15</ele>
        <time>2016-02-28T09:53:22.000Z</time>
      </trkpt>
      <trkpt lat="47.84286" lon="1.72473">
        <ele>71.93</ele>
        <time>2016-02-28T09:53:24.000Z</time>
      </trkpt>
      <trkpt lat="47.84285" lon="1.72473">
        <ele>71.93</ele>
        <time>2016-02-28T09:53:26.000Z</time>
      </trkpt>
      <trkpt lat="47.84287" lon="1.72475">
        <ele>71.93</ele>
        <time>2016-02-28T09:53:28.000Z</time>
      </trkpt>
      <trkpt lat="47.8429" lon="1.72479">
        <ele>71.93</ele>
        <time>2016-02-28T09:53:30.000Z</time>
      </trkpt>
      <trkpt lat="47.84292" lon="1.72487">
        <ele>71.93</ele>
        <time>2016-02-28T09:53:32.000Z</time>
      </trkpt>
      <trkpt lat="47.84296" lon="1.72496">
        <ele>71.93</ele>
        <time>2016-02-28T09:53:34.000Z</time>
      </trkpt>
      <trkpt lat="47.84303" lon="1.72509">
        <ele>71.93</ele>
        <time>2016-02-28T09:53:36.000Z</time>
      </trkpt>
      <trkpt lat="47.84309" lon="1.72519">
        <ele>71.93</ele>
        <time>2016-02-28T09:53:38.000Z</time>
      </trkpt>
      <trkpt lat="47.84312" lon="1.72524">
        <ele>71.93</ele>
        <time>2016-02-28T09:53:40.000Z</time>
      </trkpt>
      <trkpt lat="47.84317" lon="1.72533">
        <ele>71.93</ele>
        <time>2016-02-28T09:53:42.000Z</time>
      </trkpt>
      <trkpt lat="47.84323" lon="1.72542">
        <ele>71.93</ele>
        <time>2016-02-28T09:53:44.000Z</time>
      </trkpt>
      <trkpt lat="47.84328" lon="1.72551">
        <ele>71.93</ele>
        <time>2016-02-28T09:53:46.000Z</time>
      </trkpt>
      <trkpt lat="47.84335" lon="1.72561">
        <ele>71.93</ele>
        <time>2016-02-28T09:53:48.000Z</time>
      </trkpt>
      <trkpt lat="47.84341" lon="1.72575">
        <ele>71.93</ele>
        <time>2016-02-28T09:53:50.000Z</time>
      </trkpt>
      <trkpt lat="47.8435" lon="1.72588">
        <ele>71.93</ele>
        <time>2016-02-28T09:53:52.000Z</time>
      </trkpt>
      <trkpt lat="47.84359" lon="1.72601">
        <ele>71.02</ele>
        <time>2016-02-28T09:53:54.000Z</time>
      </trkpt>
      <trkpt lat="47.84367" lon="1.72609">
        <ele>71.02</ele>
        <time>2016-02-28T09:53:56.000Z</time>
      </trkpt>
      <trkpt lat="47.84375" lon="1.72617">
        <ele>71.02</ele>
        <time>2016-02-28T09:53:58.000Z</time>
      </trkpt>
      <trkpt lat="47.84382" lon="1.72625">
        <ele>71.02</ele>
        <time>2016-02-28T09:54:00.000Z</time>
      </trkpt>
      <trkpt lat="47.8439" lon="1.72632">
        <ele>71.02</ele>
        <time>2016-02-28T09:54:02.000Z</time>
      </trkpt>
      <trkpt lat="47.84397" lon="1.72641">
        <ele>71.02</ele>
        <time>2016-02-28T09:54:04.000Z</time>
      </trkpt>
      <trkpt lat="47.84403" lon="1.7265">
        <ele>71.02</ele>
        <time>2016-02-28T09:54:06.000Z</time>
      </trkpt>
      <trkpt lat="47.8441" lon="1.72659">
        <ele>71.02</ele>
        <time>2016-02-28T09:54:08.000Z</time>
      </trkpt>
      <trkpt lat="47.84418" lon="1.72669">
        <ele>71.02</ele>
        <time>2016-02-28T09:54:10.000Z</time>
      </trkpt>
      <trkpt lat="47.84426" lon="1.7268">
        <ele>71.02</ele>
        <time>2016-02-28T09:54:12.000Z</time>
      </trkpt>
      <trkpt lat="47.84433" lon="1.7269">
        <ele>71.02</ele>
        <time>2016-02-28T09:54:14.000Z</time>
      </trkpt>
      <trkpt lat="47.84441" lon="1.72698">
        <ele>71.02</ele>
        <time>2016-02-28T09:54:16.000Z</time>
      </trkpt>
      <trkpt lat="47.84448" lon="1.72708">
        <ele>71.93</ele>
        <time>2016-02-28T09:54:18.000Z</time>
      </trkpt>
      <trkpt lat="47.84454" lon="1.72716">
        <ele>71.93</ele>
        <time>2016-02-28T09:54:20.000Z</time>
      </trkpt>
      <trkpt lat="47.8446" lon="1.72732">
        <ele>71.93</ele>
        <time>2016-02-28T09:54:22.000Z</time>
      </trkpt>
      <trkpt lat="47.84462" lon="1.72738">
        <ele>71.93</ele>
        <time>2016-02-28T09:54:24.000Z</time>
      </trkpt>
      <trkpt lat="47.84466" lon="1.72749">
        <ele>71.93</ele>
        <time>2016-02-28T09:54:26.000Z</time>
      </trkpt>
      <trkpt lat="47.84472" lon="1.72758">
        <ele>71.93</ele>
        <time>2016-02-28T09:54:28.000Z</time>
      </trkpt>
      <trkpt lat="47.84477" lon="1.72767">
        <ele>71.93</ele>
        <time>2016-02-28T09:54:30.000Z</time>
      </trkpt>
      <trkpt lat="47.84482" lon="1.72775">
        <ele>71.93</ele>
        <time>2016-02-28T09:54:32.000Z</time>
      </trkpt>
      <trkpt lat="47.84487" lon="1.72782">
        <ele>73.15</ele>
        <time>2016-02-28T09:54:34.000Z</time>
      </trkpt>
      <trkpt lat="47.84493" lon="1.72789">
        <ele>73.15</ele>
        <time>2016-02-28T09:54:36.000Z</time>
      </trkpt>
      <trkpt lat="47.84499" lon="1.72794">
        <ele>73.15</ele>
        <time>2016-02-28T09:54:38.000Z</time>
      </trkpt>
      <trkpt lat="47.84506" lon="1.72795">
        <ele>73.15</ele>
        <time>2016-02-28T09:54:40.000Z</time>
      </trkpt>
      <trkpt lat="47.84508" lon="1.72799">
        <ele>73.15</ele>
        <time>2016-02-28T09:54:42.000Z</time>
      </trkpt>
      <trkpt lat="47.84512" lon="1.72806">
        <ele>73.15</ele>
        <time>2016-02-28T09:54:44.000Z</time>
      </trkpt>
      <trkpt lat="47.84517" lon="1.72812">
        <ele>73.15</ele>
        <time>2016-02-28T09:54:46.000Z</time>
      </trkpt>
      <trkpt lat="47.84527" lon="1.72824">
        <ele>73.15</ele>
        <time>2016-02-28T09:54:48.000Z</time>
      </trkpt>
      <trkpt lat="47.84534" lon="1.72832">
        <ele>73.15</ele>
        <time>2016-02-28T09:54:50.000Z</time>
      </trkpt>
      <trkpt lat="47.84537" lon="1.72837">
        <ele>73.15</ele>
        <time>2016-02-28T09:54:52.000Z</time>
      </trkpt>
      <trkpt lat="47.84544" lon="1.72845">
        <ele>71.93</ele>
        <time>2016-02-28T09:54:54.000Z</time>
      </trkpt>
      <trkpt lat="47.84552" lon="1.72851">
        <ele>71.93</ele>
        <time>2016-02-28T09:54:56.000Z</time>
      </trkpt>
      <trkpt lat="47.8456" lon="1.72857">
        <ele>71.93</ele>
        <time>2016-02-28T09:54:58.000Z</time>
      </trkpt>
      <trkpt lat="47.84566" lon="1.72866">
        <ele>71.93</ele>
        <time>2016-02-28T09:55:00.000Z</time>
      </trkpt>
      <trkpt lat="47.84575" lon="1.72882">
        <ele>71.93</ele>
        <time>2016-02-28T09:55:02.000Z</time>
      </trkpt>
      <trkpt lat="47.84578" lon="1.72887">
        <ele>71.93</ele>
        <time>2016-02-28T09:55:04.000Z</time>
      </trkpt>
      <trkpt lat="47.84585" lon="1.72897">
        <ele>71.93</ele>
        <time>2016-02-28T09:55:06.000Z</time>
      </trkpt>
      <trkpt lat="47.84591" lon="1.72908">
        <ele>71.93</ele>
        <time>2016-02-28T09:55:08.000Z</time>
      </trkpt>
      <trkpt lat="47.84597" lon="1.72918">
        <ele>71.93</ele>
        <time>2016-02-28T09:55:10.000Z</time>
      </trkpt>
      <trkpt lat="47.84603" lon="1.72928">
        <ele>71.93</ele>
        <time>2016-02-28T09:55:12.000Z</time>
      </trkpt>
      <trkpt lat="47.84609" lon="1.72938">
        <ele>71.93</ele>
        <time>2016-02-28T09:55:14.000Z</time>
      </trkpt>
      <trkpt lat="47.84615" lon="1.72949">
        <ele>71.93</ele>
        <time>2016-02-28T09:55:16.000Z</time>
      </trkpt>
      <trkpt lat="47.84624" lon="1.72965">
        <ele>71.93</ele>
        <time>2016-02-28T09:55:18.000Z</time>
      </trkpt>
      <trkpt lat="47.84628" lon="1.7297">
        <ele>71.93</ele>
        <time>2016-02-28T09:55:20.000Z</time>
      </trkpt>
      <trkpt lat="47.84634" lon="1.7298">
        <ele>71.93</ele>
        <time>2016-02-28T09:55:22.000Z</time>
      </trkpt>
      <trkpt lat="47.8464" lon="1.72991">
        <ele>71.93</ele>
        <time>2016-02-28T09:55:24.000Z</time>
      </trkpt>
      <trkpt lat="47.84646" lon="1.73">
        <ele>71.93</ele>
        <time>2016-02-28T09:55:26.000Z</time>
      </trkpt>
      <trkpt lat="47.84651" lon="1.73009">
        <ele>71.93</ele>
        <time>2016-02-28T09:55:28.000Z</time>
      </trkpt>
      <trkpt lat="47.84655" lon="1.73018">
        <ele>71.93</ele>
        <time>2016-02-28T09:55:30.000Z</time>
      </trkpt>
      <trkpt lat="47.84662" lon="1.73033">
        <ele>71.93</ele>
        <time>2016-02-28T09:55:32.000Z</time>
      </trkpt>
      <trkpt lat="47.84665" lon="1.73038">
        <ele>73.15</ele>
        <time>2016-02-28T09:55:34.000Z</time>
      </trkpt>
      <trkpt lat="47.84671" lon="1.73048">
        <ele>73.15</ele>
        <time>2016-02-28T09:55:36.000Z</time>
      </trkpt>
      <trkpt lat="47.84676" lon="1.73059">
        <ele>73.15</ele>
        <time>2016-02-28T09:55:38.000Z</time>
      </trkpt>
      <trkpt lat="47.84681" lon="1.73069">
        <ele>73.15</ele>
        <time>2016-02-28T09:55:40.000Z</time>
      </trkpt>
      <trkpt lat="47.84687" lon="1.73077">
        <ele>73.15</ele>
        <time>2016-02-28T09:55:42.000Z</time>
      </trkpt>
      <trkpt lat="47.84693" lon="1.73086">
        <ele>73.15</ele>
        <time>2016-02-28T09:55:44.000Z</time>
      </trkpt>
      <trkpt lat="47.84701" lon="1.73102">
        <ele>73.15</ele>
        <time>2016-02-28T09:55:46.000Z</time>
      </trkpt>
      <trkpt lat="47.84704" lon="1.73108">
        <ele>73.15</ele>
        <time>2016-02-28T09:55:48.000Z</time>
      </trkpt>
      <trkpt lat="47.84709" lon="1.73119">
        <ele>73.15</ele>
        <time>2016-02-28T09:55:50.000Z</time>
      </trkpt>
      <trkpt lat="47.84715" lon="1.73129">
        <ele>73.15</ele>
        <time>2016-02-28T09:55:52.000Z</time>
      </trkpt>
      <trkpt lat="47.84721" lon="1.73138">
        <ele>73.15</ele>
        <time>2016-02-28T09:55:54.000Z</time>
      </trkpt>
      <trkpt lat="47.84727" lon="1.73147">
        <ele>73.15</ele>
        <time>2016-02-28T09:55:56.000Z</time>
      </trkpt>
      <trkpt lat="47.84734" lon="1.73156">
        <ele>73.15</ele>
        <time>2016-02-28T09:55:58.000Z</time>
      </trkpt>
      <trkpt lat="47.84741" lon="1.73166">
        <ele>73.15</ele>
        <time>2016-02-28T09:56:00.000Z</time>
      </trkpt>
      <trkpt lat="47.84746" lon="1.73177">
        <ele>73.15</ele>
        <time>2016-02-28T09:56:02.000Z</time>
      </trkpt>
      <trkpt lat="47.84752" lon="1.73188">
        <ele>73.15</ele>
        <time>2016-02-28T09:56:04.000Z</time>
      </trkpt>
      <trkpt lat="47.84758" lon="1.73198">
        <ele>73.15</ele>
        <time>2016-02-28T09:56:06.000Z</time>
      </trkpt>
      <trkpt lat="47.84763" lon="1.73208">
        <ele>73.15</ele>
        <time>2016-02-28T09:56:08.000Z</time>
      </trkpt>
      <trkpt lat="47.8477" lon="1.73219">
        <ele>73.15</ele>
        <time>2016-02-28T09:56:10.000Z</time>
      </trkpt>
      <trkpt lat="47.84776" lon="1.73229">
        <ele>73.15</ele>
        <time>2016-02-28T09:56:12.000Z</time>
      </trkpt>
      <trkpt lat="47.84782" lon="1.73239">
        <ele>73.15</ele>
        <time>2016-02-28T09:56:14.000Z</time>
      </trkpt>
      <trkpt lat="47.8479" lon="1.73255">
        <ele>73.15</ele>
        <time>2016-02-28T09:56:16.000Z</time>
      </trkpt>
      <trkpt lat="47.84793" lon="1.7326">
        <ele>73.15</ele>
        <time>2016-02-28T09:56:18.000Z</time>
      </trkpt>
      <trkpt lat="47.84799" lon="1.73271">
        <ele>73.15</ele>
        <time>2016-02-28T09:56:20.000Z</time>
      </trkpt>
      <trkpt lat="47.84804" lon="1.7328">
        <ele>73.15</ele>
        <time>2016-02-28T09:56:22.000Z</time>
      </trkpt>
      <trkpt lat="47.8481" lon="1.7329">
        <ele>73.15</ele>
        <time>2016-02-28T09:56:24.000Z</time>
      </trkpt>
      <trkpt lat="47.84817" lon="1.73299">
        <ele>73.15</ele>
        <time>2016-02-28T09:56:26.000Z</time>
      </trkpt>
      <trkpt lat="47.84823" lon="1.7331">
        <ele>73.15</ele>
        <time>2016-02-28T09:56:28.000Z</time>
      </trkpt>
      <trkpt lat="47.84829" lon="1.7332">
        <ele>73.15</ele>
        <time>2016-02-28T09:56:30.000Z</time>
      </trkpt>
      <trkpt lat="47.84835" lon="1.7333">
        <ele>73.15</ele>
        <time>2016-02-28T09:56:32.000Z</time>
      </trkpt>
      <trkpt lat="47.84841" lon="1.7334">
        <ele>73.15</ele>
        <time>2016-02-28T09:56:34.000Z</time>
      </trkpt>
      <trkpt lat="47.84848" lon="1.73349">
        <ele>73.15</ele>
        <time>2016-02-28T09:56:36.000Z</time>
      </trkpt>
      <trkpt lat="47.84854" lon="1.73358">
        <ele>74.07</ele>
        <time>2016-02-28T09:56:38.000Z</time>
      </trkpt>
      <trkpt lat="47.84861" lon="1.73366">
        <ele>74.07</ele>
        <time>2016-02-28T09:56:40.000Z</time>
      </trkpt>
      <trkpt lat="47.84867" lon="1.73375">
        <ele>74.07</ele>
        <time>2016-02-28T09:56:42.000Z</time>
      </trkpt>
      <trkpt lat="47.84873" lon="1.73384">
        <ele>74.98</ele>
        <time>2016-02-28T09:56:44.000Z</time>
      </trkpt>
      <trkpt lat="47.84877" lon="1.73394">
        <ele>74.98</ele>
        <time>2016-02-28T09:56:46.000Z</time>
      </trkpt>
      <trkpt lat="47.84881" lon="1.73404">
        <ele>74.98</ele>
        <time>2016-02-28T09:56:48.000Z</time>
      </trkpt>
      <trkpt lat="47.84888" lon="1.73415">
        <ele>74.98</ele>
        <time>2016-02-28T09:56:50.000Z</time>
      </trkpt>
      <trkpt lat="47.84896" lon="1.73428">
        <ele>74.98</ele>
        <time>2016-02-28T09:56:52.000Z</time>
      </trkpt>
      <trkpt lat="47.84903" lon="1.7344">
        <ele>74.98</ele>
        <time>2016-02-28T09:56:54.000Z</time>
      </trkpt>
      <trkpt lat="47.84909" lon="1.73454">
        <ele>74.98</ele>
        <time>2016-02-28T09:56:56.000Z</time>
      </trkpt>
      <trkpt lat="47.8492" lon="1.7347">
        <ele>74.07</ele>
        <time>2016-02-28T09:56:58.000Z</time>
      </trkpt>
      <trkpt lat="47.84924" lon="1.73476">
        <ele>74.07</ele>
        <time>2016-02-28T09:57:00.000Z</time>
      </trkpt>
      <trkpt lat="47.84931" lon="1.73487">
        <ele>74.07</ele>
        <time>2016-02-28T09:57:02.000Z</time>
      </trkpt>
      <trkpt lat="47.84939" lon="1.73499">
        <ele>74.07</ele>
        <time>2016-02-28T09:57:04.000Z</time>
      </trkpt>
      <trkpt lat="47.84946" lon="1.73511">
        <ele>74.07</ele>
        <time>2016-02-28T09:57:06.000Z</time>
      </trkpt>
      <trkpt lat="47.84953" lon="1.73523">
        <ele>74.07</ele>
        <time>2016-02-28T09:57:08.000Z</time>
      </trkpt>
      <trkpt lat="47.84959" lon="1.73534">
        <ele>74.07</ele>
        <time>2016-02-28T09:57:10.000Z</time>
      </trkpt>
      <trkpt lat="47.84962" lon="1.73548">
        <ele>74.07</ele>
        <time>2016-02-28T09:57:12.000Z</time>
      </trkpt>
      <trkpt lat="47.84965" lon="1.73565">
        <ele>74.07</ele>
        <time>2016-02-28T09:57:14.000Z</time>
      </trkpt>
      <trkpt lat="47.84969" lon="1.73585">
        <ele>74.07</ele>
        <time>2016-02-28T09:57:16.000Z</time>
      </trkpt>
      <trkpt lat="47.84972" lon="1.73604">
        <ele>71.93</ele>
        <time>2016-02-28T09:57:18.000Z</time>
      </trkpt>
      <trkpt lat="47.84976" lon="1.73622">
        <ele>71.93</ele>
        <time>2016-02-28T09:57:20.000Z</time>
      </trkpt>
      <trkpt lat="47.84982" lon="1.73636">
        <ele>71.93</ele>
        <time>2016-02-28T09:57:22.000Z</time>
      </trkpt>
      <trkpt lat="47.84987" lon="1.73649">
        <ele>71.02</ele>
        <time>2016-02-28T09:57:24.000Z</time>
      </trkpt>
      <trkpt lat="47.84991" lon="1.73662">
        <ele>71.02</ele>
        <time>2016-02-28T09:57:26.000Z</time>
      </trkpt>
      <trkpt lat="47.84995" lon="1.73677">
        <ele>71.02</ele>
        <time>2016-02-28T09:57:28.000Z</time>
      </trkpt>
      <trkpt lat="47.84995" lon="1.73691">
        <ele>71.02</ele>
        <time>2016-02-28T09:57:30.000Z</time>
      </trkpt>
      <trkpt lat="47.84996" lon="1.73704">
        <ele>71.02</ele>
        <time>2016-02-28T09:57:32.000Z</time>
      </trkpt>
      <trkpt lat="47.84999" lon="1.73717">
        <ele>70.1</ele>
        <time>2016-02-28T09:57:34.000Z</time>
      </trkpt>
      <trkpt lat="47.85003" lon="1.73731">
        <ele>70.1</ele>
        <time>2016-02-28T09:57:36.000Z</time>
      </trkpt>
      <trkpt lat="47.85006" lon="1.73744">
        <ele>70.1</ele>
        <time>2016-02-28T09:57:38.000Z</time>
      </trkpt>
      <trkpt lat="47.85009" lon="1.73756">
        <ele>70.1</ele>
        <time>2016-02-28T09:57:40.000Z</time>
      </trkpt>
      <trkpt lat="47.85015" lon="1.73773">
        <ele>70.1</ele>
        <time>2016-02-28T09:57:42.000Z</time>
      </trkpt>
      <trkpt lat="47.85016" lon="1.73779">
        <ele>68.88</ele>
        <time>2016-02-28T09:57:44.000Z</time>
      </trkpt>
      <trkpt lat="47.85019" lon="1.73792">
        <ele>68.88</ele>
        <time>2016-02-28T09:57:46.000Z</time>
      </trkpt>
      <trkpt lat="47.85022" lon="1.73804">
        <ele>68.88</ele>
        <time>2016-02-28T09:57:48.000Z</time>
      </trkpt>
      <trkpt lat="47.85025" lon="1.73816">
        <ele>68.88</ele>
        <time>2016-02-28T09:57:50.000Z</time>
      </trkpt>
      <trkpt lat="47.85028" lon="1.73828">
        <ele>68.88</ele>
        <time>2016-02-28T09:57:52.000Z</time>
      </trkpt>
      <trkpt lat="47.8503" lon="1.7384">
        <ele>68.88</ele>
        <time>2016-02-28T09:57:54.000Z</time>
      </trkpt>
      <trkpt lat="47.85033" lon="1.73853">
        <ele>68.88</ele>
        <time>2016-02-28T09:57:56.000Z</time>
      </trkpt>
      <trkpt lat="47.85037" lon="1.73865">
        <ele>68.88</ele>
        <time>2016-02-28T09:57:58.000Z</time>
      </trkpt>
      <trkpt lat="47.8504" lon="1.73877">
        <ele>68.88</ele>
        <time>2016-02-28T09:58:00.000Z</time>
      </trkpt>
      <trkpt lat="47.85044" lon="1.73889">
        <ele>68.88</ele>
        <time>2016-02-28T09:58:02.000Z</time>
      </trkpt>
      <trkpt lat="47.85047" lon="1.739">
        <ele>68.88</ele>
        <time>2016-02-28T09:58:04.000Z</time>
      </trkpt>
      <trkpt lat="47.85051" lon="1.73911">
        <ele>68.88</ele>
        <time>2016-02-28T09:58:06.000Z</time>
      </trkpt>
      <trkpt lat="47.85054" lon="1.73922">
        <ele>68.88</ele>
        <time>2016-02-28T09:58:08.000Z</time>
      </trkpt>
      <trkpt lat="47.85057" lon="1.73938">
        <ele>68.88</ele>
        <time>2016-02-28T09:58:10.000Z</time>
      </trkpt>
      <trkpt lat="47.85058" lon="1.73943">
        <ele>68.88</ele>
        <time>2016-02-28T09:58:12.000Z</time>
      </trkpt>
      <trkpt lat="47.85059" lon="1.73953">
        <ele>68.88</ele>
        <time>2016-02-28T09:58:14.000Z</time>
      </trkpt>
      <trkpt lat="47.8506" lon="1.73963">
        <ele>68.88</ele>
        <time>2016-02-28T09:58:16.000Z</time>
      </trkpt>
      <trkpt lat="47.8506" lon="1.73972">
        <ele>68.88</ele>
        <time>2016-02-28T09:58:18.000Z</time>
      </trkpt>
      <trkpt lat="47.8506" lon="1.73981">
        <ele>68.88</ele>
        <time>2016-02-28T09:58:20.000Z</time>
      </trkpt>
      <trkpt lat="47.85062" lon="1.73996">
        <ele>68.88</ele>
        <time>2016-02-28T09:58:22.000Z</time>
      </trkpt>
      <trkpt lat="47.85065" lon="1.74006">
        <ele>68.88</ele>
        <time>2016-02-28T09:58:24.000Z</time>
      </trkpt>
      <trkpt lat="47.85066" lon="1.74011">
        <ele>68.88</ele>
        <time>2016-02-28T09:58:26.000Z</time>
      </trkpt>
      <trkpt lat="47.85069" lon="1.74021">
        <ele>68.88</ele>
        <time>2016-02-28T09:58:28.000Z</time>
      </trkpt>
      <trkpt lat="47.85073" lon="1.74031">
        <ele>68.88</ele>
        <time>2016-02-28T09:58:30.000Z</time>
      </trkpt>
      <trkpt lat="47.85077" lon="1.7404">
        <ele>68.88</ele>
        <time>2016-02-28T09:58:32.000Z</time>
      </trkpt>
      <trkpt lat="47.85081" lon="1.7405">
        <ele>68.88</ele>
        <time>2016-02-28T09:58:34.000Z</time>
      </trkpt>
      <trkpt lat="47.85085" lon="1.7406">
        <ele>68.88</ele>
        <time>2016-02-28T09:58:36.000Z</time>
      </trkpt>
      <trkpt lat="47.8509" lon="1.74077">
        <ele>68.88</ele>
        <time>2016-02-28T09:58:38.000Z</time>
      </trkpt>
      <trkpt lat="47.85091" lon="1.74083">
        <ele>68.88</ele>
        <time>2016-02-28T09:58:40.000Z</time>
      </trkpt>
      <trkpt lat="47.85095" lon="1.74095">
        <ele>68.88</ele>
        <time>2016-02-28T09:58:42.000Z</time>
      </trkpt>
      <trkpt lat="47.85098" lon="1.74107">
        <ele>68.88</ele>
        <time>2016-02-28T09:58:44.000Z</time>
      </trkpt>
      <trkpt lat="47.851" lon="1.74119">
        <ele>68.88</ele>
        <time>2016-02-28T09:58:46.000Z</time>
      </trkpt>
      <trkpt lat="47.851" lon="1.74132">
        <ele>68.88</ele>
        <time>2016-02-28T09:58:48.000Z</time>
      </trkpt>
      <trkpt lat="47.85096" lon="1.74144">
        <ele>68.88</ele>
        <time>2016-02-28T09:58:50.000Z</time>
      </trkpt>
      <trkpt lat="47.85091" lon="1.74155">
        <ele>68.88</ele>
        <time>2016-02-28T09:58:52.000Z</time>
      </trkpt>
      <trkpt lat="47.85084" lon="1.74164">
        <ele>68.88</ele>
        <time>2016-02-28T09:58:54.000Z</time>
      </trkpt>
      <trkpt lat="47.85076" lon="1.7417">
        <ele>68.88</ele>
        <time>2016-02-28T09:58:56.000Z</time>
      </trkpt>
      <trkpt lat="47.85068" lon="1.74176">
        <ele>68.88</ele>
        <time>2016-02-28T09:58:58.000Z</time>
      </trkpt>
      <trkpt lat="47.8506" lon="1.74184">
        <ele>68.88</ele>
        <time>2016-02-28T09:59:00.000Z</time>
      </trkpt>
      <trkpt lat="47.85052" lon="1.74192">
        <ele>68.88</ele>
        <time>2016-02-28T09:59:02.000Z</time>
      </trkpt>
      <trkpt lat="47.85045" lon="1.74201">
        <ele>70.1</ele>
        <time>2016-02-28T09:59:04.000Z</time>
      </trkpt>
      <trkpt lat="47.85038" lon="1.74216">
        <ele>70.1</ele>
        <time>2016-02-28T09:59:06.000Z</time>
      </trkpt>
      <trkpt lat="47.85037" lon="1.74222">
        <ele>71.02</ele>
        <time>2016-02-28T09:59:08.000Z</time>
      </trkpt>
      <trkpt lat="47.85037" lon="1.74232">
        <ele>71.02</ele>
        <time>2016-02-28T09:59:10.000Z</time>
      </trkpt>
      <trkpt lat="47.8504" lon="1.74243">
        <ele>71.02</ele>
        <time>2016-02-28T09:59:12.000Z</time>
      </trkpt>
      <trkpt lat="47.85044" lon="1.74253">
        <ele>71.02</ele>
        <time>2016-02-28T09:59:14.000Z</time>
      </trkpt>
      <trkpt lat="47.85049" lon="1.74265">
        <ele>71.02</ele>
        <time>2016-02-28T09:59:16.000Z</time>
      </trkpt>
      <trkpt lat="47.85054" lon="1.74276">
        <ele>71.02</ele>
        <time>2016-02-28T09:59:18.000Z</time>
      </trkpt>
      <trkpt lat="47.85061" lon="1.74292">
        <ele>71.02</ele>
        <time>2016-02-28T09:59:20.000Z</time>
      </trkpt>
      <trkpt lat="47.85064" lon="1.74298">
        <ele>71.02</ele>
        <time>2016-02-28T09:59:22.000Z</time>
      </trkpt>
      <trkpt lat="47.85068" lon="1.74309">
        <ele>71.02</ele>
        <time>2016-02-28T09:59:24.000Z</time>
      </trkpt>
      <trkpt lat="47.85073" lon="1.7432">
        <ele>71.02</ele>
        <time>2016-02-28T09:59:26.000Z</time>
      </trkpt>
      <trkpt lat="47.85077" lon="1.74331">
        <ele>71.02</ele>
        <time>2016-02-28T09:59:28.000Z</time>
      </trkpt>
      <trkpt lat="47.85081" lon="1.74343">
        <ele>71.02</ele>
        <time>2016-02-28T09:59:30.000Z</time>
      </trkpt>
      <trkpt lat="47.85085" lon="1.74356">
        <ele>71.02</ele>
        <time>2016-02-28T09:59:32.000Z</time>
      </trkpt>
      <trkpt lat="47.85088" lon="1.74369">
        <ele>71.02</ele>
        <time>2016-02-28T09:59:34.000Z</time>
      </trkpt>
      <trkpt lat="47.85093" lon="1.74389">
        <ele>71.02</ele>
        <time>2016-02-28T09:59:36.000Z</time>
      </trkpt>
      <trkpt lat="47.85095" lon="1.74395">
        <ele>71.02</ele>
        <time>2016-02-28T09:59:38.000Z</time>
      </trkpt>
      <trkpt lat="47.851" lon="1.74406">
        <ele>71.02</ele>
        <time>2016-02-28T09:59:40.000Z</time>
      </trkpt>
      <trkpt lat="47.85104" lon="1.74417">
        <ele>71.02</ele>
        <time>2016-02-28T09:59:42.000Z</time>
      </trkpt>
      <trkpt lat="47.85109" lon="1.7443">
        <ele>70.1</ele>
        <time>2016-02-28T09:59:44.000Z</time>
      </trkpt>
      <trkpt lat="47.85113" lon="1.74442">
        <ele>70.1</ele>
        <time>2016-02-28T09:59:46.000Z</time>
      </trkpt>
      <trkpt lat="47.8512" lon="1.74462">
        <ele>70.1</ele>
        <time>2016-02-28T09:59:48.000Z</time>
      </trkpt>
      <trkpt lat="47.85125" lon="1.74474">
        <ele>70.1</ele>
        <time>2016-02-28T09:59:50.000Z</time>
      </trkpt>
      <trkpt lat="47.85127" lon="1.74481">
        <ele>70.1</ele>
        <time>2016-02-28T09:59:52.000Z</time>
      </trkpt>
      <trkpt lat="47.85131" lon="1.74493">
        <ele>70.1</ele>
        <time>2016-02-28T09:59:54.000Z</time>
      </trkpt>
      <trkpt lat="47.85136" lon="1.74506">
        <ele>70.1</ele>
        <time>2016-02-28T09:59:56.000Z</time>
      </trkpt>
      <trkpt lat="47.85141" lon="1.74519">
        <ele>70.1</ele>
        <time>2016-02-28T09:59:58.000Z</time>
      </trkpt>
      <trkpt lat="47.85145" lon="1.74532">
        <ele>70.1</ele>
        <time>2016-02-28T10:00:00.000Z</time>
      </trkpt>
      <trkpt lat="47.85152" lon="1.7455">
        <ele>70.1</ele>
        <time>2016-02-28T10:00:02.000Z</time>
      </trkpt>
      <trkpt lat="47.85154" lon="1.74556">
        <ele>70.1</ele>
        <time>2016-02-28T10:00:04.000Z</time>
      </trkpt>
      <trkpt lat="47.85159" lon="1.74569">
        <ele>70.1</ele>
        <time>2016-02-28T10:00:06.000Z</time>
      </trkpt>
      <trkpt lat="47.85164" lon="1.74581">
        <ele>70.1</ele>
        <time>2016-02-28T10:00:08.000Z</time>
      </trkpt>
      <trkpt lat="47.85167" lon="1.74587">
        <ele>70.1</ele>
        <time>2016-02-28T10:00:10.000Z</time>
      </trkpt>
      <trkpt lat="47.85174" lon="1.74606">
        <ele>70.1</ele>
        <time>2016-02-28T10:00:12.000Z</time>
      </trkpt>
      <trkpt lat="47.85178" lon="1.74618">
        <ele>70.1</ele>
        <time>2016-02-28T10:00:14.000Z</time>
      </trkpt>
      <trkpt lat="47.85186" lon="1.74636">
        <ele>70.1</ele>
        <time>2016-02-28T10:00:16.000Z</time>
      </trkpt>
      <trkpt lat="47.85191" lon="1.74648">
        <ele>70.1</ele>
        <time>2016-02-28T10:00:18.000Z</time>
      </trkpt>
      <trkpt lat="47.85193" lon="1.74654">
        <ele>70.1</ele>
        <time>2016-02-28T10:00:20.000Z</time>
      </trkpt>
      <trkpt lat="47.85199" lon="1.74666">
        <ele>70.1</ele>
        <time>2016-02-28T10:00:22.000Z</time>
      </trkpt>
      <trkpt lat="47.85204" lon="1.74679">
        <ele>70.1</ele>
        <time>2016-02-28T10:00:24.000Z</time>
      </trkpt>
      <trkpt lat="47.85209" lon="1.74691">
        <ele>70.1</ele>
        <time>2016-02-28T10:00:26.000Z</time>
      </trkpt>
      <trkpt lat="47.85214" lon="1.74702">
        <ele>70.1</ele>
        <time>2016-02-28T10:00:28.000Z</time>
      </trkpt>
      <trkpt lat="47.85223" lon="1.7472">
        <ele>70.1</ele>
        <time>2016-02-28T10:00:30.000Z</time>
      </trkpt>
      <trkpt lat="47.85229" lon="1.74732">
        <ele>70.1</ele>
        <time>2016-02-28T10:00:32.000Z</time>
      </trkpt>
      <trkpt lat="47.85232" lon="1.74737">
        <ele>70.1</ele>
        <time>2016-02-28T10:00:34.000Z</time>
      </trkpt>
      <trkpt lat="47.85239" lon="1.74748">
        <ele>70.1</ele>
        <time>2016-02-28T10:00:36.000Z</time>
      </trkpt>
      <trkpt lat="47.85245" lon="1.74759">
        <ele>70.1</ele>
        <time>2016-02-28T10:00:38.000Z</time>
      </trkpt>
      <trkpt lat="47.85252" lon="1.7477">
        <ele>70.1</ele>
        <time>2016-02-28T10:00:40.000Z</time>
      </trkpt>
      <trkpt lat="47.85259" lon="1.74781">
        <ele>70.1</ele>
        <time>2016-02-28T10:00:42.000Z</time>
      </trkpt>
      <trkpt lat="47.85266" lon="1.74792">
        <ele>70.1</ele>
        <time>2016-02-28T10:00:44.000Z</time>
      </trkpt>
      <trkpt lat="47.85276" lon="1.7481">
        <ele>70.1</ele>
        <time>2016-02-28T10:00:46.000Z</time>
      </trkpt>
      <trkpt lat="47.8528" lon="1.74816">
        <ele>70.1</ele>
        <time>2016-02-28T10:00:48.000Z</time>
      </trkpt>
      <trkpt lat="47.85287" lon="1.74827">
        <ele>70.1</ele>
        <time>2016-02-28T10:00:50.000Z</time>
      </trkpt>
      <trkpt lat="47.85294" lon="1.74837">
        <ele>70.1</ele>
        <time>2016-02-28T10:00:52.000Z</time>
      </trkpt>
      <trkpt lat="47.85302" lon="1.74848">
        <ele>70.1</ele>
        <time>2016-02-28T10:00:54.000Z</time>
      </trkpt>
      <trkpt lat="47.85309" lon="1.74859">
        <ele>70.1</ele>
        <time>2016-02-28T10:00:56.000Z</time>
      </trkpt>
      <trkpt lat="47.85315" lon="1.74871">
        <ele>70.1</ele>
        <time>2016-02-28T10:00:58.000Z</time>
      </trkpt>
      <trkpt lat="47.85325" lon="1.74888">
        <ele>70.1</ele>
        <time>2016-02-28T10:01:00.000Z</time>
      </trkpt>
      <trkpt lat="47.85329" lon="1.74894">
        <ele>70.1</ele>
        <time>2016-02-28T10:01:02.000Z</time>
      </trkpt>
      <trkpt lat="47.85336" lon="1.74906">
        <ele>70.1</ele>
        <time>2016-02-28T10:01:04.000Z</time>
      </trkpt>
      <trkpt lat="47.85342" lon="1.74918">
        <ele>70.1</ele>
        <time>2016-02-28T10:01:06.000Z</time>
      </trkpt>
      <trkpt lat="47.85348" lon="1.74931">
        <ele>70.1</ele>
        <time>2016-02-28T10:01:08.000Z</time>
      </trkpt>
      <trkpt lat="47.85353" lon="1.74944">
        <ele>70.1</ele>
        <time>2016-02-28T10:01:10.000Z</time>
      </trkpt>
      <trkpt lat="47.85358" lon="1.74958">
        <ele>70.1</ele>
        <time>2016-02-28T10:01:12.000Z</time>
      </trkpt>
      <trkpt lat="47.85363" lon="1.74971">
        <ele>70.1</ele>
        <time>2016-02-28T10:01:14.000Z</time>
      </trkpt>
      <trkpt lat="47.8537" lon="1.7499">
        <ele>70.1</ele>
        <time>2016-02-28T10:01:16.000Z</time>
      </trkpt>
      <trkpt lat="47.85372" lon="1.74997">
        <ele>70.1</ele>
        <time>2016-02-28T10:01:18.000Z</time>
      </trkpt>
      <trkpt lat="47.85377" lon="1.75009">
        <ele>70.1</ele>
        <time>2016-02-28T10:01:20.000Z</time>
      </trkpt>
      <trkpt lat="47.85382" lon="1.75023">
        <ele>70.1</ele>
        <time>2016-02-28T10:01:22.000Z</time>
      </trkpt>
      <trkpt lat="47.85387" lon="1.75034">
        <ele>70.1</ele>
        <time>2016-02-28T10:01:24.000Z</time>
      </trkpt>
      <trkpt lat="47.85392" lon="1.75047">
        <ele>70.1</ele>
        <time>2016-02-28T10:01:26.000Z</time>
      </trkpt>
      <trkpt lat="47.85397" lon="1.75059">
        <ele>70.1</ele>
        <time>2016-02-28T10:01:28.000Z</time>
      </trkpt>
      <trkpt lat="47.85402" lon="1.75073">
        <ele>70.1</ele>
        <time>2016-02-28T10:01:30.000Z</time>
      </trkpt>
      <trkpt lat="47.85407" lon="1.75086">
        <ele>70.1</ele>
        <time>2016-02-28T10:01:32.000Z</time>
      </trkpt>
      <trkpt lat="47.85413" lon="1.75099">
        <ele>70.1</ele>
        <time>2016-02-28T10:01:34.000Z</time>
      </trkpt>
      <trkpt lat="47.85418" lon="1.75111">
        <ele>70.1</ele>
        <time>2016-02-28T10:01:36.000Z</time>
      </trkpt>
      <trkpt lat="47.85424" lon="1.75124">
        <ele>70.1</ele>
        <time>2016-02-28T10:01:38.000Z</time>
      </trkpt>
      <trkpt lat="47.8543" lon="1.75135">
        <ele>68.88</ele>
        <time>2016-02-28T10:01:40.000Z</time>
      </trkpt>
      <trkpt lat="47.85439" lon="1.75151">
        <ele>68.88</ele>
        <time>2016-02-28T10:01:42.000Z</time>
      </trkpt>
      <trkpt lat="47.85447" lon="1.75158">
        <ele>68.88</ele>
        <time>2016-02-28T10:01:44.000Z</time>
      </trkpt>
      <trkpt lat="47.85452" lon="1.7516">
        <ele>68.88</ele>
        <time>2016-02-28T10:01:46.000Z</time>
      </trkpt>
      <trkpt lat="47.85461" lon="1.75162">
        <ele>68.88</ele>
        <time>2016-02-28T10:01:48.000Z</time>
      </trkpt>
      <trkpt lat="47.8547" lon="1.75161">
        <ele>68.88</ele>
        <time>2016-02-28T10:01:50.000Z</time>
      </trkpt>
      <trkpt lat="47.85477" lon="1.75166">
        <ele>68.88</ele>
        <time>2016-02-28T10:01:52.000Z</time>
      </trkpt>
      <trkpt lat="47.85477" lon="1.75176">
        <ele>68.88</ele>
        <time>2016-02-28T10:01:54.000Z</time>
      </trkpt>
      <trkpt lat="47.85478" lon="1.75188">
        <ele>68.88</ele>
        <time>2016-02-28T10:01:56.000Z</time>
      </trkpt>
      <trkpt lat="47.8548" lon="1.75211">
        <ele>68.88</ele>
        <time>2016-02-28T10:01:58.000Z</time>
      </trkpt>
      <trkpt lat="47.85481" lon="1.75219">
        <ele>68.88</ele>
        <time>2016-02-28T10:02:00.000Z</time>
      </trkpt>
      <trkpt lat="47.85484" lon="1.75235">
        <ele>68.88</ele>
        <time>2016-02-28T10:02:02.000Z</time>
      </trkpt>
      <trkpt lat="47.85489" lon="1.75249">
        <ele>68.88</ele>
        <time>2016-02-28T10:02:04.000Z</time>
      </trkpt>
      <trkpt lat="47.85494" lon="1.75263">
        <ele>68.88</ele>
        <time>2016-02-28T10:02:06.000Z</time>
      </trkpt>
      <trkpt lat="47.85499" lon="1.75276">
        <ele>68.88</ele>
        <time>2016-02-28T10:02:08.000Z</time>
      </trkpt>
      <trkpt lat="47.85503" lon="1.75291">
        <ele>68.88</ele>
        <time>2016-02-28T10:02:10.000Z</time>
      </trkpt>
      <trkpt lat="47.85511" lon="1.75312">
        <ele>68.88</ele>
        <time>2016-02-28T10:02:12.000Z</time>
      </trkpt>
      <trkpt lat="47.85514" lon="1.75319">
        <ele>68.88</ele>
        <time>2016-02-28T10:02:14.000Z</time>
      </trkpt>
      <trkpt lat="47.85521" lon="1.75332">
        <ele>68.88</ele>
        <time>2016-02-28T10:02:16.000Z</time>
      </trkpt>
      <trkpt lat="47.85528" lon="1.75344">
        <ele>68.88</ele>
        <time>2016-02-28T10:02:18.000Z</time>
      </trkpt>
      <trkpt lat="47.85535" lon="1.75356">
        <ele>68.88</ele>
        <time>2016-02-28T10:02:20.000Z</time>
      </trkpt>
      <trkpt lat="47.85543" lon="1.75367">
        <ele>68.88</ele>
        <time>2016-02-28T10:02:22.000Z</time>
      </trkpt>
      <trkpt lat="47.8555" lon="1.75379">
        <ele>71.02</ele>
        <time>2016-02-28T10:02:24.000Z</time>
      </trkpt>
      <trkpt lat="47.8556" lon="1.75398">
        <ele>71.02</ele>
        <time>2016-02-28T10:02:26.000Z</time>
      </trkpt>
      <trkpt lat="47.85564" lon="1.75403">
        <ele>71.02</ele>
        <time>2016-02-28T10:02:28.000Z</time>
      </trkpt>
      <trkpt lat="47.85571" lon="1.75415">
        <ele>71.02</ele>
        <time>2016-02-28T10:02:30.000Z</time>
      </trkpt>
      <trkpt lat="47.85579" lon="1.75426">
        <ele>71.02</ele>
        <time>2016-02-28T10:02:32.000Z</time>
      </trkpt>
      <trkpt lat="47.85586" lon="1.75438">
        <ele>71.02</ele>
        <time>2016-02-28T10:02:34.000Z</time>
      </trkpt>
      <trkpt lat="47.85593" lon="1.75449">
        <ele>71.02</ele>
        <time>2016-02-28T10:02:36.000Z</time>
      </trkpt>
      <trkpt lat="47.856" lon="1.75461">
        <ele>71.02</ele>
        <time>2016-02-28T10:02:38.000Z</time>
      </trkpt>
      <trkpt lat="47.85608" lon="1.75471">
        <ele>71.02</ele>
        <time>2016-02-28T10:02:40.000Z</time>
      </trkpt>
      <trkpt lat="47.85618" lon="1.75489">
        <ele>71.02</ele>
        <time>2016-02-28T10:02:42.000Z</time>
      </trkpt>
      <trkpt lat="47.85621" lon="1.75495">
        <ele>71.02</ele>
        <time>2016-02-28T10:02:44.000Z</time>
      </trkpt>
      <trkpt lat="47.85627" lon="1.75505">
        <ele>71.02</ele>
        <time>2016-02-28T10:02:46.000Z</time>
      </trkpt>
      <trkpt lat="47.85633" lon="1.75515">
        <ele>71.02</ele>
        <time>2016-02-28T10:02:48.000Z</time>
      </trkpt>
      <trkpt lat="47.85631" lon="1.75529">
        <ele>70.1</ele>
        <time>2016-02-28T10:02:50.000Z</time>
      </trkpt>
      <trkpt lat="47.8562" lon="1.75536">
        <ele>70.1</ele>
        <time>2016-02-28T10:02:52.000Z</time>
      </trkpt>
      <trkpt lat="47.8561" lon="1.75545">
        <ele>68.88</ele>
        <time>2016-02-28T10:02:54.000Z</time>
      </trkpt>
      <trkpt lat="47.85604" lon="1.75558">
        <ele>68.88</ele>
        <time>2016-02-28T10:02:56.000Z</time>
      </trkpt>
      <trkpt lat="47.85604" lon="1.75571">
        <ele>68.88</ele>
        <time>2016-02-28T10:02:58.000Z</time>
      </trkpt>
      <trkpt lat="47.85606" lon="1.75586">
        <ele>68.88</ele>
        <time>2016-02-28T10:03:00.000Z</time>
      </trkpt>
      <trkpt lat="47.8561" lon="1.75599">
        <ele>68.88</ele>
        <time>2016-02-28T10:03:02.000Z</time>
      </trkpt>
      <trkpt lat="47.85614" lon="1.75614">
        <ele>68.88</ele>
        <time>2016-02-28T10:03:04.000Z</time>
      </trkpt>
      <trkpt lat="47.85619" lon="1.75627">
        <ele>68.88</ele>
        <time>2016-02-28T10:03:06.000Z</time>
      </trkpt>
      <trkpt lat="47.85625" lon="1.75639">
        <ele>68.88</ele>
        <time>2016-02-28T10:03:08.000Z</time>
      </trkpt>
      <trkpt lat="47.85633" lon="1.7566">
        <ele>68.88</ele>
        <time>2016-02-28T10:03:10.000Z</time>
      </trkpt>
      <trkpt lat="47.85635" lon="1.75667">
        <ele>68.88</ele>
        <time>2016-02-28T10:03:12.000Z</time>
      </trkpt>
      <trkpt lat="47.85639" lon="1.75682">
        <ele>68.88</ele>
        <time>2016-02-28T10:03:14.000Z</time>
      </trkpt>
      <trkpt lat="47.85646" lon="1.75693">
        <ele>68.88</ele>
        <time>2016-02-28T10:03:16.000Z</time>
      </trkpt>
      <trkpt lat="47.85652" lon="1.75706">
        <ele>68.88</ele>
        <time>2016-02-28T10:03:18.000Z</time>
      </trkpt>
      <trkpt lat="47.85657" lon="1.75719">
        <ele>68.88</ele>
        <time>2016-02-28T10:03:20.000Z</time>
      </trkpt>
      <trkpt lat="47.85664" lon="1.75738">
        <ele>68.88</ele>
        <time>2016-02-28T10:03:22.000Z</time>
      </trkpt>
      <trkpt lat="47.85669" lon="1.7575">
        <ele>68.88</ele>
        <time>2016-02-28T10:03:24.000Z</time>
      </trkpt>
      <trkpt lat="47.85672" lon="1.75755">
        <ele>68.88</ele>
        <time>2016-02-28T10:03:26.000Z</time>
      </trkpt>
      <trkpt lat="47.85677" lon="1.75765">
        <ele>68.88</ele>
        <time>2016-02-28T10:03:28.000Z</time>
      </trkpt>
      <trkpt lat="47.85683" lon="1.75774">
        <ele>68.88</ele>
        <time>2016-02-28T10:03:30.000Z</time>
      </trkpt>
      <trkpt lat="47.85688" lon="1.75788">
        <ele>68.88</ele>
        <time>2016-02-28T10:03:32.000Z</time>
      </trkpt>
      <trkpt lat="47.85695" lon="1.758">
        <ele>68.88</ele>
        <time>2016-02-28T10:03:34.000Z</time>
      </trkpt>
      <trkpt lat="47.85705" lon="1.75818">
        <ele>68.88</ele>
        <time>2016-02-28T10:03:36.000Z</time>
      </trkpt>
      <trkpt lat="47.85711" lon="1.75828">
        <ele>68.88</ele>
        <time>2016-02-28T10:03:38.000Z</time>
      </trkpt>
      <trkpt lat="47.85714" lon="1.75833">
        <ele>68.88</ele>
        <time>2016-02-28T10:03:40.000Z</time>
      </trkpt>
      <trkpt lat="47.85721" lon="1.75843">
        <ele>68.88</ele>
        <time>2016-02-28T10:03:42.000Z</time>
      </trkpt>
      <trkpt lat="47.85727" lon="1.75853">
        <ele>71.02</ele>
        <time>2016-02-28T10:03:44.000Z</time>
      </trkpt>
      <trkpt lat="47.85732" lon="1.75866">
        <ele>71.02</ele>
        <time>2016-02-28T10:03:46.000Z</time>
      </trkpt>
      <trkpt lat="47.85738" lon="1.75876">
        <ele>71.02</ele>
        <time>2016-02-28T10:03:48.000Z</time>
      </trkpt>
      <trkpt lat="47.85745" lon="1.75886">
        <ele>71.02</ele>
        <time>2016-02-28T10:03:50.000Z</time>
      </trkpt>
      <trkpt lat="47.85752" lon="1.75897">
        <ele>71.02</ele>
        <time>2016-02-28T10:03:52.000Z</time>
      </trkpt>
      <trkpt lat="47.85758" lon="1.75907">
        <ele>71.02</ele>
        <time>2016-02-28T10:03:54.000Z</time>
      </trkpt>
      <trkpt lat="47.85764" lon="1.75919">
        <ele>71.02</ele>
        <time>2016-02-28T10:03:56.000Z</time>
      </trkpt>
      <trkpt lat="47.8577" lon="1.7593">
        <ele>71.02</ele>
        <time>2016-02-28T10:03:58.000Z</time>
      </trkpt>
      <trkpt lat="47.85776" lon="1.7594">
        <ele>71.02</ele>
        <time>2016-02-28T10:04:00.000Z</time>
      </trkpt>
      <trkpt lat="47.85784" lon="1.75949">
        <ele>71.02</ele>
        <time>2016-02-28T10:04:02.000Z</time>
      </trkpt>
      <trkpt lat="47.8579" lon="1.75958">
        <ele>71.02</ele>
        <time>2016-02-28T10:04:04.000Z</time>
      </trkpt>
      <trkpt lat="47.858" lon="1.75971">
        <ele>71.02</ele>
        <time>2016-02-28T10:04:06.000Z</time>
      </trkpt>
      <trkpt lat="47.85803" lon="1.75974">
        <ele>71.02</ele>
        <time>2016-02-28T10:04:08.000Z</time>
      </trkpt>
      <trkpt lat="47.8581" lon="1.75983">
        <ele>71.02</ele>
        <time>2016-02-28T10:04:10.000Z</time>
      </trkpt>
      <trkpt lat="47.85815" lon="1.75993">
        <ele>71.02</ele>
        <time>2016-02-28T10:04:12.000Z</time>
      </trkpt>
      <trkpt lat="47.85821" lon="1.76002">
        <ele>70.1</ele>
        <time>2016-02-28T10:04:14.000Z</time>
      </trkpt>
      <trkpt lat="47.85827" lon="1.76011">
        <ele>70.1</ele>
        <time>2016-02-28T10:04:16.000Z</time>
      </trkpt>
      <trkpt lat="47.85832" lon="1.76019">
        <ele>70.1</ele>
        <time>2016-02-28T10:04:18.000Z</time>
      </trkpt>
      <trkpt lat="47.85837" lon="1.76028">
        <ele>70.1</ele>
        <time>2016-02-28T10:04:20.000Z</time>
      </trkpt>
      <trkpt lat="47.85843" lon="1.76035">
        <ele>70.1</ele>
        <time>2016-02-28T10:04:22.000Z</time>
      </trkpt>
      <trkpt lat="47.85848" lon="1.76043">
        <ele>70.1</ele>
        <time>2016-02-28T10:04:24.000Z</time>
      </trkpt>
      <trkpt lat="47.85854" lon="1.76052">
        <ele>70.1</ele>
        <time>2016-02-28T10:04:26.000Z</time>
      </trkpt>
      <trkpt lat="47.8586" lon="1.7606">
        <ele>70.1</ele>
        <time>2016-02-28T10:04:28.000Z</time>
      </trkpt>
      <trkpt lat="47.85866" lon="1.76066">
        <ele>70.1</ele>
        <time>2016-02-28T10:04:30.000Z</time>
      </trkpt>
      <trkpt lat="47.85872" lon="1.76073">
        <ele>70.1</ele>
        <time>2016-02-28T10:04:32.000Z</time>
      </trkpt>
      <trkpt lat="47.85881" lon="1.76083">
        <ele>70.1</ele>
        <time>2016-02-28T10:04:34.000Z</time>
      </trkpt>
      <trkpt lat="47.85888" lon="1.76088">
        <ele>70.1</ele>
        <time>2016-02-28T10:04:36.000Z</time>
      </trkpt>
      <trkpt lat="47.85891" lon="1.7609">
        <ele>70.1</ele>
        <time>2016-02-28T10:04:38.000Z</time>
      </trkpt>
      <trkpt lat="47.85899" lon="1.76093">
        <ele>70.1</ele>
        <time>2016-02-28T10:04:40.000Z</time>
      </trkpt>
      <trkpt lat="47.85908" lon="1.76098">
        <ele>70.1</ele>
        <time>2016-02-28T10:04:42.000Z</time>
      </trkpt>
      <trkpt lat="47.85916" lon="1.76106">
        <ele>70.1</ele>
        <time>2016-02-28T10:04:44.000Z</time>
      </trkpt>
      <trkpt lat="47.85926" lon="1.76121">
        <ele>70.1</ele>
        <time>2016-02-28T10:04:46.000Z</time>
      </trkpt>
      <trkpt lat="47.85929" lon="1.76127">
        <ele>70.1</ele>
        <time>2016-02-28T10:04:48.000Z</time>
      </trkpt>
      <trkpt lat="47.85938" lon="1.76144">
        <ele>68.88</ele>
        <time>2016-02-28T10:04:50.000Z</time>
      </trkpt>
      <trkpt lat="47.85941" lon="1.76149">
        <ele>68.88</ele>
        <time>2016-02-28T10:04:52.000Z</time>
      </trkpt>
      <trkpt lat="47.85946" lon="1.7616">
        <ele>68.88</ele>
        <time>2016-02-28T10:04:54.000Z</time>
      </trkpt>
      <trkpt lat="47.85951" lon="1.76172">
        <ele>68.88</ele>
        <time>2016-02-28T10:04:56.000Z</time>
      </trkpt>
      <trkpt lat="47.85956" lon="1.76184">
        <ele>68.88</ele>
        <time>2016-02-28T10:04:58.000Z</time>
      </trkpt>
      <trkpt lat="47.8596" lon="1.76197">
        <ele>68.88</ele>
        <time>2016-02-28T10:05:00.000Z</time>
      </trkpt>
      <trkpt lat="47.85966" lon="1.76209">
        <ele>68.88</ele>
        <time>2016-02-28T10:05:02.000Z</time>
      </trkpt>
      <trkpt lat="47.85972" lon="1.76218">
        <ele>67.97</ele>
        <time>2016-02-28T10:05:04.000Z</time>
      </trkpt>
      <trkpt lat="47.85977" lon="1.76226">
        <ele>67.97</ele>
        <time>2016-02-28T10:05:06.000Z</time>
      </trkpt>
      <trkpt lat="47.85983" lon="1.76233">
        <ele>67.97</ele>
        <time>2016-02-28T10:05:08.000Z</time>
      </trkpt>
      <trkpt lat="47.85988" lon="1.76238">
        <ele>67.97</ele>
        <time>2016-02-28T10:05:10.000Z</time>
      </trkpt>
      <trkpt lat="47.85992" lon="1.76242">
        <ele>67.97</ele>
        <time>2016-02-28T10:05:12.000Z</time>
      </trkpt>
      <trkpt lat="47.85996" lon="1.76244">
        <ele>67.97</ele>
        <time>2016-02-28T10:05:14.000Z</time>
      </trkpt>
      <trkpt lat="47.85998" lon="1.76247">
        <ele>67.97</ele>
        <time>2016-02-28T10:05:16.000Z</time>
      </trkpt>
      <trkpt lat="47.86" lon="1.76249">
        <ele>67.97</ele>
        <time>2016-02-28T10:05:18.000Z</time>
      </trkpt>
      <trkpt lat="47.86" lon="1.76251">
        <ele>67.97</ele>
        <time>2016-02-28T10:05:20.000Z</time>
      </trkpt>
      <trkpt lat="47.85998" lon="1.76254">
        <ele>67.97</ele>
        <time>2016-02-28T10:05:22.000Z</time>
      </trkpt>
      <trkpt lat="47.85998" lon="1.76257">
        <ele>67.97</ele>
        <time>2016-02-28T10:05:24.000Z</time>
      </trkpt>
      <trkpt lat="47.85999" lon="1.7626">
        <ele>67.97</ele>
        <time>2016-02-28T10:05:26.000Z</time>
      </trkpt>
      <trkpt lat="47.86001" lon="1.76263">
        <ele>67.97</ele>
        <time>2016-02-28T10:05:28.000Z</time>
      </trkpt>
      <trkpt lat="47.86004" lon="1.76268">
        <ele>67.97</ele>
        <time>2016-02-28T10:05:30.000Z</time>
      </trkpt>
      <trkpt lat="47.86012" lon="1.76277">
        <ele>67.97</ele>
        <time>2016-02-28T10:05:32.000Z</time>
      </trkpt>
      <trkpt lat="47.86014" lon="1.76281">
        <ele>67.97</ele>
        <time>2016-02-28T10:05:34.000Z</time>
      </trkpt>
      <trkpt lat="47.86017" lon="1.76286">
        <ele>67.97</ele>
        <time>2016-02-28T10:05:36.000Z</time>
      </trkpt>
      <trkpt lat="47.86027" lon="1.76299">
        <ele>67.97</ele>
        <time>2016-02-28T10:05:38.000Z</time>
      </trkpt>
      <trkpt lat="47.86033" lon="1.76307">
        <ele>67.97</ele>
        <time>2016-02-28T10:05:40.000Z</time>
      </trkpt>
      <trkpt lat="47.8604" lon="1.76315">
        <ele>67.97</ele>
        <time>2016-02-28T10:05:42.000Z</time>
      </trkpt>
      <trkpt lat="47.86045" lon="1.76323">
        <ele>67.97</ele>
        <time>2016-02-28T10:05:44.000Z</time>
      </trkpt>
      <trkpt lat="47.86053" lon="1.76336">
        <ele>67.97</ele>
        <time>2016-02-28T10:05:46.000Z</time>
      </trkpt>
      <trkpt lat="47.86055" lon="1.7634">
        <ele>67.97</ele>
        <time>2016-02-28T10:05:48.000Z</time>
      </trkpt>
      <trkpt lat="47.86061" lon="1.76348">
        <ele>68.88</ele>
        <time>2016-02-28T10:05:50.000Z</time>
      </trkpt>
      <trkpt lat="47.86067" lon="1.76356">
        <ele>68.88</ele>
        <time>2016-02-28T10:05:52.000Z</time>
      </trkpt>
      <trkpt lat="47.86073" lon="1.76365">
        <ele>68.88</ele>
        <time>2016-02-28T10:05:54.000Z</time>
      </trkpt>
      <trkpt lat="47.86077" lon="1.76373">
        <ele>68.88</ele>
        <time>2016-02-28T10:05:56.000Z</time>
      </trkpt>
      <trkpt lat="47.86082" lon="1.76381">
        <ele>68.88</ele>
        <time>2016-02-28T10:05:58.000Z</time>
      </trkpt>
      <trkpt lat="47.86085" lon="1.76388">
        <ele>68.88</ele>
        <time>2016-02-28T10:06:00.000Z</time>
      </trkpt>
      <trkpt lat="47.86089" lon="1.76395">
        <ele>68.88</ele>
        <time>2016-02-28T10:06:02.000Z</time>
      </trkpt>
      <trkpt lat="47.86092" lon="1.76402">
        <ele>68.88</ele>
        <time>2016-02-28T10:06:04.000Z</time>
      </trkpt>
      <trkpt lat="47.86096" lon="1.76408">
        <ele>68.88</ele>
        <time>2016-02-28T10:06:06.000Z</time>
      </trkpt>
      <trkpt lat="47.86099" lon="1.76414">
        <ele>68.88</ele>
        <time>2016-02-28T10:06:08.000Z</time>
      </trkpt>
      <trkpt lat="47.86101" lon="1.76421">
        <ele>70.1</ele>
        <time>2016-02-28T10:06:10.000Z</time>
      </trkpt>
      <trkpt lat="47.86102" lon="1.76429">
        <ele>70.1</ele>
        <time>2016-02-28T10:06:12.000Z</time>
      </trkpt>
      <trkpt lat="47.86105" lon="1.76436">
        <ele>70.1</ele>
        <time>2016-02-28T10:06:14.000Z</time>
      </trkpt>
      <trkpt lat="47.86111" lon="1.76437">
        <ele>70.1</ele>
        <time>2016-02-28T10:06:16.000Z</time>
      </trkpt>
      <trkpt lat="47.86113" lon="1.76432">
        <ele>70.1</ele>
        <time>2016-02-28T10:06:18.000Z</time>
      </trkpt>
      <trkpt lat="47.86116" lon="1.76428">
        <ele>70.1</ele>
        <time>2016-02-28T10:06:20.000Z</time>
      </trkpt>
      <trkpt lat="47.8612" lon="1.76429">
        <ele>70.1</ele>
        <time>2016-02-28T10:06:22.000Z</time>
      </trkpt>
      <trkpt lat="47.86123" lon="1.76435">
        <ele>71.02</ele>
        <time>2016-02-28T10:06:24.000Z</time>
      </trkpt>
      <trkpt lat="47.86126" lon="1.76442">
        <ele>71.02</ele>
        <time>2016-02-28T10:06:26.000Z</time>
      </trkpt>
      <trkpt lat="47.86129" lon="1.76447">
        <ele>71.02</ele>
        <time>2016-02-28T10:06:28.000Z</time>
      </trkpt>
      <trkpt lat="47.8613" lon="1.76456">
        <ele>73.15</ele>
        <time>2016-02-28T10:06:30.000Z</time>
      </trkpt>
      <trkpt lat="47.86131" lon="1.76461">
        <ele>73.15</ele>
        <time>2016-02-28T10:06:32.000Z</time>
      </trkpt>
      <trkpt lat="47.86133" lon="1.76469">
        <ele>74.07</ele>
        <time>2016-02-28T10:06:34.000Z</time>
      </trkpt>
      <trkpt lat="47.86135" lon="1.76478">
        <ele>74.07</ele>
        <time>2016-02-28T10:06:36.000Z</time>
      </trkpt>
      <trkpt lat="47.86138" lon="1.76487">
        <ele>74.07</ele>
        <time>2016-02-28T10:06:38.000Z</time>
      </trkpt>
      <trkpt lat="47.86141" lon="1.76497">
        <ele>74.07</ele>
        <time>2016-02-28T10:06:40.000Z</time>
      </trkpt>
      <trkpt lat="47.86144" lon="1.76507">
        <ele>74.07</ele>
        <time>2016-02-28T10:06:42.000Z</time>
      </trkpt>
      <trkpt lat="47.8615" lon="1.76524">
        <ele>74.07</ele>
        <time>2016-02-28T10:06:44.000Z</time>
      </trkpt>
      <trkpt lat="47.86152" lon="1.76529">
        <ele>74.07</ele>
        <time>2016-02-28T10:06:46.000Z</time>
      </trkpt>
      <trkpt lat="47.86156" lon="1.76538">
        <ele>74.07</ele>
        <time>2016-02-28T10:06:48.000Z</time>
      </trkpt>
      <trkpt lat="47.8616" lon="1.76546">
        <ele>74.07</ele>
        <time>2016-02-28T10:06:50.000Z</time>
      </trkpt>
      <trkpt lat="47.86164" lon="1.76556">
        <ele>74.07</ele>
        <time>2016-02-28T10:06:52.000Z</time>
      </trkpt>
      <trkpt lat="47.86169" lon="1.76567">
        <ele>74.07</ele>
        <time>2016-02-28T10:06:54.000Z</time>
      </trkpt>
      <trkpt lat="47.86174" lon="1.76578">
        <ele>74.07</ele>
        <time>2016-02-28T10:06:56.000Z</time>
      </trkpt>
      <trkpt lat="47.86183" lon="1.76595">
        <ele>74.07</ele>
        <time>2016-02-28T10:06:58.000Z</time>
      </trkpt>
      <trkpt lat="47.86187" lon="1.76601">
        <ele>74.07</ele>
        <time>2016-02-28T10:07:00.000Z</time>
      </trkpt>
      <trkpt lat="47.86194" lon="1.76611">
        <ele>74.07</ele>
        <time>2016-02-28T10:07:02.000Z</time>
      </trkpt>
      <trkpt lat="47.862" lon="1.7662">
        <ele>74.07</ele>
        <time>2016-02-28T10:07:04.000Z</time>
      </trkpt>
      <trkpt lat="47.86205" lon="1.76626">
        <ele>74.07</ele>
        <time>2016-02-28T10:07:06.000Z</time>
      </trkpt>
      <trkpt lat="47.86209" lon="1.76632">
        <ele>74.07</ele>
        <time>2016-02-28T10:07:08.000Z</time>
      </trkpt>
      <trkpt lat="47.86214" lon="1.76641">
        <ele>74.98</ele>
        <time>2016-02-28T10:07:10.000Z</time>
      </trkpt>
      <trkpt lat="47.86218" lon="1.76649">
        <ele>74.98</ele>
        <time>2016-02-28T10:07:12.000Z</time>
      </trkpt>
      <trkpt lat="47.86221" lon="1.76654">
        <ele>75.9</ele>
        <time>2016-02-28T10:07:14.000Z</time>
      </trkpt>
      <trkpt lat="47.86225" lon="1.76662">
        <ele>75.9</ele>
        <time>2016-02-28T10:07:16.000Z</time>
      </trkpt>
      <trkpt lat="47.86229" lon="1.7667">
        <ele>75.9</ele>
        <time>2016-02-28T10:07:18.000Z</time>
      </trkpt>
      <trkpt lat="47.86233" lon="1.76677">
        <ele>77.11</ele>
        <time>2016-02-28T10:07:20.000Z</time>
      </trkpt>
      <trkpt lat="47.86237" lon="1.76684">
        <ele>77.11</ele>
        <time>2016-02-28T10:07:22.000Z</time>
      </trkpt>
      <trkpt lat="47.8624" lon="1.7669">
        <ele>78.03</ele>
        <time>2016-02-28T10:07:24.000Z</time>
      </trkpt>
      <trkpt lat="47.86244" lon="1.76699">
        <ele>78.03</ele>
        <time>2016-02-28T10:07:26.000Z</time>
      </trkpt>
      <trkpt lat="47.86245" lon="1.76702">
        <ele>78.03</ele>
        <time>2016-02-28T10:07:28.000Z</time>
      </trkpt>
      <trkpt lat="47.86248" lon="1.76707">
        <ele>78.03</ele>
        <time>2016-02-28T10:07:30.000Z</time>
      </trkpt>
      <trkpt lat="47.8625" lon="1.76712">
        <ele>78.03</ele>
        <time>2016-02-28T10:07:32.000Z</time>
      </trkpt>
      <trkpt lat="47.86253" lon="1.76718">
        <ele>78.94</ele>
        <time>2016-02-28T10:07:34.000Z</time>
      </trkpt>
      <trkpt lat="47.86255" lon="1.76727">
        <ele>78.94</ele>
        <time>2016-02-28T10:07:36.000Z</time>
      </trkpt>
      <trkpt lat="47.86258" lon="1.76735">
        <ele>78.94</ele>
        <time>2016-02-28T10:07:38.000Z</time>
      </trkpt>
      <trkpt lat="47.86263" lon="1.76747">
        <ele>78.94</ele>
        <time>2016-02-28T10:07:40.000Z</time>
      </trkpt>
      <trkpt lat="47.86265" lon="1.7675">
        <ele>78.94</ele>
        <time>2016-02-28T10:07:42.000Z</time>
      </trkpt>
      <trkpt lat="47.8627" lon="1.76759">
        <ele>78.94</ele>
        <time>2016-02-28T10:07:44.000Z</time>
      </trkpt>
      <trkpt lat="47.86274" lon="1.76767">
        <ele>78.94</ele>
        <time>2016-02-28T10:07:46.000Z</time>
      </trkpt>
      <trkpt lat="47.86278" lon="1.76774">
        <ele>78.94</ele>
        <time>2016-02-28T10:07:48.000Z</time>
      </trkpt>
      <trkpt lat="47.86281" lon="1.76782">
        <ele>78.94</ele>
        <time>2016-02-28T10:07:50.000Z</time>
      </trkpt>
      <trkpt lat="47.86285" lon="1.7679">
        <ele>78.94</ele>
        <time>2016-02-28T10:07:52.000Z</time>
      </trkpt>
      <trkpt lat="47.86288" lon="1.76801">
        <ele>78.94</ele>
        <time>2016-02-28T10:07:54.000Z</time>
      </trkpt>
      <trkpt lat="47.86294" lon="1.76817">
        <ele>78.94</ele>
        <time>2016-02-28T10:07:56.000Z</time>
      </trkpt>
      <trkpt lat="47.86296" lon="1.76822">
        <ele>78.94</ele>
        <time>2016-02-28T10:07:58.000Z</time>
      </trkpt>
      <trkpt lat="47.86301" lon="1.76833">
        <ele>78.94</ele>
        <time>2016-02-28T10:08:00.000Z</time>
      </trkpt>
      <trkpt lat="47.86305" lon="1.76844">
        <ele>78.94</ele>
        <time>2016-02-28T10:08:02.000Z</time>
      </trkpt>
      <trkpt lat="47.86309" lon="1.76856">
        <ele>78.03</ele>
        <time>2016-02-28T10:08:04.000Z</time>
      </trkpt>
      <trkpt lat="47.86314" lon="1.76869">
        <ele>78.03</ele>
        <time>2016-02-28T10:08:06.000Z</time>
      </trkpt>
      <trkpt lat="47.8632" lon="1.76882">
        <ele>78.03</ele>
        <time>2016-02-28T10:08:08.000Z</time>
      </trkpt>
      <trkpt lat="47.86325" lon="1.76895">
        <ele>78.03</ele>
        <time>2016-02-28T10:08:10.000Z</time>
      </trkpt>
      <trkpt lat="47.8633" lon="1.76909">
        <ele>78.03</ele>
        <time>2016-02-28T10:08:12.000Z</time>
      </trkpt>
      <trkpt lat="47.86336" lon="1.76923">
        <ele>78.03</ele>
        <time>2016-02-28T10:08:14.000Z</time>
      </trkpt>
      <trkpt lat="47.86341" lon="1.76936">
        <ele>78.03</ele>
        <time>2016-02-28T10:08:16.000Z</time>
      </trkpt>
      <trkpt lat="47.86347" lon="1.76948">
        <ele>78.03</ele>
        <time>2016-02-28T10:08:18.000Z</time>
      </trkpt>
      <trkpt lat="47.86352" lon="1.76961">
        <ele>78.03</ele>
        <time>2016-02-28T10:08:20.000Z</time>
      </trkpt>
      <trkpt lat="47.86357" lon="1.76974">
        <ele>78.03</ele>
        <time>2016-02-28T10:08:22.000Z</time>
      </trkpt>
      <trkpt lat="47.86364" lon="1.7699">
        <ele>78.03</ele>
        <time>2016-02-28T10:08:24.000Z</time>
      </trkpt>
      <trkpt lat="47.86365" lon="1.76994">
        <ele>78.03</ele>
        <time>2016-02-28T10:08:26.000Z</time>
      </trkpt>
      <trkpt lat="47.86367" lon="1.76999">
        <ele>78.03</ele>
        <time>2016-02-28T10:08:28.000Z</time>
      </trkpt>
      <trkpt lat="47.86371" lon="1.76999">
        <ele>78.94</ele>
        <time>2016-02-28T10:08:30.000Z</time>
      </trkpt>
      <trkpt lat="47.86375" lon="1.76994">
        <ele>78.94</ele>
        <time>2016-02-28T10:08:32.000Z</time>
      </trkpt>
      <trkpt lat="47.86382" lon="1.76985">
        <ele>78.94</ele>
        <time>2016-02-28T10:08:34.000Z</time>
      </trkpt>
      <trkpt lat="47.86391" lon="1.76974">
        <ele>78.94</ele>
        <time>2016-02-28T10:08:36.000Z</time>
      </trkpt>
      <trkpt lat="47.864" lon="1.76963">
        <ele>78.94</ele>
        <time>2016-02-28T10:08:38.000Z</time>
      </trkpt>
      <trkpt lat="47.8641" lon="1.76953">
        <ele>79.86</ele>
        <time>2016-02-28T10:08:40.000Z</time>
      </trkpt>
      <trkpt lat="47.86419" lon="1.76943">
        <ele>79.86</ele>
        <time>2016-02-28T10:08:42.000Z</time>
      </trkpt>
      <trkpt lat="47.86428" lon="1.76934">
        <ele>81.08</ele>
        <time>2016-02-28T10:08:44.000Z</time>
      </trkpt>
      <trkpt lat="47.86436" lon="1.76925">
        <ele>81.08</ele>
        <time>2016-02-28T10:08:46.000Z</time>
      </trkpt>
      <trkpt lat="47.86444" lon="1.76917">
        <ele>81.08</ele>
        <time>2016-02-28T10:08:48.000Z</time>
      </trkpt>
      <trkpt lat="47.86452" lon="1.76908">
        <ele>81.08</ele>
        <time>2016-02-28T10:08:50.000Z</time>
      </trkpt>
      <trkpt lat="47.86464" lon="1.76896">
        <ele>81.08</ele>
        <time>2016-02-28T10:08:52.000Z</time>
      </trkpt>
      <trkpt lat="47.86467" lon="1.76893">
        <ele>82.91</ele>
        <time>2016-02-28T10:08:54.000Z</time>
      </trkpt>
      <trkpt lat="47.86472" lon="1.76895">
        <ele>82.91</ele>
        <time>2016-02-28T10:08:56.000Z</time>
      </trkpt>
      <trkpt lat="47.86476" lon="1.76904">
        <ele>82.91</ele>
        <time>2016-02-28T10:08:58.000Z</time>
      </trkpt>
      <trkpt lat="47.86481" lon="1.76916">
        <ele>82.91</ele>
        <time>2016-02-28T10:09:00.000Z</time>
      </trkpt>
      <trkpt lat="47.86485" lon="1.76929">
        <ele>82.91</ele>
        <time>2016-02-28T10:09:02.000Z</time>
      </trkpt>
      <trkpt lat="47.86489" lon="1.76942">
        <ele>84.12</ele>
        <time>2016-02-28T10:09:04.000Z</time>
      </trkpt>
      <trkpt lat="47.86495" lon="1.76961">
        <ele>84.12</ele>
        <time>2016-02-28T10:09:06.000Z</time>
      </trkpt>
      <trkpt lat="47.86498" lon="1.76967">
        <ele>84.12</ele>
        <time>2016-02-28T10:09:08.000Z</time>
      </trkpt>
      <trkpt lat="47.86502" lon="1.7698">
        <ele>84.12</ele>
        <time>2016-02-28T10:09:10.000Z</time>
      </trkpt>
      <trkpt lat="47.86507" lon="1.76992">
        <ele>84.12</ele>
        <time>2016-02-28T10:09:12.000Z</time>
      </trkpt>
      <trkpt lat="47.86511" lon="1.77004">
        <ele>84.12</ele>
        <time>2016-02-28T10:09:14.000Z</time>
      </trkpt>
      <trkpt lat="47.86516" lon="1.77016">
        <ele>84.12</ele>
        <time>2016-02-28T10:09:16.000Z</time>
      </trkpt>
      <trkpt lat="47.86521" lon="1.77028">
        <ele>84.12</ele>
        <time>2016-02-28T10:09:18.000Z</time>
      </trkpt>
      <trkpt lat="47.86528" lon="1.77047">
        <ele>85.04</ele>
        <time>2016-02-28T10:09:20.000Z</time>
      </trkpt>
      <trkpt lat="47.8653" lon="1.77053">
        <ele>85.04</ele>
        <time>2016-02-28T10:09:22.000Z</time>
      </trkpt>
      <trkpt lat="47.86534" lon="1.77065">
        <ele>85.04</ele>
        <time>2016-02-28T10:09:24.000Z</time>
      </trkpt>
      <trkpt lat="47.86539" lon="1.77077">
        <ele>85.04</ele>
        <time>2016-02-28T10:09:26.000Z</time>
      </trkpt>
      <trkpt lat="47.86543" lon="1.7709">
        <ele>85.04</ele>
        <time>2016-02-28T10:09:28.000Z</time>
      </trkpt>
      <trkpt lat="47.86547" lon="1.77103">
        <ele>85.04</ele>
        <time>2016-02-28T10:09:30.000Z</time>
      </trkpt>
      <trkpt lat="47.86551" lon="1.77114">
        <ele>85.04</ele>
        <time>2016-02-28T10:09:32.000Z</time>
      </trkpt>
      <trkpt lat="47.86558" lon="1.77133">
        <ele>85.04</ele>
        <time>2016-02-28T10:09:34.000Z</time>
      </trkpt>
      <trkpt lat="47.86562" lon="1.77146">
        <ele>85.04</ele>
        <time>2016-02-28T10:09:36.000Z</time>
      </trkpt>
      <trkpt lat="47.86564" lon="1.77152">
        <ele>85.04</ele>
        <time>2016-02-28T10:09:38.000Z</time>
      </trkpt>
      <trkpt lat="47.86569" lon="1.77165">
        <ele>85.04</ele>
        <time>2016-02-28T10:09:40.000Z</time>
      </trkpt>
      <trkpt lat="47.86573" lon="1.77177">
        <ele>85.04</ele>
        <time>2016-02-28T10:09:42.000Z</time>
      </trkpt>
      <trkpt lat="47.86576" lon="1.77188">
        <ele>85.04</ele>
        <time>2016-02-28T10:09:44.000Z</time>
      </trkpt>
      <trkpt lat="47.86572" lon="1.77197">
        <ele>85.04</ele>
        <time>2016-02-28T10:09:46.000Z</time>
      </trkpt>
      <trkpt lat="47.86562" lon="1.77202">
        <ele>85.04</ele>
        <time>2016-02-28T10:09:48.000Z</time>
      </trkpt>
      <trkpt lat="47.86546" lon="1.77212">
        <ele>84.12</ele>
        <time>2016-02-28T10:09:50.000Z</time>
      </trkpt>
      <trkpt lat="47.8654" lon="1.77214">
        <ele>84.12</ele>
        <time>2016-02-28T10:09:52.000Z</time>
      </trkpt>
      <trkpt lat="47.8653" lon="1.7722">
        <ele>82.91</ele>
        <time>2016-02-28T10:09:54.000Z</time>
      </trkpt>
      <trkpt lat="47.86519" lon="1.77226">
        <ele>82.91</ele>
        <time>2016-02-28T10:09:56.000Z</time>
      </trkpt>
      <trkpt lat="47.86509" lon="1.77232">
        <ele>82.91</ele>
        <time>2016-02-28T10:09:58.000Z</time>
      </trkpt>
      <trkpt lat="47.86499" lon="1.77238">
        <ele>81.99</ele>
        <time>2016-02-28T10:10:00.000Z</time>
      </trkpt>
      <trkpt lat="47.8649" lon="1.77243">
        <ele>81.99</ele>
        <time>2016-02-28T10:10:02.000Z</time>
      </trkpt>
      <trkpt lat="47.86476" lon="1.7725">
        <ele>81.99</ele>
        <time>2016-02-28T10:10:04.000Z</time>
      </trkpt>
      <trkpt lat="47.86472" lon="1.77253">
        <ele>81.99</ele>
        <time>2016-02-28T10:10:06.000Z</time>
      </trkpt>
      <trkpt lat="47.86464" lon="1.77257">
        <ele>81.99</ele>
        <time>2016-02-28T10:10:08.000Z</time>
      </trkpt>
      <trkpt lat="47.86458" lon="1.77263">
        <ele>81.99</ele>
        <time>2016-02-28T10:10:10.000Z</time>
      </trkpt>
      <trkpt lat="47.8646" lon="1.7727">
        <ele>81.99</ele>
        <time>2016-02-28T10:10:12.000Z</time>
      </trkpt>
      <trkpt lat="47.86463" lon="1.77278">
        <ele>81.99</ele>
        <time>2016-02-28T10:10:14.000Z</time>
      </trkpt>
      <trkpt lat="47.86469" lon="1.77293">
        <ele>81.99</ele>
        <time>2016-02-28T10:10:16.000Z</time>
      </trkpt>
      <trkpt lat="47.86473" lon="1.77304">
        <ele>81.99</ele>
        <time>2016-02-28T10:10:18.000Z</time>
      </trkpt>
      <trkpt lat="47.86475" lon="1.77309">
        <ele>81.08</ele>
        <time>2016-02-28T10:10:20.000Z</time>
      </trkpt>
      <trkpt lat="47.8648" lon="1.7732">
        <ele>81.08</ele>
        <time>2016-02-28T10:10:22.000Z</time>
      </trkpt>
      <trkpt lat="47.86485" lon="1.77332">
        <ele>81.08</ele>
        <time>2016-02-28T10:10:24.000Z</time>
      </trkpt>
      <trkpt lat="47.8649" lon="1.77344">
        <ele>81.08</ele>
        <time>2016-02-28T10:10:26.000Z</time>
      </trkpt>
      <trkpt lat="47.86495" lon="1.77357">
        <ele>81.08</ele>
        <time>2016-02-28T10:10:28.000Z</time>
      </trkpt>
      <trkpt lat="47.865" lon="1.7737">
        <ele>79.86</ele>
        <time>2016-02-28T10:10:30.000Z</time>
      </trkpt>
      <trkpt lat="47.86505" lon="1.77389">
        <ele>79.86</ele>
        <time>2016-02-28T10:10:32.000Z</time>
      </trkpt>
      <trkpt lat="47.86507" lon="1.77395">
        <ele>79.86</ele>
        <time>2016-02-28T10:10:34.000Z</time>
      </trkpt>
      <trkpt lat="47.86512" lon="1.77406">
        <ele>79.86</ele>
        <time>2016-02-28T10:10:36.000Z</time>
      </trkpt>
      <trkpt lat="47.86516" lon="1.77417">
        <ele>79.86</ele>
        <time>2016-02-28T10:10:38.000Z</time>
      </trkpt>
      <trkpt lat="47.8652" lon="1.77428">
        <ele>79.86</ele>
        <time>2016-02-28T10:10:40.000Z</time>
      </trkpt>
      <trkpt lat="47.86526" lon="1.77439">
        <ele>79.86</ele>
        <time>2016-02-28T10:10:42.000Z</time>
      </trkpt>
      <trkpt lat="47.86531" lon="1.77451">
        <ele>78.94</ele>
        <time>2016-02-28T10:10:44.000Z</time>
      </trkpt>
      <trkpt lat="47.8654" lon="1.77467">
        <ele>78.94</ele>
        <time>2016-02-28T10:10:46.000Z</time>
      </trkpt>
      <trkpt lat="47.86542" lon="1.77473">
        <ele>78.94</ele>
        <time>2016-02-28T10:10:48.000Z</time>
      </trkpt>
      <trkpt lat="47.86548" lon="1.77484">
        <ele>78.03</ele>
        <time>2016-02-28T10:10:50.000Z</time>
      </trkpt>
      <trkpt lat="47.86554" lon="1.77494">
        <ele>78.03</ele>
        <time>2016-02-28T10:10:52.000Z</time>
      </trkpt>
      <trkpt lat="47.86559" lon="1.77506">
        <ele>78.03</ele>
        <time>2016-02-28T10:10:54.000Z</time>
      </trkpt>
      <trkpt lat="47.86564" lon="1.7752">
        <ele>78.03</ele>
        <time>2016-02-28T10:10:56.000Z</time>
      </trkpt>
      <trkpt lat="47.86568" lon="1.77532">
        <ele>78.03</ele>
        <time>2016-02-28T10:10:58.000Z</time>
      </trkpt>
      <trkpt lat="47.86576" lon="1.77549">
        <ele>78.03</ele>
        <time>2016-02-28T10:11:00.000Z</time>
      </trkpt>
      <trkpt lat="47.86579" lon="1.77555">
        <ele>78.03</ele>
        <time>2016-02-28T10:11:02.000Z</time>
      </trkpt>
      <trkpt lat="47.86585" lon="1.77566">
        <ele>78.03</ele>
        <time>2016-02-28T10:11:04.000Z</time>
      </trkpt>
      <trkpt lat="47.86589" lon="1.77579">
        <ele>78.03</ele>
        <time>2016-02-28T10:11:06.000Z</time>
      </trkpt>
      <trkpt lat="47.86594" lon="1.7759">
        <ele>78.03</ele>
        <time>2016-02-28T10:11:08.000Z</time>
      </trkpt>
      <trkpt lat="47.86598" lon="1.776">
        <ele>79.86</ele>
        <time>2016-02-28T10:11:10.000Z</time>
      </trkpt>
      <trkpt lat="47.86601" lon="1.77607">
        <ele>79.86</ele>
        <time>2016-02-28T10:11:12.000Z</time>
      </trkpt>
      <trkpt lat="47.86604" lon="1.77613">
        <ele>79.86</ele>
        <time>2016-02-28T10:11:14.000Z</time>
      </trkpt>
      <trkpt lat="47.86609" lon="1.77625">
        <ele>79.86</ele>
        <time>2016-02-28T10:11:16.000Z</time>
      </trkpt>
      <trkpt lat="47.86611" lon="1.7763">
        <ele>79.86</ele>
        <time>2016-02-28T10:11:18.000Z</time>
      </trkpt>
      <trkpt lat="47.86614" lon="1.77642">
        <ele>81.08</ele>
        <time>2016-02-28T10:11:20.000Z</time>
      </trkpt>
      <trkpt lat="47.86618" lon="1.77653">
        <ele>81.08</ele>
        <time>2016-02-28T10:11:22.000Z</time>
      </trkpt>
      <trkpt lat="47.86622" lon="1.77665">
        <ele>81.08</ele>
        <time>2016-02-28T10:11:24.000Z</time>
      </trkpt>
      <trkpt lat="47.86627" lon="1.77677">
        <ele>81.08</ele>
        <time>2016-02-28T10:11:26.000Z</time>
      </trkpt>
      <trkpt lat="47.86632" lon="1.77687">
        <ele>81.08</ele>
        <time>2016-02-28T10:11:28.000Z</time>
      </trkpt>
      <trkpt lat="47.86639" lon="1.77703">
        <ele>81.08</ele>
        <time>2016-02-28T10:11:30.000Z</time>
      </trkpt>
      <trkpt lat="47.8664" lon="1.77708">
        <ele>81.08</ele>
        <time>2016-02-28T10:11:32.000Z</time>
      </trkpt>
      <trkpt lat="47.86644" lon="1.77716">
        <ele>79.86</ele>
        <time>2016-02-28T10:11:34.000Z</time>
      </trkpt>
      <trkpt lat="47.86646" lon="1.7772">
        <ele>79.86</ele>
        <time>2016-02-28T10:11:36.000Z</time>
      </trkpt>
      <trkpt lat="47.86646" lon="1.77719">
        <ele>79.86</ele>
        <time>2016-02-28T10:11:38.000Z</time>
      </trkpt>
      <trkpt lat="47.86646" lon="1.77719">
        <ele>79.86</ele>
        <time>2016-02-28T10:11:40.000Z</time>
      </trkpt>
      <trkpt lat="47.86646" lon="1.77719">
        <ele>79.86</ele>
        <time>2016-02-28T10:11:42.000Z</time>
      </trkpt>
      <trkpt lat="47.86645" lon="1.77719">
        <ele>79.86</ele>
        <time>2016-02-28T10:11:44.000Z</time>
      </trkpt>
      <trkpt lat="47.86645" lon="1.77719">
        <ele>79.86</ele>
        <time>2016-02-28T10:11:46.000Z</time>
      </trkpt>
      <trkpt lat="47.86645" lon="1.77719">
        <ele>79.86</ele>
        <time>2016-02-28T10:11:48.000Z</time>
      </trkpt>
      <trkpt lat="47.86645" lon="1.7772">
        <ele>79.86</ele>
        <time>2016-02-28T10:11:50.000Z</time>
      </trkpt>
      <trkpt lat="47.86645" lon="1.7772">
        <ele>79.86</ele>
        <time>2016-02-28T10:11:52.000Z</time>
      </trkpt>
      <trkpt lat="47.86645" lon="1.7772">
        <ele>79.86</ele>
        <time>2016-02-28T10:11:54.000Z</time>
      </trkpt>
      <trkpt lat="47.86645" lon="1.7772">
        <ele>79.86</ele>
        <time>2016-02-28T10:11:56.000Z</time>
      </trkpt>
      <trkpt lat="47.86645" lon="1.77719">
        <ele>79.86</ele>
        <time>2016-02-28T10:11:58.000Z</time>
      </trkpt>
      <trkpt lat="47.86645" lon="1.77719">
        <ele>79.86</ele>
        <time>2016-02-28T10:12:00.000Z</time>
      </trkpt>
      <trkpt lat="47.86645" lon="1.77719">
        <ele>79.86</ele>
        <time>2016-02-28T10:12:02.000Z</time>
      </trkpt>
      <trkpt lat="47.86645" lon="1.77719">
        <ele>79.86</ele>
        <time>2016-02-28T10:12:04.000Z</time>
      </trkpt>
      <trkpt lat="47.86645" lon="1.77719">
        <ele>79.86</ele>
        <time>2016-02-28T10:12:06.000Z</time>
      </trkpt>
      <trkpt lat="47.86645" lon="1.77719">
        <ele>79.86</ele>
        <time>2016-02-28T10:12:08.000Z</time>
      </trkpt>
      <trkpt lat="47.86645" lon="1.77719">
        <ele>79.86</ele>
        <time>2016-02-28T10:12:10.000Z</time>
      </trkpt>
      <trkpt lat="47.86645" lon="1.77719">
        <ele>79.86</ele>
        <time>2016-02-28T10:12:12.000Z</time>
      </trkpt>
      <trkpt lat="47.86645" lon="1.77719">
        <ele>79.86</ele>
        <time>2016-02-28T10:12:14.000Z</time>
      </trkpt>
      <trkpt lat="47.86645" lon="1.77719">
        <ele>79.86</ele>
        <time>2016-02-28T10:12:16.000Z</time>
      </trkpt>
      <trkpt lat="47.86645" lon="1.77718">
        <ele>79.86</ele>
        <time>2016-02-28T10:12:18.000Z</time>
      </trkpt>
      <trkpt lat="47.86646" lon="1.7772">
        <ele>78.94</ele>
        <time>2016-02-28T10:12:20.000Z</time>
      </trkpt>
      <trkpt lat="47.86647" lon="1.77722">
        <ele>78.94</ele>
        <time>2016-02-28T10:12:22.000Z</time>
      </trkpt>
      <trkpt lat="47.8665" lon="1.7773">
        <ele>78.94</ele>
        <time>2016-02-28T10:12:24.000Z</time>
      </trkpt>
      <trkpt lat="47.86653" lon="1.77736">
        <ele>78.94</ele>
        <time>2016-02-28T10:12:26.000Z</time>
      </trkpt>
      <trkpt lat="47.86656" lon="1.77741">
        <ele>78.94</ele>
        <time>2016-02-28T10:12:28.000Z</time>
      </trkpt>
      <trkpt lat="47.86661" lon="1.77752">
        <ele>78.94</ele>
        <time>2016-02-28T10:12:30.000Z</time>
      </trkpt>
      <trkpt lat="47.86669" lon="1.77763">
        <ele>78.94</ele>
        <time>2016-02-28T10:12:32.000Z</time>
      </trkpt>
      <trkpt lat="47.86676" lon="1.77776">
        <ele>78.94</ele>
        <time>2016-02-28T10:12:34.000Z</time>
      </trkpt>
      <trkpt lat="47.8668" lon="1.77794">
        <ele>78.94</ele>
        <time>2016-02-28T10:12:36.000Z</time>
      </trkpt>
      <trkpt lat="47.86686" lon="1.7781">
        <ele>78.94</ele>
        <time>2016-02-28T10:12:38.000Z</time>
      </trkpt>
      <trkpt lat="47.86696" lon="1.77833">
        <ele>78.94</ele>
        <time>2016-02-28T10:12:40.000Z</time>
      </trkpt>
      <trkpt lat="47.86699" lon="1.7784">
        <ele>78.94</ele>
        <time>2016-02-28T10:12:42.000Z</time>
      </trkpt>
      <trkpt lat="47.86705" lon="1.77856">
        <ele>78.94</ele>
        <time>2016-02-28T10:12:44.000Z</time>
      </trkpt>
      <trkpt lat="47.8671" lon="1.77873">
        <ele>78.94</ele>
        <time>2016-02-28T10:12:46.000Z</time>
      </trkpt>
      <trkpt lat="47.86716" lon="1.77888">
        <ele>78.94</ele>
        <time>2016-02-28T10:12:48.000Z</time>
      </trkpt>
      <trkpt lat="47.86724" lon="1.779">
        <ele>78.94</ele>
        <time>2016-02-28T10:12:50.000Z</time>
      </trkpt>
      <trkpt lat="47.86731" lon="1.77914">
        <ele>78.94</ele>
        <time>2016-02-28T10:12:52.000Z</time>
      </trkpt>
      <trkpt lat="47.8674" lon="1.77933">
        <ele>78.94</ele>
        <time>2016-02-28T10:12:54.000Z</time>
      </trkpt>
      <trkpt lat="47.86742" lon="1.7794">
        <ele>78.94</ele>
        <time>2016-02-28T10:12:56.000Z</time>
      </trkpt>
      <trkpt lat="47.86746" lon="1.77952">
        <ele>78.94</ele>
        <time>2016-02-28T10:12:58.000Z</time>
      </trkpt>
      <trkpt lat="47.86752" lon="1.77962">
        <ele>79.86</ele>
        <time>2016-02-28T10:13:00.000Z</time>
      </trkpt>
      <trkpt lat="47.86757" lon="1.77974">
        <ele>79.86</ele>
        <time>2016-02-28T10:13:02.000Z</time>
      </trkpt>
      <trkpt lat="47.86763" lon="1.77984">
        <ele>79.86</ele>
        <time>2016-02-28T10:13:04.000Z</time>
      </trkpt>
      <trkpt lat="47.86767" lon="1.77996">
        <ele>79.86</ele>
        <time>2016-02-28T10:13:06.000Z</time>
      </trkpt>
      <trkpt lat="47.86771" lon="1.78006">
        <ele>79.86</ele>
        <time>2016-02-28T10:13:08.000Z</time>
      </trkpt>
      <trkpt lat="47.86777" lon="1.7802">
        <ele>79.86</ele>
        <time>2016-02-28T10:13:10.000Z</time>
      </trkpt>
      <trkpt lat="47.86779" lon="1.78024">
        <ele>79.86</ele>
        <time>2016-02-28T10:13:12.000Z</time>
      </trkpt>
      <trkpt lat="47.86785" lon="1.78035">
        <ele>79.86</ele>
        <time>2016-02-28T10:13:14.000Z</time>
      </trkpt>
      <trkpt lat="47.86789" lon="1.78046">
        <ele>79.86</ele>
        <time>2016-02-28T10:13:16.000Z</time>
      </trkpt>
      <trkpt lat="47.86794" lon="1.78056">
        <ele>79.86</ele>
        <time>2016-02-28T10:13:18.000Z</time>
      </trkpt>
      <trkpt lat="47.86798" lon="1.78066">
        <ele>79.86</ele>
        <time>2016-02-28T10:13:20.000Z</time>
      </trkpt>
      <trkpt lat="47.86803" lon="1.78076">
        <ele>79.86</ele>
        <time>2016-02-28T10:13:22.000Z</time>
      </trkpt>
      <trkpt lat="47.86807" lon="1.78087">
        <ele>79.86</ele>
        <time>2016-02-28T10:13:24.000Z</time>
      </trkpt>
      <trkpt lat="47.86811" lon="1.78099">
        <ele>79.86</ele>
        <time>2016-02-28T10:13:26.000Z</time>
      </trkpt>
      <trkpt lat="47.86815" lon="1.7811">
        <ele>79.86</ele>
        <time>2016-02-28T10:13:28.000Z</time>
      </trkpt>
      <trkpt lat="47.86819" lon="1.78122">
        <ele>81.08</ele>
        <time>2016-02-28T10:13:30.000Z</time>
      </trkpt>
      <trkpt lat="47.86823" lon="1.78136">
        <ele>81.08</ele>
        <time>2016-02-28T10:13:32.000Z</time>
      </trkpt>
      <trkpt lat="47.86827" lon="1.7815">
        <ele>81.08</ele>
        <time>2016-02-28T10:13:34.000Z</time>
      </trkpt>
      <trkpt lat="47.86832" lon="1.78164">
        <ele>81.08</ele>
        <time>2016-02-28T10:13:36.000Z</time>
      </trkpt>
      <trkpt lat="47.8684" lon="1.78183">
        <ele>81.08</ele>
        <time>2016-02-28T10:13:38.000Z</time>
      </trkpt>
      <trkpt lat="47.86843" lon="1.7819">
        <ele>81.08</ele>
        <time>2016-02-28T10:13:40.000Z</time>
      </trkpt>
      <trkpt lat="47.86849" lon="1.78204">
        <ele>81.08</ele>
        <time>2016-02-28T10:13:42.000Z</time>
      </trkpt>
      <trkpt lat="47.86854" lon="1.78219">
        <ele>79.86</ele>
        <time>2016-02-28T10:13:44.000Z</time>
      </trkpt>
      <trkpt lat="47.86861" lon="1.78233">
        <ele>79.86</ele>
        <time>2016-02-28T10:13:46.000Z</time>
      </trkpt>
      <trkpt lat="47.86859" lon="1.78241">
        <ele>79.86</ele>
        <time>2016-02-28T10:13:48.000Z</time>
      </trkpt>
      <trkpt lat="47.86852" lon="1.78235">
        <ele>77.11</ele>
        <time>2016-02-28T10:13:50.000Z</time>
      </trkpt>
      <trkpt lat="47.86842" lon="1.78215">
        <ele>77.11</ele>
        <time>2016-02-28T10:13:52.000Z</time>
      </trkpt>
      <trkpt lat="47.86837" lon="1.78207">
        <ele>74.07</ele>
        <time>2016-02-28T10:13:54.000Z</time>
      </trkpt>
      <trkpt lat="47.86827" lon="1.78199">
        <ele>74.07</ele>
        <time>2016-02-28T10:13:56.000Z</time>
      </trkpt>
      <trkpt lat="47.8682" lon="1.78201">
        <ele>74.07</ele>
        <time>2016-02-28T10:13:58.000Z</time>
      </trkpt>
      <trkpt lat="47.86815" lon="1.78206">
        <ele>71.93</ele>
        <time>2016-02-28T10:14:00.000Z</time>
      </trkpt>
      <trkpt lat="47.86816" lon="1.78213">
        <ele>71.93</ele>
        <time>2016-02-28T10:14:02.000Z</time>
      </trkpt>
      <trkpt lat="47.86821" lon="1.78222">
        <ele>71.93</ele>
        <time>2016-02-28T10:14:04.000Z</time>
      </trkpt>
      <trkpt lat="47.86827" lon="1.78237">
        <ele>71.02</ele>
        <time>2016-02-28T10:14:06.000Z</time>
      </trkpt>
      <trkpt lat="47.8683" lon="1.78242">
        <ele>71.02</ele>
        <time>2016-02-28T10:14:08.000Z</time>
      </trkpt>
      <trkpt lat="47.86834" lon="1.78255">
        <ele>71.02</ele>
        <time>2016-02-28T10:14:10.000Z</time>
      </trkpt>
      <trkpt lat="47.86833" lon="1.78266">
        <ele>71.02</ele>
        <time>2016-02-28T10:14:12.000Z</time>
      </trkpt>
      <trkpt lat="47.86827" lon="1.78276">
        <ele>71.02</ele>
        <time>2016-02-28T10:14:14.000Z</time>
      </trkpt>
      <trkpt lat="47.86819" lon="1.78288">
        <ele>70.1</ele>
        <time>2016-02-28T10:14:16.000Z</time>
      </trkpt>
      <trkpt lat="47.86814" lon="1.78299">
        <ele>70.1</ele>
        <time>2016-02-28T10:14:18.000Z</time>
      </trkpt>
      <trkpt lat="47.86813" lon="1.78315">
        <ele>70.1</ele>
        <time>2016-02-28T10:14:20.000Z</time>
      </trkpt>
      <trkpt lat="47.86814" lon="1.7832">
        <ele>70.1</ele>
        <time>2016-02-28T10:14:22.000Z</time>
      </trkpt>
      <trkpt lat="47.86816" lon="1.78332">
        <ele>70.1</ele>
        <time>2016-02-28T10:14:24.000Z</time>
      </trkpt>
      <trkpt lat="47.86818" lon="1.78343">
        <ele>70.1</ele>
        <time>2016-02-28T10:14:26.000Z</time>
      </trkpt>
      <trkpt lat="47.86819" lon="1.78357">
        <ele>70.1</ele>
        <time>2016-02-28T10:14:28.000Z</time>
      </trkpt>
      <trkpt lat="47.8682" lon="1.78368">
        <ele>70.1</ele>
        <time>2016-02-28T10:14:30.000Z</time>
      </trkpt>
      <trkpt lat="47.8682" lon="1.78379">
        <ele>70.1</ele>
        <time>2016-02-28T10:14:32.000Z</time>
      </trkpt>
      <trkpt lat="47.86811" lon="1.7839">
        <ele>70.1</ele>
        <time>2016-02-28T10:14:34.000Z</time>
      </trkpt>
      <trkpt lat="47.86807" lon="1.78394">
        <ele>70.1</ele>
        <time>2016-02-28T10:14:36.000Z</time>
      </trkpt>
      <trkpt lat="47.86798" lon="1.78402">
        <ele>70.1</ele>
        <time>2016-02-28T10:14:38.000Z</time>
      </trkpt>
      <trkpt lat="47.8679" lon="1.7841">
        <ele>70.1</ele>
        <time>2016-02-28T10:14:40.000Z</time>
      </trkpt>
      <trkpt lat="47.86782" lon="1.78417">
        <ele>70.1</ele>
        <time>2016-02-28T10:14:42.000Z</time>
      </trkpt>
      <trkpt lat="47.86775" lon="1.78424">
        <ele>70.1</ele>
        <time>2016-02-28T10:14:44.000Z</time>
      </trkpt>
      <trkpt lat="47.86762" lon="1.78432">
        <ele>70.1</ele>
        <time>2016-02-28T10:14:46.000Z</time>
      </trkpt>
      <trkpt lat="47.86757" lon="1.78439">
        <ele>70.1</ele>
        <time>2016-02-28T10:14:48.000Z</time>
      </trkpt>
      <trkpt lat="47.86757" lon="1.7845">
        <ele>70.1</ele>
        <time>2016-02-28T10:14:50.000Z</time>
      </trkpt>
      <trkpt lat="47.86759" lon="1.78455">
        <ele>70.1</ele>
        <time>2016-02-28T10:14:52.000Z</time>
      </trkpt>
      <trkpt lat="47.86761" lon="1.78466">
        <ele>70.1</ele>
        <time>2016-02-28T10:14:54.000Z</time>
      </trkpt>
      <trkpt lat="47.86765" lon="1.78478">
        <ele>71.02</ele>
        <time>2016-02-28T10:14:56.000Z</time>
      </trkpt>
      <trkpt lat="47.86768" lon="1.78489">
        <ele>71.02</ele>
        <time>2016-02-28T10:14:58.000Z</time>
      </trkpt>
      <trkpt lat="47.86771" lon="1.78502">
        <ele>71.02</ele>
        <time>2016-02-28T10:15:00.000Z</time>
      </trkpt>
      <trkpt lat="47.86774" lon="1.78515">
        <ele>71.02</ele>
        <time>2016-02-28T10:15:02.000Z</time>
      </trkpt>
      <trkpt lat="47.86777" lon="1.78533">
        <ele>71.02</ele>
        <time>2016-02-28T10:15:04.000Z</time>
      </trkpt>
      <trkpt lat="47.86779" lon="1.78539">
        <ele>71.02</ele>
        <time>2016-02-28T10:15:06.000Z</time>
      </trkpt>
      <trkpt lat="47.86782" lon="1.7855">
        <ele>71.02</ele>
        <time>2016-02-28T10:15:08.000Z</time>
      </trkpt>
      <trkpt lat="47.86786" lon="1.78562">
        <ele>71.02</ele>
        <time>2016-02-28T10:15:10.000Z</time>
      </trkpt>
      <trkpt lat="47.86789" lon="1.78573">
        <ele>71.02</ele>
        <time>2016-02-28T10:15:12.000Z</time>
      </trkpt>
      <trkpt lat="47.86792" lon="1.78586">
        <ele>71.02</ele>
        <time>2016-02-28T10:15:14.000Z</time>
      </trkpt>
      <trkpt lat="47.86796" lon="1.78603">
        <ele>71.02</ele>
        <time>2016-02-28T10:15:16.000Z</time>
      </trkpt>
      <trkpt lat="47.868" lon="1.78615">
        <ele>71.02</ele>
        <time>2016-02-28T10:15:18.000Z</time>
      </trkpt>
      <trkpt lat="47.86801" lon="1.7862">
        <ele>71.02</ele>
        <time>2016-02-28T10:15:20.000Z</time>
      </trkpt>
      <trkpt lat="47.86804" lon="1.78632">
        <ele>71.02</ele>
        <time>2016-02-28T10:15:22.000Z</time>
      </trkpt>
      <trkpt lat="47.86807" lon="1.78644">
        <ele>71.02</ele>
        <time>2016-02-28T10:15:24.000Z</time>
      </trkpt>
      <trkpt lat="47.8681" lon="1.78656">
        <ele>71.02</ele>
        <time>2016-02-28T10:15:26.000Z</time>
      </trkpt>
      <trkpt lat="47.86813" lon="1.78668">
        <ele>71.02</ele>
        <time>2016-02-28T10:15:28.000Z</time>
      </trkpt>
      <trkpt lat="47.86816" lon="1.7868">
        <ele>71.02</ele>
        <time>2016-02-28T10:15:30.000Z</time>
      </trkpt>
      <trkpt lat="47.8682" lon="1.78697">
        <ele>71.02</ele>
        <time>2016-02-28T10:15:32.000Z</time>
      </trkpt>
      <trkpt lat="47.86822" lon="1.78703">
        <ele>71.02</ele>
        <time>2016-02-28T10:15:34.000Z</time>
      </trkpt>
      <trkpt lat="47.86825" lon="1.78714">
        <ele>71.02</ele>
        <time>2016-02-28T10:15:36.000Z</time>
      </trkpt>
      <trkpt lat="47.86828" lon="1.78726">
        <ele>71.02</ele>
        <time>2016-02-28T10:15:38.000Z</time>
      </trkpt>
      <trkpt lat="47.86831" lon="1.78738">
        <ele>71.02</ele>
        <time>2016-02-28T10:15:40.000Z</time>
      </trkpt>
      <trkpt lat="47.86834" lon="1.7875">
        <ele>71.02</ele>
        <time>2016-02-28T10:15:42.000Z</time>
      </trkpt>
      <trkpt lat="47.86838" lon="1.78767">
        <ele>71.02</ele>
        <time>2016-02-28T10:15:44.000Z</time>
      </trkpt>
      <trkpt lat="47.8684" lon="1.78778">
        <ele>71.02</ele>
        <time>2016-02-28T10:15:46.000Z</time>
      </trkpt>
      <trkpt lat="47.86841" lon="1.78784">
        <ele>71.02</ele>
        <time>2016-02-28T10:15:48.000Z</time>
      </trkpt>
      <trkpt lat="47.86844" lon="1.78795">
        <ele>71.02</ele>
        <time>2016-02-28T10:15:50.000Z</time>
      </trkpt>
      <trkpt lat="47.86847" lon="1.78806">
        <ele>71.02</ele>
        <time>2016-02-28T10:15:52.000Z</time>
      </trkpt>
      <trkpt lat="47.86849" lon="1.78818">
        <ele>71.02</ele>
        <time>2016-02-28T10:15:54.000Z</time>
      </trkpt>
      <trkpt lat="47.86852" lon="1.78829">
        <ele>71.02</ele>
        <time>2016-02-28T10:15:56.000Z</time>
      </trkpt>
      <trkpt lat="47.86855" lon="1.78841">
        <ele>71.02</ele>
        <time>2016-02-28T10:15:58.000Z</time>
      </trkpt>
      <trkpt lat="47.86858" lon="1.7886">
        <ele>71.02</ele>
        <time>2016-02-28T10:16:00.000Z</time>
      </trkpt>
      <trkpt lat="47.8686" lon="1.78866">
        <ele>71.02</ele>
        <time>2016-02-28T10:16:02.000Z</time>
      </trkpt>
      <trkpt lat="47.86862" lon="1.78879">
        <ele>71.02</ele>
        <time>2016-02-28T10:16:04.000Z</time>
      </trkpt>
      <trkpt lat="47.86863" lon="1.78892">
        <ele>70.1</ele>
        <time>2016-02-28T10:16:06.000Z</time>
      </trkpt>
      <trkpt lat="47.86864" lon="1.78905">
        <ele>70.1</ele>
        <time>2016-02-28T10:16:08.000Z</time>
      </trkpt>
      <trkpt lat="47.86863" lon="1.78919">
        <ele>70.1</ele>
        <time>2016-02-28T10:16:10.000Z</time>
      </trkpt>
      <trkpt lat="47.8686" lon="1.7893">
        <ele>70.1</ele>
        <time>2016-02-28T10:16:12.000Z</time>
      </trkpt>
      <trkpt lat="47.86857" lon="1.78948">
        <ele>70.1</ele>
        <time>2016-02-28T10:16:14.000Z</time>
      </trkpt>
      <trkpt lat="47.86856" lon="1.78954">
        <ele>70.1</ele>
        <time>2016-02-28T10:16:16.000Z</time>
      </trkpt>
      <trkpt lat="47.86853" lon="1.78967">
        <ele>70.1</ele>
        <time>2016-02-28T10:16:18.000Z</time>
      </trkpt>
      <trkpt lat="47.8685" lon="1.78979">
        <ele>70.1</ele>
        <time>2016-02-28T10:16:20.000Z</time>
      </trkpt>
      <trkpt lat="47.86848" lon="1.78992">
        <ele>70.1</ele>
        <time>2016-02-28T10:16:22.000Z</time>
      </trkpt>
      <trkpt lat="47.86847" lon="1.79006">
        <ele>70.1</ele>
        <time>2016-02-28T10:16:24.000Z</time>
      </trkpt>
      <trkpt lat="47.86845" lon="1.79018">
        <ele>70.1</ele>
        <time>2016-02-28T10:16:26.000Z</time>
      </trkpt>
      <trkpt lat="47.86843" lon="1.79038">
        <ele>70.1</ele>
        <time>2016-02-28T10:16:28.000Z</time>
      </trkpt>
      <trkpt lat="47.86842" lon="1.79044">
        <ele>70.1</ele>
        <time>2016-02-28T10:16:30.000Z</time>
      </trkpt>
      <trkpt lat="47.86841" lon="1.79057">
        <ele>70.1</ele>
        <time>2016-02-28T10:16:32.000Z</time>
      </trkpt>
      <trkpt lat="47.86839" lon="1.79069">
        <ele>70.1</ele>
        <time>2016-02-28T10:16:34.000Z</time>
      </trkpt>
      <trkpt lat="47.86837" lon="1.79082">
        <ele>70.1</ele>
        <time>2016-02-28T10:16:36.000Z</time>
      </trkpt>
      <trkpt lat="47.86834" lon="1.79092">
        <ele>70.1</ele>
        <time>2016-02-28T10:16:38.000Z</time>
      </trkpt>
      <trkpt lat="47.86833" lon="1.79101">
        <ele>71.02</ele>
        <time>2016-02-28T10:16:40.000Z</time>
      </trkpt>
      <trkpt lat="47.86832" lon="1.79108">
        <ele>71.02</ele>
        <time>2016-02-28T10:16:42.000Z</time>
      </trkpt>
      <trkpt lat="47.86835" lon="1.79113">
        <ele>71.02</ele>
        <time>2016-02-28T10:16:44.000Z</time>
      </trkpt>
      <trkpt lat="47.86835" lon="1.79115">
        <ele>71.02</ele>
        <time>2016-02-28T10:16:46.000Z</time>
      </trkpt>
      <trkpt lat="47.86834" lon="1.7912">
        <ele>71.02</ele>
        <time>2016-02-28T10:16:48.000Z</time>
      </trkpt>
      <trkpt lat="47.86833" lon="1.79127">
        <ele>71.93</ele>
        <time>2016-02-28T10:16:50.000Z</time>
      </trkpt>
      <trkpt lat="47.86833" lon="1.79133">
        <ele>71.93</ele>
        <time>2016-02-28T10:16:52.000Z</time>
      </trkpt>
      <trkpt lat="47.86832" lon="1.7914">
        <ele>71.93</ele>
        <time>2016-02-28T10:16:54.000Z</time>
      </trkpt>
      <trkpt lat="47.86832" lon="1.79149">
        <ele>71.93</ele>
        <time>2016-02-28T10:16:56.000Z</time>
      </trkpt>
      <trkpt lat="47.86831" lon="1.79163">
        <ele>71.93</ele>
        <time>2016-02-28T10:16:58.000Z</time>
      </trkpt>
      <trkpt lat="47.86831" lon="1.79169">
        <ele>71.93</ele>
        <time>2016-02-28T10:17:00.000Z</time>
      </trkpt>
      <trkpt lat="47.8683" lon="1.79181">
        <ele>71.93</ele>
        <time>2016-02-28T10:17:02.000Z</time>
      </trkpt>
      <trkpt lat="47.86829" lon="1.79193">
        <ele>71.93</ele>
        <time>2016-02-28T10:17:04.000Z</time>
      </trkpt>
      <trkpt lat="47.86827" lon="1.79205">
        <ele>71.93</ele>
        <time>2016-02-28T10:17:06.000Z</time>
      </trkpt>
      <trkpt lat="47.86825" lon="1.79216">
        <ele>71.93</ele>
        <time>2016-02-28T10:17:08.000Z</time>
      </trkpt>
      <trkpt lat="47.86824" lon="1.79227">
        <ele>71.93</ele>
        <time>2016-02-28T10:17:10.000Z</time>
      </trkpt>
      <trkpt lat="47.86823" lon="1.79242">
        <ele>71.93</ele>
        <time>2016-02-28T10:17:12.000Z</time>
      </trkpt>
      <trkpt lat="47.86823" lon="1.79246">
        <ele>71.93</ele>
        <time>2016-02-28T10:17:14.000Z</time>
      </trkpt>
      <trkpt lat="47.86824" lon="1.79254">
        <ele>71.93</ele>
        <time>2016-02-28T10:17:16.000Z</time>
      </trkpt>
      <trkpt lat="47.86823" lon="1.79265">
        <ele>71.93</ele>
        <time>2016-02-28T10:17:18.000Z</time>
      </trkpt>
      <trkpt lat="47.86822" lon="1.79274">
        <ele>71.93</ele>
        <time>2016-02-28T10:17:20.000Z</time>
      </trkpt>
      <trkpt lat="47.86821" lon="1.79284">
        <ele>71.93</ele>
        <time>2016-02-28T10:17:22.000Z</time>
      </trkpt>
      <trkpt lat="47.8682" lon="1.79295">
        <ele>71.93</ele>
        <time>2016-02-28T10:17:24.000Z</time>
      </trkpt>
      <trkpt lat="47.8682" lon="1.7931">
        <ele>71.93</ele>
        <time>2016-02-28T10:17:26.000Z</time>
      </trkpt>
      <trkpt lat="47.8682" lon="1.79315">
        <ele>71.93</ele>
        <time>2016-02-28T10:17:28.000Z</time>
      </trkpt>
      <trkpt lat="47.8682" lon="1.79326">
        <ele>71.93</ele>
        <time>2016-02-28T10:17:30.000Z</time>
      </trkpt>
      <trkpt lat="47.86818" lon="1.79337">
        <ele>71.93</ele>
        <time>2016-02-28T10:17:32.000Z</time>
      </trkpt>
      <trkpt lat="47.86817" lon="1.7935">
        <ele>71.93</ele>
        <time>2016-02-28T10:17:34.000Z</time>
      </trkpt>
      <trkpt lat="47.86817" lon="1.79362">
        <ele>71.93</ele>
        <time>2016-02-28T10:17:36.000Z</time>
      </trkpt>
      <trkpt lat="47.86816" lon="1.79374">
        <ele>71.93</ele>
        <time>2016-02-28T10:17:38.000Z</time>
      </trkpt>
      <trkpt lat="47.86815" lon="1.79392">
        <ele>71.93</ele>
        <time>2016-02-28T10:17:40.000Z</time>
      </trkpt>
      <trkpt lat="47.86815" lon="1.79397">
        <ele>71.93</ele>
        <time>2016-02-28T10:17:42.000Z</time>
      </trkpt>
      <trkpt lat="47.86814" lon="1.79408">
        <ele>71.93</ele>
        <time>2016-02-28T10:17:44.000Z</time>
      </trkpt>
      <trkpt lat="47.86813" lon="1.79421">
        <ele>71.93</ele>
        <time>2016-02-28T10:17:46.000Z</time>
      </trkpt>
      <trkpt lat="47.86812" lon="1.79435">
        <ele>71.93</ele>
        <time>2016-02-28T10:17:48.000Z</time>
      </trkpt>
      <trkpt lat="47.86811" lon="1.7945">
        <ele>71.93</ele>
        <time>2016-02-28T10:17:50.000Z</time>
      </trkpt>
      <trkpt lat="47.86809" lon="1.79463">
        <ele>71.93</ele>
        <time>2016-02-28T10:17:52.000Z</time>
      </trkpt>
      <trkpt lat="47.86809" lon="1.79479">
        <ele>71.93</ele>
        <time>2016-02-28T10:17:54.000Z</time>
      </trkpt>
      <trkpt lat="47.86809" lon="1.79484">
        <ele>71.93</ele>
        <time>2016-02-28T10:17:56.000Z</time>
      </trkpt>
      <trkpt lat="47.86809" lon="1.79498">
        <ele>71.93</ele>
        <time>2016-02-28T10:17:58.000Z</time>
      </trkpt>
      <trkpt lat="47.86807" lon="1.79514">
        <ele>71.93</ele>
        <time>2016-02-28T10:18:00.000Z</time>
      </trkpt>
      <trkpt lat="47.86806" lon="1.79528">
        <ele>71.93</ele>
        <time>2016-02-28T10:18:02.000Z</time>
      </trkpt>
      <trkpt lat="47.86804" lon="1.79542">
        <ele>71.93</ele>
        <time>2016-02-28T10:18:04.000Z</time>
      </trkpt>
      <trkpt lat="47.86803" lon="1.79555">
        <ele>73.15</ele>
        <time>2016-02-28T10:18:06.000Z</time>
      </trkpt>
      <trkpt lat="47.86802" lon="1.79573">
        <ele>73.15</ele>
        <time>2016-02-28T10:18:08.000Z</time>
      </trkpt>
      <trkpt lat="47.86802" lon="1.79579">
        <ele>73.15</ele>
        <time>2016-02-28T10:18:10.000Z</time>
      </trkpt>
      <trkpt lat="47.868" lon="1.79592">
        <ele>73.15</ele>
        <time>2016-02-28T10:18:12.000Z</time>
      </trkpt>
      <trkpt lat="47.86799" lon="1.79607">
        <ele>73.15</ele>
        <time>2016-02-28T10:18:14.000Z</time>
      </trkpt>
      <trkpt lat="47.86797" lon="1.79624">
        <ele>73.15</ele>
        <time>2016-02-28T10:18:16.000Z</time>
      </trkpt>
      <trkpt lat="47.86796" lon="1.79639">
        <ele>73.15</ele>
        <time>2016-02-28T10:18:18.000Z</time>
      </trkpt>
      <trkpt lat="47.86794" lon="1.79654">
        <ele>73.15</ele>
        <time>2016-02-28T10:18:20.000Z</time>
      </trkpt>
      <trkpt lat="47.86794" lon="1.79667">
        <ele>73.15</ele>
        <time>2016-02-28T10:18:22.000Z</time>
      </trkpt>
      <trkpt lat="47.86795" lon="1.79689">
        <ele>73.15</ele>
        <time>2016-02-28T10:18:24.000Z</time>
      </trkpt>
      <trkpt lat="47.86795" lon="1.79697">
        <ele>73.15</ele>
        <time>2016-02-28T10:18:26.000Z</time>
      </trkpt>
      <trkpt lat="47.86795" lon="1.79713">
        <ele>73.15</ele>
        <time>2016-02-28T10:18:28.000Z</time>
      </trkpt>
      <trkpt lat="47.86795" lon="1.79727">
        <ele>73.15</ele>
        <time>2016-02-28T10:18:30.000Z</time>
      </trkpt>
      <trkpt lat="47.86795" lon="1.7974">
        <ele>73.15</ele>
        <time>2016-02-28T10:18:32.000Z</time>
      </trkpt>
      <trkpt lat="47.86795" lon="1.79755">
        <ele>73.15</ele>
        <time>2016-02-28T10:18:34.000Z</time>
      </trkpt>
      <trkpt lat="47.86795" lon="1.79769">
        <ele>71.93</ele>
        <time>2016-02-28T10:18:36.000Z</time>
      </trkpt>
      <trkpt lat="47.86793" lon="1.79789">
        <ele>71.93</ele>
        <time>2016-02-28T10:18:38.000Z</time>
      </trkpt>
      <trkpt lat="47.86792" lon="1.79795">
        <ele>71.93</ele>
        <time>2016-02-28T10:18:40.000Z</time>
      </trkpt>
      <trkpt lat="47.8679" lon="1.79807">
        <ele>71.93</ele>
        <time>2016-02-28T10:18:42.000Z</time>
      </trkpt>
      <trkpt lat="47.86788" lon="1.79818">
        <ele>71.93</ele>
        <time>2016-02-28T10:18:44.000Z</time>
      </trkpt>
      <trkpt lat="47.86786" lon="1.79829">
        <ele>71.93</ele>
        <time>2016-02-28T10:18:46.000Z</time>
      </trkpt>
      <trkpt lat="47.86785" lon="1.7984">
        <ele>71.93</ele>
        <time>2016-02-28T10:18:48.000Z</time>
      </trkpt>
      <trkpt lat="47.86783" lon="1.79851">
        <ele>71.93</ele>
        <time>2016-02-28T10:18:50.000Z</time>
      </trkpt>
      <trkpt lat="47.86782" lon="1.79869">
        <ele>71.93</ele>
        <time>2016-02-28T10:18:52.000Z</time>
      </trkpt>
      <trkpt lat="47.86781" lon="1.79875">
        <ele>71.93</ele>
        <time>2016-02-28T10:18:54.000Z</time>
      </trkpt>
      <trkpt lat="47.8678" lon="1.79888">
        <ele>71.93</ele>
        <time>2016-02-28T10:18:56.000Z</time>
      </trkpt>
      <trkpt lat="47.86779" lon="1.79901">
        <ele>71.93</ele>
        <time>2016-02-28T10:18:58.000Z</time>
      </trkpt>
      <trkpt lat="47.86778" lon="1.79914">
        <ele>71.93</ele>
        <time>2016-02-28T10:19:00.000Z</time>
      </trkpt>
      <trkpt lat="47.86777" lon="1.79925">
        <ele>71.93</ele>
        <time>2016-02-28T10:19:02.000Z</time>
      </trkpt>
      <trkpt lat="47.86776" lon="1.79939">
        <ele>71.93</ele>
        <time>2016-02-28T10:19:04.000Z</time>
      </trkpt>
      <trkpt lat="47.86777" lon="1.79947">
        <ele>71.93</ele>
        <time>2016-02-28T10:19:06.000Z</time>
      </trkpt>
      <trkpt lat="47.86777" lon="1.79951">
        <ele>71.93</ele>
        <time>2016-02-28T10:19:08.000Z</time>
      </trkpt>
      <trkpt lat="47.86777" lon="1.79961">
        <ele>71.93</ele>
        <time>2016-02-28T10:19:10.000Z</time>
      </trkpt>
      <trkpt lat="47.86777" lon="1.79972">
        <ele>71.93</ele>
        <time>2016-02-28T10:19:12.000Z</time>
      </trkpt>
      <trkpt lat="47.86777" lon="1.79982">
        <ele>71.93</ele>
        <time>2016-02-28T10:19:14.000Z</time>
      </trkpt>
      <trkpt lat="47.86776" lon="1.79994">
        <ele>71.93</ele>
        <time>2016-02-28T10:19:16.000Z</time>
      </trkpt>
      <trkpt lat="47.86776" lon="1.80005">
        <ele>71.93</ele>
        <time>2016-02-28T10:19:18.000Z</time>
      </trkpt>
      <trkpt lat="47.86773" lon="1.8002">
        <ele>71.93</ele>
        <time>2016-02-28T10:19:20.000Z</time>
      </trkpt>
      <trkpt lat="47.86772" lon="1.80025">
        <ele>71.93</ele>
        <time>2016-02-28T10:19:22.000Z</time>
      </trkpt>
      <trkpt lat="47.86772" lon="1.80034">
        <ele>71.93</ele>
        <time>2016-02-28T10:19:24.000Z</time>
      </trkpt>
      <trkpt lat="47.86772" lon="1.80044">
        <ele>71.93</ele>
        <time>2016-02-28T10:19:26.000Z</time>
      </trkpt>
      <trkpt lat="47.86771" lon="1.80057">
        <ele>71.93</ele>
        <time>2016-02-28T10:19:28.000Z</time>
      </trkpt>
      <trkpt lat="47.8677" lon="1.80069">
        <ele>71.93</ele>
        <time>2016-02-28T10:19:30.000Z</time>
      </trkpt>
      <trkpt lat="47.86769" lon="1.8008">
        <ele>71.93</ele>
        <time>2016-02-28T10:19:32.000Z</time>
      </trkpt>
      <trkpt lat="47.86768" lon="1.80094">
        <ele>71.93</ele>
        <time>2016-02-28T10:19:34.000Z</time>
      </trkpt>
      <trkpt lat="47.86768" lon="1.80098">
        <ele>71.93</ele>
        <time>2016-02-28T10:19:36.000Z</time>
      </trkpt>
      <trkpt lat="47.86767" lon="1.80107">
        <ele>71.93</ele>
        <time>2016-02-28T10:19:38.000Z</time>
      </trkpt>
      <trkpt lat="47.86766" lon="1.80118">
        <ele>71.93</ele>
        <time>2016-02-28T10:19:40.000Z</time>
      </trkpt>
      <trkpt lat="47.86763" lon="1.80126">
        <ele>71.93</ele>
        <time>2016-02-28T10:19:42.000Z</time>
      </trkpt>
      <trkpt lat="47.86756" lon="1.80131">
        <ele>71.93</ele>
        <time>2016-02-28T10:19:44.000Z</time>
      </trkpt>
      <trkpt lat="47.86747" lon="1.80134">
        <ele>71.02</ele>
        <time>2016-02-28T10:19:46.000Z</time>
      </trkpt>
      <trkpt lat="47.86733" lon="1.80138">
        <ele>71.02</ele>
        <time>2016-02-28T10:19:48.000Z</time>
      </trkpt>
      <trkpt lat="47.86729" lon="1.80139">
        <ele>71.02</ele>
        <time>2016-02-28T10:19:50.000Z</time>
      </trkpt>
      <trkpt lat="47.8672" lon="1.80142">
        <ele>71.02</ele>
        <time>2016-02-28T10:19:52.000Z</time>
      </trkpt>
      <trkpt lat="47.86712" lon="1.80144">
        <ele>71.02</ele>
        <time>2016-02-28T10:19:54.000Z</time>
      </trkpt>
      <trkpt lat="47.86703" lon="1.80146">
        <ele>71.02</ele>
        <time>2016-02-28T10:19:56.000Z</time>
      </trkpt>
      <trkpt lat="47.86694" lon="1.80147">
        <ele>71.02</ele>
        <time>2016-02-28T10:19:58.000Z</time>
      </trkpt>
      <trkpt lat="47.86686" lon="1.80149">
        <ele>71.02</ele>
        <time>2016-02-28T10:20:00.000Z</time>
      </trkpt>
      <trkpt lat="47.86677" lon="1.80152">
        <ele>71.02</ele>
        <time>2016-02-28T10:20:02.000Z</time>
      </trkpt>
      <trkpt lat="47.86666" lon="1.80154">
        <ele>71.02</ele>
        <time>2016-02-28T10:20:04.000Z</time>
      </trkpt>
      <trkpt lat="47.86662" lon="1.80155">
        <ele>71.02</ele>
        <time>2016-02-28T10:20:06.000Z</time>
      </trkpt>
      <trkpt lat="47.86657" lon="1.80156">
        <ele>71.02</ele>
        <time>2016-02-28T10:20:08.000Z</time>
      </trkpt>
      <trkpt lat="47.86653" lon="1.80157">
        <ele>71.93</ele>
        <time>2016-02-28T10:20:10.000Z</time>
      </trkpt>
      <trkpt lat="47.86652" lon="1.80159">
        <ele>71.93</ele>
        <time>2016-02-28T10:20:12.000Z</time>
      </trkpt>
      <trkpt lat="47.86651" lon="1.80166">
        <ele>71.93</ele>
        <time>2016-02-28T10:20:14.000Z</time>
      </trkpt>
      <trkpt lat="47.86654" lon="1.8018">
        <ele>71.93</ele>
        <time>2016-02-28T10:20:16.000Z</time>
      </trkpt>
      <trkpt lat="47.86655" lon="1.8019">
        <ele>71.93</ele>
        <time>2016-02-28T10:20:18.000Z</time>
      </trkpt>
      <trkpt lat="47.86655" lon="1.80194">
        <ele>71.93</ele>
        <time>2016-02-28T10:20:20.000Z</time>
      </trkpt>
      <trkpt lat="47.86655" lon="1.80205">
        <ele>71.93</ele>
        <time>2016-02-28T10:20:22.000Z</time>
      </trkpt>
      <trkpt lat="47.86656" lon="1.80216">
        <ele>71.93</ele>
        <time>2016-02-28T10:20:24.000Z</time>
      </trkpt>
      <trkpt lat="47.86657" lon="1.80229">
        <ele>73.15</ele>
        <time>2016-02-28T10:20:26.000Z</time>
      </trkpt>
      <trkpt lat="47.86657" lon="1.80242">
        <ele>73.15</ele>
        <time>2016-02-28T10:20:28.000Z</time>
      </trkpt>
      <trkpt lat="47.86658" lon="1.80254">
        <ele>73.15</ele>
        <time>2016-02-28T10:20:30.000Z</time>
      </trkpt>
      <trkpt lat="47.86659" lon="1.80266">
        <ele>73.15</ele>
        <time>2016-02-28T10:20:32.000Z</time>
      </trkpt>
      <trkpt lat="47.86659" lon="1.80279">
        <ele>73.15</ele>
        <time>2016-02-28T10:20:34.000Z</time>
      </trkpt>
      <trkpt lat="47.8666" lon="1.80293">
        <ele>73.15</ele>
        <time>2016-02-28T10:20:36.000Z</time>
      </trkpt>
      <trkpt lat="47.86661" lon="1.80306">
        <ele>73.15</ele>
        <time>2016-02-28T10:20:38.000Z</time>
      </trkpt>
      <trkpt lat="47.86662" lon="1.80319">
        <ele>73.15</ele>
        <time>2016-02-28T10:20:40.000Z</time>
      </trkpt>
      <trkpt lat="47.86663" lon="1.8033">
        <ele>73.15</ele>
        <time>2016-02-28T10:20:42.000Z</time>
      </trkpt>
      <trkpt lat="47.86664" lon="1.80341">
        <ele>73.15</ele>
        <time>2016-02-28T10:20:44.000Z</time>
      </trkpt>
      <trkpt lat="47.86666" lon="1.80357">
        <ele>73.15</ele>
        <time>2016-02-28T10:20:46.000Z</time>
      </trkpt>
      <trkpt lat="47.86666" lon="1.80364">
        <ele>73.15</ele>
        <time>2016-02-28T10:20:48.000Z</time>
      </trkpt>
      <trkpt lat="47.86667" lon="1.80377">
        <ele>73.15</ele>
        <time>2016-02-28T10:20:50.000Z</time>
      </trkpt>
      <trkpt lat="47.86668" lon="1.8039">
        <ele>73.15</ele>
        <time>2016-02-28T10:20:52.000Z</time>
      </trkpt>
      <trkpt lat="47.86671" lon="1.80402">
        <ele>73.15</ele>
        <time>2016-02-28T10:20:54.000Z</time>
      </trkpt>
      <trkpt lat="47.86674" lon="1.80414">
        <ele>73.15</ele>
        <time>2016-02-28T10:20:56.000Z</time>
      </trkpt>
      <trkpt lat="47.86677" lon="1.80426">
        <ele>73.15</ele>
        <time>2016-02-28T10:20:58.000Z</time>
      </trkpt>
      <trkpt lat="47.86684" lon="1.80437">
        <ele>73.15</ele>
        <time>2016-02-28T10:21:00.000Z</time>
      </trkpt>
      <trkpt lat="47.86686" lon="1.8044">
        <ele>73.15</ele>
        <time>2016-02-28T10:21:02.000Z</time>
      </trkpt>
      <trkpt lat="47.86692" lon="1.80446">
        <ele>73.15</ele>
        <time>2016-02-28T10:21:04.000Z</time>
      </trkpt>
      <trkpt lat="47.86697" lon="1.80452">
        <ele>73.15</ele>
        <time>2016-02-28T10:21:06.000Z</time>
      </trkpt>
      <trkpt lat="47.86701" lon="1.80458">
        <ele>73.15</ele>
        <time>2016-02-28T10:21:08.000Z</time>
      </trkpt>
      <trkpt lat="47.86706" lon="1.80466">
        <ele>73.15</ele>
        <time>2016-02-28T10:21:10.000Z</time>
      </trkpt>
      <trkpt lat="47.86711" lon="1.80474">
        <ele>73.15</ele>
        <time>2016-02-28T10:21:12.000Z</time>
      </trkpt>
      <trkpt lat="47.86718" lon="1.80488">
        <ele>73.15</ele>
        <time>2016-02-28T10:21:14.000Z</time>
      </trkpt>
      <trkpt lat="47.8672" lon="1.80493">
        <ele>73.15</ele>
        <time>2016-02-28T10:21:16.000Z</time>
      </trkpt>
      <trkpt lat="47.86725" lon="1.80502">
        <ele>73.15</ele>
        <time>2016-02-28T10:21:18.000Z</time>
      </trkpt>
      <trkpt lat="47.86731" lon="1.80512">
        <ele>74.07</ele>
        <time>2016-02-28T10:21:20.000Z</time>
      </trkpt>
      <trkpt lat="47.86736" lon="1.80521">
        <ele>74.07</ele>
        <time>2016-02-28T10:21:22.000Z</time>
      </trkpt>
      <trkpt lat="47.86741" lon="1.8053">
        <ele>74.07</ele>
        <time>2016-02-28T10:21:24.000Z</time>
      </trkpt>
      <trkpt lat="47.86746" lon="1.8054">
        <ele>74.98</ele>
        <time>2016-02-28T10:21:26.000Z</time>
      </trkpt>
      <trkpt lat="47.86755" lon="1.80554">
        <ele>74.98</ele>
        <time>2016-02-28T10:21:28.000Z</time>
      </trkpt>
      <trkpt lat="47.86757" lon="1.80559">
        <ele>74.98</ele>
        <time>2016-02-28T10:21:30.000Z</time>
      </trkpt>
      <trkpt lat="47.86763" lon="1.80569">
        <ele>74.98</ele>
        <time>2016-02-28T10:21:32.000Z</time>
      </trkpt>
      <trkpt lat="47.86768" lon="1.80578">
        <ele>74.98</ele>
        <time>2016-02-28T10:21:34.000Z</time>
      </trkpt>
      <trkpt lat="47.86773" lon="1.80588">
        <ele>74.98</ele>
        <time>2016-02-28T10:21:36.000Z</time>
      </trkpt>
      <trkpt lat="47.86779" lon="1.80598">
        <ele>74.98</ele>
        <time>2016-02-28T10:21:38.000Z</time>
      </trkpt>
      <trkpt lat="47.86785" lon="1.80608">
        <ele>74.98</ele>
        <time>2016-02-28T10:21:40.000Z</time>
      </trkpt>
      <trkpt lat="47.86791" lon="1.80618">
        <ele>74.98</ele>
        <time>2016-02-28T10:21:42.000Z</time>
      </trkpt>
      <trkpt lat="47.868" lon="1.80633">
        <ele>74.98</ele>
        <time>2016-02-28T10:21:44.000Z</time>
      </trkpt>
      <trkpt lat="47.86803" lon="1.80638">
        <ele>74.98</ele>
        <time>2016-02-28T10:21:46.000Z</time>
      </trkpt>
      <trkpt lat="47.86809" lon="1.80648">
        <ele>74.98</ele>
        <time>2016-02-28T10:21:48.000Z</time>
      </trkpt>
      <trkpt lat="47.86814" lon="1.80657">
        <ele>74.07</ele>
        <time>2016-02-28T10:21:50.000Z</time>
      </trkpt>
      <trkpt lat="47.8682" lon="1.80667">
        <ele>74.07</ele>
        <time>2016-02-28T10:21:52.000Z</time>
      </trkpt>
      <trkpt lat="47.86825" lon="1.80677">
        <ele>74.07</ele>
        <time>2016-02-28T10:21:54.000Z</time>
      </trkpt>
      <trkpt lat="47.86831" lon="1.80686">
        <ele>74.07</ele>
        <time>2016-02-28T10:21:56.000Z</time>
      </trkpt>
      <trkpt lat="47.86838" lon="1.807">
        <ele>74.07</ele>
        <time>2016-02-28T10:21:58.000Z</time>
      </trkpt>
      <trkpt lat="47.86841" lon="1.80705">
        <ele>74.07</ele>
        <time>2016-02-28T10:22:00.000Z</time>
      </trkpt>
      <trkpt lat="47.86846" lon="1.80713">
        <ele>74.07</ele>
        <time>2016-02-28T10:22:02.000Z</time>
      </trkpt>
      <trkpt lat="47.86851" lon="1.8072">
        <ele>74.07</ele>
        <time>2016-02-28T10:22:04.000Z</time>
      </trkpt>
      <trkpt lat="47.86857" lon="1.80727">
        <ele>74.07</ele>
        <time>2016-02-28T10:22:06.000Z</time>
      </trkpt>
      <trkpt lat="47.86864" lon="1.80732">
        <ele>74.07</ele>
        <time>2016-02-28T10:22:08.000Z</time>
      </trkpt>
      <trkpt lat="47.86871" lon="1.80736">
        <ele>74.07</ele>
        <time>2016-02-28T10:22:10.000Z</time>
      </trkpt>
      <trkpt lat="47.86884" lon="1.80739">
        <ele>74.07</ele>
        <time>2016-02-28T10:22:12.000Z</time>
      </trkpt>
      <trkpt lat="47.86888" lon="1.8074">
        <ele>74.07</ele>
        <time>2016-02-28T10:22:14.000Z</time>
      </trkpt>
      <trkpt lat="47.86896" lon="1.80743">
        <ele>74.07</ele>
        <time>2016-02-28T10:22:16.000Z</time>
      </trkpt>
      <trkpt lat="47.86904" lon="1.80746">
        <ele>74.07</ele>
        <time>2016-02-28T10:22:18.000Z</time>
      </trkpt>
      <trkpt lat="47.86912" lon="1.80751">
        <ele>74.07</ele>
        <time>2016-02-28T10:22:20.000Z</time>
      </trkpt>
      <trkpt lat="47.86919" lon="1.80758">
        <ele>74.07</ele>
        <time>2016-02-28T10:22:22.000Z</time>
      </trkpt>
      <trkpt lat="47.86926" lon="1.80766">
        <ele>74.07</ele>
        <time>2016-02-28T10:22:24.000Z</time>
      </trkpt>
      <trkpt lat="47.86935" lon="1.80779">
        <ele>74.07</ele>
        <time>2016-02-28T10:22:26.000Z</time>
      </trkpt>
      <trkpt lat="47.86937" lon="1.80784">
        <ele>74.07</ele>
        <time>2016-02-28T10:22:28.000Z</time>
      </trkpt>
      <trkpt lat="47.86941" lon="1.80795">
        <ele>74.07</ele>
        <time>2016-02-28T10:22:30.000Z</time>
      </trkpt>
      <trkpt lat="47.86944" lon="1.80807">
        <ele>74.07</ele>
        <time>2016-02-28T10:22:32.000Z</time>
      </trkpt>
      <trkpt lat="47.86947" lon="1.80819">
        <ele>74.07</ele>
        <time>2016-02-28T10:22:34.000Z</time>
      </trkpt>
      <trkpt lat="47.86947" lon="1.80832">
        <ele>74.07</ele>
        <time>2016-02-28T10:22:36.000Z</time>
      </trkpt>
      <trkpt lat="47.86947" lon="1.80844">
        <ele>74.07</ele>
        <time>2016-02-28T10:22:38.000Z</time>
      </trkpt>
      <trkpt lat="47.86948" lon="1.80863">
        <ele>74.07</ele>
        <time>2016-02-28T10:22:40.000Z</time>
      </trkpt>
      <trkpt lat="47.86948" lon="1.8087">
        <ele>74.07</ele>
        <time>2016-02-28T10:22:42.000Z</time>
      </trkpt>
      <trkpt lat="47.86949" lon="1.80883">
        <ele>74.07</ele>
        <time>2016-02-28T10:22:44.000Z</time>
      </trkpt>
      <trkpt lat="47.86952" lon="1.80896">
        <ele>74.07</ele>
        <time>2016-02-28T10:22:46.000Z</time>
      </trkpt>
      <trkpt lat="47.86956" lon="1.80908">
        <ele>74.07</ele>
        <time>2016-02-28T10:22:48.000Z</time>
      </trkpt>
      <trkpt lat="47.86962" lon="1.80918">
        <ele>74.07</ele>
        <time>2016-02-28T10:22:50.000Z</time>
      </trkpt>
      <trkpt lat="47.86968" lon="1.80928">
        <ele>74.07</ele>
        <time>2016-02-28T10:22:52.000Z</time>
      </trkpt>
      <trkpt lat="47.86973" lon="1.80938">
        <ele>74.07</ele>
        <time>2016-02-28T10:22:54.000Z</time>
      </trkpt>
      <trkpt lat="47.86979" lon="1.80948">
        <ele>74.07</ele>
        <time>2016-02-28T10:22:56.000Z</time>
      </trkpt>
      <trkpt lat="47.86985" lon="1.80959">
        <ele>74.07</ele>
        <time>2016-02-28T10:22:58.000Z</time>
      </trkpt>
      <trkpt lat="47.86991" lon="1.8097">
        <ele>74.07</ele>
        <time>2016-02-28T10:23:00.000Z</time>
      </trkpt>
      <trkpt lat="47.86997" lon="1.80981">
        <ele>74.07</ele>
        <time>2016-02-28T10:23:02.000Z</time>
      </trkpt>
      <trkpt lat="47.87003" lon="1.80992">
        <ele>74.07</ele>
        <time>2016-02-28T10:23:04.000Z</time>
      </trkpt>
      <trkpt lat="47.87009" lon="1.81002">
        <ele>74.07</ele>
        <time>2016-02-28T10:23:06.000Z</time>
      </trkpt>
      <trkpt lat="47.87018" lon="1.81017">
        <ele>74.07</ele>
        <time>2016-02-28T10:23:08.000Z</time>
      </trkpt>
      <trkpt lat="47.87021" lon="1.81023">
        <ele>74.07</ele>
        <time>2016-02-28T10:23:10.000Z</time>
      </trkpt>
      <trkpt lat="47.87027" lon="1.81033">
        <ele>74.07</ele>
        <time>2016-02-28T10:23:12.000Z</time>
      </trkpt>
      <trkpt lat="47.87033" lon="1.81043">
        <ele>74.07</ele>
        <time>2016-02-28T10:23:14.000Z</time>
      </trkpt>
      <trkpt lat="47.87038" lon="1.81054">
        <ele>74.07</ele>
        <time>2016-02-28T10:23:16.000Z</time>
      </trkpt>
      <trkpt lat="47.87044" lon="1.81064">
        <ele>74.07</ele>
        <time>2016-02-28T10:23:18.000Z</time>
      </trkpt>
      <trkpt lat="47.8705" lon="1.81074">
        <ele>74.07</ele>
        <time>2016-02-28T10:23:20.000Z</time>
      </trkpt>
      <trkpt lat="47.87056" lon="1.81083">
        <ele>74.07</ele>
        <time>2016-02-28T10:23:22.000Z</time>
      </trkpt>
      <trkpt lat="47.87061" lon="1.81092">
        <ele>74.07</ele>
        <time>2016-02-28T10:23:24.000Z</time>
      </trkpt>
      <trkpt lat="47.87067" lon="1.81102">
        <ele>74.07</ele>
        <time>2016-02-28T10:23:26.000Z</time>
      </trkpt>
      <trkpt lat="47.87072" lon="1.81112">
        <ele>74.07</ele>
        <time>2016-02-28T10:23:28.000Z</time>
      </trkpt>
      <trkpt lat="47.87077" lon="1.81121">
        <ele>74.07</ele>
        <time>2016-02-28T10:23:30.000Z</time>
      </trkpt>
      <trkpt lat="47.87082" lon="1.81131">
        <ele>74.07</ele>
        <time>2016-02-28T10:23:32.000Z</time>
      </trkpt>
      <trkpt lat="47.87088" lon="1.81139">
        <ele>74.07</ele>
        <time>2016-02-28T10:23:34.000Z</time>
      </trkpt>
      <trkpt lat="47.87093" lon="1.81149">
        <ele>74.07</ele>
        <time>2016-02-28T10:23:36.000Z</time>
      </trkpt>
      <trkpt lat="47.87101" lon="1.81163">
        <ele>74.07</ele>
        <time>2016-02-28T10:23:38.000Z</time>
      </trkpt>
      <trkpt lat="47.87104" lon="1.81168">
        <ele>74.07</ele>
        <time>2016-02-28T10:23:40.000Z</time>
      </trkpt>
      <trkpt lat="47.8711" lon="1.81178">
        <ele>74.07</ele>
        <time>2016-02-28T10:23:42.000Z</time>
      </trkpt>
      <trkpt lat="47.87115" lon="1.81188">
        <ele>74.07</ele>
        <time>2016-02-28T10:23:44.000Z</time>
      </trkpt>
      <trkpt lat="47.8712" lon="1.81198">
        <ele>74.07</ele>
        <time>2016-02-28T10:23:46.000Z</time>
      </trkpt>
      <trkpt lat="47.87126" lon="1.81207">
        <ele>74.07</ele>
        <time>2016-02-28T10:23:48.000Z</time>
      </trkpt>
      <trkpt lat="47.87131" lon="1.81217">
        <ele>74.07</ele>
        <time>2016-02-28T10:23:50.000Z</time>
      </trkpt>
      <trkpt lat="47.8714" lon="1.81231">
        <ele>74.07</ele>
        <time>2016-02-28T10:23:52.000Z</time>
      </trkpt>
      <trkpt lat="47.87143" lon="1.81236">
        <ele>74.07</ele>
        <time>2016-02-28T10:23:54.000Z</time>
      </trkpt>
      <trkpt lat="47.87149" lon="1.81246">
        <ele>74.07</ele>
        <time>2016-02-28T10:23:56.000Z</time>
      </trkpt>
      <trkpt lat="47.87155" lon="1.81255">
        <ele>74.07</ele>
        <time>2016-02-28T10:23:58.000Z</time>
      </trkpt>
      <trkpt lat="47.87161" lon="1.81265">
        <ele>74.07</ele>
        <time>2016-02-28T10:24:00.000Z</time>
      </trkpt>
      <trkpt lat="47.87166" lon="1.81276">
        <ele>74.07</ele>
        <time>2016-02-28T10:24:02.000Z</time>
      </trkpt>
      <trkpt lat="47.87171" lon="1.81286">
        <ele>74.07</ele>
        <time>2016-02-28T10:24:04.000Z</time>
      </trkpt>
      <trkpt lat="47.8718" lon="1.81302">
        <ele>74.07</ele>
        <time>2016-02-28T10:24:06.000Z</time>
      </trkpt>
      <trkpt lat="47.87183" lon="1.81306">
        <ele>74.07</ele>
        <time>2016-02-28T10:24:08.000Z</time>
      </trkpt>
      <trkpt lat="47.87188" lon="1.81316">
        <ele>74.07</ele>
        <time>2016-02-28T10:24:10.000Z</time>
      </trkpt>
      <trkpt lat="47.87193" lon="1.81327">
        <ele>74.07</ele>
        <time>2016-02-28T10:24:12.000Z</time>
      </trkpt>
      <trkpt lat="47.87198" lon="1.81337">
        <ele>74.07</ele>
        <time>2016-02-28T10:24:14.000Z</time>
      </trkpt>
      <trkpt lat="47.87203" lon="1.81347">
        <ele>74.07</ele>
        <time>2016-02-28T10:24:16.000Z</time>
      </trkpt>
      <trkpt lat="47.87208" lon="1.81356">
        <ele>74.07</ele>
        <time>2016-02-28T10:24:18.000Z</time>
      </trkpt>
      <trkpt lat="47.87216" lon="1.81372">
        <ele>74.07</ele>
        <time>2016-02-28T10:24:20.000Z</time>
      </trkpt>
      <trkpt lat="47.87218" lon="1.81378">
        <ele>74.07</ele>
        <time>2016-02-28T10:24:22.000Z</time>
      </trkpt>
      <trkpt lat="47.87223" lon="1.81389">
        <ele>74.07</ele>
        <time>2016-02-28T10:24:24.000Z</time>
      </trkpt>
      <trkpt lat="47.87227" lon="1.81401">
        <ele>74.07</ele>
        <time>2016-02-28T10:24:26.000Z</time>
      </trkpt>
      <trkpt lat="47.87231" lon="1.81411">
        <ele>74.07</ele>
        <time>2016-02-28T10:24:28.000Z</time>
      </trkpt>
      <trkpt lat="47.87236" lon="1.81422">
        <ele>74.07</ele>
        <time>2016-02-28T10:24:30.000Z</time>
      </trkpt>
      <trkpt lat="47.8724" lon="1.81433">
        <ele>74.07</ele>
        <time>2016-02-28T10:24:32.000Z</time>
      </trkpt>
      <trkpt lat="47.87245" lon="1.81451">
        <ele>74.07</ele>
        <time>2016-02-28T10:24:34.000Z</time>
      </trkpt>
      <trkpt lat="47.87247" lon="1.81456">
        <ele>74.07</ele>
        <time>2016-02-28T10:24:36.000Z</time>
      </trkpt>
      <trkpt lat="47.87252" lon="1.81467">
        <ele>74.07</ele>
        <time>2016-02-28T10:24:38.000Z</time>
      </trkpt>
      <trkpt lat="47.87256" lon="1.81479">
        <ele>74.07</ele>
        <time>2016-02-28T10:24:40.000Z</time>
      </trkpt>
      <trkpt lat="47.8726" lon="1.81491">
        <ele>74.07</ele>
        <time>2016-02-28T10:24:42.000Z</time>
      </trkpt>
      <trkpt lat="47.87263" lon="1.81503">
        <ele>74.07</ele>
        <time>2016-02-28T10:24:44.000Z</time>
      </trkpt>
      <trkpt lat="47.87268" lon="1.81521">
        <ele>74.07</ele>
        <time>2016-02-28T10:24:46.000Z</time>
      </trkpt>
      <trkpt lat="47.87271" lon="1.81534">
        <ele>74.07</ele>
        <time>2016-02-28T10:24:48.000Z</time>
      </trkpt>
      <trkpt lat="47.87273" lon="1.8154">
        <ele>74.07</ele>
        <time>2016-02-28T10:24:50.000Z</time>
      </trkpt>
      <trkpt lat="47.87276" lon="1.81553">
        <ele>74.07</ele>
        <time>2016-02-28T10:24:52.000Z</time>
      </trkpt>
      <trkpt lat="47.87279" lon="1.81567">
        <ele>74.07</ele>
        <time>2016-02-28T10:24:54.000Z</time>
      </trkpt>
      <trkpt lat="47.87282" lon="1.81581">
        <ele>74.07</ele>
        <time>2016-02-28T10:24:56.000Z</time>
      </trkpt>
      <trkpt lat="47.87286" lon="1.81595">
        <ele>74.07</ele>
        <time>2016-02-28T10:24:58.000Z</time>
      </trkpt>
      <trkpt lat="47.87289" lon="1.81608">
        <ele>74.07</ele>
        <time>2016-02-28T10:25:00.000Z</time>
      </trkpt>
      <trkpt lat="47.87292" lon="1.81622">
        <ele>74.07</ele>
        <time>2016-02-28T10:25:02.000Z</time>
      </trkpt>
      <trkpt lat="47.87296" lon="1.81636">
        <ele>74.07</ele>
        <time>2016-02-28T10:25:04.000Z</time>
      </trkpt>
      <trkpt lat="47.873" lon="1.81648">
        <ele>74.07</ele>
        <time>2016-02-28T10:25:06.000Z</time>
      </trkpt>
      <trkpt lat="47.87305" lon="1.8166">
        <ele>74.07</ele>
        <time>2016-02-28T10:25:08.000Z</time>
      </trkpt>
      <trkpt lat="47.8731" lon="1.81671">
        <ele>74.07</ele>
        <time>2016-02-28T10:25:10.000Z</time>
      </trkpt>
      <trkpt lat="47.87315" lon="1.81682">
        <ele>74.07</ele>
        <time>2016-02-28T10:25:12.000Z</time>
      </trkpt>
      <trkpt lat="47.8732" lon="1.81692">
        <ele>74.07</ele>
        <time>2016-02-28T10:25:14.000Z</time>
      </trkpt>
      <trkpt lat="47.87327" lon="1.81711">
        <ele>74.07</ele>
        <time>2016-02-28T10:25:16.000Z</time>
      </trkpt>
      <trkpt lat="47.87329" lon="1.81717">
        <ele>74.07</ele>
        <time>2016-02-28T10:25:18.000Z</time>
      </trkpt>
      <trkpt lat="47.87332" lon="1.81731">
        <ele>74.07</ele>
        <time>2016-02-28T10:25:20.000Z</time>
      </trkpt>
      <trkpt lat="47.87336" lon="1.81745">
        <ele>74.07</ele>
        <time>2016-02-28T10:25:22.000Z</time>
      </trkpt>
      <trkpt lat="47.87341" lon="1.81757">
        <ele>74.07</ele>
        <time>2016-02-28T10:25:24.000Z</time>
      </trkpt>
      <trkpt lat="47.87348" lon="1.81769">
        <ele>74.07</ele>
        <time>2016-02-28T10:25:26.000Z</time>
      </trkpt>
      <trkpt lat="47.87354" lon="1.8178">
        <ele>74.07</ele>
        <time>2016-02-28T10:25:28.000Z</time>
      </trkpt>
      <trkpt lat="47.87358" lon="1.81793">
        <ele>74.07</ele>
        <time>2016-02-28T10:25:30.000Z</time>
      </trkpt>
      <trkpt lat="47.87367" lon="1.81811">
        <ele>74.07</ele>
        <time>2016-02-28T10:25:32.000Z</time>
      </trkpt>
      <trkpt lat="47.87369" lon="1.81817">
        <ele>74.07</ele>
        <time>2016-02-28T10:25:34.000Z</time>
      </trkpt>
      <trkpt lat="47.87373" lon="1.8183">
        <ele>74.07</ele>
        <time>2016-02-28T10:25:36.000Z</time>
      </trkpt>
      <trkpt lat="47.87375" lon="1.81845">
        <ele>74.07</ele>
        <time>2016-02-28T10:25:38.000Z</time>
      </trkpt>
      <trkpt lat="47.87378" lon="1.8186">
        <ele>74.07</ele>
        <time>2016-02-28T10:25:40.000Z</time>
      </trkpt>
      <trkpt lat="47.8738" lon="1.81876">
        <ele>74.07</ele>
        <time>2016-02-28T10:25:42.000Z</time>
      </trkpt>
      <trkpt lat="47.87382" lon="1.81891">
        <ele>74.07</ele>
        <time>2016-02-28T10:25:44.000Z</time>
      </trkpt>
      <trkpt lat="47.87386" lon="1.81913">
        <ele>74.07</ele>
        <time>2016-02-28T10:25:46.000Z</time>
      </trkpt>
      <trkpt lat="47.87387" lon="1.81921">
        <ele>74.07</ele>
        <time>2016-02-28T10:25:48.000Z</time>
      </trkpt>
      <trkpt lat="47.8739" lon="1.81935">
        <ele>74.07</ele>
        <time>2016-02-28T10:25:50.000Z</time>
      </trkpt>
      <trkpt lat="47.87393" lon="1.8195">
        <ele>74.07</ele>
        <time>2016-02-28T10:25:52.000Z</time>
      </trkpt>
      <trkpt lat="47.87396" lon="1.81965">
        <ele>74.07</ele>
        <time>2016-02-28T10:25:54.000Z</time>
      </trkpt>
      <trkpt lat="47.874" lon="1.8198">
        <ele>74.07</ele>
        <time>2016-02-28T10:25:56.000Z</time>
      </trkpt>
      <trkpt lat="47.87404" lon="1.81994">
        <ele>74.07</ele>
        <time>2016-02-28T10:25:58.000Z</time>
      </trkpt>
      <trkpt lat="47.87411" lon="1.82015">
        <ele>74.07</ele>
        <time>2016-02-28T10:26:00.000Z</time>
      </trkpt>
      <trkpt lat="47.87413" lon="1.82022">
        <ele>74.07</ele>
        <time>2016-02-28T10:26:02.000Z</time>
      </trkpt>
      <trkpt lat="47.87419" lon="1.82033">
        <ele>74.07</ele>
        <time>2016-02-28T10:26:04.000Z</time>
      </trkpt>
      <trkpt lat="47.87423" lon="1.82046">
        <ele>74.07</ele>
        <time>2016-02-28T10:26:06.000Z</time>
      </trkpt>
      <trkpt lat="47.87429" lon="1.8206">
        <ele>74.07</ele>
        <time>2016-02-28T10:26:08.000Z</time>
      </trkpt>
      <trkpt lat="47.87436" lon="1.82073">
        <ele>74.07</ele>
        <time>2016-02-28T10:26:10.000Z</time>
      </trkpt>
      <trkpt lat="47.87444" lon="1.82084">
        <ele>74.07</ele>
        <time>2016-02-28T10:26:12.000Z</time>
      </trkpt>
      <trkpt lat="47.87454" lon="1.82101">
        <ele>74.07</ele>
        <time>2016-02-28T10:26:14.000Z</time>
      </trkpt>
      <trkpt lat="47.87458" lon="1.82107">
        <ele>74.07</ele>
        <time>2016-02-28T10:26:16.000Z</time>
      </trkpt>
      <trkpt lat="47.87465" lon="1.82118">
        <ele>74.07</ele>
        <time>2016-02-28T10:26:18.000Z</time>
      </trkpt>
      <trkpt lat="47.87471" lon="1.82131">
        <ele>74.07</ele>
        <time>2016-02-28T10:26:20.000Z</time>
      </trkpt>
      <trkpt lat="47.87478" lon="1.82141">
        <ele>74.07</ele>
        <time>2016-02-28T10:26:22.000Z</time>
      </trkpt>
      <trkpt lat="47.87485" lon="1.82152">
        <ele>74.07</ele>
        <time>2016-02-28T10:26:24.000Z</time>
      </trkpt>
      <trkpt lat="47.87491" lon="1.82163">
        <ele>74.07</ele>
        <time>2016-02-28T10:26:26.000Z</time>
      </trkpt>
      <trkpt lat="47.875" lon="1.8218">
        <ele>74.07</ele>
        <time>2016-02-28T10:26:28.000Z</time>
      </trkpt>
      <trkpt lat="47.87504" lon="1.82186">
        <ele>74.07</ele>
        <time>2016-02-28T10:26:30.000Z</time>
      </trkpt>
      <trkpt lat="47.8751" lon="1.82195">
        <ele>74.07</ele>
        <time>2016-02-28T10:26:32.000Z</time>
      </trkpt>
      <trkpt lat="47.87516" lon="1.82201">
        <ele>74.07</ele>
        <time>2016-02-28T10:26:34.000Z</time>
      </trkpt>
      <trkpt lat="47.87517" lon="1.82206">
        <ele>74.07</ele>
        <time>2016-02-28T10:26:36.000Z</time>
      </trkpt>
      <trkpt lat="47.87516" lon="1.82207">
        <ele>74.07</ele>
        <time>2016-02-28T10:26:38.000Z</time>
      </trkpt>
      <trkpt lat="47.87516" lon="1.82208">
        <ele>74.07</ele>
        <time>2016-02-28T10:26:40.000Z</time>
      </trkpt>
      <trkpt lat="47.87516" lon="1.82209">
        <ele>74.07</ele>
        <time>2016-02-28T10:26:42.000Z</time>
      </trkpt>
      <trkpt lat="47.87516" lon="1.8221">
        <ele>74.07</ele>
        <time>2016-02-28T10:26:44.000Z</time>
      </trkpt>
      <trkpt lat="47.87515" lon="1.82209">
        <ele>74.07</ele>
        <time>2016-02-28T10:26:46.000Z</time>
      </trkpt>
      <trkpt lat="47.87515" lon="1.82209">
        <ele>74.07</ele>
        <time>2016-02-28T10:26:48.000Z</time>
      </trkpt>
      <trkpt lat="47.87514" lon="1.82209">
        <ele>74.07</ele>
        <time>2016-02-28T10:26:50.000Z</time>
      </trkpt>
      <trkpt lat="47.87514" lon="1.8221">
        <ele>74.07</ele>
        <time>2016-02-28T10:26:52.000Z</time>
      </trkpt>
      <trkpt lat="47.87514" lon="1.82209">
        <ele>74.07</ele>
        <time>2016-02-28T10:26:54.000Z</time>
      </trkpt>
      <trkpt lat="47.87513" lon="1.8221">
        <ele>74.07</ele>
        <time>2016-02-28T10:26:56.000Z</time>
      </trkpt>
      <trkpt lat="47.87512" lon="1.82211">
        <ele>74.07</ele>
        <time>2016-02-28T10:26:58.000Z</time>
      </trkpt>
      <trkpt lat="47.87512" lon="1.82212">
        <ele>74.07</ele>
        <time>2016-02-28T10:27:00.000Z</time>
      </trkpt>
      <trkpt lat="47.87511" lon="1.82212">
        <ele>74.07</ele>
        <time>2016-02-28T10:27:02.000Z</time>
      </trkpt>
      <trkpt lat="47.8751" lon="1.82213">
        <ele>74.07</ele>
        <time>2016-02-28T10:27:04.000Z</time>
      </trkpt>
      <trkpt lat="47.8751" lon="1.82213">
        <ele>74.07</ele>
        <time>2016-02-28T10:27:06.000Z</time>
      </trkpt>
      <trkpt lat="47.8751" lon="1.82212">
        <ele>74.07</ele>
        <time>2016-02-28T10:27:08.000Z</time>
      </trkpt>
      <trkpt lat="47.8751" lon="1.82212">
        <ele>74.07</ele>
        <time>2016-02-28T10:27:10.000Z</time>
      </trkpt>
      <trkpt lat="47.8751" lon="1.82212">
        <ele>74.07</ele>
        <time>2016-02-28T10:27:12.000Z</time>
      </trkpt>
      <trkpt lat="47.8751" lon="1.82212">
        <ele>74.07</ele>
        <time>2016-02-28T10:27:14.000Z</time>
      </trkpt>
      <trkpt lat="47.8751" lon="1.82211">
        <ele>74.07</ele>
        <time>2016-02-28T10:27:16.000Z</time>
      </trkpt>
      <trkpt lat="47.87511" lon="1.8221">
        <ele>74.07</ele>
        <time>2016-02-28T10:27:18.000Z</time>
      </trkpt>
      <trkpt lat="47.87511" lon="1.82209">
        <ele>74.07</ele>
        <time>2016-02-28T10:27:20.000Z</time>
      </trkpt>
      <trkpt lat="47.87512" lon="1.82208">
        <ele>74.07</ele>
        <time>2016-02-28T10:27:22.000Z</time>
      </trkpt>
      <trkpt lat="47.87512" lon="1.82208">
        <ele>74.07</ele>
        <time>2016-02-28T10:27:24.000Z</time>
      </trkpt>
      <trkpt lat="47.87512" lon="1.82207">
        <ele>74.07</ele>
        <time>2016-02-28T10:27:26.000Z</time>
      </trkpt>
      <trkpt lat="47.87512" lon="1.82207">
        <ele>74.07</ele>
        <time>2016-02-28T10:27:28.000Z</time>
      </trkpt>
      <trkpt lat="47.87512" lon="1.82206">
        <ele>74.07</ele>
        <time>2016-02-28T10:27:30.000Z</time>
      </trkpt>
      <trkpt lat="47.87512" lon="1.82205">
        <ele>73.15</ele>
        <time>2016-02-28T10:27:32.000Z</time>
      </trkpt>
      <trkpt lat="47.87512" lon="1.82205">
        <ele>73.15</ele>
        <time>2016-02-28T10:27:34.000Z</time>
      </trkpt>
      <trkpt lat="47.87512" lon="1.82205">
        <ele>73.15</ele>
        <time>2016-02-28T10:27:36.000Z</time>
      </trkpt>
      <trkpt lat="47.87512" lon="1.82206">
        <ele>73.15</ele>
        <time>2016-02-28T10:27:38.000Z</time>
      </trkpt>
      <trkpt lat="47.87512" lon="1.82207">
        <ele>73.15</ele>
        <time>2016-02-28T10:27:40.000Z</time>
      </trkpt>
      <trkpt lat="47.87512" lon="1.82207">
        <ele>73.15</ele>
        <time>2016-02-28T10:27:42.000Z</time>
      </trkpt>
      <trkpt lat="47.87512" lon="1.82207">
        <ele>73.15</ele>
        <time>2016-02-28T10:27:44.000Z</time>
      </trkpt>
      <trkpt lat="47.87513" lon="1.82207">
        <ele>73.15</ele>
        <time>2016-02-28T10:27:46.000Z</time>
      </trkpt>
      <trkpt lat="47.87513" lon="1.82208">
        <ele>73.15</ele>
        <time>2016-02-28T10:27:48.000Z</time>
      </trkpt>
      <trkpt lat="47.87512" lon="1.82208">
        <ele>73.15</ele>
        <time>2016-02-28T10:27:50.000Z</time>
      </trkpt>
      <trkpt lat="47.87512" lon="1.82208">
        <ele>73.15</ele>
        <time>2016-02-28T10:27:52.000Z</time>
      </trkpt>
      <trkpt lat="47.87512" lon="1.82208">
        <ele>73.15</ele>
        <time>2016-02-28T10:27:54.000Z</time>
      </trkpt>
      <trkpt lat="47.87512" lon="1.82208">
        <ele>73.15</ele>
        <time>2016-02-28T10:27:56.000Z</time>
      </trkpt>
      <trkpt lat="47.87513" lon="1.82207">
        <ele>73.15</ele>
        <time>2016-02-28T10:27:58.000Z</time>
      </trkpt>
      <trkpt lat="47.87513" lon="1.82206">
        <ele>73.15</ele>
        <time>2016-02-28T10:28:00.000Z</time>
      </trkpt>
      <trkpt lat="47.87514" lon="1.82206">
        <ele>73.15</ele>
        <time>2016-02-28T10:28:02.000Z</time>
      </trkpt>
      <trkpt lat="47.87513" lon="1.82206">
        <ele>73.15</ele>
        <time>2016-02-28T10:28:04.000Z</time>
      </trkpt>
      <trkpt lat="47.87513" lon="1.82206">
        <ele>73.15</ele>
        <time>2016-02-28T10:28:06.000Z</time>
      </trkpt>
      <trkpt lat="47.87513" lon="1.82206">
        <ele>73.15</ele>
        <time>2016-02-28T10:28:08.000Z</time>
      </trkpt>
      <trkpt lat="47.87513" lon="1.82206">
        <ele>73.15</ele>
        <time>2016-02-28T10:28:10.000Z</time>
      </trkpt>
      <trkpt lat="47.87513" lon="1.82206">
        <ele>73.15</ele>
        <time>2016-02-28T10:28:12.000Z</time>
      </trkpt>
      <trkpt lat="47.87513" lon="1.82206">
        <ele>73.15</ele>
        <time>2016-02-28T10:28:14.000Z</time>
      </trkpt>
      <trkpt lat="47.87514" lon="1.82206">
        <ele>73.15</ele>
        <time>2016-02-28T10:28:16.000Z</time>
      </trkpt>
      <trkpt lat="47.87514" lon="1.82207">
        <ele>73.15</ele>
        <time>2016-02-28T10:28:18.000Z</time>
      </trkpt>
      <trkpt lat="47.87514" lon="1.82207">
        <ele>73.15</ele>
        <time>2016-02-28T10:28:20.000Z</time>
      </trkpt>
      <trkpt lat="47.87513" lon="1.82208">
        <ele>73.15</ele>
        <time>2016-02-28T10:28:22.000Z</time>
      </trkpt>
      <trkpt lat="47.87513" lon="1.82208">
        <ele>73.15</ele>
        <time>2016-02-28T10:28:24.000Z</time>
      </trkpt>
      <trkpt lat="47.87512" lon="1.82208">
        <ele>73.15</ele>
        <time>2016-02-28T10:28:26.000Z</time>
      </trkpt>
      <trkpt lat="47.87512" lon="1.82208">
        <ele>73.15</ele>
        <time>2016-02-28T10:28:28.000Z</time>
      </trkpt>
      <trkpt lat="47.87511" lon="1.82208">
        <ele>73.15</ele>
        <time>2016-02-28T10:28:30.000Z</time>
      </trkpt>
      <trkpt lat="47.87511" lon="1.82208">
        <ele>73.15</ele>
        <time>2016-02-28T10:28:32.000Z</time>
      </trkpt>
      <trkpt lat="47.87511" lon="1.82208">
        <ele>73.15</ele>
        <time>2016-02-28T10:28:34.000Z</time>
      </trkpt>
      <trkpt lat="47.8751" lon="1.82208">
        <ele>73.15</ele>
        <time>2016-02-28T10:28:36.000Z</time>
      </trkpt>
      <trkpt lat="47.8751" lon="1.82208">
        <ele>73.15</ele>
        <time>2016-02-28T10:28:38.000Z</time>
      </trkpt>
      <trkpt lat="47.8751" lon="1.82208">
        <ele>73.15</ele>
        <time>2016-02-28T10:28:40.000Z</time>
      </trkpt>
      <trkpt lat="47.8751" lon="1.82208">
        <ele>73.15</ele>
        <time>2016-02-28T10:28:42.000Z</time>
      </trkpt>
      <trkpt lat="47.8751" lon="1.82208">
        <ele>73.15</ele>
        <time>2016-02-28T10:28:44.000Z</time>
      </trkpt>
      <trkpt lat="47.87509" lon="1.82208">
        <ele>73.15</ele>
        <time>2016-02-28T10:28:46.000Z</time>
      </trkpt>
      <trkpt lat="47.87509" lon="1.82208">
        <ele>73.15</ele>
        <time>2016-02-28T10:28:48.000Z</time>
      </trkpt>
      <trkpt lat="47.87509" lon="1.82209">
        <ele>73.15</ele>
        <time>2016-02-28T10:28:50.000Z</time>
      </trkpt>
      <trkpt lat="47.8751" lon="1.8221">
        <ele>73.15</ele>
        <time>2016-02-28T10:28:52.000Z</time>
      </trkpt>
      <trkpt lat="47.8751" lon="1.8221">
        <ele>73.15</ele>
        <time>2016-02-28T10:28:54.000Z</time>
      </trkpt>
      <trkpt lat="47.8751" lon="1.8221">
        <ele>73.15</ele>
        <time>2016-02-28T10:28:56.000Z</time>
      </trkpt>
      <trkpt lat="47.8751" lon="1.8221">
        <ele>73.15</ele>
        <time>2016-02-28T10:28:58.000Z</time>
      </trkpt>
      <trkpt lat="47.8751" lon="1.8221">
        <ele>73.15</ele>
        <time>2016-02-28T10:29:00.000Z</time>
      </trkpt>
      <trkpt lat="47.8751" lon="1.8221">
        <ele>73.15</ele>
        <time>2016-02-28T10:29:02.000Z</time>
      </trkpt>
      <trkpt lat="47.87511" lon="1.8221">
        <ele>73.15</ele>
        <time>2016-02-28T10:29:04.000Z</time>
      </trkpt>
      <trkpt lat="47.87511" lon="1.8221">
        <ele>73.15</ele>
        <time>2016-02-28T10:29:06.000Z</time>
      </trkpt>
      <trkpt lat="47.87511" lon="1.8221">
        <ele>73.15</ele>
        <time>2016-02-28T10:29:08.000Z</time>
      </trkpt>
      <trkpt lat="47.87511" lon="1.8221">
        <ele>73.15</ele>
        <time>2016-02-28T10:29:10.000Z</time>
      </trkpt>
      <trkpt lat="47.87511" lon="1.8221">
        <ele>73.15</ele>
        <time>2016-02-28T10:29:12.000Z</time>
      </trkpt>
      <trkpt lat="47.87512" lon="1.82209">
        <ele>73.15</ele>
        <time>2016-02-28T10:29:14.000Z</time>
      </trkpt>
      <trkpt lat="47.87513" lon="1.82207">
        <ele>73.15</ele>
        <time>2016-02-28T10:29:16.000Z</time>
      </trkpt>
      <trkpt lat="47.87513" lon="1.82207">
        <ele>73.15</ele>
        <time>2016-02-28T10:29:18.000Z</time>
      </trkpt>
      <trkpt lat="47.87514" lon="1.82206">
        <ele>73.15</ele>
        <time>2016-02-28T10:29:20.000Z</time>
      </trkpt>
      <trkpt lat="47.87515" lon="1.82206">
        <ele>73.15</ele>
        <time>2016-02-28T10:29:22.000Z</time>
      </trkpt>
      <trkpt lat="47.87516" lon="1.82206">
        <ele>73.15</ele>
        <time>2016-02-28T10:29:24.000Z</time>
      </trkpt>
      <trkpt lat="47.87517" lon="1.82206">
        <ele>73.15</ele>
        <time>2016-02-28T10:29:26.000Z</time>
      </trkpt>
      <trkpt lat="47.87519" lon="1.82206">
        <ele>73.15</ele>
        <time>2016-02-28T10:29:28.000Z</time>
      </trkpt>
      <trkpt lat="47.8752" lon="1.82205">
        <ele>73.15</ele>
        <time>2016-02-28T10:29:30.000Z</time>
      </trkpt>
      <trkpt lat="47.87521" lon="1.82205">
        <ele>73.15</ele>
        <time>2016-02-28T10:29:32.000Z</time>
      </trkpt>
      <trkpt lat="47.87522" lon="1.82205">
        <ele>73.15</ele>
        <time>2016-02-28T10:29:34.000Z</time>
      </trkpt>
      <trkpt lat="47.87522" lon="1.82206">
        <ele>73.15</ele>
        <time>2016-02-28T10:29:36.000Z</time>
      </trkpt>
      <trkpt lat="47.87522" lon="1.82206">
        <ele>73.15</ele>
        <time>2016-02-28T10:29:38.000Z</time>
      </trkpt>
      <trkpt lat="47.87522" lon="1.82207">
        <ele>73.15</ele>
        <time>2016-02-28T10:29:40.000Z</time>
      </trkpt>
      <trkpt lat="47.87523" lon="1.82207">
        <ele>73.15</ele>
        <time>2016-02-28T10:29:42.000Z</time>
      </trkpt>
      <trkpt lat="47.87523" lon="1.82207">
        <ele>73.15</ele>
        <time>2016-02-28T10:29:44.000Z</time>
      </trkpt>
      <trkpt lat="47.87522" lon="1.82209">
        <ele>73.15</ele>
        <time>2016-02-28T10:29:46.000Z</time>
      </trkpt>
      <trkpt lat="47.87522" lon="1.82209">
        <ele>73.15</ele>
        <time>2016-02-28T10:29:48.000Z</time>
      </trkpt>
      <trkpt lat="47.87522" lon="1.82209">
        <ele>73.15</ele>
        <time>2016-02-28T10:29:50.000Z</time>
      </trkpt>
      <trkpt lat="47.87521" lon="1.82209">
        <ele>73.15</ele>
        <time>2016-02-28T10:29:52.000Z</time>
      </trkpt>
      <trkpt lat="47.8752" lon="1.82209">
        <ele>73.15</ele>
        <time>2016-02-28T10:29:54.000Z</time>
      </trkpt>
      <trkpt lat="47.87519" lon="1.82209">
        <ele>73.15</ele>
        <time>2016-02-28T10:29:56.000Z</time>
      </trkpt>
      <trkpt lat="47.87518" lon="1.82209">
        <ele>73.15</ele>
        <time>2016-02-28T10:29:58.000Z</time>
      </trkpt>
      <trkpt lat="47.87517" lon="1.82209">
        <ele>73.15</ele>
        <time>2016-02-28T10:30:00.000Z</time>
      </trkpt>
      <trkpt lat="47.87516" lon="1.82209">
        <ele>73.15</ele>
        <time>2016-02-28T10:30:02.000Z</time>
      </trkpt>
      <trkpt lat="47.87516" lon="1.82209">
        <ele>73.15</ele>
        <time>2016-02-28T10:30:04.000Z</time>
      </trkpt>
      <trkpt lat="47.87515" lon="1.82209">
        <ele>73.15</ele>
        <time>2016-02-28T10:30:06.000Z</time>
      </trkpt>
      <trkpt lat="47.87515" lon="1.82209">
        <ele>73.15</ele>
        <time>2016-02-28T10:30:08.000Z</time>
      </trkpt>
      <trkpt lat="47.87515" lon="1.82208">
        <ele>73.15</ele>
        <time>2016-02-28T10:30:10.000Z</time>
      </trkpt>
      <trkpt lat="47.87515" lon="1.82208">
        <ele>73.15</ele>
        <time>2016-02-28T10:30:12.000Z</time>
      </trkpt>
      <trkpt lat="47.87514" lon="1.82208">
        <ele>73.15</ele>
        <time>2016-02-28T10:30:14.000Z</time>
      </trkpt>
      <trkpt lat="47.87514" lon="1.82208">
        <ele>73.15</ele>
        <time>2016-02-28T10:30:16.000Z</time>
      </trkpt>
      <trkpt lat="47.87514" lon="1.82207">
        <ele>73.15</ele>
        <time>2016-02-28T10:30:18.000Z</time>
      </trkpt>
      <trkpt lat="47.87514" lon="1.82207">
        <ele>73.15</ele>
        <time>2016-02-28T10:30:20.000Z</time>
      </trkpt>
      <trkpt lat="47.87514" lon="1.82207">
        <ele>73.15</ele>
        <time>2016-02-28T10:30:22.000Z</time>
      </trkpt>
      <trkpt lat="47.87514" lon="1.82207">
        <ele>73.15</ele>
        <time>2016-02-28T10:30:24.000Z</time>
      </trkpt>
      <trkpt lat="47.87515" lon="1.82206">
        <ele>73.15</ele>
        <time>2016-02-28T10:30:26.000Z</time>
      </trkpt>
      <trkpt lat="47.87516" lon="1.82205">
        <ele>73.15</ele>
        <time>2016-02-28T10:30:28.000Z</time>
      </trkpt>
      <trkpt lat="47.87516" lon="1.82205">
        <ele>73.15</ele>
        <time>2016-02-28T10:30:30.000Z</time>
      </trkpt>
      <trkpt lat="47.87515" lon="1.82205">
        <ele>74.07</ele>
        <time>2016-02-28T10:30:32.000Z</time>
      </trkpt>
      <trkpt lat="47.87515" lon="1.82204">
        <ele>74.07</ele>
        <time>2016-02-28T10:30:34.000Z</time>
      </trkpt>
      <trkpt lat="47.87515" lon="1.82204">
        <ele>74.07</ele>
        <time>2016-02-28T10:30:36.000Z</time>
      </trkpt>
      <trkpt lat="47.87515" lon="1.82204">
        <ele>74.07</ele>
        <time>2016-02-28T10:30:38.000Z</time>
      </trkpt>
      <trkpt lat="47.87515" lon="1.82204">
        <ele>74.07</ele>
        <time>2016-02-28T10:30:40.000Z</time>
      </trkpt>
      <trkpt lat="47.87514" lon="1.82205">
        <ele>74.07</ele>
        <time>2016-02-28T10:30:42.000Z</time>
      </trkpt>
      <trkpt lat="47.87514" lon="1.82205">
        <ele>74.07</ele>
        <time>2016-02-28T10:30:44.000Z</time>
      </trkpt>
      <trkpt lat="47.87513" lon="1.82205">
        <ele>74.07</ele>
        <time>2016-02-28T10:30:46.000Z</time>
      </trkpt>
      <trkpt lat="47.87513" lon="1.82205">
        <ele>74.07</ele>
        <time>2016-02-28T10:30:48.000Z</time>
      </trkpt>
      <trkpt lat="47.87514" lon="1.82205">
        <ele>74.07</ele>
        <time>2016-02-28T10:30:50.000Z</time>
      </trkpt>
      <trkpt lat="47.87514" lon="1.82204">
        <ele>74.07</ele>
        <time>2016-02-28T10:30:52.000Z</time>
      </trkpt>
      <trkpt lat="47.87514" lon="1.82204">
        <ele>74.07</ele>
        <time>2016-02-28T10:30:54.000Z</time>
      </trkpt>
      <trkpt lat="47.87515" lon="1.82204">
        <ele>74.07</ele>
        <time>2016-02-28T10:30:56.000Z</time>
      </trkpt>
      <trkpt lat="47.87515" lon="1.82203">
        <ele>74.07</ele>
        <time>2016-02-28T10:30:58.000Z</time>
      </trkpt>
      <trkpt lat="47.87515" lon="1.82203">
        <ele>74.07</ele>
        <time>2016-02-28T10:31:00.000Z</time>
      </trkpt>
      <trkpt lat="47.87515" lon="1.82203">
        <ele>74.07</ele>
        <time>2016-02-28T10:31:02.000Z</time>
      </trkpt>
      <trkpt lat="47.87515" lon="1.82203">
        <ele>74.07</ele>
        <time>2016-02-28T10:31:04.000Z</time>
      </trkpt>
      <trkpt lat="47.87514" lon="1.82203">
        <ele>74.07</ele>
        <time>2016-02-28T10:31:06.000Z</time>
      </trkpt>
      <trkpt lat="47.87514" lon="1.82204">
        <ele>74.07</ele>
        <time>2016-02-28T10:31:08.000Z</time>
      </trkpt>
      <trkpt lat="47.87514" lon="1.82204">
        <ele>74.07</ele>
        <time>2016-02-28T10:31:10.000Z</time>
      </trkpt>
      <trkpt lat="47.87514" lon="1.82204">
        <ele>74.07</ele>
        <time>2016-02-28T10:31:12.000Z</time>
      </trkpt>
      <trkpt lat="47.87513" lon="1.82205">
        <ele>74.07</ele>
        <time>2016-02-28T10:31:14.000Z</time>
      </trkpt>
      <trkpt lat="47.87513" lon="1.82205">
        <ele>74.07</ele>
        <time>2016-02-28T10:31:16.000Z</time>
      </trkpt>
      <trkpt lat="47.87512" lon="1.82205">
        <ele>74.07</ele>
        <time>2016-02-28T10:31:18.000Z</time>
      </trkpt>
      <trkpt lat="47.87512" lon="1.82206">
        <ele>74.07</ele>
        <time>2016-02-28T10:31:20.000Z</time>
      </trkpt>
      <trkpt lat="47.87511" lon="1.82206">
        <ele>74.07</ele>
        <time>2016-02-28T10:31:22.000Z</time>
      </trkpt>
      <trkpt lat="47.87512" lon="1.82206">
        <ele>74.07</ele>
        <time>2016-02-28T10:31:24.000Z</time>
      </trkpt>
      <trkpt lat="47.87511" lon="1.82206">
        <ele>74.07</ele>
        <time>2016-02-28T10:31:26.000Z</time>
      </trkpt>
      <trkpt lat="47.87511" lon="1.82206">
        <ele>74.07</ele>
        <time>2016-02-28T10:31:28.000Z</time>
      </trkpt>
      <trkpt lat="47.87511" lon="1.82206">
        <ele>74.07</ele>
        <time>2016-02-28T10:31:30.000Z</time>
      </trkpt>
      <trkpt lat="47.87511" lon="1.82206">
        <ele>74.07</ele>
        <time>2016-02-28T10:31:32.000Z</time>
      </trkpt>
      <trkpt lat="47.87511" lon="1.82206">
        <ele>74.07</ele>
        <time>2016-02-28T10:31:34.000Z</time>
      </trkpt>
      <trkpt lat="47.87511" lon="1.82205">
        <ele>74.07</ele>
        <time>2016-02-28T10:31:36.000Z</time>
      </trkpt>
      <trkpt lat="47.87511" lon="1.82205">
        <ele>74.07</ele>
        <time>2016-02-28T10:31:38.000Z</time>
      </trkpt>
      <trkpt lat="47.87511" lon="1.82205">
        <ele>74.07</ele>
        <time>2016-02-28T10:31:40.000Z</time>
      </trkpt>
      <trkpt lat="47.87511" lon="1.82205">
        <ele>74.07</ele>
        <time>2016-02-28T10:31:42.000Z</time>
      </trkpt>
      <trkpt lat="47.87511" lon="1.82205">
        <ele>74.07</ele>
        <time>2016-02-28T10:31:44.000Z</time>
      </trkpt>
      <trkpt lat="47.8751" lon="1.82206">
        <ele>74.07</ele>
        <time>2016-02-28T10:31:46.000Z</time>
      </trkpt>
      <trkpt lat="47.8751" lon="1.82207">
        <ele>74.07</ele>
        <time>2016-02-28T10:31:48.000Z</time>
      </trkpt>
      <trkpt lat="47.8751" lon="1.82206">
        <ele>74.07</ele>
        <time>2016-02-28T10:31:50.000Z</time>
      </trkpt>
      <trkpt lat="47.8751" lon="1.82207">
        <ele>74.07</ele>
        <time>2016-02-28T10:31:52.000Z</time>
      </trkpt>
      <trkpt lat="47.87509" lon="1.82208">
        <ele>74.07</ele>
        <time>2016-02-28T10:31:54.000Z</time>
      </trkpt>
      <trkpt lat="47.87508" lon="1.82209">
        <ele>74.07</ele>
        <time>2016-02-28T10:31:56.000Z</time>
      </trkpt>
      <trkpt lat="47.87507" lon="1.82209">
        <ele>74.07</ele>
        <time>2016-02-28T10:31:58.000Z</time>
      </trkpt>
      <trkpt lat="47.87507" lon="1.82209">
        <ele>74.07</ele>
        <time>2016-02-28T10:32:00.000Z</time>
      </trkpt>
      <trkpt lat="47.87507" lon="1.82209">
        <ele>74.07</ele>
        <time>2016-02-28T10:32:02.000Z</time>
      </trkpt>
      <trkpt lat="47.87507" lon="1.82209">
        <ele>74.07</ele>
        <time>2016-02-28T10:32:04.000Z</time>
      </trkpt>
      <trkpt lat="47.87507" lon="1.82208">
        <ele>74.07</ele>
        <time>2016-02-28T10:32:06.000Z</time>
      </trkpt>
      <trkpt lat="47.87507" lon="1.82208">
        <ele>74.07</ele>
        <time>2016-02-28T10:32:08.000Z</time>
      </trkpt>
      <trkpt lat="47.87507" lon="1.82207">
        <ele>74.07</ele>
        <time>2016-02-28T10:32:10.000Z</time>
      </trkpt>
      <trkpt lat="47.87506" lon="1.82208">
        <ele>73.15</ele>
        <time>2016-02-28T10:32:12.000Z</time>
      </trkpt>
      <trkpt lat="47.87506" lon="1.82208">
        <ele>73.15</ele>
        <time>2016-02-28T10:32:14.000Z</time>
      </trkpt>
      <trkpt lat="47.87506" lon="1.82208">
        <ele>73.15</ele>
        <time>2016-02-28T10:32:16.000Z</time>
      </trkpt>
      <trkpt lat="47.87506" lon="1.82208">
        <ele>73.15</ele>
        <time>2016-02-28T10:32:18.000Z</time>
      </trkpt>
      <trkpt lat="47.87506" lon="1.82208">
        <ele>73.15</ele>
        <time>2016-02-28T10:32:20.000Z</time>
      </trkpt>
      <trkpt lat="47.87506" lon="1.82207">
        <ele>73.15</ele>
        <time>2016-02-28T10:32:22.000Z</time>
      </trkpt>
      <trkpt lat="47.87508" lon="1.82206">
        <ele>73.15</ele>
        <time>2016-02-28T10:32:24.000Z</time>
      </trkpt>
      <trkpt lat="47.87508" lon="1.82206">
        <ele>73.15</ele>
        <time>2016-02-28T10:32:26.000Z</time>
      </trkpt>
      <trkpt lat="47.8751" lon="1.82206">
        <ele>73.15</ele>
        <time>2016-02-28T10:32:28.000Z</time>
      </trkpt>
      <trkpt lat="47.8751" lon="1.82207">
        <ele>73.15</ele>
        <time>2016-02-28T10:32:30.000Z</time>
      </trkpt>
      <trkpt lat="47.87511" lon="1.82207">
        <ele>73.15</ele>
        <time>2016-02-28T10:32:32.000Z</time>
      </trkpt>
      <trkpt lat="47.87513" lon="1.82208">
        <ele>73.15</ele>
        <time>2016-02-28T10:32:34.000Z</time>
      </trkpt>
      <trkpt lat="47.87514" lon="1.82208">
        <ele>73.15</ele>
        <time>2016-02-28T10:32:36.000Z</time>
      </trkpt>
      <trkpt lat="47.87515" lon="1.82208">
        <ele>73.15</ele>
        <time>2016-02-28T10:32:38.000Z</time>
      </trkpt>
      <trkpt lat="47.87515" lon="1.82209">
        <ele>73.15</ele>
        <time>2016-02-28T10:32:40.000Z</time>
      </trkpt>
      <trkpt lat="47.87515" lon="1.82209">
        <ele>73.15</ele>
        <time>2016-02-28T10:32:42.000Z</time>
      </trkpt>
      <trkpt lat="47.87515" lon="1.82209">
        <ele>73.15</ele>
        <time>2016-02-28T10:32:44.000Z</time>
      </trkpt>
      <trkpt lat="47.87515" lon="1.8221">
        <ele>73.15</ele>
        <time>2016-02-28T10:32:46.000Z</time>
      </trkpt>
      <trkpt lat="47.87515" lon="1.8221">
        <ele>73.15</ele>
        <time>2016-02-28T10:32:48.000Z</time>
      </trkpt>
      <trkpt lat="47.87515" lon="1.8221">
        <ele>73.15</ele>
        <time>2016-02-28T10:32:50.000Z</time>
      </trkpt>
      <trkpt lat="47.87515" lon="1.8221">
        <ele>73.15</ele>
        <time>2016-02-28T10:32:52.000Z</time>
      </trkpt>
      <trkpt lat="47.87514" lon="1.82211">
        <ele>73.15</ele>
        <time>2016-02-28T10:32:54.000Z</time>
      </trkpt>
      <trkpt lat="47.87513" lon="1.82212">
        <ele>73.15</ele>
        <time>2016-02-28T10:32:56.000Z</time>
      </trkpt>
      <trkpt lat="47.87511" lon="1.82213">
        <ele>73.15</ele>
        <time>2016-02-28T10:32:58.000Z</time>
      </trkpt>
      <trkpt lat="47.8751" lon="1.82214">
        <ele>73.15</ele>
        <time>2016-02-28T10:33:00.000Z</time>
      </trkpt>
      <trkpt lat="47.87509" lon="1.82215">
        <ele>73.15</ele>
        <time>2016-02-28T10:33:02.000Z</time>
      </trkpt>
      <trkpt lat="47.87507" lon="1.82216">
        <ele>73.15</ele>
        <time>2016-02-28T10:33:04.000Z</time>
      </trkpt>
      <trkpt lat="47.87506" lon="1.82217">
        <ele>73.15</ele>
        <time>2016-02-28T10:33:06.000Z</time>
      </trkpt>
      <trkpt lat="47.87508" lon="1.82219">
        <ele>73.15</ele>
        <time>2016-02-28T10:33:08.000Z</time>
      </trkpt>
      <trkpt lat="47.87509" lon="1.82219">
        <ele>73.15</ele>
        <time>2016-02-28T10:33:10.000Z</time>
      </trkpt>
      <trkpt lat="47.87515" lon="1.82223">
        <ele>73.15</ele>
        <time>2016-02-28T10:33:12.000Z</time>
      </trkpt>
      <trkpt lat="47.87524" lon="1.82228">
        <ele>73.15</ele>
        <time>2016-02-28T10:33:14.000Z</time>
      </trkpt>
      <trkpt lat="47.87532" lon="1.82234">
        <ele>73.15</ele>
        <time>2016-02-28T10:33:16.000Z</time>
      </trkpt>
      <trkpt lat="47.8754" lon="1.8224">
        <ele>73.15</ele>
        <time>2016-02-28T10:33:18.000Z</time>
      </trkpt>
      <trkpt lat="47.87549" lon="1.82245">
        <ele>73.15</ele>
        <time>2016-02-28T10:33:20.000Z</time>
      </trkpt>
      <trkpt lat="47.87561" lon="1.82253">
        <ele>73.15</ele>
        <time>2016-02-28T10:33:22.000Z</time>
      </trkpt>
      <trkpt lat="47.87564" lon="1.82256">
        <ele>73.15</ele>
        <time>2016-02-28T10:33:24.000Z</time>
      </trkpt>
      <trkpt lat="47.87571" lon="1.82262">
        <ele>73.15</ele>
        <time>2016-02-28T10:33:26.000Z</time>
      </trkpt>
      <trkpt lat="47.87579" lon="1.82268">
        <ele>73.15</ele>
        <time>2016-02-28T10:33:28.000Z</time>
      </trkpt>
      <trkpt lat="47.87587" lon="1.82275">
        <ele>73.15</ele>
        <time>2016-02-28T10:33:30.000Z</time>
      </trkpt>
      <trkpt lat="47.87594" lon="1.82282">
        <ele>73.15</ele>
        <time>2016-02-28T10:33:32.000Z</time>
      </trkpt>
      <trkpt lat="47.876" lon="1.82289">
        <ele>73.15</ele>
        <time>2016-02-28T10:33:34.000Z</time>
      </trkpt>
      <trkpt lat="47.87605" lon="1.82296">
        <ele>73.15</ele>
        <time>2016-02-28T10:33:36.000Z</time>
      </trkpt>
      <trkpt lat="47.87613" lon="1.82304">
        <ele>73.15</ele>
        <time>2016-02-28T10:33:38.000Z</time>
      </trkpt>
      <trkpt lat="47.87621" lon="1.82312">
        <ele>73.15</ele>
        <time>2016-02-28T10:33:40.000Z</time>
      </trkpt>
      <trkpt lat="47.8763" lon="1.82321">
        <ele>74.07</ele>
        <time>2016-02-28T10:33:42.000Z</time>
      </trkpt>
      <trkpt lat="47.87638" lon="1.82329">
        <ele>74.07</ele>
        <time>2016-02-28T10:33:44.000Z</time>
      </trkpt>
      <trkpt lat="47.87645" lon="1.82337">
        <ele>74.07</ele>
        <time>2016-02-28T10:33:46.000Z</time>
      </trkpt>
      <trkpt lat="47.87651" lon="1.82345">
        <ele>74.07</ele>
        <time>2016-02-28T10:33:48.000Z</time>
      </trkpt>
      <trkpt lat="47.87657" lon="1.82354">
        <ele>74.07</ele>
        <time>2016-02-28T10:33:50.000Z</time>
      </trkpt>
      <trkpt lat="47.87661" lon="1.82372">
        <ele>74.07</ele>
        <time>2016-02-28T10:33:52.000Z</time>
      </trkpt>
      <trkpt lat="47.87661" lon="1.82379">
        <ele>74.07</ele>
        <time>2016-02-28T10:33:54.000Z</time>
      </trkpt>
      <trkpt lat="47.87662" lon="1.82396">
        <ele>74.07</ele>
        <time>2016-02-28T10:33:56.000Z</time>
      </trkpt>
      <trkpt lat="47.8766" lon="1.82415">
        <ele>73.15</ele>
        <time>2016-02-28T10:33:58.000Z</time>
      </trkpt>
      <trkpt lat="47.87658" lon="1.82433">
        <ele>73.15</ele>
        <time>2016-02-28T10:34:00.000Z</time>
      </trkpt>
      <trkpt lat="47.87658" lon="1.82449">
        <ele>71.02</ele>
        <time>2016-02-28T10:34:02.000Z</time>
      </trkpt>
      <trkpt lat="47.8766" lon="1.82464">
        <ele>71.02</ele>
        <time>2016-02-28T10:34:04.000Z</time>
      </trkpt>
      <trkpt lat="47.87664" lon="1.82489">
        <ele>71.02</ele>
        <time>2016-02-28T10:34:06.000Z</time>
      </trkpt>
      <trkpt lat="47.87666" lon="1.82497">
        <ele>71.02</ele>
        <time>2016-02-28T10:34:08.000Z</time>
      </trkpt>
      <trkpt lat="47.87672" lon="1.82511">
        <ele>71.02</ele>
        <time>2016-02-28T10:34:10.000Z</time>
      </trkpt>
      <trkpt lat="47.87678" lon="1.82524">
        <ele>71.02</ele>
        <time>2016-02-28T10:34:12.000Z</time>
      </trkpt>
      <trkpt lat="47.87684" lon="1.82538">
        <ele>71.02</ele>
        <time>2016-02-28T10:34:14.000Z</time>
      </trkpt>
      <trkpt lat="47.87692" lon="1.82558">
        <ele>71.02</ele>
        <time>2016-02-28T10:34:16.000Z</time>
      </trkpt>
      <trkpt lat="47.87698" lon="1.8257">
        <ele>71.02</ele>
        <time>2016-02-28T10:34:18.000Z</time>
      </trkpt>
      <trkpt lat="47.87704" lon="1.82582">
        <ele>71.02</ele>
        <time>2016-02-28T10:34:20.000Z</time>
      </trkpt>
      <trkpt lat="47.87707" lon="1.82588">
        <ele>71.02</ele>
        <time>2016-02-28T10:34:22.000Z</time>
      </trkpt>
      <trkpt lat="47.87713" lon="1.82601">
        <ele>71.02</ele>
        <time>2016-02-28T10:34:24.000Z</time>
      </trkpt>
      <trkpt lat="47.87718" lon="1.82614">
        <ele>71.02</ele>
        <time>2016-02-28T10:34:26.000Z</time>
      </trkpt>
      <trkpt lat="47.87723" lon="1.82627">
        <ele>71.02</ele>
        <time>2016-02-28T10:34:28.000Z</time>
      </trkpt>
      <trkpt lat="47.87726" lon="1.82642">
        <ele>71.02</ele>
        <time>2016-02-28T10:34:30.000Z</time>
      </trkpt>
      <trkpt lat="47.87732" lon="1.82664">
        <ele>71.02</ele>
        <time>2016-02-28T10:34:32.000Z</time>
      </trkpt>
      <trkpt lat="47.87738" lon="1.82677">
        <ele>71.02</ele>
        <time>2016-02-28T10:34:34.000Z</time>
      </trkpt>
      <trkpt lat="47.87741" lon="1.82683">
        <ele>71.02</ele>
        <time>2016-02-28T10:34:36.000Z</time>
      </trkpt>
      <trkpt lat="47.87749" lon="1.82691">
        <ele>71.02</ele>
        <time>2016-02-28T10:34:38.000Z</time>
      </trkpt>
      <trkpt lat="47.87755" lon="1.82703">
        <ele>71.02</ele>
        <time>2016-02-28T10:34:40.000Z</time>
      </trkpt>
      <trkpt lat="47.87761" lon="1.82714">
        <ele>71.02</ele>
        <time>2016-02-28T10:34:42.000Z</time>
      </trkpt>
      <trkpt lat="47.87769" lon="1.82723">
        <ele>71.02</ele>
        <time>2016-02-28T10:34:44.000Z</time>
      </trkpt>
      <trkpt lat="47.87778" lon="1.8274">
        <ele>71.02</ele>
        <time>2016-02-28T10:34:46.000Z</time>
      </trkpt>
      <trkpt lat="47.87782" lon="1.82746">
        <ele>71.02</ele>
        <time>2016-02-28T10:34:48.000Z</time>
      </trkpt>
      <trkpt lat="47.87788" lon="1.8276">
        <ele>71.02</ele>
        <time>2016-02-28T10:34:50.000Z</time>
      </trkpt>
      <trkpt lat="47.87795" lon="1.82773">
        <ele>71.02</ele>
        <time>2016-02-28T10:34:52.000Z</time>
      </trkpt>
      <trkpt lat="47.87803" lon="1.82784">
        <ele>71.02</ele>
        <time>2016-02-28T10:34:54.000Z</time>
      </trkpt>
      <trkpt lat="47.87811" lon="1.82795">
        <ele>71.02</ele>
        <time>2016-02-28T10:34:56.000Z</time>
      </trkpt>
      <trkpt lat="47.87819" lon="1.82805">
        <ele>71.02</ele>
        <time>2016-02-28T10:34:58.000Z</time>
      </trkpt>
      <trkpt lat="47.87826" lon="1.82816">
        <ele>71.02</ele>
        <time>2016-02-28T10:35:00.000Z</time>
      </trkpt>
      <trkpt lat="47.87838" lon="1.82834">
        <ele>71.02</ele>
        <time>2016-02-28T10:35:02.000Z</time>
      </trkpt>
      <trkpt lat="47.87841" lon="1.82841">
        <ele>71.02</ele>
        <time>2016-02-28T10:35:04.000Z</time>
      </trkpt>
      <trkpt lat="47.87849" lon="1.82852">
        <ele>71.02</ele>
        <time>2016-02-28T10:35:06.000Z</time>
      </trkpt>
      <trkpt lat="47.87855" lon="1.82865">
        <ele>71.02</ele>
        <time>2016-02-28T10:35:08.000Z</time>
      </trkpt>
      <trkpt lat="47.87861" lon="1.82878">
        <ele>71.02</ele>
        <time>2016-02-28T10:35:10.000Z</time>
      </trkpt>
      <trkpt lat="47.87867" lon="1.82892">
        <ele>71.02</ele>
        <time>2016-02-28T10:35:12.000Z</time>
      </trkpt>
      <trkpt lat="47.87873" lon="1.82906">
        <ele>71.02</ele>
        <time>2016-02-28T10:35:14.000Z</time>
      </trkpt>
      <trkpt lat="47.87882" lon="1.82925">
        <ele>71.02</ele>
        <time>2016-02-28T10:35:16.000Z</time>
      </trkpt>
      <trkpt lat="47.87885" lon="1.8293">
        <ele>71.02</ele>
        <time>2016-02-28T10:35:18.000Z</time>
      </trkpt>
      <trkpt lat="47.87891" lon="1.82943">
        <ele>71.02</ele>
        <time>2016-02-28T10:35:20.000Z</time>
      </trkpt>
      <trkpt lat="47.87897" lon="1.82954">
        <ele>71.02</ele>
        <time>2016-02-28T10:35:22.000Z</time>
      </trkpt>
      <trkpt lat="47.87902" lon="1.82965">
        <ele>71.02</ele>
        <time>2016-02-28T10:35:24.000Z</time>
      </trkpt>
      <trkpt lat="47.87907" lon="1.82976">
        <ele>71.02</ele>
        <time>2016-02-28T10:35:26.000Z</time>
      </trkpt>
      <trkpt lat="47.87911" lon="1.82988">
        <ele>71.02</ele>
        <time>2016-02-28T10:35:28.000Z</time>
      </trkpt>
      <trkpt lat="47.87917" lon="1.82999">
        <ele>71.02</ele>
        <time>2016-02-28T10:35:30.000Z</time>
      </trkpt>
      <trkpt lat="47.87927" lon="1.83013">
        <ele>71.02</ele>
        <time>2016-02-28T10:35:32.000Z</time>
      </trkpt>
      <trkpt lat="47.8793" lon="1.83018">
        <ele>71.02</ele>
        <time>2016-02-28T10:35:34.000Z</time>
      </trkpt>
      <trkpt lat="47.87936" lon="1.83028">
        <ele>71.02</ele>
        <time>2016-02-28T10:35:36.000Z</time>
      </trkpt>
      <trkpt lat="47.87942" lon="1.83036">
        <ele>71.02</ele>
        <time>2016-02-28T10:35:38.000Z</time>
      </trkpt>
      <trkpt lat="47.87939" lon="1.83047">
        <ele>71.02</ele>
        <time>2016-02-28T10:35:40.000Z</time>
      </trkpt>
      <trkpt lat="47.87935" lon="1.83057">
        <ele>71.02</ele>
        <time>2016-02-28T10:35:42.000Z</time>
      </trkpt>
      <trkpt lat="47.87935" lon="1.83067">
        <ele>71.02</ele>
        <time>2016-02-28T10:35:44.000Z</time>
      </trkpt>
      <trkpt lat="47.87938" lon="1.83085">
        <ele>71.02</ele>
        <time>2016-02-28T10:35:46.000Z</time>
      </trkpt>
      <trkpt lat="47.8794" lon="1.83091">
        <ele>71.02</ele>
        <time>2016-02-28T10:35:48.000Z</time>
      </trkpt>
      <trkpt lat="47.87945" lon="1.83101">
        <ele>71.02</ele>
        <time>2016-02-28T10:35:50.000Z</time>
      </trkpt>
      <trkpt lat="47.87951" lon="1.83111">
        <ele>71.02</ele>
        <time>2016-02-28T10:35:52.000Z</time>
      </trkpt>
      <trkpt lat="47.87958" lon="1.83117">
        <ele>71.02</ele>
        <time>2016-02-28T10:35:54.000Z</time>
      </trkpt>
      <trkpt lat="47.87964" lon="1.83127">
        <ele>71.02</ele>
        <time>2016-02-28T10:35:56.000Z</time>
      </trkpt>
      <trkpt lat="47.87973" lon="1.83141">
        <ele>71.02</ele>
        <time>2016-02-28T10:35:58.000Z</time>
      </trkpt>
      <trkpt lat="47.8798" lon="1.83149">
        <ele>71.02</ele>
        <time>2016-02-28T10:36:00.000Z</time>
      </trkpt>
      <trkpt lat="47.87983" lon="1.83153">
        <ele>71.02</ele>
        <time>2016-02-28T10:36:02.000Z</time>
      </trkpt>
      <trkpt lat="47.87989" lon="1.83162">
        <ele>71.02</ele>
        <time>2016-02-28T10:36:04.000Z</time>
      </trkpt>
      <trkpt lat="47.87996" lon="1.83171">
        <ele>71.02</ele>
        <time>2016-02-28T10:36:06.000Z</time>
      </trkpt>
      <trkpt lat="47.88002" lon="1.83181">
        <ele>71.02</ele>
        <time>2016-02-28T10:36:08.000Z</time>
      </trkpt>
      <trkpt lat="47.88008" lon="1.83191">
        <ele>71.02</ele>
        <time>2016-02-28T10:36:10.000Z</time>
      </trkpt>
      <trkpt lat="47.88014" lon="1.83201">
        <ele>71.02</ele>
        <time>2016-02-28T10:36:12.000Z</time>
      </trkpt>
      <trkpt lat="47.88023" lon="1.83218">
        <ele>71.02</ele>
        <time>2016-02-28T10:36:14.000Z</time>
      </trkpt>
      <trkpt lat="47.88026" lon="1.83224">
        <ele>71.02</ele>
        <time>2016-02-28T10:36:16.000Z</time>
      </trkpt>
      <trkpt lat="47.88032" lon="1.83235">
        <ele>71.02</ele>
        <time>2016-02-28T10:36:18.000Z</time>
      </trkpt>
      <trkpt lat="47.88038" lon="1.83246">
        <ele>71.02</ele>
        <time>2016-02-28T10:36:20.000Z</time>
      </trkpt>
      <trkpt lat="47.88045" lon="1.83253">
        <ele>71.02</ele>
        <time>2016-02-28T10:36:22.000Z</time>
      </trkpt>
      <trkpt lat="47.88053" lon="1.8326">
        <ele>71.02</ele>
        <time>2016-02-28T10:36:24.000Z</time>
      </trkpt>
      <trkpt lat="47.88058" lon="1.83268">
        <ele>71.02</ele>
        <time>2016-02-28T10:36:26.000Z</time>
      </trkpt>
      <trkpt lat="47.88066" lon="1.83284">
        <ele>71.02</ele>
        <time>2016-02-28T10:36:28.000Z</time>
      </trkpt>
      <trkpt lat="47.88069" lon="1.83289">
        <ele>71.02</ele>
        <time>2016-02-28T10:36:30.000Z</time>
      </trkpt>
      <trkpt lat="47.88076" lon="1.833">
        <ele>71.02</ele>
        <time>2016-02-28T10:36:32.000Z</time>
      </trkpt>
      <trkpt lat="47.88082" lon="1.83311">
        <ele>71.02</ele>
        <time>2016-02-28T10:36:34.000Z</time>
      </trkpt>
      <trkpt lat="47.88089" lon="1.83323">
        <ele>71.02</ele>
        <time>2016-02-28T10:36:36.000Z</time>
      </trkpt>
      <trkpt lat="47.88096" lon="1.83334">
        <ele>71.02</ele>
        <time>2016-02-28T10:36:38.000Z</time>
      </trkpt>
      <trkpt lat="47.88103" lon="1.83342">
        <ele>71.02</ele>
        <time>2016-02-28T10:36:40.000Z</time>
      </trkpt>
      <trkpt lat="47.88114" lon="1.83357">
        <ele>71.02</ele>
        <time>2016-02-28T10:36:42.000Z</time>
      </trkpt>
      <trkpt lat="47.88117" lon="1.83363">
        <ele>71.02</ele>
        <time>2016-02-28T10:36:44.000Z</time>
      </trkpt>
      <trkpt lat="47.88123" lon="1.83374">
        <ele>71.02</ele>
        <time>2016-02-28T10:36:46.000Z</time>
      </trkpt>
      <trkpt lat="47.88131" lon="1.83384">
        <ele>71.02</ele>
        <time>2016-02-28T10:36:48.000Z</time>
      </trkpt>
      <trkpt lat="47.88138" lon="1.83393">
        <ele>71.02</ele>
        <time>2016-02-28T10:36:50.000Z</time>
      </trkpt>
      <trkpt lat="47.88145" lon="1.83403">
        <ele>71.02</ele>
        <time>2016-02-28T10:36:52.000Z</time>
      </trkpt>
      <trkpt lat="47.88152" lon="1.83413">
        <ele>71.02</ele>
        <time>2016-02-28T10:36:54.000Z</time>
      </trkpt>
      <trkpt lat="47.88162" lon="1.83431">
        <ele>71.02</ele>
        <time>2016-02-28T10:36:56.000Z</time>
      </trkpt>
      <trkpt lat="47.88166" lon="1.83436">
        <ele>71.02</ele>
        <time>2016-02-28T10:36:58.000Z</time>
      </trkpt>
      <trkpt lat="47.88173" lon="1.83447">
        <ele>71.02</ele>
        <time>2016-02-28T10:37:00.000Z</time>
      </trkpt>
      <trkpt lat="47.88179" lon="1.83458">
        <ele>71.02</ele>
        <time>2016-02-28T10:37:02.000Z</time>
      </trkpt>
      <trkpt lat="47.88185" lon="1.83468">
        <ele>71.02</ele>
        <time>2016-02-28T10:37:04.000Z</time>
      </trkpt>
      <trkpt lat="47.88192" lon="1.83478">
        <ele>71.02</ele>
        <time>2016-02-28T10:37:06.000Z</time>
      </trkpt>
      <trkpt lat="47.88199" lon="1.83488">
        <ele>71.02</ele>
        <time>2016-02-28T10:37:08.000Z</time>
      </trkpt>
      <trkpt lat="47.88206" lon="1.83499">
        <ele>71.02</ele>
        <time>2016-02-28T10:37:10.000Z</time>
      </trkpt>
      <trkpt lat="47.88216" lon="1.83515">
        <ele>71.02</ele>
        <time>2016-02-28T10:37:12.000Z</time>
      </trkpt>
      <trkpt lat="47.88219" lon="1.8352">
        <ele>71.02</ele>
        <time>2016-02-28T10:37:14.000Z</time>
      </trkpt>
      <trkpt lat="47.88226" lon="1.83529">
        <ele>71.02</ele>
        <time>2016-02-28T10:37:16.000Z</time>
      </trkpt>
      <trkpt lat="47.88231" lon="1.83539">
        <ele>71.02</ele>
        <time>2016-02-28T10:37:18.000Z</time>
      </trkpt>
      <trkpt lat="47.88237" lon="1.83551">
        <ele>71.02</ele>
        <time>2016-02-28T10:37:20.000Z</time>
      </trkpt>
      <trkpt lat="47.88245" lon="1.83562">
        <ele>71.02</ele>
        <time>2016-02-28T10:37:22.000Z</time>
      </trkpt>
      <trkpt lat="47.88252" lon="1.83572">
        <ele>71.02</ele>
        <time>2016-02-28T10:37:24.000Z</time>
      </trkpt>
      <trkpt lat="47.88261" lon="1.83589">
        <ele>71.02</ele>
        <time>2016-02-28T10:37:26.000Z</time>
      </trkpt>
      <trkpt lat="47.88264" lon="1.83594">
        <ele>71.02</ele>
        <time>2016-02-28T10:37:28.000Z</time>
      </trkpt>
      <trkpt lat="47.88271" lon="1.83604">
        <ele>71.02</ele>
        <time>2016-02-28T10:37:30.000Z</time>
      </trkpt>
      <trkpt lat="47.88278" lon="1.83615">
        <ele>71.02</ele>
        <time>2016-02-28T10:37:32.000Z</time>
      </trkpt>
      <trkpt lat="47.88284" lon="1.83626">
        <ele>71.02</ele>
        <time>2016-02-28T10:37:34.000Z</time>
      </trkpt>
      <trkpt lat="47.88291" lon="1.83637">
        <ele>71.02</ele>
        <time>2016-02-28T10:37:36.000Z</time>
      </trkpt>
      <trkpt lat="47.88299" lon="1.83648">
        <ele>71.02</ele>
        <time>2016-02-28T10:37:38.000Z</time>
      </trkpt>
      <trkpt lat="47.88311" lon="1.83663">
        <ele>71.02</ele>
        <time>2016-02-28T10:37:40.000Z</time>
      </trkpt>
      <trkpt lat="47.88314" lon="1.83669">
        <ele>71.02</ele>
        <time>2016-02-28T10:37:42.000Z</time>
      </trkpt>
      <trkpt lat="47.8832" lon="1.83681">
        <ele>71.02</ele>
        <time>2016-02-28T10:37:44.000Z</time>
      </trkpt>
      <trkpt lat="47.88324" lon="1.83695">
        <ele>71.02</ele>
        <time>2016-02-28T10:37:46.000Z</time>
      </trkpt>
      <trkpt lat="47.8833" lon="1.83708">
        <ele>71.02</ele>
        <time>2016-02-28T10:37:48.000Z</time>
      </trkpt>
      <trkpt lat="47.88336" lon="1.8372">
        <ele>71.02</ele>
        <time>2016-02-28T10:37:50.000Z</time>
      </trkpt>
      <trkpt lat="47.88343" lon="1.8373">
        <ele>71.02</ele>
        <time>2016-02-28T10:37:52.000Z</time>
      </trkpt>
      <trkpt lat="47.88356" lon="1.83739">
        <ele>71.02</ele>
        <time>2016-02-28T10:37:54.000Z</time>
      </trkpt>
      <trkpt lat="47.8836" lon="1.83741">
        <ele>71.02</ele>
        <time>2016-02-28T10:37:56.000Z</time>
      </trkpt>
      <trkpt lat="47.88363" lon="1.8375">
        <ele>71.02</ele>
        <time>2016-02-28T10:37:58.000Z</time>
      </trkpt>
      <trkpt lat="47.88365" lon="1.83763">
        <ele>71.02</ele>
        <time>2016-02-28T10:38:00.000Z</time>
      </trkpt>
      <trkpt lat="47.8837" lon="1.83772">
        <ele>71.02</ele>
        <time>2016-02-28T10:38:02.000Z</time>
      </trkpt>
      <trkpt lat="47.88379" lon="1.83772">
        <ele>71.02</ele>
        <time>2016-02-28T10:38:04.000Z</time>
      </trkpt>
      <trkpt lat="47.88391" lon="1.83774">
        <ele>71.02</ele>
        <time>2016-02-28T10:38:06.000Z</time>
      </trkpt>
      <trkpt lat="47.884" lon="1.83773">
        <ele>71.02</ele>
        <time>2016-02-28T10:38:08.000Z</time>
      </trkpt>
      <trkpt lat="47.88404" lon="1.83771">
        <ele>71.02</ele>
        <time>2016-02-28T10:38:10.000Z</time>
      </trkpt>
      <trkpt lat="47.88413" lon="1.8377">
        <ele>71.02</ele>
        <time>2016-02-28T10:38:12.000Z</time>
      </trkpt>
      <trkpt lat="47.88423" lon="1.83774">
        <ele>71.02</ele>
        <time>2016-02-28T10:38:14.000Z</time>
      </trkpt>
      <trkpt lat="47.88433" lon="1.83778">
        <ele>71.02</ele>
        <time>2016-02-28T10:38:16.000Z</time>
      </trkpt>
      <trkpt lat="47.88443" lon="1.83782">
        <ele>71.02</ele>
        <time>2016-02-28T10:38:18.000Z</time>
      </trkpt>
      <trkpt lat="47.88453" lon="1.83783">
        <ele>71.02</ele>
        <time>2016-02-28T10:38:20.000Z</time>
      </trkpt>
      <trkpt lat="47.88465" lon="1.83786">
        <ele>71.02</ele>
        <time>2016-02-28T10:38:22.000Z</time>
      </trkpt>
      <trkpt lat="47.88469" lon="1.83788">
        <ele>71.02</ele>
        <time>2016-02-28T10:38:24.000Z</time>
      </trkpt>
      <trkpt lat="47.88475" lon="1.83792">
        <ele>71.02</ele>
        <time>2016-02-28T10:38:26.000Z</time>
      </trkpt>
      <trkpt lat="47.88479" lon="1.83801">
        <ele>73.15</ele>
        <time>2016-02-28T10:38:28.000Z</time>
      </trkpt>
      <trkpt lat="47.88483" lon="1.83811">
        <ele>73.15</ele>
        <time>2016-02-28T10:38:30.000Z</time>
      </trkpt>
      <trkpt lat="47.88486" lon="1.8382">
        <ele>73.15</ele>
        <time>2016-02-28T10:38:32.000Z</time>
      </trkpt>
      <trkpt lat="47.8849" lon="1.83829">
        <ele>73.15</ele>
        <time>2016-02-28T10:38:34.000Z</time>
      </trkpt>
      <trkpt lat="47.88496" lon="1.83843">
        <ele>73.15</ele>
        <time>2016-02-28T10:38:36.000Z</time>
      </trkpt>
      <trkpt lat="47.88498" lon="1.83848">
        <ele>74.07</ele>
        <time>2016-02-28T10:38:38.000Z</time>
      </trkpt>
      <trkpt lat="47.88503" lon="1.83857">
        <ele>74.07</ele>
        <time>2016-02-28T10:38:40.000Z</time>
      </trkpt>
      <trkpt lat="47.88507" lon="1.83867">
        <ele>74.07</ele>
        <time>2016-02-28T10:38:42.000Z</time>
      </trkpt>
      <trkpt lat="47.88511" lon="1.83878">
        <ele>74.07</ele>
        <time>2016-02-28T10:38:44.000Z</time>
      </trkpt>
      <trkpt lat="47.88514" lon="1.83889">
        <ele>74.07</ele>
        <time>2016-02-28T10:38:46.000Z</time>
      </trkpt>
      <trkpt lat="47.88518" lon="1.839">
        <ele>74.07</ele>
        <time>2016-02-28T10:38:48.000Z</time>
      </trkpt>
      <trkpt lat="47.88522" lon="1.83912">
        <ele>74.07</ele>
        <time>2016-02-28T10:38:50.000Z</time>
      </trkpt>
      <trkpt lat="47.88526" lon="1.83923">
        <ele>74.07</ele>
        <time>2016-02-28T10:38:52.000Z</time>
      </trkpt>
      <trkpt lat="47.8853" lon="1.83935">
        <ele>74.07</ele>
        <time>2016-02-28T10:38:54.000Z</time>
      </trkpt>
      <trkpt lat="47.88534" lon="1.83946">
        <ele>74.07</ele>
        <time>2016-02-28T10:38:56.000Z</time>
      </trkpt>
      <trkpt lat="47.88538" lon="1.83958">
        <ele>74.98</ele>
        <time>2016-02-28T10:38:58.000Z</time>
      </trkpt>
      <trkpt lat="47.88542" lon="1.8397">
        <ele>74.98</ele>
        <time>2016-02-28T10:39:00.000Z</time>
      </trkpt>
      <trkpt lat="47.88547" lon="1.83981">
        <ele>74.98</ele>
        <time>2016-02-28T10:39:02.000Z</time>
      </trkpt>
      <trkpt lat="47.88551" lon="1.83992">
        <ele>74.98</ele>
        <time>2016-02-28T10:39:04.000Z</time>
      </trkpt>
      <trkpt lat="47.88558" lon="1.8401">
        <ele>74.98</ele>
        <time>2016-02-28T10:39:06.000Z</time>
      </trkpt>
      <trkpt lat="47.88561" lon="1.84016">
        <ele>74.98</ele>
        <time>2016-02-28T10:39:08.000Z</time>
      </trkpt>
      <trkpt lat="47.88566" lon="1.84027">
        <ele>74.98</ele>
        <time>2016-02-28T10:39:10.000Z</time>
      </trkpt>
      <trkpt lat="47.88571" lon="1.84038">
        <ele>74.98</ele>
        <time>2016-02-28T10:39:12.000Z</time>
      </trkpt>
      <trkpt lat="47.88575" lon="1.84049">
        <ele>75.9</ele>
        <time>2016-02-28T10:39:14.000Z</time>
      </trkpt>
      <trkpt lat="47.88583" lon="1.84065">
        <ele>75.9</ele>
        <time>2016-02-28T10:39:16.000Z</time>
      </trkpt>
      <trkpt lat="47.88586" lon="1.84071">
        <ele>75.9</ele>
        <time>2016-02-28T10:39:18.000Z</time>
      </trkpt>
      <trkpt lat="47.88593" lon="1.84086">
        <ele>75.9</ele>
        <time>2016-02-28T10:39:20.000Z</time>
      </trkpt>
      <trkpt lat="47.88595" lon="1.84092">
        <ele>75.9</ele>
        <time>2016-02-28T10:39:22.000Z</time>
      </trkpt>
      <trkpt lat="47.886" lon="1.84102">
        <ele>78.03</ele>
        <time>2016-02-28T10:39:24.000Z</time>
      </trkpt>
      <trkpt lat="47.88603" lon="1.84113">
        <ele>78.03</ele>
        <time>2016-02-28T10:39:26.000Z</time>
      </trkpt>
      <trkpt lat="47.88606" lon="1.84123">
        <ele>78.94</ele>
        <time>2016-02-28T10:39:28.000Z</time>
      </trkpt>
      <trkpt lat="47.88609" lon="1.84135">
        <ele>78.94</ele>
        <time>2016-02-28T10:39:30.000Z</time>
      </trkpt>
      <trkpt lat="47.88613" lon="1.84148">
        <ele>78.94</ele>
        <time>2016-02-28T10:39:32.000Z</time>
      </trkpt>
      <trkpt lat="47.88618" lon="1.8416">
        <ele>78.94</ele>
        <time>2016-02-28T10:39:34.000Z</time>
      </trkpt>
      <trkpt lat="47.88622" lon="1.84173">
        <ele>78.94</ele>
        <time>2016-02-28T10:39:36.000Z</time>
      </trkpt>
      <trkpt lat="47.88625" lon="1.84185">
        <ele>78.94</ele>
        <time>2016-02-28T10:39:38.000Z</time>
      </trkpt>
      <trkpt lat="47.88629" lon="1.84198">
        <ele>78.94</ele>
        <time>2016-02-28T10:39:40.000Z</time>
      </trkpt>
      <trkpt lat="47.88634" lon="1.84211">
        <ele>78.94</ele>
        <time>2016-02-28T10:39:42.000Z</time>
      </trkpt>
      <trkpt lat="47.88639" lon="1.84222">
        <ele>78.94</ele>
        <time>2016-02-28T10:39:44.000Z</time>
      </trkpt>
      <trkpt lat="47.88646" lon="1.84237">
        <ele>78.94</ele>
        <time>2016-02-28T10:39:46.000Z</time>
      </trkpt>
      <trkpt lat="47.88652" lon="1.84248">
        <ele>78.94</ele>
        <time>2016-02-28T10:39:48.000Z</time>
      </trkpt>
      <trkpt lat="47.88654" lon="1.84253">
        <ele>78.94</ele>
        <time>2016-02-28T10:39:50.000Z</time>
      </trkpt>
      <trkpt lat="47.88659" lon="1.84264">
        <ele>78.94</ele>
        <time>2016-02-28T10:39:52.000Z</time>
      </trkpt>
      <trkpt lat="47.88664" lon="1.84275">
        <ele>78.94</ele>
        <time>2016-02-28T10:39:54.000Z</time>
      </trkpt>
      <trkpt lat="47.88668" lon="1.84286">
        <ele>78.94</ele>
        <time>2016-02-28T10:39:56.000Z</time>
      </trkpt>
      <trkpt lat="47.88673" lon="1.84295">
        <ele>79.86</ele>
        <time>2016-02-28T10:39:58.000Z</time>
      </trkpt>
      <trkpt lat="47.88678" lon="1.84305">
        <ele>79.86</ele>
        <time>2016-02-28T10:40:00.000Z</time>
      </trkpt>
      <trkpt lat="47.88684" lon="1.84318">
        <ele>79.86</ele>
        <time>2016-02-28T10:40:02.000Z</time>
      </trkpt>
      <trkpt lat="47.88686" lon="1.84323">
        <ele>81.08</ele>
        <time>2016-02-28T10:40:04.000Z</time>
      </trkpt>
      <trkpt lat="47.88691" lon="1.84331">
        <ele>81.08</ele>
        <time>2016-02-28T10:40:06.000Z</time>
      </trkpt>
      <trkpt lat="47.88694" lon="1.8434">
        <ele>81.99</ele>
        <time>2016-02-28T10:40:08.000Z</time>
      </trkpt>
      <trkpt lat="47.88698" lon="1.84349">
        <ele>81.99</ele>
        <time>2016-02-28T10:40:10.000Z</time>
      </trkpt>
      <trkpt lat="47.88703" lon="1.84357">
        <ele>81.99</ele>
        <time>2016-02-28T10:40:12.000Z</time>
      </trkpt>
      <trkpt lat="47.88709" lon="1.84364">
        <ele>81.99</ele>
        <time>2016-02-28T10:40:14.000Z</time>
      </trkpt>
      <trkpt lat="47.88718" lon="1.84372">
        <ele>81.99</ele>
        <time>2016-02-28T10:40:16.000Z</time>
      </trkpt>
      <trkpt lat="47.88721" lon="1.84376">
        <ele>82.91</ele>
        <time>2016-02-28T10:40:18.000Z</time>
      </trkpt>
      <trkpt lat="47.88727" lon="1.84383">
        <ele>82.91</ele>
        <time>2016-02-28T10:40:20.000Z</time>
      </trkpt>
      <trkpt lat="47.88733" lon="1.84389">
        <ele>82.91</ele>
        <time>2016-02-28T10:40:22.000Z</time>
      </trkpt>
      <trkpt lat="47.88739" lon="1.84396">
        <ele>82.91</ele>
        <time>2016-02-28T10:40:24.000Z</time>
      </trkpt>
      <trkpt lat="47.88745" lon="1.84403">
        <ele>82.91</ele>
        <time>2016-02-28T10:40:26.000Z</time>
      </trkpt>
      <trkpt lat="47.88751" lon="1.8441">
        <ele>84.12</ele>
        <time>2016-02-28T10:40:28.000Z</time>
      </trkpt>
      <trkpt lat="47.88757" lon="1.84417">
        <ele>84.12</ele>
        <time>2016-02-28T10:40:30.000Z</time>
      </trkpt>
      <trkpt lat="47.88762" lon="1.84424">
        <ele>84.12</ele>
        <time>2016-02-28T10:40:32.000Z</time>
      </trkpt>
      <trkpt lat="47.88768" lon="1.84431">
        <ele>84.12</ele>
        <time>2016-02-28T10:40:34.000Z</time>
      </trkpt>
      <trkpt lat="47.88774" lon="1.84439">
        <ele>84.12</ele>
        <time>2016-02-28T10:40:36.000Z</time>
      </trkpt>
      <trkpt lat="47.88779" lon="1.84448">
        <ele>84.12</ele>
        <time>2016-02-28T10:40:38.000Z</time>
      </trkpt>
      <trkpt lat="47.88785" lon="1.84457">
        <ele>84.12</ele>
        <time>2016-02-28T10:40:40.000Z</time>
      </trkpt>
      <trkpt lat="47.88791" lon="1.84467">
        <ele>84.12</ele>
        <time>2016-02-28T10:40:42.000Z</time>
      </trkpt>
      <trkpt lat="47.88797" lon="1.84477">
        <ele>84.12</ele>
        <time>2016-02-28T10:40:44.000Z</time>
      </trkpt>
      <trkpt lat="47.88806" lon="1.84492">
        <ele>84.12</ele>
        <time>2016-02-28T10:40:46.000Z</time>
      </trkpt>
      <trkpt lat="47.8881" lon="1.84497">
        <ele>84.12</ele>
        <time>2016-02-28T10:40:48.000Z</time>
      </trkpt>
      <trkpt lat="47.88816" lon="1.84507">
        <ele>84.12</ele>
        <time>2016-02-28T10:40:50.000Z</time>
      </trkpt>
      <trkpt lat="47.88824" lon="1.84516">
        <ele>84.12</ele>
        <time>2016-02-28T10:40:52.000Z</time>
      </trkpt>
      <trkpt lat="47.88831" lon="1.84526">
        <ele>84.12</ele>
        <time>2016-02-28T10:40:54.000Z</time>
      </trkpt>
      <trkpt lat="47.88839" lon="1.84535">
        <ele>84.12</ele>
        <time>2016-02-28T10:40:56.000Z</time>
      </trkpt>
      <trkpt lat="47.88846" lon="1.84545">
        <ele>82.91</ele>
        <time>2016-02-28T10:40:58.000Z</time>
      </trkpt>
      <trkpt lat="47.88856" lon="1.84561">
        <ele>82.91</ele>
        <time>2016-02-28T10:41:00.000Z</time>
      </trkpt>
      <trkpt lat="47.8886" lon="1.84566">
        <ele>82.91</ele>
        <time>2016-02-28T10:41:02.000Z</time>
      </trkpt>
      <trkpt lat="47.88867" lon="1.84576">
        <ele>82.91</ele>
        <time>2016-02-28T10:41:04.000Z</time>
      </trkpt>
      <trkpt lat="47.88874" lon="1.84585">
        <ele>82.91</ele>
        <time>2016-02-28T10:41:06.000Z</time>
      </trkpt>
      <trkpt lat="47.88882" lon="1.84595">
        <ele>82.91</ele>
        <time>2016-02-28T10:41:08.000Z</time>
      </trkpt>
      <trkpt lat="47.8889" lon="1.84604">
        <ele>82.91</ele>
        <time>2016-02-28T10:41:10.000Z</time>
      </trkpt>
      <trkpt lat="47.88901" lon="1.8462">
        <ele>82.91</ele>
        <time>2016-02-28T10:41:12.000Z</time>
      </trkpt>
      <trkpt lat="47.88909" lon="1.8463">
        <ele>82.91</ele>
        <time>2016-02-28T10:41:14.000Z</time>
      </trkpt>
      <trkpt lat="47.88913" lon="1.84635">
        <ele>82.91</ele>
        <time>2016-02-28T10:41:16.000Z</time>
      </trkpt>
      <trkpt lat="47.88921" lon="1.84646">
        <ele>82.91</ele>
        <time>2016-02-28T10:41:18.000Z</time>
      </trkpt>
      <trkpt lat="47.88929" lon="1.84657">
        <ele>82.91</ele>
        <time>2016-02-28T10:41:20.000Z</time>
      </trkpt>
      <trkpt lat="47.88936" lon="1.84667">
        <ele>82.91</ele>
        <time>2016-02-28T10:41:22.000Z</time>
      </trkpt>
      <trkpt lat="47.88943" lon="1.84678">
        <ele>82.91</ele>
        <time>2016-02-28T10:41:24.000Z</time>
      </trkpt>
      <trkpt lat="47.88953" lon="1.84694">
        <ele>82.91</ele>
        <time>2016-02-28T10:41:26.000Z</time>
      </trkpt>
      <trkpt lat="47.8896" lon="1.84705">
        <ele>82.91</ele>
        <time>2016-02-28T10:41:28.000Z</time>
      </trkpt>
      <trkpt lat="47.88963" lon="1.8471">
        <ele>82.91</ele>
        <time>2016-02-28T10:41:30.000Z</time>
      </trkpt>
      <trkpt lat="47.8897" lon="1.8472">
        <ele>82.91</ele>
        <time>2016-02-28T10:41:32.000Z</time>
      </trkpt>
      <trkpt lat="47.88977" lon="1.84731">
        <ele>82.91</ele>
        <time>2016-02-28T10:41:34.000Z</time>
      </trkpt>
      <trkpt lat="47.88983" lon="1.84741">
        <ele>82.91</ele>
        <time>2016-02-28T10:41:36.000Z</time>
      </trkpt>
      <trkpt lat="47.8899" lon="1.84752">
        <ele>82.91</ele>
        <time>2016-02-28T10:41:38.000Z</time>
      </trkpt>
      <trkpt lat="47.88999" lon="1.84765">
        <ele>82.91</ele>
        <time>2016-02-28T10:41:40.000Z</time>
      </trkpt>
      <trkpt lat="47.89004" lon="1.84773">
        <ele>82.91</ele>
        <time>2016-02-28T10:41:42.000Z</time>
      </trkpt>
      <trkpt lat="47.89007" lon="1.84777">
        <ele>82.91</ele>
        <time>2016-02-28T10:41:44.000Z</time>
      </trkpt>
      <trkpt lat="47.89009" lon="1.8478">
        <ele>82.91</ele>
        <time>2016-02-28T10:41:46.000Z</time>
      </trkpt>
      <trkpt lat="47.8901" lon="1.84782">
        <ele>82.91</ele>
        <time>2016-02-28T10:41:48.000Z</time>
      </trkpt>
      <trkpt lat="47.89011" lon="1.84785">
        <ele>82.91</ele>
        <time>2016-02-28T10:41:50.000Z</time>
      </trkpt>
      <trkpt lat="47.89013" lon="1.84788">
        <ele>82.91</ele>
        <time>2016-02-28T10:41:52.000Z</time>
      </trkpt>
      <trkpt lat="47.89015" lon="1.84793">
        <ele>82.91</ele>
        <time>2016-02-28T10:41:54.000Z</time>
      </trkpt>
      <trkpt lat="47.89018" lon="1.84799">
        <ele>82.91</ele>
        <time>2016-02-28T10:41:56.000Z</time>
      </trkpt>
      <trkpt lat="47.89022" lon="1.84806">
        <ele>82.91</ele>
        <time>2016-02-28T10:41:58.000Z</time>
      </trkpt>
      <trkpt lat="47.89027" lon="1.84815">
        <ele>82.91</ele>
        <time>2016-02-28T10:42:00.000Z</time>
      </trkpt>
      <trkpt lat="47.89032" lon="1.84823">
        <ele>82.91</ele>
        <time>2016-02-28T10:42:02.000Z</time>
      </trkpt>
      <trkpt lat="47.89037" lon="1.84832">
        <ele>82.91</ele>
        <time>2016-02-28T10:42:04.000Z</time>
      </trkpt>
      <trkpt lat="47.89043" lon="1.84841">
        <ele>82.91</ele>
        <time>2016-02-28T10:42:06.000Z</time>
      </trkpt>
      <trkpt lat="47.8905" lon="1.84851">
        <ele>82.91</ele>
        <time>2016-02-28T10:42:08.000Z</time>
      </trkpt>
      <trkpt lat="47.8906" lon="1.84865">
        <ele>82.91</ele>
        <time>2016-02-28T10:42:10.000Z</time>
      </trkpt>
      <trkpt lat="47.89064" lon="1.84869">
        <ele>82.91</ele>
        <time>2016-02-28T10:42:12.000Z</time>
      </trkpt>
      <trkpt lat="47.89071" lon="1.84878">
        <ele>82.91</ele>
        <time>2016-02-28T10:42:14.000Z</time>
      </trkpt>
      <trkpt lat="47.89078" lon="1.84885">
        <ele>82.91</ele>
        <time>2016-02-28T10:42:16.000Z</time>
      </trkpt>
      <trkpt lat="47.89081" lon="1.84888">
        <ele>82.91</ele>
        <time>2016-02-28T10:42:18.000Z</time>
      </trkpt>
      <trkpt lat="47.89081" lon="1.8489">
        <ele>82.91</ele>
        <time>2016-02-28T10:42:20.000Z</time>
      </trkpt>
      <trkpt lat="47.89082" lon="1.84894">
        <ele>82.91</ele>
        <time>2016-02-28T10:42:22.000Z</time>
      </trkpt>
      <trkpt lat="47.89084" lon="1.84896">
        <ele>82.91</ele>
        <time>2016-02-28T10:42:24.000Z</time>
      </trkpt>
      <trkpt lat="47.89087" lon="1.84903">
        <ele>82.91</ele>
        <time>2016-02-28T10:42:26.000Z</time>
      </trkpt>
      <trkpt lat="47.89088" lon="1.84906">
        <ele>82.91</ele>
        <time>2016-02-28T10:42:28.000Z</time>
      </trkpt>
      <trkpt lat="47.89091" lon="1.84912">
        <ele>82.91</ele>
        <time>2016-02-28T10:42:30.000Z</time>
      </trkpt>
      <trkpt lat="47.89095" lon="1.84919">
        <ele>82.91</ele>
        <time>2016-02-28T10:42:32.000Z</time>
      </trkpt>
      <trkpt lat="47.89098" lon="1.84927">
        <ele>82.91</ele>
        <time>2016-02-28T10:42:34.000Z</time>
      </trkpt>
      <trkpt lat="47.89102" lon="1.84934">
        <ele>82.91</ele>
        <time>2016-02-28T10:42:36.000Z</time>
      </trkpt>
      <trkpt lat="47.89105" lon="1.84944">
        <ele>82.91</ele>
        <time>2016-02-28T10:42:38.000Z</time>
      </trkpt>
      <trkpt lat="47.8911" lon="1.84959">
        <ele>82.91</ele>
        <time>2016-02-28T10:42:40.000Z</time>
      </trkpt>
      <trkpt lat="47.89111" lon="1.84964">
        <ele>82.91</ele>
        <time>2016-02-28T10:42:42.000Z</time>
      </trkpt>
      <trkpt lat="47.89113" lon="1.84974">
        <ele>82.91</ele>
        <time>2016-02-28T10:42:44.000Z</time>
      </trkpt>
      <trkpt lat="47.89116" lon="1.84984">
        <ele>82.91</ele>
        <time>2016-02-28T10:42:46.000Z</time>
      </trkpt>
      <trkpt lat="47.89118" lon="1.84993">
        <ele>82.91</ele>
        <time>2016-02-28T10:42:48.000Z</time>
      </trkpt>
      <trkpt lat="47.89122" lon="1.85003">
        <ele>82.91</ele>
        <time>2016-02-28T10:42:50.000Z</time>
      </trkpt>
      <trkpt lat="47.89125" lon="1.85014">
        <ele>82.91</ele>
        <time>2016-02-28T10:42:52.000Z</time>
      </trkpt>
      <trkpt lat="47.89131" lon="1.85028">
        <ele>82.91</ele>
        <time>2016-02-28T10:42:54.000Z</time>
      </trkpt>
      <trkpt lat="47.89133" lon="1.85033">
        <ele>82.91</ele>
        <time>2016-02-28T10:42:56.000Z</time>
      </trkpt>
      <trkpt lat="47.89137" lon="1.85042">
        <ele>84.12</ele>
        <time>2016-02-28T10:42:58.000Z</time>
      </trkpt>
      <trkpt lat="47.8914" lon="1.85051">
        <ele>84.12</ele>
        <time>2016-02-28T10:43:00.000Z</time>
      </trkpt>
      <trkpt lat="47.89143" lon="1.85061">
        <ele>84.12</ele>
        <time>2016-02-28T10:43:02.000Z</time>
      </trkpt>
      <trkpt lat="47.89148" lon="1.8507">
        <ele>84.12</ele>
        <time>2016-02-28T10:43:04.000Z</time>
      </trkpt>
      <trkpt lat="47.89155" lon="1.85084">
        <ele>84.12</ele>
        <time>2016-02-28T10:43:06.000Z</time>
      </trkpt>
      <trkpt lat="47.89159" lon="1.85094">
        <ele>84.12</ele>
        <time>2016-02-28T10:43:08.000Z</time>
      </trkpt>
      <trkpt lat="47.89162" lon="1.851">
        <ele>84.12</ele>
        <time>2016-02-28T10:43:10.000Z</time>
      </trkpt>
      <trkpt lat="47.89166" lon="1.8511">
        <ele>84.12</ele>
        <time>2016-02-28T10:43:12.000Z</time>
      </trkpt>
      <trkpt lat="47.89171" lon="1.8512">
        <ele>84.12</ele>
        <time>2016-02-28T10:43:14.000Z</time>
      </trkpt>
      <trkpt lat="47.89175" lon="1.8513">
        <ele>84.12</ele>
        <time>2016-02-28T10:43:16.000Z</time>
      </trkpt>
      <trkpt lat="47.89179" lon="1.85139">
        <ele>85.04</ele>
        <time>2016-02-28T10:43:18.000Z</time>
      </trkpt>
      <trkpt lat="47.89184" lon="1.8515">
        <ele>85.04</ele>
        <time>2016-02-28T10:43:20.000Z</time>
      </trkpt>
      <trkpt lat="47.8919" lon="1.85166">
        <ele>85.04</ele>
        <time>2016-02-28T10:43:22.000Z</time>
      </trkpt>
      <trkpt lat="47.89192" lon="1.85171">
        <ele>85.04</ele>
        <time>2016-02-28T10:43:24.000Z</time>
      </trkpt>
      <trkpt lat="47.89197" lon="1.85182">
        <ele>85.04</ele>
        <time>2016-02-28T10:43:26.000Z</time>
      </trkpt>
      <trkpt lat="47.89201" lon="1.85192">
        <ele>85.04</ele>
        <time>2016-02-28T10:43:28.000Z</time>
      </trkpt>
      <trkpt lat="47.89206" lon="1.85201">
        <ele>85.04</ele>
        <time>2016-02-28T10:43:30.000Z</time>
      </trkpt>
      <trkpt lat="47.89211" lon="1.8521">
        <ele>85.04</ele>
        <time>2016-02-28T10:43:32.000Z</time>
      </trkpt>
      <trkpt lat="47.89219" lon="1.85223">
        <ele>85.04</ele>
        <time>2016-02-28T10:43:34.000Z</time>
      </trkpt>
      <trkpt lat="47.89223" lon="1.85233">
        <ele>85.04</ele>
        <time>2016-02-28T10:43:36.000Z</time>
      </trkpt>
      <trkpt lat="47.89225" lon="1.85239">
        <ele>85.95</ele>
        <time>2016-02-28T10:43:38.000Z</time>
      </trkpt>
      <trkpt lat="47.89229" lon="1.85249">
        <ele>85.95</ele>
        <time>2016-02-28T10:43:40.000Z</time>
      </trkpt>
      <trkpt lat="47.89232" lon="1.8526">
        <ele>85.95</ele>
        <time>2016-02-28T10:43:42.000Z</time>
      </trkpt>
      <trkpt lat="47.89236" lon="1.85273">
        <ele>85.95</ele>
        <time>2016-02-28T10:43:44.000Z</time>
      </trkpt>
      <trkpt lat="47.8924" lon="1.85287">
        <ele>85.95</ele>
        <time>2016-02-28T10:43:46.000Z</time>
      </trkpt>
      <trkpt lat="47.89244" lon="1.85303">
        <ele>85.04</ele>
        <time>2016-02-28T10:43:48.000Z</time>
      </trkpt>
      <trkpt lat="47.89253" lon="1.85331">
        <ele>85.04</ele>
        <time>2016-02-28T10:43:50.000Z</time>
      </trkpt>
      <trkpt lat="47.89256" lon="1.8534">
        <ele>85.04</ele>
        <time>2016-02-28T10:43:52.000Z</time>
      </trkpt>
      <trkpt lat="47.89262" lon="1.8536">
        <ele>81.99</ele>
        <time>2016-02-28T10:43:54.000Z</time>
      </trkpt>
      <trkpt lat="47.89267" lon="1.85376">
        <ele>81.99</ele>
        <time>2016-02-28T10:43:56.000Z</time>
      </trkpt>
      <trkpt lat="47.89269" lon="1.85388">
        <ele>79.86</ele>
        <time>2016-02-28T10:43:58.000Z</time>
      </trkpt>
      <trkpt lat="47.89272" lon="1.85398">
        <ele>79.86</ele>
        <time>2016-02-28T10:44:00.000Z</time>
      </trkpt>
      <trkpt lat="47.89276" lon="1.85411">
        <ele>79.86</ele>
        <time>2016-02-28T10:44:02.000Z</time>
      </trkpt>
      <trkpt lat="47.89284" lon="1.85438">
        <ele>78.03</ele>
        <time>2016-02-28T10:44:04.000Z</time>
      </trkpt>
      <trkpt lat="47.89289" lon="1.85459">
        <ele>78.03</ele>
        <time>2016-02-28T10:44:06.000Z</time>
      </trkpt>
      <trkpt lat="47.89292" lon="1.85469">
        <ele>75.9</ele>
        <time>2016-02-28T10:44:08.000Z</time>
      </trkpt>
      <trkpt lat="47.89298" lon="1.85488">
        <ele>75.9</ele>
        <time>2016-02-28T10:44:10.000Z</time>
      </trkpt>
      <trkpt lat="47.89303" lon="1.85507">
        <ele>75.9</ele>
        <time>2016-02-28T10:44:12.000Z</time>
      </trkpt>
      <trkpt lat="47.8931" lon="1.85522">
        <ele>74.98</ele>
        <time>2016-02-28T10:44:14.000Z</time>
      </trkpt>
      <trkpt lat="47.89319" lon="1.85544">
        <ele>74.98</ele>
        <time>2016-02-28T10:44:16.000Z</time>
      </trkpt>
      <trkpt lat="47.89322" lon="1.85551">
        <ele>74.98</ele>
        <time>2016-02-28T10:44:18.000Z</time>
      </trkpt>
      <trkpt lat="47.8933" lon="1.8557">
        <ele>74.98</ele>
        <time>2016-02-28T10:44:20.000Z</time>
      </trkpt>
      <trkpt lat="47.89332" lon="1.85577">
        <ele>74.98</ele>
        <time>2016-02-28T10:44:22.000Z</time>
      </trkpt>
      <trkpt lat="47.89337" lon="1.85587">
        <ele>74.98</ele>
        <time>2016-02-28T10:44:24.000Z</time>
      </trkpt>
      <trkpt lat="47.89341" lon="1.85597">
        <ele>74.98</ele>
        <time>2016-02-28T10:44:26.000Z</time>
      </trkpt>
      <trkpt lat="47.89346" lon="1.85607">
        <ele>77.11</ele>
        <time>2016-02-28T10:44:28.000Z</time>
      </trkpt>
      <trkpt lat="47.8935" lon="1.85617">
        <ele>77.11</ele>
        <time>2016-02-28T10:44:30.000Z</time>
      </trkpt>
      <trkpt lat="47.89354" lon="1.85626">
        <ele>77.11</ele>
        <time>2016-02-28T10:44:32.000Z</time>
      </trkpt>
      <trkpt lat="47.89361" lon="1.85642">
        <ele>78.03</ele>
        <time>2016-02-28T10:44:34.000Z</time>
      </trkpt>
      <trkpt lat="47.89363" lon="1.85647">
        <ele>78.03</ele>
        <time>2016-02-28T10:44:36.000Z</time>
      </trkpt>
      <trkpt lat="47.89367" lon="1.85658">
        <ele>79.86</ele>
        <time>2016-02-28T10:44:38.000Z</time>
      </trkpt>
      <trkpt lat="47.8937" lon="1.8567">
        <ele>79.86</ele>
        <time>2016-02-28T10:44:40.000Z</time>
      </trkpt>
      <trkpt lat="47.89373" lon="1.85682">
        <ele>79.86</ele>
        <time>2016-02-28T10:44:42.000Z</time>
      </trkpt>
      <trkpt lat="47.89377" lon="1.85695">
        <ele>79.86</ele>
        <time>2016-02-28T10:44:44.000Z</time>
      </trkpt>
      <trkpt lat="47.89383" lon="1.85714">
        <ele>79.86</ele>
        <time>2016-02-28T10:44:46.000Z</time>
      </trkpt>
      <trkpt lat="47.89386" lon="1.85727">
        <ele>79.86</ele>
        <time>2016-02-28T10:44:48.000Z</time>
      </trkpt>
      <trkpt lat="47.89388" lon="1.85734">
        <ele>79.86</ele>
        <time>2016-02-28T10:44:50.000Z</time>
      </trkpt>
      <trkpt lat="47.89392" lon="1.85749">
        <ele>79.86</ele>
        <time>2016-02-28T10:44:52.000Z</time>
      </trkpt>
      <trkpt lat="47.89396" lon="1.85765">
        <ele>79.86</ele>
        <time>2016-02-28T10:44:54.000Z</time>
      </trkpt>
      <trkpt lat="47.894" lon="1.8578">
        <ele>79.86</ele>
        <time>2016-02-28T10:44:56.000Z</time>
      </trkpt>
      <trkpt lat="47.89404" lon="1.85795">
        <ele>79.86</ele>
        <time>2016-02-28T10:44:58.000Z</time>
      </trkpt>
      <trkpt lat="47.89407" lon="1.8581">
        <ele>78.03</ele>
        <time>2016-02-28T10:45:00.000Z</time>
      </trkpt>
      <trkpt lat="47.89412" lon="1.85834">
        <ele>78.03</ele>
        <time>2016-02-28T10:45:02.000Z</time>
      </trkpt>
      <trkpt lat="47.89414" lon="1.85842">
        <ele>78.03</ele>
        <time>2016-02-28T10:45:04.000Z</time>
      </trkpt>
      <trkpt lat="47.89418" lon="1.85857">
        <ele>78.03</ele>
        <time>2016-02-28T10:45:06.000Z</time>
      </trkpt>
      <trkpt lat="47.89422" lon="1.85872">
        <ele>78.03</ele>
        <time>2016-02-28T10:45:08.000Z</time>
      </trkpt>
      <trkpt lat="47.89424" lon="1.85887">
        <ele>77.11</ele>
        <time>2016-02-28T10:45:10.000Z</time>
      </trkpt>
      <trkpt lat="47.89427" lon="1.85901">
        <ele>77.11</ele>
        <time>2016-02-28T10:45:12.000Z</time>
      </trkpt>
      <trkpt lat="47.8943" lon="1.85916">
        <ele>77.11</ele>
        <time>2016-02-28T10:45:14.000Z</time>
      </trkpt>
      <trkpt lat="47.89436" lon="1.85934">
        <ele>77.11</ele>
        <time>2016-02-28T10:45:16.000Z</time>
      </trkpt>
      <trkpt lat="47.89437" lon="1.85941">
        <ele>77.11</ele>
        <time>2016-02-28T10:45:18.000Z</time>
      </trkpt>
      <trkpt lat="47.8944" lon="1.85956">
        <ele>78.03</ele>
        <time>2016-02-28T10:45:20.000Z</time>
      </trkpt>
      <trkpt lat="47.89443" lon="1.8597">
        <ele>78.03</ele>
        <time>2016-02-28T10:45:22.000Z</time>
      </trkpt>
      <trkpt lat="47.89445" lon="1.85984">
        <ele>78.03</ele>
        <time>2016-02-28T10:45:24.000Z</time>
      </trkpt>
      <trkpt lat="47.89448" lon="1.85999">
        <ele>78.03</ele>
        <time>2016-02-28T10:45:26.000Z</time>
      </trkpt>
      <trkpt lat="47.89451" lon="1.86014">
        <ele>78.03</ele>
        <time>2016-02-28T10:45:28.000Z</time>
      </trkpt>
      <trkpt lat="47.89454" lon="1.86037">
        <ele>77.11</ele>
        <time>2016-02-28T10:45:30.000Z</time>
      </trkpt>
      <trkpt lat="47.89455" lon="1.86045">
        <ele>77.11</ele>
        <time>2016-02-28T10:45:32.000Z</time>
      </trkpt>
      <trkpt lat="47.89457" lon="1.86061">
        <ele>77.11</ele>
        <time>2016-02-28T10:45:34.000Z</time>
      </trkpt>
      <trkpt lat="47.89459" lon="1.86077">
        <ele>77.11</ele>
        <time>2016-02-28T10:45:36.000Z</time>
      </trkpt>
      <trkpt lat="47.89463" lon="1.86092">
        <ele>77.11</ele>
        <time>2016-02-28T10:45:38.000Z</time>
      </trkpt>
      <trkpt lat="47.89467" lon="1.86106">
        <ele>77.11</ele>
        <time>2016-02-28T10:45:40.000Z</time>
      </trkpt>
      <trkpt lat="47.89471" lon="1.8612">
        <ele>77.11</ele>
        <time>2016-02-28T10:45:42.000Z</time>
      </trkpt>
      <trkpt lat="47.89477" lon="1.86138">
        <ele>77.11</ele>
        <time>2016-02-28T10:45:44.000Z</time>
      </trkpt>
      <trkpt lat="47.8948" lon="1.86146">
        <ele>77.11</ele>
        <time>2016-02-28T10:45:46.000Z</time>
      </trkpt>
      <trkpt lat="47.89482" lon="1.8615">
        <ele>77.11</ele>
        <time>2016-02-28T10:45:48.000Z</time>
      </trkpt>
      <trkpt lat="47.89486" lon="1.86156">
        <ele>77.11</ele>
        <time>2016-02-28T10:45:50.000Z</time>
      </trkpt>
      <trkpt lat="47.89489" lon="1.86165">
        <ele>77.11</ele>
        <time>2016-02-28T10:45:52.000Z</time>
      </trkpt>
      <trkpt lat="47.89494" lon="1.86174">
        <ele>77.11</ele>
        <time>2016-02-28T10:45:54.000Z</time>
      </trkpt>
      <trkpt lat="47.89497" lon="1.8618">
        <ele>77.11</ele>
        <time>2016-02-28T10:45:56.000Z</time>
      </trkpt>
      <trkpt lat="47.89498" lon="1.86183">
        <ele>77.11</ele>
        <time>2016-02-28T10:45:58.000Z</time>
      </trkpt>
      <trkpt lat="47.89501" lon="1.86188">
        <ele>77.11</ele>
        <time>2016-02-28T10:46:00.000Z</time>
      </trkpt>
      <trkpt lat="47.89502" lon="1.86189">
        <ele>77.11</ele>
        <time>2016-02-28T10:46:02.000Z</time>
      </trkpt>
      <trkpt lat="47.89505" lon="1.86195">
        <ele>77.11</ele>
        <time>2016-02-28T10:46:04.000Z</time>
      </trkpt>
      <trkpt lat="47.89508" lon="1.86203">
        <ele>77.11</ele>
        <time>2016-02-28T10:46:06.000Z</time>
      </trkpt>
      <trkpt lat="47.89511" lon="1.86213">
        <ele>75.9</ele>
        <time>2016-02-28T10:46:08.000Z</time>
      </trkpt>
      <trkpt lat="47.89516" lon="1.86223">
        <ele>75.9</ele>
        <time>2016-02-28T10:46:10.000Z</time>
      </trkpt>
      <trkpt lat="47.8952" lon="1.86234">
        <ele>75.9</ele>
        <time>2016-02-28T10:46:12.000Z</time>
      </trkpt>
      <trkpt lat="47.89526" lon="1.86253">
        <ele>74.98</ele>
        <time>2016-02-28T10:46:14.000Z</time>
      </trkpt>
      <trkpt lat="47.89528" lon="1.8626">
        <ele>74.98</ele>
        <time>2016-02-28T10:46:16.000Z</time>
      </trkpt>
      <trkpt lat="47.89532" lon="1.86274">
        <ele>74.98</ele>
        <time>2016-02-28T10:46:18.000Z</time>
      </trkpt>
      <trkpt lat="47.89536" lon="1.86288">
        <ele>74.98</ele>
        <time>2016-02-28T10:46:20.000Z</time>
      </trkpt>
      <trkpt lat="47.89539" lon="1.86302">
        <ele>74.98</ele>
        <time>2016-02-28T10:46:22.000Z</time>
      </trkpt>
      <trkpt lat="47.89543" lon="1.86316">
        <ele>74.98</ele>
        <time>2016-02-28T10:46:24.000Z</time>
      </trkpt>
      <trkpt lat="47.89549" lon="1.86337">
        <ele>74.98</ele>
        <time>2016-02-28T10:46:26.000Z</time>
      </trkpt>
      <trkpt lat="47.89552" lon="1.86352">
        <ele>74.98</ele>
        <time>2016-02-28T10:46:28.000Z</time>
      </trkpt>
      <trkpt lat="47.89554" lon="1.86359">
        <ele>74.07</ele>
        <time>2016-02-28T10:46:30.000Z</time>
      </trkpt>
      <trkpt lat="47.89556" lon="1.86375">
        <ele>74.07</ele>
        <time>2016-02-28T10:46:32.000Z</time>
      </trkpt>
      <trkpt lat="47.89559" lon="1.86388">
        <ele>74.07</ele>
        <time>2016-02-28T10:46:34.000Z</time>
      </trkpt>
      <trkpt lat="47.89559" lon="1.86401">
        <ele>74.07</ele>
        <time>2016-02-28T10:46:36.000Z</time>
      </trkpt>
      <trkpt lat="47.89563" lon="1.86414">
        <ele>74.07</ele>
        <time>2016-02-28T10:46:38.000Z</time>
      </trkpt>
      <trkpt lat="47.8957" lon="1.86431">
        <ele>74.07</ele>
        <time>2016-02-28T10:46:40.000Z</time>
      </trkpt>
      <trkpt lat="47.89572" lon="1.86437">
        <ele>74.07</ele>
        <time>2016-02-28T10:46:42.000Z</time>
      </trkpt>
      <trkpt lat="47.89577" lon="1.86447">
        <ele>74.07</ele>
        <time>2016-02-28T10:46:44.000Z</time>
      </trkpt>
      <trkpt lat="47.8958" lon="1.86459">
        <ele>74.07</ele>
        <time>2016-02-28T10:46:46.000Z</time>
      </trkpt>
      <trkpt lat="47.89583" lon="1.86473">
        <ele>74.07</ele>
        <time>2016-02-28T10:46:48.000Z</time>
      </trkpt>
      <trkpt lat="47.89585" lon="1.86487">
        <ele>74.07</ele>
        <time>2016-02-28T10:46:50.000Z</time>
      </trkpt>
      <trkpt lat="47.89589" lon="1.86502">
        <ele>74.07</ele>
        <time>2016-02-28T10:46:52.000Z</time>
      </trkpt>
      <trkpt lat="47.89591" lon="1.86516">
        <ele>74.07</ele>
        <time>2016-02-28T10:46:54.000Z</time>
      </trkpt>
      <trkpt lat="47.89593" lon="1.86538">
        <ele>74.07</ele>
        <time>2016-02-28T10:46:56.000Z</time>
      </trkpt>
      <trkpt lat="47.89594" lon="1.86545">
        <ele>74.07</ele>
        <time>2016-02-28T10:46:58.000Z</time>
      </trkpt>
      <trkpt lat="47.89596" lon="1.86559">
        <ele>74.07</ele>
        <time>2016-02-28T10:47:00.000Z</time>
      </trkpt>
      <trkpt lat="47.89598" lon="1.86573">
        <ele>74.07</ele>
        <time>2016-02-28T10:47:02.000Z</time>
      </trkpt>
      <trkpt lat="47.896" lon="1.86587">
        <ele>74.07</ele>
        <time>2016-02-28T10:47:04.000Z</time>
      </trkpt>
      <trkpt lat="47.89602" lon="1.86601">
        <ele>74.07</ele>
        <time>2016-02-28T10:47:06.000Z</time>
      </trkpt>
      <trkpt lat="47.89604" lon="1.86616">
        <ele>74.07</ele>
        <time>2016-02-28T10:47:08.000Z</time>
      </trkpt>
      <trkpt lat="47.89606" lon="1.8663">
        <ele>74.07</ele>
        <time>2016-02-28T10:47:10.000Z</time>
      </trkpt>
      <trkpt lat="47.89607" lon="1.86644">
        <ele>74.07</ele>
        <time>2016-02-28T10:47:12.000Z</time>
      </trkpt>
      <trkpt lat="47.89608" lon="1.86658">
        <ele>74.07</ele>
        <time>2016-02-28T10:47:14.000Z</time>
      </trkpt>
      <trkpt lat="47.8961" lon="1.86672">
        <ele>74.07</ele>
        <time>2016-02-28T10:47:16.000Z</time>
      </trkpt>
      <trkpt lat="47.89613" lon="1.86686">
        <ele>74.07</ele>
        <time>2016-02-28T10:47:18.000Z</time>
      </trkpt>
      <trkpt lat="47.89615" lon="1.86701">
        <ele>74.07</ele>
        <time>2016-02-28T10:47:20.000Z</time>
      </trkpt>
      <trkpt lat="47.89615" lon="1.86715">
        <ele>74.07</ele>
        <time>2016-02-28T10:47:22.000Z</time>
      </trkpt>
      <trkpt lat="47.89617" lon="1.86735">
        <ele>75.9</ele>
        <time>2016-02-28T10:47:24.000Z</time>
      </trkpt>
      <trkpt lat="47.89618" lon="1.86741">
        <ele>75.9</ele>
        <time>2016-02-28T10:47:26.000Z</time>
      </trkpt>
      <trkpt lat="47.89619" lon="1.86754">
        <ele>75.9</ele>
        <time>2016-02-28T10:47:28.000Z</time>
      </trkpt>
      <trkpt lat="47.89621" lon="1.86767">
        <ele>77.11</ele>
        <time>2016-02-28T10:47:30.000Z</time>
      </trkpt>
      <trkpt lat="47.89622" lon="1.8678">
        <ele>77.11</ele>
        <time>2016-02-28T10:47:32.000Z</time>
      </trkpt>
      <trkpt lat="47.89623" lon="1.86792">
        <ele>78.03</ele>
        <time>2016-02-28T10:47:34.000Z</time>
      </trkpt>
      <trkpt lat="47.89624" lon="1.86805">
        <ele>78.03</ele>
        <time>2016-02-28T10:47:36.000Z</time>
      </trkpt>
      <trkpt lat="47.89624" lon="1.86818">
        <ele>78.03</ele>
        <time>2016-02-28T10:47:38.000Z</time>
      </trkpt>
      <trkpt lat="47.89627" lon="1.86839">
        <ele>78.94</ele>
        <time>2016-02-28T10:47:40.000Z</time>
      </trkpt>
      <trkpt lat="47.89628" lon="1.86846">
        <ele>78.94</ele>
        <time>2016-02-28T10:47:42.000Z</time>
      </trkpt>
      <trkpt lat="47.89631" lon="1.8686">
        <ele>78.94</ele>
        <time>2016-02-28T10:47:44.000Z</time>
      </trkpt>
      <trkpt lat="47.89633" lon="1.86874">
        <ele>78.94</ele>
        <time>2016-02-28T10:47:46.000Z</time>
      </trkpt>
      <trkpt lat="47.89635" lon="1.86888">
        <ele>78.94</ele>
        <time>2016-02-28T10:47:48.000Z</time>
      </trkpt>
      <trkpt lat="47.89638" lon="1.86903">
        <ele>78.94</ele>
        <time>2016-02-28T10:47:50.000Z</time>
      </trkpt>
      <trkpt lat="47.8964" lon="1.86919">
        <ele>78.94</ele>
        <time>2016-02-28T10:47:52.000Z</time>
      </trkpt>
      <trkpt lat="47.89643" lon="1.86941">
        <ele>78.94</ele>
        <time>2016-02-28T10:47:54.000Z</time>
      </trkpt>
      <trkpt lat="47.89645" lon="1.86949">
        <ele>78.94</ele>
        <time>2016-02-28T10:47:56.000Z</time>
      </trkpt>
      <trkpt lat="47.89648" lon="1.86964">
        <ele>78.94</ele>
        <time>2016-02-28T10:47:58.000Z</time>
      </trkpt>
      <trkpt lat="47.89651" lon="1.86979">
        <ele>78.94</ele>
        <time>2016-02-28T10:48:00.000Z</time>
      </trkpt>
      <trkpt lat="47.89653" lon="1.86995">
        <ele>78.94</ele>
        <time>2016-02-28T10:48:02.000Z</time>
      </trkpt>
      <trkpt lat="47.89655" lon="1.8701">
        <ele>78.94</ele>
        <time>2016-02-28T10:48:04.000Z</time>
      </trkpt>
      <trkpt lat="47.89657" lon="1.87026">
        <ele>78.94</ele>
        <time>2016-02-28T10:48:06.000Z</time>
      </trkpt>
      <trkpt lat="47.89661" lon="1.87049">
        <ele>78.94</ele>
        <time>2016-02-28T10:48:08.000Z</time>
      </trkpt>
      <trkpt lat="47.89662" lon="1.87057">
        <ele>78.94</ele>
        <time>2016-02-28T10:48:10.000Z</time>
      </trkpt>
      <trkpt lat="47.89664" lon="1.87073">
        <ele>78.94</ele>
        <time>2016-02-28T10:48:12.000Z</time>
      </trkpt>
      <trkpt lat="47.89667" lon="1.87088">
        <ele>78.94</ele>
        <time>2016-02-28T10:48:14.000Z</time>
      </trkpt>
      <trkpt lat="47.89671" lon="1.87101">
        <ele>78.94</ele>
        <time>2016-02-28T10:48:16.000Z</time>
      </trkpt>
      <trkpt lat="47.89674" lon="1.87115">
        <ele>78.94</ele>
        <time>2016-02-28T10:48:18.000Z</time>
      </trkpt>
      <trkpt lat="47.89678" lon="1.87129">
        <ele>79.86</ele>
        <time>2016-02-28T10:48:20.000Z</time>
      </trkpt>
      <trkpt lat="47.89683" lon="1.87151">
        <ele>79.86</ele>
        <time>2016-02-28T10:48:22.000Z</time>
      </trkpt>
      <trkpt lat="47.89685" lon="1.87158">
        <ele>79.86</ele>
        <time>2016-02-28T10:48:24.000Z</time>
      </trkpt>
      <trkpt lat="47.89688" lon="1.87173">
        <ele>79.86</ele>
        <time>2016-02-28T10:48:26.000Z</time>
      </trkpt>
      <trkpt lat="47.89691" lon="1.87188">
        <ele>79.86</ele>
        <time>2016-02-28T10:48:28.000Z</time>
      </trkpt>
      <trkpt lat="47.89693" lon="1.87202">
        <ele>79.86</ele>
        <time>2016-02-28T10:48:30.000Z</time>
      </trkpt>
      <trkpt lat="47.89695" lon="1.87217">
        <ele>79.86</ele>
        <time>2016-02-28T10:48:32.000Z</time>
      </trkpt>
      <trkpt lat="47.89699" lon="1.87239">
        <ele>81.08</ele>
        <time>2016-02-28T10:48:34.000Z</time>
      </trkpt>
      <trkpt lat="47.89701" lon="1.87254">
        <ele>81.08</ele>
        <time>2016-02-28T10:48:36.000Z</time>
      </trkpt>
      <trkpt lat="47.89702" lon="1.87262">
        <ele>81.08</ele>
        <time>2016-02-28T10:48:38.000Z</time>
      </trkpt>
      <trkpt lat="47.89707" lon="1.87274">
        <ele>81.08</ele>
        <time>2016-02-28T10:48:40.000Z</time>
      </trkpt>
      <trkpt lat="47.89712" lon="1.87285">
        <ele>81.08</ele>
        <time>2016-02-28T10:48:42.000Z</time>
      </trkpt>
      <trkpt lat="47.89716" lon="1.87297">
        <ele>81.08</ele>
        <time>2016-02-28T10:48:44.000Z</time>
      </trkpt>
      <trkpt lat="47.89719" lon="1.87311">
        <ele>81.08</ele>
        <time>2016-02-28T10:48:46.000Z</time>
      </trkpt>
      <trkpt lat="47.89722" lon="1.87326">
        <ele>81.08</ele>
        <time>2016-02-28T10:48:48.000Z</time>
      </trkpt>
      <trkpt lat="47.89725" lon="1.87349">
        <ele>81.08</ele>
        <time>2016-02-28T10:48:50.000Z</time>
      </trkpt>
      <trkpt lat="47.89726" lon="1.87356">
        <ele>81.08</ele>
        <time>2016-02-28T10:48:52.000Z</time>
      </trkpt>
      <trkpt lat="47.89728" lon="1.87371">
        <ele>81.08</ele>
        <time>2016-02-28T10:48:54.000Z</time>
      </trkpt>
      <trkpt lat="47.89729" lon="1.87386">
        <ele>81.08</ele>
        <time>2016-02-28T10:48:56.000Z</time>
      </trkpt>
      <trkpt lat="47.8973" lon="1.874">
        <ele>81.08</ele>
        <time>2016-02-28T10:48:58.000Z</time>
      </trkpt>
      <trkpt lat="47.89732" lon="1.87415">
        <ele>81.08</ele>
        <time>2016-02-28T10:49:00.000Z</time>
      </trkpt>
      <trkpt lat="47.89734" lon="1.87429">
        <ele>81.08</ele>
        <time>2016-02-28T10:49:02.000Z</time>
      </trkpt>
      <trkpt lat="47.89736" lon="1.87444">
        <ele>81.08</ele>
        <time>2016-02-28T10:49:04.000Z</time>
      </trkpt>
      <trkpt lat="47.89739" lon="1.87459">
        <ele>81.08</ele>
        <time>2016-02-28T10:49:06.000Z</time>
      </trkpt>
      <trkpt lat="47.89741" lon="1.87473">
        <ele>81.08</ele>
        <time>2016-02-28T10:49:08.000Z</time>
      </trkpt>
      <trkpt lat="47.89744" lon="1.87487">
        <ele>79.86</ele>
        <time>2016-02-28T10:49:10.000Z</time>
      </trkpt>
      <trkpt lat="47.89747" lon="1.875">
        <ele>79.86</ele>
        <time>2016-02-28T10:49:12.000Z</time>
      </trkpt>
      <trkpt lat="47.89748" lon="1.87515">
        <ele>79.86</ele>
        <time>2016-02-28T10:49:14.000Z</time>
      </trkpt>
      <trkpt lat="47.89751" lon="1.87536">
        <ele>79.86</ele>
        <time>2016-02-28T10:49:16.000Z</time>
      </trkpt>
      <trkpt lat="47.89753" lon="1.87544">
        <ele>79.86</ele>
        <time>2016-02-28T10:49:18.000Z</time>
      </trkpt>
      <trkpt lat="47.89756" lon="1.87565">
        <ele>79.86</ele>
        <time>2016-02-28T10:49:20.000Z</time>
      </trkpt>
      <trkpt lat="47.89757" lon="1.87571">
        <ele>79.86</ele>
        <time>2016-02-28T10:49:22.000Z</time>
      </trkpt>
      <trkpt lat="47.8976" lon="1.87584">
        <ele>79.86</ele>
        <time>2016-02-28T10:49:24.000Z</time>
      </trkpt>
      <trkpt lat="47.89762" lon="1.87596">
        <ele>79.86</ele>
        <time>2016-02-28T10:49:26.000Z</time>
      </trkpt>
      <trkpt lat="47.89765" lon="1.87608">
        <ele>79.86</ele>
        <time>2016-02-28T10:49:28.000Z</time>
      </trkpt>
      <trkpt lat="47.89768" lon="1.87617">
        <ele>81.08</ele>
        <time>2016-02-28T10:49:30.000Z</time>
      </trkpt>
      <trkpt lat="47.89771" lon="1.87625">
        <ele>81.08</ele>
        <time>2016-02-28T10:49:32.000Z</time>
      </trkpt>
      <trkpt lat="47.89776" lon="1.87634">
        <ele>82.91</ele>
        <time>2016-02-28T10:49:34.000Z</time>
      </trkpt>
      <trkpt lat="47.89778" lon="1.87637">
        <ele>82.91</ele>
        <time>2016-02-28T10:49:36.000Z</time>
      </trkpt>
      <trkpt lat="47.89781" lon="1.8764">
        <ele>82.91</ele>
        <time>2016-02-28T10:49:38.000Z</time>
      </trkpt>
      <trkpt lat="47.89784" lon="1.8764">
        <ele>82.91</ele>
        <time>2016-02-28T10:49:40.000Z</time>
      </trkpt>
      <trkpt lat="47.89787" lon="1.87636">
        <ele>82.91</ele>
        <time>2016-02-28T10:49:42.000Z</time>
      </trkpt>
      <trkpt lat="47.89788" lon="1.87632">
        <ele>84.12</ele>
        <time>2016-02-28T10:49:44.000Z</time>
      </trkpt>
      <trkpt lat="47.89788" lon="1.87627">
        <ele>84.12</ele>
        <time>2016-02-28T10:49:46.000Z</time>
      </trkpt>
      <trkpt lat="47.89789" lon="1.87624">
        <ele>84.12</ele>
        <time>2016-02-28T10:49:48.000Z</time>
      </trkpt>
      <trkpt lat="47.8979" lon="1.87623">
        <ele>84.12</ele>
        <time>2016-02-28T10:49:50.000Z</time>
      </trkpt>
      <trkpt lat="47.8979" lon="1.87622">
        <ele>84.12</ele>
        <time>2016-02-28T10:49:52.000Z</time>
      </trkpt>
      <trkpt lat="47.8979" lon="1.87622">
        <ele>84.12</ele>
        <time>2016-02-28T10:49:54.000Z</time>
      </trkpt>
      <trkpt lat="47.8979" lon="1.87622">
        <ele>84.12</ele>
        <time>2016-02-28T10:49:56.000Z</time>
      </trkpt>
      <trkpt lat="47.89789" lon="1.87621">
        <ele>84.12</ele>
        <time>2016-02-28T10:49:58.000Z</time>
      </trkpt>
      <trkpt lat="47.89788" lon="1.87621">
        <ele>84.12</ele>
        <time>2016-02-28T10:50:00.000Z</time>
      </trkpt>
      <trkpt lat="47.89787" lon="1.87625">
        <ele>84.12</ele>
        <time>2016-02-28T10:50:02.000Z</time>
      </trkpt>
      <trkpt lat="47.89787" lon="1.87627">
        <ele>84.12</ele>
        <time>2016-02-28T10:50:04.000Z</time>
      </trkpt>
      <trkpt lat="47.89788" lon="1.87628">
        <ele>84.12</ele>
        <time>2016-02-28T10:50:06.000Z</time>
      </trkpt>
      <trkpt lat="47.8979" lon="1.87629">
        <ele>84.12</ele>
        <time>2016-02-28T10:50:08.000Z</time>
      </trkpt>
      <trkpt lat="47.89791" lon="1.87628">
        <ele>84.12</ele>
        <time>2016-02-28T10:50:10.000Z</time>
      </trkpt>
      <trkpt lat="47.89792" lon="1.87627">
        <ele>84.12</ele>
        <time>2016-02-28T10:50:12.000Z</time>
      </trkpt>
      <trkpt lat="47.89795" lon="1.87628">
        <ele>84.12</ele>
        <time>2016-02-28T10:50:14.000Z</time>
      </trkpt>
      <trkpt lat="47.89799" lon="1.8763">
        <ele>84.12</ele>
        <time>2016-02-28T10:50:16.000Z</time>
      </trkpt>
      <trkpt lat="47.89799" lon="1.8763">
        <ele>84.12</ele>
        <time>2016-02-28T10:50:18.000Z</time>
      </trkpt>
      <trkpt lat="47.89801" lon="1.8763">
        <ele>85.04</ele>
        <time>2016-02-28T10:50:20.000Z</time>
      </trkpt>
      <trkpt lat="47.89803" lon="1.87629">
        <ele>85.04</ele>
        <time>2016-02-28T10:50:22.000Z</time>
      </trkpt>
      <trkpt lat="47.89804" lon="1.87627">
        <ele>85.04</ele>
        <time>2016-02-28T10:50:24.000Z</time>
      </trkpt>
      <trkpt lat="47.89805" lon="1.87622">
        <ele>85.04</ele>
        <time>2016-02-28T10:50:26.000Z</time>
      </trkpt>
      <trkpt lat="47.89807" lon="1.87619">
        <ele>85.04</ele>
        <time>2016-02-28T10:50:28.000Z</time>
      </trkpt>
      <trkpt lat="47.89815" lon="1.87617">
        <ele>85.04</ele>
        <time>2016-02-28T10:50:30.000Z</time>
      </trkpt>
      <trkpt lat="47.89817" lon="1.87617">
        <ele>85.04</ele>
        <time>2016-02-28T10:50:32.000Z</time>
      </trkpt>
      <trkpt lat="47.89822" lon="1.87616">
        <ele>85.04</ele>
        <time>2016-02-28T10:50:34.000Z</time>
      </trkpt>
      <trkpt lat="47.89826" lon="1.87618">
        <ele>85.04</ele>
        <time>2016-02-28T10:50:36.000Z</time>
      </trkpt>
      <trkpt lat="47.89831" lon="1.87619">
        <ele>85.04</ele>
        <time>2016-02-28T10:50:38.000Z</time>
      </trkpt>
      <trkpt lat="47.89835" lon="1.87618">
        <ele>85.04</ele>
        <time>2016-02-28T10:50:40.000Z</time>
      </trkpt>
      <trkpt lat="47.89838" lon="1.87614">
        <ele>85.04</ele>
        <time>2016-02-28T10:50:42.000Z</time>
      </trkpt>
      <trkpt lat="47.89842" lon="1.87612">
        <ele>85.95</ele>
        <time>2016-02-28T10:50:44.000Z</time>
      </trkpt>
      <trkpt lat="47.89847" lon="1.8761">
        <ele>85.95</ele>
        <time>2016-02-28T10:50:46.000Z</time>
      </trkpt>
      <trkpt lat="47.89851" lon="1.8761">
        <ele>85.95</ele>
        <time>2016-02-28T10:50:48.000Z</time>
      </trkpt>
      <trkpt lat="47.89855" lon="1.87611">
        <ele>85.95</ele>
        <time>2016-02-28T10:50:50.000Z</time>
      </trkpt>
      <trkpt lat="47.8986" lon="1.87612">
        <ele>85.95</ele>
        <time>2016-02-28T10:50:52.000Z</time>
      </trkpt>
      <trkpt lat="47.89865" lon="1.87613">
        <ele>88.09</ele>
        <time>2016-02-28T10:50:54.000Z</time>
      </trkpt>
      <trkpt lat="47.89868" lon="1.87617">
        <ele>88.09</ele>
        <time>2016-02-28T10:50:56.000Z</time>
      </trkpt>
      <trkpt lat="47.89871" lon="1.87622">
        <ele>88.09</ele>
        <time>2016-02-28T10:50:58.000Z</time>
      </trkpt>
      <trkpt lat="47.89874" lon="1.87633">
        <ele>88.09</ele>
        <time>2016-02-28T10:51:00.000Z</time>
      </trkpt>
      <trkpt lat="47.89874" lon="1.87636">
        <ele>88.09</ele>
        <time>2016-02-28T10:51:02.000Z</time>
      </trkpt>
      <trkpt lat="47.89875" lon="1.87643">
        <ele>89</ele>
        <time>2016-02-28T10:51:04.000Z</time>
      </trkpt>
      <trkpt lat="47.89877" lon="1.87646">
        <ele>89</ele>
        <time>2016-02-28T10:51:06.000Z</time>
      </trkpt>
      <trkpt lat="47.89879" lon="1.87646">
        <ele>89</ele>
        <time>2016-02-28T10:51:08.000Z</time>
      </trkpt>
      <trkpt lat="47.8988" lon="1.87646">
        <ele>89</ele>
        <time>2016-02-28T10:51:10.000Z</time>
      </trkpt>
      <trkpt lat="47.8988" lon="1.87646">
        <ele>89</ele>
        <time>2016-02-28T10:51:12.000Z</time>
      </trkpt>
      <trkpt lat="47.8988" lon="1.87646">
        <ele>89</ele>
        <time>2016-02-28T10:51:14.000Z</time>
      </trkpt>
      <trkpt lat="47.8988" lon="1.87646">
        <ele>89</ele>
        <time>2016-02-28T10:51:16.000Z</time>
      </trkpt>
      <trkpt lat="47.8988" lon="1.87646">
        <ele>89</ele>
        <time>2016-02-28T10:51:18.000Z</time>
      </trkpt>
    </trkseg>
  </trk>
</gpx>